<?xml version="1.0" encoding="UTF-8" standalone="no" ?>
<gpx xmlns="http://www.topografix.com/GPX/1/1" xmlns:xsi="http://www.w3.org/2001/XMLSchema-instance" xsi:schemaLocation="http://www.topografix.com/GPX/1/1 http://www.topografix.com/GPX/1/1/gpx.xsd" version="1.1" creator="VisuGPX - https://www.visugpx.com">
  <metadata>
    <name>VTT du mercredi 26 juin 2019 (canicule évitée)</name>
    <desc><![CDATA[Vu que ce mercredi est prévu comme étant le pic caniculaire, Chris st moi avons décidé de partir de Coulevon à 7h30 : formule gagnante ! On est monté à Montcey puis à l'aérodrome, sans soufrir de la chaleur, et la suite n'était plus que de la descente...
A 10h piscine à 27°.]]></desc>
  </metadata>
  <wpt lat="47.64446" lon="6.18301">
    <ele>241.46</ele>
    <name><![CDATA[0000168]]></name>
  </wpt>
  <wpt lat="47.64436" lon="6.18333">
    <ele>228.87</ele>
    <name><![CDATA[0000169]]></name>
  </wpt>
  <trk>
    <name><![CDATA[2019-06-26 07:54]]></name>
    <trkseg>
      <trkpt lat="47.64446" lon="6.18301">
        <ele>241.46</ele>
        <time>2019-06-26T05:54:32Z</time>
      </trkpt>
      <trkpt lat="47.64448" lon="6.18294">
        <ele>240.43</ele>
        <time>2019-06-26T05:54:48Z</time>
      </trkpt>
      <trkpt lat="47.64452" lon="6.18289">
        <ele>240.07</ele>
        <time>2019-06-26T05:54:52Z</time>
      </trkpt>
      <trkpt lat="47.64457" lon="6.18284">
        <ele>239.8</ele>
        <time>2019-06-26T05:54:55Z</time>
      </trkpt>
      <trkpt lat="47.64462" lon="6.18279">
        <ele>239.54</ele>
        <time>2019-06-26T05:54:58Z</time>
      </trkpt>
      <trkpt lat="47.64464" lon="6.18274">
        <ele>239.29</ele>
        <time>2019-06-26T05:55:01Z</time>
      </trkpt>
      <trkpt lat="47.64467" lon="6.18267">
        <ele>238.99</ele>
        <time>2019-06-26T05:55:05Z</time>
      </trkpt>
      <trkpt lat="47.6447" lon="6.1826">
        <ele>238.43</ele>
        <time>2019-06-26T05:55:23Z</time>
      </trkpt>
      <trkpt lat="47.64473" lon="6.18254">
        <ele>238.3</ele>
        <time>2019-06-26T05:55:25Z</time>
      </trkpt>
      <trkpt lat="47.64476" lon="6.18248">
        <ele>238.18</ele>
        <time>2019-06-26T05:55:27Z</time>
      </trkpt>
      <trkpt lat="47.64479" lon="6.18242">
        <ele>238.06</ele>
        <time>2019-06-26T05:55:29Z</time>
      </trkpt>
      <trkpt lat="47.64482" lon="6.18236">
        <ele>237.94</ele>
        <time>2019-06-26T05:55:31Z</time>
      </trkpt>
      <trkpt lat="47.64486" lon="6.1823">
        <ele>237.77</ele>
        <time>2019-06-26T05:55:34Z</time>
      </trkpt>
      <trkpt lat="47.6449" lon="6.18225">
        <ele>237.66</ele>
        <time>2019-06-26T05:55:36Z</time>
      </trkpt>
      <trkpt lat="47.64492" lon="6.18219">
        <ele>237.55</ele>
        <time>2019-06-26T05:55:38Z</time>
      </trkpt>
      <trkpt lat="47.64496" lon="6.18211">
        <ele>237.4</ele>
        <time>2019-06-26T05:55:41Z</time>
      </trkpt>
      <trkpt lat="47.64497" lon="6.18203">
        <ele>237.3</ele>
        <time>2019-06-26T05:55:43Z</time>
      </trkpt>
      <trkpt lat="47.64499" lon="6.18195">
        <ele>236.9</ele>
        <time>2019-06-26T05:55:45Z</time>
      </trkpt>
      <trkpt lat="47.645" lon="6.18184">
        <ele>236.47</ele>
        <time>2019-06-26T05:55:47Z</time>
      </trkpt>
      <trkpt lat="47.645" lon="6.18172">
        <ele>235.89</ele>
        <time>2019-06-26T05:55:49Z</time>
      </trkpt>
      <trkpt lat="47.64498" lon="6.18165">
        <ele>235.67</ele>
        <time>2019-06-26T05:55:50Z</time>
      </trkpt>
      <trkpt lat="47.64496" lon="6.18154">
        <ele>235.33</ele>
        <time>2019-06-26T05:55:52Z</time>
      </trkpt>
      <trkpt lat="47.64495" lon="6.18142">
        <ele>235.25</ele>
        <time>2019-06-26T05:55:54Z</time>
      </trkpt>
      <trkpt lat="47.64496" lon="6.18132">
        <ele>235.22</ele>
        <time>2019-06-26T05:55:56Z</time>
      </trkpt>
      <trkpt lat="47.64497" lon="6.18123">
        <ele>235.2</ele>
        <time>2019-06-26T05:55:58Z</time>
      </trkpt>
      <trkpt lat="47.64498" lon="6.18114">
        <ele>235.17</ele>
        <time>2019-06-26T05:56:00Z</time>
      </trkpt>
      <trkpt lat="47.645" lon="6.18107">
        <ele>235.14</ele>
        <time>2019-06-26T05:56:02Z</time>
      </trkpt>
      <trkpt lat="47.64502" lon="6.18099">
        <ele>235.1</ele>
        <time>2019-06-26T05:56:04Z</time>
      </trkpt>
      <trkpt lat="47.64504" lon="6.18092">
        <ele>235.07</ele>
        <time>2019-06-26T05:56:06Z</time>
      </trkpt>
      <trkpt lat="47.64507" lon="6.18083">
        <ele>235.02</ele>
        <time>2019-06-26T05:56:09Z</time>
      </trkpt>
      <trkpt lat="47.64509" lon="6.18076">
        <ele>234.99</ele>
        <time>2019-06-26T05:56:11Z</time>
      </trkpt>
      <trkpt lat="47.64512" lon="6.18068">
        <ele>234.94</ele>
        <time>2019-06-26T05:56:14Z</time>
      </trkpt>
      <trkpt lat="47.64514" lon="6.1806">
        <ele>234.88</ele>
        <time>2019-06-26T05:56:17Z</time>
      </trkpt>
      <trkpt lat="47.64518" lon="6.18052">
        <ele>234.83</ele>
        <time>2019-06-26T05:56:20Z</time>
      </trkpt>
      <trkpt lat="47.6452" lon="6.18046">
        <ele>234.8</ele>
        <time>2019-06-26T05:56:22Z</time>
      </trkpt>
      <trkpt lat="47.64525" lon="6.18039">
        <ele>234.75</ele>
        <time>2019-06-26T05:56:25Z</time>
      </trkpt>
      <trkpt lat="47.6453" lon="6.18034">
        <ele>234.71</ele>
        <time>2019-06-26T05:56:28Z</time>
      </trkpt>
      <trkpt lat="47.64535" lon="6.18028">
        <ele>234.67</ele>
        <time>2019-06-26T05:56:31Z</time>
      </trkpt>
      <trkpt lat="47.64539" lon="6.1802">
        <ele>234.63</ele>
        <time>2019-06-26T05:56:34Z</time>
      </trkpt>
      <trkpt lat="47.64542" lon="6.18014">
        <ele>234.61</ele>
        <time>2019-06-26T05:56:36Z</time>
      </trkpt>
      <trkpt lat="47.64546" lon="6.18005">
        <ele>234.57</ele>
        <time>2019-06-26T05:56:39Z</time>
      </trkpt>
      <trkpt lat="47.64549" lon="6.17996">
        <ele>234.55</ele>
        <time>2019-06-26T05:56:41Z</time>
      </trkpt>
      <trkpt lat="47.64552" lon="6.17987">
        <ele>234.49</ele>
        <time>2019-06-26T05:56:43Z</time>
      </trkpt>
      <trkpt lat="47.64555" lon="6.17976">
        <ele>234.4</ele>
        <time>2019-06-26T05:56:45Z</time>
      </trkpt>
      <trkpt lat="47.64556" lon="6.17969">
        <ele>234.37</ele>
        <time>2019-06-26T05:56:46Z</time>
      </trkpt>
      <trkpt lat="47.64558" lon="6.17962">
        <ele>234.35</ele>
        <time>2019-06-26T05:56:47Z</time>
      </trkpt>
      <trkpt lat="47.6456" lon="6.17954">
        <ele>234.34</ele>
        <time>2019-06-26T05:56:48Z</time>
      </trkpt>
      <trkpt lat="47.64563" lon="6.17938">
        <ele>234.34</ele>
        <time>2019-06-26T05:56:49Z</time>
      </trkpt>
      <trkpt lat="47.64567" lon="6.17931">
        <ele>234.34</ele>
        <time>2019-06-26T05:56:50Z</time>
      </trkpt>
      <trkpt lat="47.6457" lon="6.17925">
        <ele>234.33</ele>
        <time>2019-06-26T05:56:51Z</time>
      </trkpt>
      <trkpt lat="47.64575" lon="6.1792">
        <ele>234.33</ele>
        <time>2019-06-26T05:56:52Z</time>
      </trkpt>
      <trkpt lat="47.6458" lon="6.17914">
        <ele>234.33</ele>
        <time>2019-06-26T05:56:53Z</time>
      </trkpt>
      <trkpt lat="47.64585" lon="6.17909">
        <ele>234.33</ele>
        <time>2019-06-26T05:56:54Z</time>
      </trkpt>
      <trkpt lat="47.64591" lon="6.17903">
        <ele>234.33</ele>
        <time>2019-06-26T05:56:55Z</time>
      </trkpt>
      <trkpt lat="47.64597" lon="6.17898">
        <ele>234.33</ele>
        <time>2019-06-26T05:56:56Z</time>
      </trkpt>
      <trkpt lat="47.64602" lon="6.17893">
        <ele>234.33</ele>
        <time>2019-06-26T05:56:57Z</time>
      </trkpt>
      <trkpt lat="47.64608" lon="6.17891">
        <ele>234.33</ele>
        <time>2019-06-26T05:56:58Z</time>
      </trkpt>
      <trkpt lat="47.64614" lon="6.17889">
        <ele>234.34</ele>
        <time>2019-06-26T05:56:59Z</time>
      </trkpt>
      <trkpt lat="47.6462" lon="6.17888">
        <ele>234.31</ele>
        <time>2019-06-26T05:57:00Z</time>
      </trkpt>
      <trkpt lat="47.64626" lon="6.17889">
        <ele>234.39</ele>
        <time>2019-06-26T05:57:01Z</time>
      </trkpt>
      <trkpt lat="47.64632" lon="6.1789">
        <ele>234.48</ele>
        <time>2019-06-26T05:57:02Z</time>
      </trkpt>
      <trkpt lat="47.64637" lon="6.17892">
        <ele>234.55</ele>
        <time>2019-06-26T05:57:03Z</time>
      </trkpt>
      <trkpt lat="47.64643" lon="6.17894">
        <ele>234.6</ele>
        <time>2019-06-26T05:57:04Z</time>
      </trkpt>
      <trkpt lat="47.64647" lon="6.17897">
        <ele>234.63</ele>
        <time>2019-06-26T05:57:05Z</time>
      </trkpt>
      <trkpt lat="47.64652" lon="6.179">
        <ele>234.63</ele>
        <time>2019-06-26T05:57:06Z</time>
      </trkpt>
      <trkpt lat="47.6466" lon="6.17906">
        <ele>234.63</ele>
        <time>2019-06-26T05:57:08Z</time>
      </trkpt>
      <trkpt lat="47.64667" lon="6.1791">
        <ele>234.64</ele>
        <time>2019-06-26T05:57:10Z</time>
      </trkpt>
      <trkpt lat="47.64675" lon="6.17915">
        <ele>234.65</ele>
        <time>2019-06-26T05:57:12Z</time>
      </trkpt>
      <trkpt lat="47.64683" lon="6.17922">
        <ele>234.54</ele>
        <time>2019-06-26T05:57:14Z</time>
      </trkpt>
      <trkpt lat="47.64689" lon="6.17929">
        <ele>234.41</ele>
        <time>2019-06-26T05:57:16Z</time>
      </trkpt>
      <trkpt lat="47.64695" lon="6.17938">
        <ele>234.35</ele>
        <time>2019-06-26T05:57:18Z</time>
      </trkpt>
      <trkpt lat="47.647" lon="6.17945">
        <ele>234.33</ele>
        <time>2019-06-26T05:57:20Z</time>
      </trkpt>
      <trkpt lat="47.64705" lon="6.17954">
        <ele>234.31</ele>
        <time>2019-06-26T05:57:22Z</time>
      </trkpt>
      <trkpt lat="47.6471" lon="6.17962">
        <ele>234.26</ele>
        <time>2019-06-26T05:57:24Z</time>
      </trkpt>
      <trkpt lat="47.64715" lon="6.17971">
        <ele>234.16</ele>
        <time>2019-06-26T05:57:26Z</time>
      </trkpt>
      <trkpt lat="47.64719" lon="6.17979">
        <ele>234.13</ele>
        <time>2019-06-26T05:57:28Z</time>
      </trkpt>
      <trkpt lat="47.64724" lon="6.17987">
        <ele>234.06</ele>
        <time>2019-06-26T05:57:30Z</time>
      </trkpt>
      <trkpt lat="47.64729" lon="6.17994">
        <ele>234.02</ele>
        <time>2019-06-26T05:57:32Z</time>
      </trkpt>
      <trkpt lat="47.64734" lon="6.18002">
        <ele>233.96</ele>
        <time>2019-06-26T05:57:34Z</time>
      </trkpt>
      <trkpt lat="47.64739" lon="6.18011">
        <ele>233.9</ele>
        <time>2019-06-26T05:57:36Z</time>
      </trkpt>
      <trkpt lat="47.64745" lon="6.1802">
        <ele>233.9</ele>
        <time>2019-06-26T05:57:38Z</time>
      </trkpt>
      <trkpt lat="47.64751" lon="6.18028">
        <ele>233.92</ele>
        <time>2019-06-26T05:57:40Z</time>
      </trkpt>
      <trkpt lat="47.64757" lon="6.18037">
        <ele>233.96</ele>
        <time>2019-06-26T05:57:42Z</time>
      </trkpt>
      <trkpt lat="47.6476" lon="6.18041">
        <ele>233.99</ele>
        <time>2019-06-26T05:57:43Z</time>
      </trkpt>
      <trkpt lat="47.64767" lon="6.18049">
        <ele>234.06</ele>
        <time>2019-06-26T05:57:45Z</time>
      </trkpt>
      <trkpt lat="47.64775" lon="6.18056">
        <ele>234.15</ele>
        <time>2019-06-26T05:57:47Z</time>
      </trkpt>
      <trkpt lat="47.64783" lon="6.18062">
        <ele>234.25</ele>
        <time>2019-06-26T05:57:49Z</time>
      </trkpt>
      <trkpt lat="47.64791" lon="6.18065">
        <ele>234.36</ele>
        <time>2019-06-26T05:57:51Z</time>
      </trkpt>
      <trkpt lat="47.64799" lon="6.18068">
        <ele>234.49</ele>
        <time>2019-06-26T05:57:53Z</time>
      </trkpt>
      <trkpt lat="47.64807" lon="6.1807">
        <ele>234.61</ele>
        <time>2019-06-26T05:57:55Z</time>
      </trkpt>
      <trkpt lat="47.64814" lon="6.18072">
        <ele>234.7</ele>
        <time>2019-06-26T05:57:57Z</time>
      </trkpt>
      <trkpt lat="47.64822" lon="6.18075">
        <ele>234.76</ele>
        <time>2019-06-26T05:57:59Z</time>
      </trkpt>
      <trkpt lat="47.64829" lon="6.18076">
        <ele>234.77</ele>
        <time>2019-06-26T05:58:01Z</time>
      </trkpt>
      <trkpt lat="47.64834" lon="6.18076">
        <ele>234.77</ele>
        <time>2019-06-26T05:58:03Z</time>
      </trkpt>
      <trkpt lat="47.64839" lon="6.18076">
        <ele>234.78</ele>
        <time>2019-06-26T05:58:05Z</time>
      </trkpt>
      <trkpt lat="47.64844" lon="6.18077">
        <ele>234.78</ele>
        <time>2019-06-26T05:58:07Z</time>
      </trkpt>
      <trkpt lat="47.64851" lon="6.18079">
        <ele>234.78</ele>
        <time>2019-06-26T05:58:09Z</time>
      </trkpt>
      <trkpt lat="47.64857" lon="6.1808">
        <ele>234.77</ele>
        <time>2019-06-26T05:58:11Z</time>
      </trkpt>
      <trkpt lat="47.64862" lon="6.18081">
        <ele>234.74</ele>
        <time>2019-06-26T05:58:12Z</time>
      </trkpt>
      <trkpt lat="47.64866" lon="6.18082">
        <ele>234.69</ele>
        <time>2019-06-26T05:58:13Z</time>
      </trkpt>
      <trkpt lat="47.64871" lon="6.18084">
        <ele>234.64</ele>
        <time>2019-06-26T05:58:14Z</time>
      </trkpt>
      <trkpt lat="47.64875" lon="6.18085">
        <ele>234.6</ele>
        <time>2019-06-26T05:58:15Z</time>
      </trkpt>
      <trkpt lat="47.6488" lon="6.18086">
        <ele>234.56</ele>
        <time>2019-06-26T05:58:16Z</time>
      </trkpt>
      <trkpt lat="47.64889" lon="6.18089">
        <ele>234.5</ele>
        <time>2019-06-26T05:58:18Z</time>
      </trkpt>
      <trkpt lat="47.64894" lon="6.1809">
        <ele>234.48</ele>
        <time>2019-06-26T05:58:19Z</time>
      </trkpt>
      <trkpt lat="47.64903" lon="6.18091">
        <ele>234.44</ele>
        <time>2019-06-26T05:58:21Z</time>
      </trkpt>
      <trkpt lat="47.64912" lon="6.18094">
        <ele>234.44</ele>
        <time>2019-06-26T05:58:23Z</time>
      </trkpt>
      <trkpt lat="47.64918" lon="6.18095">
        <ele>234.48</ele>
        <time>2019-06-26T05:58:24Z</time>
      </trkpt>
      <trkpt lat="47.64923" lon="6.18097">
        <ele>234.55</ele>
        <time>2019-06-26T05:58:25Z</time>
      </trkpt>
      <trkpt lat="47.64927" lon="6.18098">
        <ele>234.65</ele>
        <time>2019-06-26T05:58:26Z</time>
      </trkpt>
      <trkpt lat="47.64932" lon="6.181">
        <ele>234.74</ele>
        <time>2019-06-26T05:58:27Z</time>
      </trkpt>
      <trkpt lat="47.64937" lon="6.18101">
        <ele>234.83</ele>
        <time>2019-06-26T05:58:28Z</time>
      </trkpt>
      <trkpt lat="47.64941" lon="6.18102">
        <ele>234.91</ele>
        <time>2019-06-26T05:58:29Z</time>
      </trkpt>
      <trkpt lat="47.64946" lon="6.18103">
        <ele>234.98</ele>
        <time>2019-06-26T05:58:30Z</time>
      </trkpt>
      <trkpt lat="47.64953" lon="6.18104">
        <ele>235.17</ele>
        <time>2019-06-26T05:58:32Z</time>
      </trkpt>
      <trkpt lat="47.64961" lon="6.18102">
        <ele>235.4</ele>
        <time>2019-06-26T05:58:34Z</time>
      </trkpt>
      <trkpt lat="47.64966" lon="6.18102">
        <ele>235.51</ele>
        <time>2019-06-26T05:58:35Z</time>
      </trkpt>
      <trkpt lat="47.64971" lon="6.18102">
        <ele>235.6</ele>
        <time>2019-06-26T05:58:36Z</time>
      </trkpt>
      <trkpt lat="47.6498" lon="6.181">
        <ele>235.78</ele>
        <time>2019-06-26T05:58:38Z</time>
      </trkpt>
      <trkpt lat="47.64985" lon="6.181">
        <ele>235.86</ele>
        <time>2019-06-26T05:58:39Z</time>
      </trkpt>
      <trkpt lat="47.6499" lon="6.18099">
        <ele>235.92</ele>
        <time>2019-06-26T05:58:40Z</time>
      </trkpt>
      <trkpt lat="47.64995" lon="6.181">
        <ele>235.96</ele>
        <time>2019-06-26T05:58:41Z</time>
      </trkpt>
      <trkpt lat="47.65" lon="6.18099">
        <ele>236</ele>
        <time>2019-06-26T05:58:42Z</time>
      </trkpt>
      <trkpt lat="47.65004" lon="6.18099">
        <ele>236.02</ele>
        <time>2019-06-26T05:58:43Z</time>
      </trkpt>
      <trkpt lat="47.65009" lon="6.18099">
        <ele>236.04</ele>
        <time>2019-06-26T05:58:44Z</time>
      </trkpt>
      <trkpt lat="47.65014" lon="6.18099">
        <ele>236.05</ele>
        <time>2019-06-26T05:58:45Z</time>
      </trkpt>
      <trkpt lat="47.65018" lon="6.18099">
        <ele>236.05</ele>
        <time>2019-06-26T05:58:46Z</time>
      </trkpt>
      <trkpt lat="47.65023" lon="6.18099">
        <ele>236.05</ele>
        <time>2019-06-26T05:58:47Z</time>
      </trkpt>
      <trkpt lat="47.65027" lon="6.18099">
        <ele>236.05</ele>
        <time>2019-06-26T05:58:48Z</time>
      </trkpt>
      <trkpt lat="47.65032" lon="6.18099">
        <ele>236.05</ele>
        <time>2019-06-26T05:58:49Z</time>
      </trkpt>
      <trkpt lat="47.65041" lon="6.18099">
        <ele>236.03</ele>
        <time>2019-06-26T05:58:51Z</time>
      </trkpt>
      <trkpt lat="47.65049" lon="6.18099">
        <ele>236.01</ele>
        <time>2019-06-26T05:58:53Z</time>
      </trkpt>
      <trkpt lat="47.65057" lon="6.18101">
        <ele>236</ele>
        <time>2019-06-26T05:58:55Z</time>
      </trkpt>
      <trkpt lat="47.65065" lon="6.18102">
        <ele>236</ele>
        <time>2019-06-26T05:58:57Z</time>
      </trkpt>
      <trkpt lat="47.65072" lon="6.18103">
        <ele>236.03</ele>
        <time>2019-06-26T05:58:59Z</time>
      </trkpt>
      <trkpt lat="47.65079" lon="6.18106">
        <ele>236.1</ele>
        <time>2019-06-26T05:59:01Z</time>
      </trkpt>
      <trkpt lat="47.65088" lon="6.18106">
        <ele>236.2</ele>
        <time>2019-06-26T05:59:03Z</time>
      </trkpt>
      <trkpt lat="47.65096" lon="6.18107">
        <ele>236.27</ele>
        <time>2019-06-26T05:59:05Z</time>
      </trkpt>
      <trkpt lat="47.65104" lon="6.18106">
        <ele>236.32</ele>
        <time>2019-06-26T05:59:07Z</time>
      </trkpt>
      <trkpt lat="47.65113" lon="6.18103">
        <ele>236.33</ele>
        <time>2019-06-26T05:59:09Z</time>
      </trkpt>
      <trkpt lat="47.65121" lon="6.181">
        <ele>236.32</ele>
        <time>2019-06-26T05:59:11Z</time>
      </trkpt>
      <trkpt lat="47.65129" lon="6.18096">
        <ele>236.32</ele>
        <time>2019-06-26T05:59:13Z</time>
      </trkpt>
      <trkpt lat="47.65137" lon="6.1809">
        <ele>236.34</ele>
        <time>2019-06-26T05:59:15Z</time>
      </trkpt>
      <trkpt lat="47.65141" lon="6.18087">
        <ele>236.36</ele>
        <time>2019-06-26T05:59:16Z</time>
      </trkpt>
      <trkpt lat="47.65145" lon="6.18084">
        <ele>236.38</ele>
        <time>2019-06-26T05:59:17Z</time>
      </trkpt>
      <trkpt lat="47.65153" lon="6.18076">
        <ele>236.39</ele>
        <time>2019-06-26T05:59:19Z</time>
      </trkpt>
      <trkpt lat="47.6516" lon="6.18068">
        <ele>236.39</ele>
        <time>2019-06-26T05:59:21Z</time>
      </trkpt>
      <trkpt lat="47.65166" lon="6.18059">
        <ele>236.37</ele>
        <time>2019-06-26T05:59:23Z</time>
      </trkpt>
      <trkpt lat="47.65172" lon="6.1805">
        <ele>236.36</ele>
        <time>2019-06-26T05:59:25Z</time>
      </trkpt>
      <trkpt lat="47.65177" lon="6.18042">
        <ele>236.35</ele>
        <time>2019-06-26T05:59:27Z</time>
      </trkpt>
      <trkpt lat="47.65181" lon="6.18034">
        <ele>236.35</ele>
        <time>2019-06-26T05:59:29Z</time>
      </trkpt>
      <trkpt lat="47.65185" lon="6.18026">
        <ele>236.35</ele>
        <time>2019-06-26T05:59:31Z</time>
      </trkpt>
      <trkpt lat="47.65189" lon="6.1802">
        <ele>236.35</ele>
        <time>2019-06-26T05:59:33Z</time>
      </trkpt>
      <trkpt lat="47.65194" lon="6.18012">
        <ele>236.34</ele>
        <time>2019-06-26T05:59:36Z</time>
      </trkpt>
      <trkpt lat="47.65197" lon="6.18006">
        <ele>236.35</ele>
        <time>2019-06-26T05:59:38Z</time>
      </trkpt>
      <trkpt lat="47.65201" lon="6.18001">
        <ele>236.36</ele>
        <time>2019-06-26T05:59:40Z</time>
      </trkpt>
      <trkpt lat="47.65206" lon="6.17996">
        <ele>236.38</ele>
        <time>2019-06-26T05:59:42Z</time>
      </trkpt>
      <trkpt lat="47.65212" lon="6.17992">
        <ele>236.4</ele>
        <time>2019-06-26T05:59:44Z</time>
      </trkpt>
      <trkpt lat="47.65218" lon="6.17987">
        <ele>236.52</ele>
        <time>2019-06-26T05:59:46Z</time>
      </trkpt>
      <trkpt lat="47.65225" lon="6.17983">
        <ele>236.75</ele>
        <time>2019-06-26T05:59:48Z</time>
      </trkpt>
      <trkpt lat="47.65234" lon="6.1798">
        <ele>236.85</ele>
        <time>2019-06-26T05:59:49Z</time>
      </trkpt>
      <trkpt lat="47.65243" lon="6.17979">
        <ele>237.02</ele>
        <time>2019-06-26T05:59:51Z</time>
      </trkpt>
      <trkpt lat="47.65252" lon="6.17981">
        <ele>237.17</ele>
        <time>2019-06-26T05:59:53Z</time>
      </trkpt>
      <trkpt lat="47.6526" lon="6.17985">
        <ele>237.29</ele>
        <time>2019-06-26T05:59:55Z</time>
      </trkpt>
      <trkpt lat="47.65264" lon="6.17988">
        <ele>237.35</ele>
        <time>2019-06-26T05:59:56Z</time>
      </trkpt>
      <trkpt lat="47.65268" lon="6.17992">
        <ele>237.4</ele>
        <time>2019-06-26T05:59:57Z</time>
      </trkpt>
      <trkpt lat="47.65272" lon="6.17997">
        <ele>237.45</ele>
        <time>2019-06-26T05:59:58Z</time>
      </trkpt>
      <trkpt lat="47.65276" lon="6.18003">
        <ele>237.48</ele>
        <time>2019-06-26T05:59:59Z</time>
      </trkpt>
      <trkpt lat="47.65279" lon="6.18008">
        <ele>237.51</ele>
        <time>2019-06-26T06:00:00Z</time>
      </trkpt>
      <trkpt lat="47.65283" lon="6.18013">
        <ele>237.54</ele>
        <time>2019-06-26T06:00:01Z</time>
      </trkpt>
      <trkpt lat="47.65286" lon="6.18019">
        <ele>237.57</ele>
        <time>2019-06-26T06:00:02Z</time>
      </trkpt>
      <trkpt lat="47.65291" lon="6.18029">
        <ele>237.62</ele>
        <time>2019-06-26T06:00:04Z</time>
      </trkpt>
      <trkpt lat="47.65293" lon="6.18035">
        <ele>237.64</ele>
        <time>2019-06-26T06:00:05Z</time>
      </trkpt>
      <trkpt lat="47.65295" lon="6.18045">
        <ele>237.67</ele>
        <time>2019-06-26T06:00:07Z</time>
      </trkpt>
      <trkpt lat="47.65296" lon="6.18055">
        <ele>237.67</ele>
        <time>2019-06-26T06:00:09Z</time>
      </trkpt>
      <trkpt lat="47.65298" lon="6.18067">
        <ele>237.65</ele>
        <time>2019-06-26T06:00:11Z</time>
      </trkpt>
      <trkpt lat="47.65299" lon="6.18079">
        <ele>237.62</ele>
        <time>2019-06-26T06:00:13Z</time>
      </trkpt>
      <trkpt lat="47.653" lon="6.18091">
        <ele>237.58</ele>
        <time>2019-06-26T06:00:15Z</time>
      </trkpt>
      <trkpt lat="47.65302" lon="6.18103">
        <ele>237.53</ele>
        <time>2019-06-26T06:00:17Z</time>
      </trkpt>
      <trkpt lat="47.65304" lon="6.18115">
        <ele>237.46</ele>
        <time>2019-06-26T06:00:19Z</time>
      </trkpt>
      <trkpt lat="47.65307" lon="6.18126">
        <ele>237.38</ele>
        <time>2019-06-26T06:00:21Z</time>
      </trkpt>
      <trkpt lat="47.6531" lon="6.18137">
        <ele>237.29</ele>
        <time>2019-06-26T06:00:23Z</time>
      </trkpt>
      <trkpt lat="47.65314" lon="6.18148">
        <ele>237.18</ele>
        <time>2019-06-26T06:00:25Z</time>
      </trkpt>
      <trkpt lat="47.65318" lon="6.18158">
        <ele>237.08</ele>
        <time>2019-06-26T06:00:27Z</time>
      </trkpt>
      <trkpt lat="47.65323" lon="6.18167">
        <ele>237.01</ele>
        <time>2019-06-26T06:00:29Z</time>
      </trkpt>
      <trkpt lat="47.65328" lon="6.18174">
        <ele>236.89</ele>
        <time>2019-06-26T06:00:31Z</time>
      </trkpt>
      <trkpt lat="47.65333" lon="6.18182">
        <ele>236.76</ele>
        <time>2019-06-26T06:00:33Z</time>
      </trkpt>
      <trkpt lat="47.65339" lon="6.1819">
        <ele>236.63</ele>
        <time>2019-06-26T06:00:35Z</time>
      </trkpt>
      <trkpt lat="47.65345" lon="6.18197">
        <ele>236.49</ele>
        <time>2019-06-26T06:00:37Z</time>
      </trkpt>
      <trkpt lat="47.65352" lon="6.18203">
        <ele>236.36</ele>
        <time>2019-06-26T06:00:39Z</time>
      </trkpt>
      <trkpt lat="47.65359" lon="6.1821">
        <ele>236.24</ele>
        <time>2019-06-26T06:00:41Z</time>
      </trkpt>
      <trkpt lat="47.65366" lon="6.18217">
        <ele>236.12</ele>
        <time>2019-06-26T06:00:43Z</time>
      </trkpt>
      <trkpt lat="47.65373" lon="6.18222">
        <ele>236.04</ele>
        <time>2019-06-26T06:00:45Z</time>
      </trkpt>
      <trkpt lat="47.65379" lon="6.18227">
        <ele>236.02</ele>
        <time>2019-06-26T06:00:47Z</time>
      </trkpt>
      <trkpt lat="47.65386" lon="6.18232">
        <ele>236</ele>
        <time>2019-06-26T06:00:49Z</time>
      </trkpt>
      <trkpt lat="47.65391" lon="6.18237">
        <ele>235.98</ele>
        <time>2019-06-26T06:00:51Z</time>
      </trkpt>
      <trkpt lat="47.65397" lon="6.18241">
        <ele>235.96</ele>
        <time>2019-06-26T06:00:53Z</time>
      </trkpt>
      <trkpt lat="47.65402" lon="6.18245">
        <ele>235.94</ele>
        <time>2019-06-26T06:00:55Z</time>
      </trkpt>
      <trkpt lat="47.65408" lon="6.1825">
        <ele>235.9</ele>
        <time>2019-06-26T06:00:58Z</time>
      </trkpt>
      <trkpt lat="47.65413" lon="6.18253">
        <ele>235.88</ele>
        <time>2019-06-26T06:01:00Z</time>
      </trkpt>
      <trkpt lat="47.65419" lon="6.18256">
        <ele>235.86</ele>
        <time>2019-06-26T06:01:02Z</time>
      </trkpt>
      <trkpt lat="47.65425" lon="6.18258">
        <ele>235.84</ele>
        <time>2019-06-26T06:01:04Z</time>
      </trkpt>
      <trkpt lat="47.6543" lon="6.1826">
        <ele>235.81</ele>
        <time>2019-06-26T06:01:06Z</time>
      </trkpt>
      <trkpt lat="47.65435" lon="6.18263">
        <ele>235.79</ele>
        <time>2019-06-26T06:01:08Z</time>
      </trkpt>
      <trkpt lat="47.65441" lon="6.18264">
        <ele>235.77</ele>
        <time>2019-06-26T06:01:10Z</time>
      </trkpt>
      <trkpt lat="47.65446" lon="6.18265">
        <ele>235.75</ele>
        <time>2019-06-26T06:01:12Z</time>
      </trkpt>
      <trkpt lat="47.65451" lon="6.18265">
        <ele>235.73</ele>
        <time>2019-06-26T06:01:14Z</time>
      </trkpt>
      <trkpt lat="47.65458" lon="6.18266">
        <ele>235.72</ele>
        <time>2019-06-26T06:01:16Z</time>
      </trkpt>
      <trkpt lat="47.65463" lon="6.18266">
        <ele>235.71</ele>
        <time>2019-06-26T06:01:18Z</time>
      </trkpt>
      <trkpt lat="47.65469" lon="6.18265">
        <ele>235.71</ele>
        <time>2019-06-26T06:01:20Z</time>
      </trkpt>
      <trkpt lat="47.65474" lon="6.18264">
        <ele>235.71</ele>
        <time>2019-06-26T06:01:22Z</time>
      </trkpt>
      <trkpt lat="47.6548" lon="6.18263">
        <ele>235.72</ele>
        <time>2019-06-26T06:01:24Z</time>
      </trkpt>
      <trkpt lat="47.65485" lon="6.18261">
        <ele>235.74</ele>
        <time>2019-06-26T06:01:26Z</time>
      </trkpt>
      <trkpt lat="47.65491" lon="6.18259">
        <ele>235.76</ele>
        <time>2019-06-26T06:01:28Z</time>
      </trkpt>
      <trkpt lat="47.65496" lon="6.18257">
        <ele>235.8</ele>
        <time>2019-06-26T06:01:30Z</time>
      </trkpt>
      <trkpt lat="47.65501" lon="6.18255">
        <ele>235.83</ele>
        <time>2019-06-26T06:01:32Z</time>
      </trkpt>
      <trkpt lat="47.65506" lon="6.18253">
        <ele>235.87</ele>
        <time>2019-06-26T06:01:34Z</time>
      </trkpt>
      <trkpt lat="47.65512" lon="6.18251">
        <ele>235.92</ele>
        <time>2019-06-26T06:01:36Z</time>
      </trkpt>
      <trkpt lat="47.65517" lon="6.18249">
        <ele>235.97</ele>
        <time>2019-06-26T06:01:38Z</time>
      </trkpt>
      <trkpt lat="47.65523" lon="6.18247">
        <ele>236.02</ele>
        <time>2019-06-26T06:01:40Z</time>
      </trkpt>
      <trkpt lat="47.65527" lon="6.18246">
        <ele>236.08</ele>
        <time>2019-06-26T06:01:42Z</time>
      </trkpt>
      <trkpt lat="47.65532" lon="6.18244">
        <ele>236.13</ele>
        <time>2019-06-26T06:01:44Z</time>
      </trkpt>
      <trkpt lat="47.65537" lon="6.18242">
        <ele>236.2</ele>
        <time>2019-06-26T06:01:46Z</time>
      </trkpt>
      <trkpt lat="47.65542" lon="6.1824">
        <ele>236.26</ele>
        <time>2019-06-26T06:01:48Z</time>
      </trkpt>
      <trkpt lat="47.65546" lon="6.18238">
        <ele>236.33</ele>
        <time>2019-06-26T06:01:50Z</time>
      </trkpt>
      <trkpt lat="47.65551" lon="6.18234">
        <ele>236.4</ele>
        <time>2019-06-26T06:01:52Z</time>
      </trkpt>
      <trkpt lat="47.65556" lon="6.1823">
        <ele>236.48</ele>
        <time>2019-06-26T06:01:54Z</time>
      </trkpt>
      <trkpt lat="47.65562" lon="6.18225">
        <ele>236.55</ele>
        <time>2019-06-26T06:01:56Z</time>
      </trkpt>
      <trkpt lat="47.65568" lon="6.18219">
        <ele>236.88</ele>
        <time>2019-06-26T06:01:58Z</time>
      </trkpt>
      <trkpt lat="47.65575" lon="6.18212">
        <ele>237.49</ele>
        <time>2019-06-26T06:02:00Z</time>
      </trkpt>
      <trkpt lat="47.65581" lon="6.18204">
        <ele>237.95</ele>
        <time>2019-06-26T06:02:02Z</time>
      </trkpt>
      <trkpt lat="47.65587" lon="6.18193">
        <ele>238.29</ele>
        <time>2019-06-26T06:02:04Z</time>
      </trkpt>
      <trkpt lat="47.65593" lon="6.18183">
        <ele>238.42</ele>
        <time>2019-06-26T06:02:05Z</time>
      </trkpt>
      <trkpt lat="47.65598" lon="6.18178">
        <ele>238.53</ele>
        <time>2019-06-26T06:02:06Z</time>
      </trkpt>
      <trkpt lat="47.65603" lon="6.18173">
        <ele>238.62</ele>
        <time>2019-06-26T06:02:07Z</time>
      </trkpt>
      <trkpt lat="47.65608" lon="6.18169">
        <ele>238.69</ele>
        <time>2019-06-26T06:02:08Z</time>
      </trkpt>
      <trkpt lat="47.65613" lon="6.18166">
        <ele>238.76</ele>
        <time>2019-06-26T06:02:09Z</time>
      </trkpt>
      <trkpt lat="47.65618" lon="6.18166">
        <ele>238.82</ele>
        <time>2019-06-26T06:02:10Z</time>
      </trkpt>
      <trkpt lat="47.65623" lon="6.18167">
        <ele>238.87</ele>
        <time>2019-06-26T06:02:11Z</time>
      </trkpt>
      <trkpt lat="47.6563" lon="6.18168">
        <ele>238.9</ele>
        <time>2019-06-26T06:02:13Z</time>
      </trkpt>
      <trkpt lat="47.65635" lon="6.18167">
        <ele>238.92</ele>
        <time>2019-06-26T06:02:15Z</time>
      </trkpt>
      <trkpt lat="47.6564" lon="6.18165">
        <ele>238.94</ele>
        <time>2019-06-26T06:02:18Z</time>
      </trkpt>
      <trkpt lat="47.65644" lon="6.18161">
        <ele>238.98</ele>
        <time>2019-06-26T06:02:21Z</time>
      </trkpt>
      <trkpt lat="47.65649" lon="6.18157">
        <ele>239</ele>
        <time>2019-06-26T06:02:23Z</time>
      </trkpt>
      <trkpt lat="47.65655" lon="6.18153">
        <ele>239.02</ele>
        <time>2019-06-26T06:02:25Z</time>
      </trkpt>
      <trkpt lat="47.6566" lon="6.1815">
        <ele>239.04</ele>
        <time>2019-06-26T06:02:27Z</time>
      </trkpt>
      <trkpt lat="47.65665" lon="6.18146">
        <ele>239.07</ele>
        <time>2019-06-26T06:02:29Z</time>
      </trkpt>
      <trkpt lat="47.6567" lon="6.18143">
        <ele>239.09</ele>
        <time>2019-06-26T06:02:31Z</time>
      </trkpt>
      <trkpt lat="47.65674" lon="6.18138">
        <ele>239.11</ele>
        <time>2019-06-26T06:02:33Z</time>
      </trkpt>
      <trkpt lat="47.65679" lon="6.18132">
        <ele>239.13</ele>
        <time>2019-06-26T06:02:35Z</time>
      </trkpt>
      <trkpt lat="47.65684" lon="6.18123">
        <ele>239.15</ele>
        <time>2019-06-26T06:02:37Z</time>
      </trkpt>
      <trkpt lat="47.65688" lon="6.18113">
        <ele>239.17</ele>
        <time>2019-06-26T06:02:39Z</time>
      </trkpt>
      <trkpt lat="47.65693" lon="6.18104">
        <ele>239.19</ele>
        <time>2019-06-26T06:02:41Z</time>
      </trkpt>
      <trkpt lat="47.65697" lon="6.18096">
        <ele>239.22</ele>
        <time>2019-06-26T06:02:43Z</time>
      </trkpt>
      <trkpt lat="47.65701" lon="6.18089">
        <ele>239.24</ele>
        <time>2019-06-26T06:02:45Z</time>
      </trkpt>
      <trkpt lat="47.65705" lon="6.18083">
        <ele>239.27</ele>
        <time>2019-06-26T06:02:47Z</time>
      </trkpt>
      <trkpt lat="47.65709" lon="6.18077">
        <ele>239.29</ele>
        <time>2019-06-26T06:02:49Z</time>
      </trkpt>
      <trkpt lat="47.65714" lon="6.18072">
        <ele>239.31</ele>
        <time>2019-06-26T06:02:51Z</time>
      </trkpt>
      <trkpt lat="47.65718" lon="6.18065">
        <ele>239.35</ele>
        <time>2019-06-26T06:02:53Z</time>
      </trkpt>
      <trkpt lat="47.65723" lon="6.18059">
        <ele>239.38</ele>
        <time>2019-06-26T06:02:55Z</time>
      </trkpt>
      <trkpt lat="47.65728" lon="6.18055">
        <ele>239.42</ele>
        <time>2019-06-26T06:02:57Z</time>
      </trkpt>
      <trkpt lat="47.65732" lon="6.18052">
        <ele>239.47</ele>
        <time>2019-06-26T06:02:59Z</time>
      </trkpt>
      <trkpt lat="47.65737" lon="6.18049">
        <ele>239.51</ele>
        <time>2019-06-26T06:03:01Z</time>
      </trkpt>
      <trkpt lat="47.65742" lon="6.18047">
        <ele>239.56</ele>
        <time>2019-06-26T06:03:03Z</time>
      </trkpt>
      <trkpt lat="47.65747" lon="6.18045">
        <ele>239.61</ele>
        <time>2019-06-26T06:03:05Z</time>
      </trkpt>
      <trkpt lat="47.65753" lon="6.18042">
        <ele>239.67</ele>
        <time>2019-06-26T06:03:07Z</time>
      </trkpt>
      <trkpt lat="47.65759" lon="6.18039">
        <ele>239.72</ele>
        <time>2019-06-26T06:03:09Z</time>
      </trkpt>
      <trkpt lat="47.65765" lon="6.18036">
        <ele>239.8</ele>
        <time>2019-06-26T06:03:12Z</time>
      </trkpt>
      <trkpt lat="47.65771" lon="6.18032">
        <ele>239.88</ele>
        <time>2019-06-26T06:03:15Z</time>
      </trkpt>
      <trkpt lat="47.65777" lon="6.18029">
        <ele>239.97</ele>
        <time>2019-06-26T06:03:18Z</time>
      </trkpt>
      <trkpt lat="47.65783" lon="6.18024">
        <ele>240.05</ele>
        <time>2019-06-26T06:03:21Z</time>
      </trkpt>
      <trkpt lat="47.65787" lon="6.18019">
        <ele>240.11</ele>
        <time>2019-06-26T06:03:23Z</time>
      </trkpt>
      <trkpt lat="47.65791" lon="6.18015">
        <ele>240.17</ele>
        <time>2019-06-26T06:03:25Z</time>
      </trkpt>
      <trkpt lat="47.65798" lon="6.1801">
        <ele>240.23</ele>
        <time>2019-06-26T06:03:27Z</time>
      </trkpt>
      <trkpt lat="47.65803" lon="6.18005">
        <ele>240.29</ele>
        <time>2019-06-26T06:03:29Z</time>
      </trkpt>
      <trkpt lat="47.6581" lon="6.18">
        <ele>240.75</ele>
        <time>2019-06-26T06:03:31Z</time>
      </trkpt>
      <trkpt lat="47.65814" lon="6.17997">
        <ele>240.96</ele>
        <time>2019-06-26T06:03:32Z</time>
      </trkpt>
      <trkpt lat="47.65818" lon="6.17994">
        <ele>241.14</ele>
        <time>2019-06-26T06:03:33Z</time>
      </trkpt>
      <trkpt lat="47.65823" lon="6.1799">
        <ele>241.29</ele>
        <time>2019-06-26T06:03:34Z</time>
      </trkpt>
      <trkpt lat="47.65832" lon="6.17984">
        <ele>241.41</ele>
        <time>2019-06-26T06:03:35Z</time>
      </trkpt>
      <trkpt lat="47.65836" lon="6.1798">
        <ele>241.51</ele>
        <time>2019-06-26T06:03:36Z</time>
      </trkpt>
      <trkpt lat="47.65841" lon="6.17975">
        <ele>241.59</ele>
        <time>2019-06-26T06:03:37Z</time>
      </trkpt>
      <trkpt lat="47.65846" lon="6.17971">
        <ele>241.66</ele>
        <time>2019-06-26T06:03:38Z</time>
      </trkpt>
      <trkpt lat="47.65852" lon="6.17966">
        <ele>241.72</ele>
        <time>2019-06-26T06:03:39Z</time>
      </trkpt>
      <trkpt lat="47.65857" lon="6.17962">
        <ele>241.77</ele>
        <time>2019-06-26T06:03:40Z</time>
      </trkpt>
      <trkpt lat="47.65865" lon="6.17961">
        <ele>241.81</ele>
        <time>2019-06-26T06:03:41Z</time>
      </trkpt>
      <trkpt lat="47.65872" lon="6.17959">
        <ele>241.82</ele>
        <time>2019-06-26T06:03:42Z</time>
      </trkpt>
      <trkpt lat="47.65879" lon="6.17958">
        <ele>241.83</ele>
        <time>2019-06-26T06:03:43Z</time>
      </trkpt>
      <trkpt lat="47.65887" lon="6.17959">
        <ele>241.83</ele>
        <time>2019-06-26T06:03:44Z</time>
      </trkpt>
      <trkpt lat="47.65894" lon="6.17962">
        <ele>241.82</ele>
        <time>2019-06-26T06:03:45Z</time>
      </trkpt>
      <trkpt lat="47.659" lon="6.17968">
        <ele>241.81</ele>
        <time>2019-06-26T06:03:46Z</time>
      </trkpt>
      <trkpt lat="47.65905" lon="6.17973">
        <ele>241.8</ele>
        <time>2019-06-26T06:03:47Z</time>
      </trkpt>
      <trkpt lat="47.65909" lon="6.17978">
        <ele>241.8</ele>
        <time>2019-06-26T06:03:48Z</time>
      </trkpt>
      <trkpt lat="47.65913" lon="6.17981">
        <ele>241.8</ele>
        <time>2019-06-26T06:03:49Z</time>
      </trkpt>
      <trkpt lat="47.65921" lon="6.17986">
        <ele>242</ele>
        <time>2019-06-26T06:03:52Z</time>
      </trkpt>
      <trkpt lat="47.65927" lon="6.17991">
        <ele>242.12</ele>
        <time>2019-06-26T06:03:54Z</time>
      </trkpt>
      <trkpt lat="47.65932" lon="6.17995">
        <ele>242.13</ele>
        <time>2019-06-26T06:03:56Z</time>
      </trkpt>
      <trkpt lat="47.65937" lon="6.17997">
        <ele>242.12</ele>
        <time>2019-06-26T06:03:58Z</time>
      </trkpt>
      <trkpt lat="47.65942" lon="6.18001">
        <ele>242.1</ele>
        <time>2019-06-26T06:04:00Z</time>
      </trkpt>
      <trkpt lat="47.65946" lon="6.18004">
        <ele>242.08</ele>
        <time>2019-06-26T06:04:02Z</time>
      </trkpt>
      <trkpt lat="47.65952" lon="6.18008">
        <ele>242.04</ele>
        <time>2019-06-26T06:04:05Z</time>
      </trkpt>
      <trkpt lat="47.65956" lon="6.18012">
        <ele>242.02</ele>
        <time>2019-06-26T06:04:07Z</time>
      </trkpt>
      <trkpt lat="47.65962" lon="6.18019">
        <ele>241.98</ele>
        <time>2019-06-26T06:04:10Z</time>
      </trkpt>
      <trkpt lat="47.65966" lon="6.18023">
        <ele>241.96</ele>
        <time>2019-06-26T06:04:12Z</time>
      </trkpt>
      <trkpt lat="47.65971" lon="6.18027">
        <ele>241.95</ele>
        <time>2019-06-26T06:04:14Z</time>
      </trkpt>
      <trkpt lat="47.65975" lon="6.18031">
        <ele>241.95</ele>
        <time>2019-06-26T06:04:16Z</time>
      </trkpt>
      <trkpt lat="47.6598" lon="6.18036">
        <ele>241.96</ele>
        <time>2019-06-26T06:04:18Z</time>
      </trkpt>
      <trkpt lat="47.65985" lon="6.18042">
        <ele>242</ele>
        <time>2019-06-26T06:04:21Z</time>
      </trkpt>
      <trkpt lat="47.65989" lon="6.18047">
        <ele>242.06</ele>
        <time>2019-06-26T06:04:24Z</time>
      </trkpt>
      <trkpt lat="47.65992" lon="6.18051">
        <ele>242.13</ele>
        <time>2019-06-26T06:04:27Z</time>
      </trkpt>
      <trkpt lat="47.65997" lon="6.18057">
        <ele>242.25</ele>
        <time>2019-06-26T06:04:31Z</time>
      </trkpt>
      <trkpt lat="47.66001" lon="6.18063">
        <ele>242.36</ele>
        <time>2019-06-26T06:04:35Z</time>
      </trkpt>
      <trkpt lat="47.66006" lon="6.18069">
        <ele>242.47</ele>
        <time>2019-06-26T06:04:38Z</time>
      </trkpt>
      <trkpt lat="47.66011" lon="6.18075">
        <ele>242.6</ele>
        <time>2019-06-26T06:04:41Z</time>
      </trkpt>
      <trkpt lat="47.66015" lon="6.18081">
        <ele>242.76</ele>
        <time>2019-06-26T06:04:44Z</time>
      </trkpt>
      <trkpt lat="47.66018" lon="6.18086">
        <ele>242.95</ele>
        <time>2019-06-26T06:04:47Z</time>
      </trkpt>
      <trkpt lat="47.66021" lon="6.18091">
        <ele>243.21</ele>
        <time>2019-06-26T06:04:51Z</time>
      </trkpt>
      <trkpt lat="47.66025" lon="6.18097">
        <ele>243.41</ele>
        <time>2019-06-26T06:04:54Z</time>
      </trkpt>
      <trkpt lat="47.66029" lon="6.18102">
        <ele>243.63</ele>
        <time>2019-06-26T06:04:57Z</time>
      </trkpt>
      <trkpt lat="47.66033" lon="6.18107">
        <ele>243.83</ele>
        <time>2019-06-26T06:05:00Z</time>
      </trkpt>
      <trkpt lat="47.66038" lon="6.18111">
        <ele>244.07</ele>
        <time>2019-06-26T06:05:04Z</time>
      </trkpt>
      <trkpt lat="47.66043" lon="6.18113">
        <ele>244.3</ele>
        <time>2019-06-26T06:05:08Z</time>
      </trkpt>
      <trkpt lat="47.66048" lon="6.18116">
        <ele>244.53</ele>
        <time>2019-06-26T06:05:12Z</time>
      </trkpt>
      <trkpt lat="47.66053" lon="6.18117">
        <ele>244.7</ele>
        <time>2019-06-26T06:05:15Z</time>
      </trkpt>
      <trkpt lat="47.66059" lon="6.18118">
        <ele>244.89</ele>
        <time>2019-06-26T06:05:18Z</time>
      </trkpt>
      <trkpt lat="47.66064" lon="6.18118">
        <ele>245.15</ele>
        <time>2019-06-26T06:05:22Z</time>
      </trkpt>
      <trkpt lat="47.66068" lon="6.18118">
        <ele>245.38</ele>
        <time>2019-06-26T06:05:26Z</time>
      </trkpt>
      <trkpt lat="47.66075" lon="6.1812">
        <ele>245.48</ele>
        <time>2019-06-26T06:05:28Z</time>
      </trkpt>
      <trkpt lat="47.6608" lon="6.18122">
        <ele>245.64</ele>
        <time>2019-06-26T06:05:31Z</time>
      </trkpt>
      <trkpt lat="47.66086" lon="6.18123">
        <ele>245.82</ele>
        <time>2019-06-26T06:05:35Z</time>
      </trkpt>
      <trkpt lat="47.66091" lon="6.18124">
        <ele>246.04</ele>
        <time>2019-06-26T06:05:40Z</time>
      </trkpt>
      <trkpt lat="47.66097" lon="6.18127">
        <ele>246.18</ele>
        <time>2019-06-26T06:05:43Z</time>
      </trkpt>
      <trkpt lat="47.66102" lon="6.18129">
        <ele>246.27</ele>
        <time>2019-06-26T06:05:45Z</time>
      </trkpt>
      <trkpt lat="47.66106" lon="6.18131">
        <ele>246.36</ele>
        <time>2019-06-26T06:05:47Z</time>
      </trkpt>
      <trkpt lat="47.66112" lon="6.18134">
        <ele>246.47</ele>
        <time>2019-06-26T06:05:50Z</time>
      </trkpt>
      <trkpt lat="47.66118" lon="6.18136">
        <ele>246.57</ele>
        <time>2019-06-26T06:05:53Z</time>
      </trkpt>
      <trkpt lat="47.66122" lon="6.18138">
        <ele>246.68</ele>
        <time>2019-06-26T06:05:57Z</time>
      </trkpt>
      <trkpt lat="47.66128" lon="6.18141">
        <ele>246.77</ele>
        <time>2019-06-26T06:06:00Z</time>
      </trkpt>
      <trkpt lat="47.66134" lon="6.18143">
        <ele>246.9</ele>
        <time>2019-06-26T06:06:03Z</time>
      </trkpt>
      <trkpt lat="47.66139" lon="6.18144">
        <ele>247.06</ele>
        <time>2019-06-26T06:06:06Z</time>
      </trkpt>
      <trkpt lat="47.66145" lon="6.18149">
        <ele>247.24</ele>
        <time>2019-06-26T06:06:09Z</time>
      </trkpt>
      <trkpt lat="47.6615" lon="6.18151">
        <ele>247.35</ele>
        <time>2019-06-26T06:06:11Z</time>
      </trkpt>
      <trkpt lat="47.66155" lon="6.18155">
        <ele>247.58</ele>
        <time>2019-06-26T06:06:15Z</time>
      </trkpt>
      <trkpt lat="47.66159" lon="6.18158">
        <ele>247.73</ele>
        <time>2019-06-26T06:06:18Z</time>
      </trkpt>
      <trkpt lat="47.66163" lon="6.18162">
        <ele>247.89</ele>
        <time>2019-06-26T06:06:21Z</time>
      </trkpt>
      <trkpt lat="47.66168" lon="6.18166">
        <ele>248.04</ele>
        <time>2019-06-26T06:06:24Z</time>
      </trkpt>
      <trkpt lat="47.66173" lon="6.18171">
        <ele>248.19</ele>
        <time>2019-06-26T06:06:27Z</time>
      </trkpt>
      <trkpt lat="47.66178" lon="6.18174">
        <ele>248.29</ele>
        <time>2019-06-26T06:06:29Z</time>
      </trkpt>
      <trkpt lat="47.66183" lon="6.18178">
        <ele>248.44</ele>
        <time>2019-06-26T06:06:32Z</time>
      </trkpt>
      <trkpt lat="47.66188" lon="6.18181">
        <ele>248.59</ele>
        <time>2019-06-26T06:06:35Z</time>
      </trkpt>
      <trkpt lat="47.66192" lon="6.18186">
        <ele>248.74</ele>
        <time>2019-06-26T06:06:38Z</time>
      </trkpt>
      <trkpt lat="47.66197" lon="6.1819">
        <ele>248.88</ele>
        <time>2019-06-26T06:06:41Z</time>
      </trkpt>
      <trkpt lat="47.66201" lon="6.18195">
        <ele>249.02</ele>
        <time>2019-06-26T06:06:44Z</time>
      </trkpt>
      <trkpt lat="47.66204" lon="6.18199">
        <ele>249.15</ele>
        <time>2019-06-26T06:06:47Z</time>
      </trkpt>
      <trkpt lat="47.66208" lon="6.18203">
        <ele>249.28</ele>
        <time>2019-06-26T06:06:50Z</time>
      </trkpt>
      <trkpt lat="47.66212" lon="6.18208">
        <ele>249.42</ele>
        <time>2019-06-26T06:06:53Z</time>
      </trkpt>
      <trkpt lat="47.66215" lon="6.18213">
        <ele>249.55</ele>
        <time>2019-06-26T06:06:56Z</time>
      </trkpt>
      <trkpt lat="47.66218" lon="6.18219">
        <ele>249.69</ele>
        <time>2019-06-26T06:06:59Z</time>
      </trkpt>
      <trkpt lat="47.66221" lon="6.18224">
        <ele>249.83</ele>
        <time>2019-06-26T06:07:02Z</time>
      </trkpt>
      <trkpt lat="47.66224" lon="6.1823">
        <ele>249.97</ele>
        <time>2019-06-26T06:07:05Z</time>
      </trkpt>
      <trkpt lat="47.66227" lon="6.18236">
        <ele>250.11</ele>
        <time>2019-06-26T06:07:08Z</time>
      </trkpt>
      <trkpt lat="47.66232" lon="6.18243">
        <ele>250.26</ele>
        <time>2019-06-26T06:07:11Z</time>
      </trkpt>
      <trkpt lat="47.66235" lon="6.18249">
        <ele>250.48</ele>
        <time>2019-06-26T06:07:15Z</time>
      </trkpt>
      <trkpt lat="47.66238" lon="6.18257">
        <ele>250.71</ele>
        <time>2019-06-26T06:07:19Z</time>
      </trkpt>
      <trkpt lat="47.6624" lon="6.18266">
        <ele>250.93</ele>
        <time>2019-06-26T06:07:23Z</time>
      </trkpt>
      <trkpt lat="47.66241" lon="6.18273">
        <ele>251.11</ele>
        <time>2019-06-26T06:07:26Z</time>
      </trkpt>
      <trkpt lat="47.66241" lon="6.18282">
        <ele>251.36</ele>
        <time>2019-06-26T06:07:30Z</time>
      </trkpt>
      <trkpt lat="47.66239" lon="6.18289">
        <ele>251.56</ele>
        <time>2019-06-26T06:07:33Z</time>
      </trkpt>
      <trkpt lat="47.66236" lon="6.18294">
        <ele>251.79</ele>
        <time>2019-06-26T06:07:36Z</time>
      </trkpt>
      <trkpt lat="47.66231" lon="6.18299">
        <ele>252.04</ele>
        <time>2019-06-26T06:07:39Z</time>
      </trkpt>
      <trkpt lat="47.66226" lon="6.18301">
        <ele>252.32</ele>
        <time>2019-06-26T06:07:42Z</time>
      </trkpt>
      <trkpt lat="47.66222" lon="6.183">
        <ele>252.62</ele>
        <time>2019-06-26T06:07:45Z</time>
      </trkpt>
      <trkpt lat="47.66217" lon="6.18298">
        <ele>252.95</ele>
        <time>2019-06-26T06:07:48Z</time>
      </trkpt>
      <trkpt lat="47.66211" lon="6.18296">
        <ele>253.43</ele>
        <time>2019-06-26T06:07:52Z</time>
      </trkpt>
      <trkpt lat="47.66206" lon="6.18293">
        <ele>253.93</ele>
        <time>2019-06-26T06:07:56Z</time>
      </trkpt>
      <trkpt lat="47.66201" lon="6.18291">
        <ele>254.33</ele>
        <time>2019-06-26T06:07:59Z</time>
      </trkpt>
      <trkpt lat="47.66196" lon="6.18289">
        <ele>254.73</ele>
        <time>2019-06-26T06:08:02Z</time>
      </trkpt>
      <trkpt lat="47.66192" lon="6.18286">
        <ele>255.14</ele>
        <time>2019-06-26T06:08:05Z</time>
      </trkpt>
      <trkpt lat="47.66187" lon="6.18284">
        <ele>255.57</ele>
        <time>2019-06-26T06:08:08Z</time>
      </trkpt>
      <trkpt lat="47.66182" lon="6.18282">
        <ele>256</ele>
        <time>2019-06-26T06:08:11Z</time>
      </trkpt>
      <trkpt lat="47.66175" lon="6.18279">
        <ele>256.45</ele>
        <time>2019-06-26T06:08:14Z</time>
      </trkpt>
      <trkpt lat="47.66171" lon="6.18276">
        <ele>256.75</ele>
        <time>2019-06-26T06:08:16Z</time>
      </trkpt>
      <trkpt lat="47.66166" lon="6.18274">
        <ele>257.05</ele>
        <time>2019-06-26T06:08:18Z</time>
      </trkpt>
      <trkpt lat="47.66161" lon="6.18272">
        <ele>257.35</ele>
        <time>2019-06-26T06:08:20Z</time>
      </trkpt>
      <trkpt lat="47.66157" lon="6.1827">
        <ele>257.66</ele>
        <time>2019-06-26T06:08:22Z</time>
      </trkpt>
      <trkpt lat="47.66152" lon="6.18267">
        <ele>257.96</ele>
        <time>2019-06-26T06:08:24Z</time>
      </trkpt>
      <trkpt lat="47.66146" lon="6.18263">
        <ele>258.43</ele>
        <time>2019-06-26T06:08:27Z</time>
      </trkpt>
      <trkpt lat="47.66142" lon="6.1826">
        <ele>258.73</ele>
        <time>2019-06-26T06:08:29Z</time>
      </trkpt>
      <trkpt lat="47.66137" lon="6.18258">
        <ele>259.04</ele>
        <time>2019-06-26T06:08:31Z</time>
      </trkpt>
      <trkpt lat="47.66133" lon="6.18256">
        <ele>259.35</ele>
        <time>2019-06-26T06:08:33Z</time>
      </trkpt>
      <trkpt lat="47.66129" lon="6.18254">
        <ele>259.65</ele>
        <time>2019-06-26T06:08:35Z</time>
      </trkpt>
      <trkpt lat="47.66124" lon="6.18252">
        <ele>259.95</ele>
        <time>2019-06-26T06:08:37Z</time>
      </trkpt>
      <trkpt lat="47.66119" lon="6.18251">
        <ele>260.25</ele>
        <time>2019-06-26T06:08:39Z</time>
      </trkpt>
      <trkpt lat="47.66114" lon="6.1825">
        <ele>260.55</ele>
        <time>2019-06-26T06:08:41Z</time>
      </trkpt>
      <trkpt lat="47.66108" lon="6.18249">
        <ele>260.83</ele>
        <time>2019-06-26T06:08:43Z</time>
      </trkpt>
      <trkpt lat="47.66103" lon="6.18248">
        <ele>261.11</ele>
        <time>2019-06-26T06:08:45Z</time>
      </trkpt>
      <trkpt lat="47.66098" lon="6.18247">
        <ele>261.24</ele>
        <time>2019-06-26T06:08:46Z</time>
      </trkpt>
      <trkpt lat="47.66091" lon="6.18246">
        <ele>261.51</ele>
        <time>2019-06-26T06:08:48Z</time>
      </trkpt>
      <trkpt lat="47.66086" lon="6.18245">
        <ele>261.78</ele>
        <time>2019-06-26T06:08:50Z</time>
      </trkpt>
      <trkpt lat="47.66079" lon="6.18245">
        <ele>262.04</ele>
        <time>2019-06-26T06:08:52Z</time>
      </trkpt>
      <trkpt lat="47.66073" lon="6.18246">
        <ele>262.31</ele>
        <time>2019-06-26T06:08:54Z</time>
      </trkpt>
      <trkpt lat="47.66067" lon="6.18247">
        <ele>262.57</ele>
        <time>2019-06-26T06:08:56Z</time>
      </trkpt>
      <trkpt lat="47.66061" lon="6.18248">
        <ele>262.83</ele>
        <time>2019-06-26T06:08:58Z</time>
      </trkpt>
      <trkpt lat="47.66055" lon="6.18249">
        <ele>263.09</ele>
        <time>2019-06-26T06:09:00Z</time>
      </trkpt>
      <trkpt lat="47.66049" lon="6.1825">
        <ele>263.34</ele>
        <time>2019-06-26T06:09:02Z</time>
      </trkpt>
      <trkpt lat="47.66042" lon="6.18252">
        <ele>263.59</ele>
        <time>2019-06-26T06:09:04Z</time>
      </trkpt>
      <trkpt lat="47.66036" lon="6.18253">
        <ele>263.84</ele>
        <time>2019-06-26T06:09:06Z</time>
      </trkpt>
      <trkpt lat="47.6603" lon="6.18252">
        <ele>264.07</ele>
        <time>2019-06-26T06:09:08Z</time>
      </trkpt>
      <trkpt lat="47.66025" lon="6.18248">
        <ele>265.83</ele>
        <time>2019-06-26T06:09:10Z</time>
      </trkpt>
      <trkpt lat="47.66012" lon="6.18239">
        <ele>267.28</ele>
        <time>2019-06-26T06:09:12Z</time>
      </trkpt>
      <trkpt lat="47.66005" lon="6.18236">
        <ele>267.83</ele>
        <time>2019-06-26T06:09:13Z</time>
      </trkpt>
      <trkpt lat="47.65998" lon="6.18234">
        <ele>268.28</ele>
        <time>2019-06-26T06:09:14Z</time>
      </trkpt>
      <trkpt lat="47.65991" lon="6.18232">
        <ele>268.65</ele>
        <time>2019-06-26T06:09:15Z</time>
      </trkpt>
      <trkpt lat="47.65984" lon="6.1823">
        <ele>268.94</ele>
        <time>2019-06-26T06:09:16Z</time>
      </trkpt>
      <trkpt lat="47.65977" lon="6.18228">
        <ele>269.17</ele>
        <time>2019-06-26T06:09:17Z</time>
      </trkpt>
      <trkpt lat="47.6597" lon="6.18224">
        <ele>269.35</ele>
        <time>2019-06-26T06:09:18Z</time>
      </trkpt>
      <trkpt lat="47.65963" lon="6.18219">
        <ele>269.49</ele>
        <time>2019-06-26T06:09:19Z</time>
      </trkpt>
      <trkpt lat="47.65956" lon="6.18214">
        <ele>269.57</ele>
        <time>2019-06-26T06:09:20Z</time>
      </trkpt>
      <trkpt lat="47.65949" lon="6.18208">
        <ele>269.61</ele>
        <time>2019-06-26T06:09:21Z</time>
      </trkpt>
      <trkpt lat="47.65942" lon="6.18203">
        <ele>269.6</ele>
        <time>2019-06-26T06:09:22Z</time>
      </trkpt>
      <trkpt lat="47.65934" lon="6.182">
        <ele>269.56</ele>
        <time>2019-06-26T06:09:23Z</time>
      </trkpt>
      <trkpt lat="47.65926" lon="6.18198">
        <ele>269.5</ele>
        <time>2019-06-26T06:09:24Z</time>
      </trkpt>
      <trkpt lat="47.65918" lon="6.18195">
        <ele>269.45</ele>
        <time>2019-06-26T06:09:25Z</time>
      </trkpt>
      <trkpt lat="47.6591" lon="6.18194">
        <ele>269.41</ele>
        <time>2019-06-26T06:09:26Z</time>
      </trkpt>
      <trkpt lat="47.65903" lon="6.18189">
        <ele>269.37</ele>
        <time>2019-06-26T06:09:27Z</time>
      </trkpt>
      <trkpt lat="47.65896" lon="6.18186">
        <ele>269.31</ele>
        <time>2019-06-26T06:09:28Z</time>
      </trkpt>
      <trkpt lat="47.65889" lon="6.18184">
        <ele>269.25</ele>
        <time>2019-06-26T06:09:29Z</time>
      </trkpt>
      <trkpt lat="47.65883" lon="6.18182">
        <ele>269.2</ele>
        <time>2019-06-26T06:09:30Z</time>
      </trkpt>
      <trkpt lat="47.65877" lon="6.1818">
        <ele>269.15</ele>
        <time>2019-06-26T06:09:31Z</time>
      </trkpt>
      <trkpt lat="47.65871" lon="6.18179">
        <ele>269.09</ele>
        <time>2019-06-26T06:09:32Z</time>
      </trkpt>
      <trkpt lat="47.65866" lon="6.18179">
        <ele>269.01</ele>
        <time>2019-06-26T06:09:33Z</time>
      </trkpt>
      <trkpt lat="47.65861" lon="6.18181">
        <ele>268.94</ele>
        <time>2019-06-26T06:09:34Z</time>
      </trkpt>
      <trkpt lat="47.65857" lon="6.18191">
        <ele>268.91</ele>
        <time>2019-06-26T06:09:36Z</time>
      </trkpt>
      <trkpt lat="47.65857" lon="6.18199">
        <ele>268.91</ele>
        <time>2019-06-26T06:09:38Z</time>
      </trkpt>
      <trkpt lat="47.65859" lon="6.18207">
        <ele>268.93</ele>
        <time>2019-06-26T06:09:40Z</time>
      </trkpt>
      <trkpt lat="47.65861" lon="6.18216">
        <ele>268.98</ele>
        <time>2019-06-26T06:09:43Z</time>
      </trkpt>
      <trkpt lat="47.65862" lon="6.18224">
        <ele>269.05</ele>
        <time>2019-06-26T06:09:46Z</time>
      </trkpt>
      <trkpt lat="47.65859" lon="6.18231">
        <ele>269.14</ele>
        <time>2019-06-26T06:09:49Z</time>
      </trkpt>
      <trkpt lat="47.65854" lon="6.18236">
        <ele>269.23</ele>
        <time>2019-06-26T06:09:52Z</time>
      </trkpt>
      <trkpt lat="47.65849" lon="6.18239">
        <ele>269.32</ele>
        <time>2019-06-26T06:09:55Z</time>
      </trkpt>
      <trkpt lat="47.65843" lon="6.18243">
        <ele>269.4</ele>
        <time>2019-06-26T06:09:58Z</time>
      </trkpt>
      <trkpt lat="47.65839" lon="6.18247">
        <ele>269.46</ele>
        <time>2019-06-26T06:10:00Z</time>
      </trkpt>
      <trkpt lat="47.65834" lon="6.1825">
        <ele>269.52</ele>
        <time>2019-06-26T06:10:02Z</time>
      </trkpt>
      <trkpt lat="47.65829" lon="6.18253">
        <ele>269.57</ele>
        <time>2019-06-26T06:10:04Z</time>
      </trkpt>
      <trkpt lat="47.65823" lon="6.18255">
        <ele>269.61</ele>
        <time>2019-06-26T06:10:06Z</time>
      </trkpt>
      <trkpt lat="47.65816" lon="6.18258">
        <ele>269.65</ele>
        <time>2019-06-26T06:10:08Z</time>
      </trkpt>
      <trkpt lat="47.6581" lon="6.18262">
        <ele>269.8</ele>
        <time>2019-06-26T06:10:09Z</time>
      </trkpt>
      <trkpt lat="47.65805" lon="6.18263">
        <ele>269.92</ele>
        <time>2019-06-26T06:10:10Z</time>
      </trkpt>
      <trkpt lat="47.65798" lon="6.18267">
        <ele>270.07</ele>
        <time>2019-06-26T06:10:12Z</time>
      </trkpt>
      <trkpt lat="47.6579" lon="6.18273">
        <ele>270.33</ele>
        <time>2019-06-26T06:10:14Z</time>
      </trkpt>
      <trkpt lat="47.65783" lon="6.18278">
        <ele>270.53</ele>
        <time>2019-06-26T06:10:16Z</time>
      </trkpt>
      <trkpt lat="47.65777" lon="6.18284">
        <ele>270.71</ele>
        <time>2019-06-26T06:10:18Z</time>
      </trkpt>
      <trkpt lat="47.6577" lon="6.18291">
        <ele>270.88</ele>
        <time>2019-06-26T06:10:20Z</time>
      </trkpt>
      <trkpt lat="47.65764" lon="6.18297">
        <ele>271.06</ele>
        <time>2019-06-26T06:10:22Z</time>
      </trkpt>
      <trkpt lat="47.65757" lon="6.18301">
        <ele>271.04</ele>
        <time>2019-06-26T06:10:24Z</time>
      </trkpt>
      <trkpt lat="47.6575" lon="6.18307">
        <ele>270.83</ele>
        <time>2019-06-26T06:10:26Z</time>
      </trkpt>
      <trkpt lat="47.65743" lon="6.18314">
        <ele>270.61</ele>
        <time>2019-06-26T06:10:28Z</time>
      </trkpt>
      <trkpt lat="47.65739" lon="6.18319">
        <ele>270.55</ele>
        <time>2019-06-26T06:10:30Z</time>
      </trkpt>
      <trkpt lat="47.65735" lon="6.18325">
        <ele>270.5</ele>
        <time>2019-06-26T06:10:32Z</time>
      </trkpt>
      <trkpt lat="47.65731" lon="6.18329">
        <ele>270.42</ele>
        <time>2019-06-26T06:10:35Z</time>
      </trkpt>
      <trkpt lat="47.65727" lon="6.18333">
        <ele>270.38</ele>
        <time>2019-06-26T06:10:37Z</time>
      </trkpt>
      <trkpt lat="47.65722" lon="6.18338">
        <ele>270.33</ele>
        <time>2019-06-26T06:10:40Z</time>
      </trkpt>
      <trkpt lat="47.65718" lon="6.18344">
        <ele>270.32</ele>
        <time>2019-06-26T06:10:43Z</time>
      </trkpt>
      <trkpt lat="47.65712" lon="6.18348">
        <ele>270.35</ele>
        <time>2019-06-26T06:10:46Z</time>
      </trkpt>
      <trkpt lat="47.65708" lon="6.1835">
        <ele>270.41</ele>
        <time>2019-06-26T06:10:49Z</time>
      </trkpt>
      <trkpt lat="47.65703" lon="6.18352">
        <ele>270.5</ele>
        <time>2019-06-26T06:10:52Z</time>
      </trkpt>
      <trkpt lat="47.65697" lon="6.18355">
        <ele>270.6</ele>
        <time>2019-06-26T06:10:55Z</time>
      </trkpt>
      <trkpt lat="47.65693" lon="6.1836">
        <ele>270.65</ele>
        <time>2019-06-26T06:10:56Z</time>
      </trkpt>
      <trkpt lat="47.65689" lon="6.18363">
        <ele>270.7</ele>
        <time>2019-06-26T06:10:57Z</time>
      </trkpt>
      <trkpt lat="47.65683" lon="6.1837">
        <ele>270.82</ele>
        <time>2019-06-26T06:10:59Z</time>
      </trkpt>
      <trkpt lat="47.65679" lon="6.18376">
        <ele>270.98</ele>
        <time>2019-06-26T06:11:01Z</time>
      </trkpt>
      <trkpt lat="47.65673" lon="6.18378">
        <ele>271.14</ele>
        <time>2019-06-26T06:11:03Z</time>
      </trkpt>
      <trkpt lat="47.65668" lon="6.1838">
        <ele>271.32</ele>
        <time>2019-06-26T06:11:05Z</time>
      </trkpt>
      <trkpt lat="47.65662" lon="6.18383">
        <ele>271.49</ele>
        <time>2019-06-26T06:11:07Z</time>
      </trkpt>
      <trkpt lat="47.65655" lon="6.18385">
        <ele>271.67</ele>
        <time>2019-06-26T06:11:09Z</time>
      </trkpt>
      <trkpt lat="47.65647" lon="6.18385">
        <ele>271.86</ele>
        <time>2019-06-26T06:11:11Z</time>
      </trkpt>
      <trkpt lat="47.65639" lon="6.18385">
        <ele>272.06</ele>
        <time>2019-06-26T06:11:13Z</time>
      </trkpt>
      <trkpt lat="47.65632" lon="6.18387">
        <ele>272.28</ele>
        <time>2019-06-26T06:11:15Z</time>
      </trkpt>
      <trkpt lat="47.65626" lon="6.18389">
        <ele>272.51</ele>
        <time>2019-06-26T06:11:17Z</time>
      </trkpt>
      <trkpt lat="47.6562" lon="6.18391">
        <ele>272.75</ele>
        <time>2019-06-26T06:11:19Z</time>
      </trkpt>
      <trkpt lat="47.65614" lon="6.18394">
        <ele>272.99</ele>
        <time>2019-06-26T06:11:21Z</time>
      </trkpt>
      <trkpt lat="47.65608" lon="6.18396">
        <ele>273.24</ele>
        <time>2019-06-26T06:11:23Z</time>
      </trkpt>
      <trkpt lat="47.65602" lon="6.18399">
        <ele>273.49</ele>
        <time>2019-06-26T06:11:25Z</time>
      </trkpt>
      <trkpt lat="47.65596" lon="6.18401">
        <ele>273.75</ele>
        <time>2019-06-26T06:11:27Z</time>
      </trkpt>
      <trkpt lat="47.6559" lon="6.18403">
        <ele>274.01</ele>
        <time>2019-06-26T06:11:29Z</time>
      </trkpt>
      <trkpt lat="47.65585" lon="6.18405">
        <ele>274.27</ele>
        <time>2019-06-26T06:11:31Z</time>
      </trkpt>
      <trkpt lat="47.65579" lon="6.18407">
        <ele>274.54</ele>
        <time>2019-06-26T06:11:33Z</time>
      </trkpt>
      <trkpt lat="47.65573" lon="6.1841">
        <ele>274.81</ele>
        <time>2019-06-26T06:11:35Z</time>
      </trkpt>
      <trkpt lat="47.65566" lon="6.18414">
        <ele>275.08</ele>
        <time>2019-06-26T06:11:37Z</time>
      </trkpt>
      <trkpt lat="47.65559" lon="6.18417">
        <ele>275.35</ele>
        <time>2019-06-26T06:11:39Z</time>
      </trkpt>
      <trkpt lat="47.65552" lon="6.1842">
        <ele>275.63</ele>
        <time>2019-06-26T06:11:41Z</time>
      </trkpt>
      <trkpt lat="47.65546" lon="6.18424">
        <ele>275.89</ele>
        <time>2019-06-26T06:11:43Z</time>
      </trkpt>
      <trkpt lat="47.6554" lon="6.18432">
        <ele>276.15</ele>
        <time>2019-06-26T06:11:45Z</time>
      </trkpt>
      <trkpt lat="47.65535" lon="6.18438">
        <ele>276.28</ele>
        <time>2019-06-26T06:11:46Z</time>
      </trkpt>
      <trkpt lat="47.65531" lon="6.18442">
        <ele>276.4</ele>
        <time>2019-06-26T06:11:47Z</time>
      </trkpt>
      <trkpt lat="47.65523" lon="6.18448">
        <ele>276.65</ele>
        <time>2019-06-26T06:11:49Z</time>
      </trkpt>
      <trkpt lat="47.65519" lon="6.18452">
        <ele>276.77</ele>
        <time>2019-06-26T06:11:50Z</time>
      </trkpt>
      <trkpt lat="47.65515" lon="6.18456">
        <ele>276.89</ele>
        <time>2019-06-26T06:11:51Z</time>
      </trkpt>
      <trkpt lat="47.65511" lon="6.1846">
        <ele>277</ele>
        <time>2019-06-26T06:11:52Z</time>
      </trkpt>
      <trkpt lat="47.65507" lon="6.18464">
        <ele>277.12</ele>
        <time>2019-06-26T06:11:53Z</time>
      </trkpt>
      <trkpt lat="47.65499" lon="6.18471">
        <ele>278.8</ele>
        <time>2019-06-26T06:11:55Z</time>
      </trkpt>
      <trkpt lat="47.65494" lon="6.18474">
        <ele>279.56</ele>
        <time>2019-06-26T06:11:56Z</time>
      </trkpt>
      <trkpt lat="47.6549" lon="6.18477">
        <ele>280.19</ele>
        <time>2019-06-26T06:11:57Z</time>
      </trkpt>
      <trkpt lat="47.65485" lon="6.1848">
        <ele>280.41</ele>
        <time>2019-06-26T06:11:58Z</time>
      </trkpt>
      <trkpt lat="47.6548" lon="6.18482">
        <ele>280.79</ele>
        <time>2019-06-26T06:11:59Z</time>
      </trkpt>
      <trkpt lat="47.65475" lon="6.18484">
        <ele>281.19</ele>
        <time>2019-06-26T06:12:00Z</time>
      </trkpt>
      <trkpt lat="47.6547" lon="6.18487">
        <ele>281.56</ele>
        <time>2019-06-26T06:12:01Z</time>
      </trkpt>
      <trkpt lat="47.6546" lon="6.18494">
        <ele>281.88</ele>
        <time>2019-06-26T06:12:02Z</time>
      </trkpt>
      <trkpt lat="47.65456" lon="6.18499">
        <ele>282.14</ele>
        <time>2019-06-26T06:12:03Z</time>
      </trkpt>
      <trkpt lat="47.65452" lon="6.18503">
        <ele>282.34</ele>
        <time>2019-06-26T06:12:04Z</time>
      </trkpt>
      <trkpt lat="47.65448" lon="6.18508">
        <ele>282.5</ele>
        <time>2019-06-26T06:12:05Z</time>
      </trkpt>
      <trkpt lat="47.65445" lon="6.18513">
        <ele>282.62</ele>
        <time>2019-06-26T06:12:06Z</time>
      </trkpt>
      <trkpt lat="47.65439" lon="6.18521">
        <ele>282.76</ele>
        <time>2019-06-26T06:12:08Z</time>
      </trkpt>
      <trkpt lat="47.65433" lon="6.18527">
        <ele>282.81</ele>
        <time>2019-06-26T06:12:10Z</time>
      </trkpt>
      <trkpt lat="47.65427" lon="6.18534">
        <ele>282.82</ele>
        <time>2019-06-26T06:12:12Z</time>
      </trkpt>
      <trkpt lat="47.65422" lon="6.18541">
        <ele>282.81</ele>
        <time>2019-06-26T06:12:14Z</time>
      </trkpt>
      <trkpt lat="47.65417" lon="6.18548">
        <ele>282.8</ele>
        <time>2019-06-26T06:12:16Z</time>
      </trkpt>
      <trkpt lat="47.65413" lon="6.18555">
        <ele>282.79</ele>
        <time>2019-06-26T06:12:18Z</time>
      </trkpt>
      <trkpt lat="47.65409" lon="6.18562">
        <ele>282.78</ele>
        <time>2019-06-26T06:12:20Z</time>
      </trkpt>
      <trkpt lat="47.65404" lon="6.1857">
        <ele>282.75</ele>
        <time>2019-06-26T06:12:23Z</time>
      </trkpt>
      <trkpt lat="47.65401" lon="6.18576">
        <ele>282.73</ele>
        <time>2019-06-26T06:12:25Z</time>
      </trkpt>
      <trkpt lat="47.65396" lon="6.18583">
        <ele>282.71</ele>
        <time>2019-06-26T06:12:27Z</time>
      </trkpt>
      <trkpt lat="47.65392" lon="6.1859">
        <ele>282.68</ele>
        <time>2019-06-26T06:12:29Z</time>
      </trkpt>
      <trkpt lat="47.65387" lon="6.18597">
        <ele>282.65</ele>
        <time>2019-06-26T06:12:31Z</time>
      </trkpt>
      <trkpt lat="47.65383" lon="6.18604">
        <ele>282.62</ele>
        <time>2019-06-26T06:12:33Z</time>
      </trkpt>
      <trkpt lat="47.65378" lon="6.1861">
        <ele>282.58</ele>
        <time>2019-06-26T06:12:35Z</time>
      </trkpt>
      <trkpt lat="47.65374" lon="6.18617">
        <ele>282.54</ele>
        <time>2019-06-26T06:12:37Z</time>
      </trkpt>
      <trkpt lat="47.6537" lon="6.18622">
        <ele>282.5</ele>
        <time>2019-06-26T06:12:39Z</time>
      </trkpt>
      <trkpt lat="47.65367" lon="6.18628">
        <ele>282.46</ele>
        <time>2019-06-26T06:12:41Z</time>
      </trkpt>
      <trkpt lat="47.65362" lon="6.18635">
        <ele>282.39</ele>
        <time>2019-06-26T06:12:44Z</time>
      </trkpt>
      <trkpt lat="47.65358" lon="6.18642">
        <ele>282.32</ele>
        <time>2019-06-26T06:12:47Z</time>
      </trkpt>
      <trkpt lat="47.65355" lon="6.18647">
        <ele>282.28</ele>
        <time>2019-06-26T06:12:49Z</time>
      </trkpt>
      <trkpt lat="47.65351" lon="6.18652">
        <ele>282.24</ele>
        <time>2019-06-26T06:12:51Z</time>
      </trkpt>
      <trkpt lat="47.65347" lon="6.18658">
        <ele>282.21</ele>
        <time>2019-06-26T06:12:53Z</time>
      </trkpt>
      <trkpt lat="47.65343" lon="6.18664">
        <ele>282.17</ele>
        <time>2019-06-26T06:12:55Z</time>
      </trkpt>
      <trkpt lat="47.65339" lon="6.18669">
        <ele>282.14</ele>
        <time>2019-06-26T06:12:57Z</time>
      </trkpt>
      <trkpt lat="47.65335" lon="6.18675">
        <ele>282.11</ele>
        <time>2019-06-26T06:12:59Z</time>
      </trkpt>
      <trkpt lat="47.6533" lon="6.18682">
        <ele>282.08</ele>
        <time>2019-06-26T06:13:01Z</time>
      </trkpt>
      <trkpt lat="47.65326" lon="6.18687">
        <ele>282.05</ele>
        <time>2019-06-26T06:13:03Z</time>
      </trkpt>
      <trkpt lat="47.65322" lon="6.18692">
        <ele>282.02</ele>
        <time>2019-06-26T06:13:05Z</time>
      </trkpt>
      <trkpt lat="47.65318" lon="6.18697">
        <ele>281.99</ele>
        <time>2019-06-26T06:13:07Z</time>
      </trkpt>
      <trkpt lat="47.65313" lon="6.18702">
        <ele>281.96</ele>
        <time>2019-06-26T06:13:09Z</time>
      </trkpt>
      <trkpt lat="47.65309" lon="6.18708">
        <ele>281.94</ele>
        <time>2019-06-26T06:13:11Z</time>
      </trkpt>
      <trkpt lat="47.65303" lon="6.18714">
        <ele>281.91</ele>
        <time>2019-06-26T06:13:13Z</time>
      </trkpt>
      <trkpt lat="47.65297" lon="6.18721">
        <ele>281.7</ele>
        <time>2019-06-26T06:13:15Z</time>
      </trkpt>
      <trkpt lat="47.6529" lon="6.18729">
        <ele>281.51</ele>
        <time>2019-06-26T06:13:17Z</time>
      </trkpt>
      <trkpt lat="47.65286" lon="6.18733">
        <ele>281.43</ele>
        <time>2019-06-26T06:13:18Z</time>
      </trkpt>
      <trkpt lat="47.65278" lon="6.18743">
        <ele>281.36</ele>
        <time>2019-06-26T06:13:19Z</time>
      </trkpt>
      <trkpt lat="47.65274" lon="6.18748">
        <ele>281.29</ele>
        <time>2019-06-26T06:13:20Z</time>
      </trkpt>
      <trkpt lat="47.6527" lon="6.18752">
        <ele>281.23</ele>
        <time>2019-06-26T06:13:21Z</time>
      </trkpt>
      <trkpt lat="47.65265" lon="6.18757">
        <ele>281.18</ele>
        <time>2019-06-26T06:13:22Z</time>
      </trkpt>
      <trkpt lat="47.65261" lon="6.18762">
        <ele>281.13</ele>
        <time>2019-06-26T06:13:23Z</time>
      </trkpt>
      <trkpt lat="47.65257" lon="6.18767">
        <ele>281.08</ele>
        <time>2019-06-26T06:13:24Z</time>
      </trkpt>
      <trkpt lat="47.65252" lon="6.18772">
        <ele>281.04</ele>
        <time>2019-06-26T06:13:25Z</time>
      </trkpt>
      <trkpt lat="47.65248" lon="6.18777">
        <ele>281</ele>
        <time>2019-06-26T06:13:26Z</time>
      </trkpt>
      <trkpt lat="47.65244" lon="6.18781">
        <ele>280.96</ele>
        <time>2019-06-26T06:13:27Z</time>
      </trkpt>
      <trkpt lat="47.6524" lon="6.18785">
        <ele>280.92</ele>
        <time>2019-06-26T06:13:28Z</time>
      </trkpt>
      <trkpt lat="47.65237" lon="6.1879">
        <ele>280.88</ele>
        <time>2019-06-26T06:13:29Z</time>
      </trkpt>
      <trkpt lat="47.65233" lon="6.18794">
        <ele>280.85</ele>
        <time>2019-06-26T06:13:30Z</time>
      </trkpt>
      <trkpt lat="47.65229" lon="6.18798">
        <ele>280.81</ele>
        <time>2019-06-26T06:13:31Z</time>
      </trkpt>
      <trkpt lat="47.65222" lon="6.18806">
        <ele>280.74</ele>
        <time>2019-06-26T06:13:33Z</time>
      </trkpt>
      <trkpt lat="47.65216" lon="6.18812">
        <ele>280.69</ele>
        <time>2019-06-26T06:13:35Z</time>
      </trkpt>
      <trkpt lat="47.6521" lon="6.18818">
        <ele>280.68</ele>
        <time>2019-06-26T06:13:37Z</time>
      </trkpt>
      <trkpt lat="47.65206" lon="6.18823">
        <ele>280.67</ele>
        <time>2019-06-26T06:13:39Z</time>
      </trkpt>
      <trkpt lat="47.652" lon="6.18829">
        <ele>280.66</ele>
        <time>2019-06-26T06:13:41Z</time>
      </trkpt>
      <trkpt lat="47.65195" lon="6.18835">
        <ele>280.64</ele>
        <time>2019-06-26T06:13:43Z</time>
      </trkpt>
      <trkpt lat="47.65189" lon="6.1884">
        <ele>280.63</ele>
        <time>2019-06-26T06:13:45Z</time>
      </trkpt>
      <trkpt lat="47.65184" lon="6.18846">
        <ele>280.62</ele>
        <time>2019-06-26T06:13:47Z</time>
      </trkpt>
      <trkpt lat="47.65179" lon="6.18851">
        <ele>280.59</ele>
        <time>2019-06-26T06:13:50Z</time>
      </trkpt>
      <trkpt lat="47.65174" lon="6.18856">
        <ele>280.57</ele>
        <time>2019-06-26T06:13:52Z</time>
      </trkpt>
      <trkpt lat="47.6517" lon="6.18861">
        <ele>280.56</ele>
        <time>2019-06-26T06:13:54Z</time>
      </trkpt>
      <trkpt lat="47.65164" lon="6.18866">
        <ele>280.54</ele>
        <time>2019-06-26T06:13:56Z</time>
      </trkpt>
      <trkpt lat="47.65158" lon="6.18873">
        <ele>280.39</ele>
        <time>2019-06-26T06:13:58Z</time>
      </trkpt>
      <trkpt lat="47.65151" lon="6.18879">
        <ele>280.25</ele>
        <time>2019-06-26T06:14:00Z</time>
      </trkpt>
      <trkpt lat="47.65144" lon="6.18887">
        <ele>280.2</ele>
        <time>2019-06-26T06:14:01Z</time>
      </trkpt>
      <trkpt lat="47.6514" lon="6.18892">
        <ele>280.14</ele>
        <time>2019-06-26T06:14:02Z</time>
      </trkpt>
      <trkpt lat="47.65136" lon="6.18896">
        <ele>280.09</ele>
        <time>2019-06-26T06:14:03Z</time>
      </trkpt>
      <trkpt lat="47.65132" lon="6.189">
        <ele>280.05</ele>
        <time>2019-06-26T06:14:04Z</time>
      </trkpt>
      <trkpt lat="47.65128" lon="6.18904">
        <ele>280.01</ele>
        <time>2019-06-26T06:14:05Z</time>
      </trkpt>
      <trkpt lat="47.65124" lon="6.18908">
        <ele>279.97</ele>
        <time>2019-06-26T06:14:06Z</time>
      </trkpt>
      <trkpt lat="47.6512" lon="6.18912">
        <ele>279.94</ele>
        <time>2019-06-26T06:14:07Z</time>
      </trkpt>
      <trkpt lat="47.65117" lon="6.18916">
        <ele>279.91</ele>
        <time>2019-06-26T06:14:08Z</time>
      </trkpt>
      <trkpt lat="47.65109" lon="6.18923">
        <ele>279.85</ele>
        <time>2019-06-26T06:14:10Z</time>
      </trkpt>
      <trkpt lat="47.65103" lon="6.1893">
        <ele>279.81</ele>
        <time>2019-06-26T06:14:12Z</time>
      </trkpt>
      <trkpt lat="47.65097" lon="6.18936">
        <ele>279.8</ele>
        <time>2019-06-26T06:14:14Z</time>
      </trkpt>
      <trkpt lat="47.65093" lon="6.18942">
        <ele>279.8</ele>
        <time>2019-06-26T06:14:16Z</time>
      </trkpt>
      <trkpt lat="47.65089" lon="6.18946">
        <ele>279.79</ele>
        <time>2019-06-26T06:14:18Z</time>
      </trkpt>
      <trkpt lat="47.65084" lon="6.18951">
        <ele>279.79</ele>
        <time>2019-06-26T06:14:21Z</time>
      </trkpt>
      <trkpt lat="47.65079" lon="6.18956">
        <ele>279.79</ele>
        <time>2019-06-26T06:14:23Z</time>
      </trkpt>
      <trkpt lat="47.65074" lon="6.18961">
        <ele>279.78</ele>
        <time>2019-06-26T06:14:25Z</time>
      </trkpt>
      <trkpt lat="47.65069" lon="6.18966">
        <ele>279.78</ele>
        <time>2019-06-26T06:14:27Z</time>
      </trkpt>
      <trkpt lat="47.65062" lon="6.18973">
        <ele>279.75</ele>
        <time>2019-06-26T06:14:29Z</time>
      </trkpt>
      <trkpt lat="47.65056" lon="6.18979">
        <ele>279.71</ele>
        <time>2019-06-26T06:14:31Z</time>
      </trkpt>
      <trkpt lat="47.65047" lon="6.1899">
        <ele>279.67</ele>
        <time>2019-06-26T06:14:33Z</time>
      </trkpt>
      <trkpt lat="47.6504" lon="6.18998">
        <ele>279.63</ele>
        <time>2019-06-26T06:14:35Z</time>
      </trkpt>
      <trkpt lat="47.65036" lon="6.19001">
        <ele>279.61</ele>
        <time>2019-06-26T06:14:36Z</time>
      </trkpt>
      <trkpt lat="47.65032" lon="6.19005">
        <ele>279.58</ele>
        <time>2019-06-26T06:14:37Z</time>
      </trkpt>
      <trkpt lat="47.65027" lon="6.19009">
        <ele>279.56</ele>
        <time>2019-06-26T06:14:38Z</time>
      </trkpt>
      <trkpt lat="47.65023" lon="6.19013">
        <ele>279.54</ele>
        <time>2019-06-26T06:14:39Z</time>
      </trkpt>
      <trkpt lat="47.65018" lon="6.19018">
        <ele>279.52</ele>
        <time>2019-06-26T06:14:40Z</time>
      </trkpt>
      <trkpt lat="47.65014" lon="6.19023">
        <ele>279.49</ele>
        <time>2019-06-26T06:14:41Z</time>
      </trkpt>
      <trkpt lat="47.6501" lon="6.19027">
        <ele>279.47</ele>
        <time>2019-06-26T06:14:42Z</time>
      </trkpt>
      <trkpt lat="47.65006" lon="6.1903">
        <ele>279.44</ele>
        <time>2019-06-26T06:14:43Z</time>
      </trkpt>
      <trkpt lat="47.64999" lon="6.19038">
        <ele>279.38</ele>
        <time>2019-06-26T06:14:45Z</time>
      </trkpt>
      <trkpt lat="47.64995" lon="6.19048">
        <ele>279.36</ele>
        <time>2019-06-26T06:14:47Z</time>
      </trkpt>
      <trkpt lat="47.64993" lon="6.19059">
        <ele>279.36</ele>
        <time>2019-06-26T06:14:49Z</time>
      </trkpt>
      <trkpt lat="47.64994" lon="6.19069">
        <ele>279.35</ele>
        <time>2019-06-26T06:14:51Z</time>
      </trkpt>
      <trkpt lat="47.64998" lon="6.19077">
        <ele>279.34</ele>
        <time>2019-06-26T06:14:53Z</time>
      </trkpt>
      <trkpt lat="47.65003" lon="6.19086">
        <ele>279.33</ele>
        <time>2019-06-26T06:14:55Z</time>
      </trkpt>
      <trkpt lat="47.65007" lon="6.19095">
        <ele>279.32</ele>
        <time>2019-06-26T06:14:57Z</time>
      </trkpt>
      <trkpt lat="47.65012" lon="6.19104">
        <ele>279.32</ele>
        <time>2019-06-26T06:14:59Z</time>
      </trkpt>
      <trkpt lat="47.65016" lon="6.19111">
        <ele>279.31</ele>
        <time>2019-06-26T06:15:01Z</time>
      </trkpt>
      <trkpt lat="47.65022" lon="6.19119">
        <ele>279.31</ele>
        <time>2019-06-26T06:15:03Z</time>
      </trkpt>
      <trkpt lat="47.65025" lon="6.19124">
        <ele>279.31</ele>
        <time>2019-06-26T06:15:05Z</time>
      </trkpt>
      <trkpt lat="47.65029" lon="6.1913">
        <ele>279.31</ele>
        <time>2019-06-26T06:15:07Z</time>
      </trkpt>
      <trkpt lat="47.65033" lon="6.19137">
        <ele>279.31</ele>
        <time>2019-06-26T06:15:09Z</time>
      </trkpt>
      <trkpt lat="47.65037" lon="6.19144">
        <ele>279.31</ele>
        <time>2019-06-26T06:15:11Z</time>
      </trkpt>
      <trkpt lat="47.65041" lon="6.1915">
        <ele>279.32</ele>
        <time>2019-06-26T06:15:13Z</time>
      </trkpt>
      <trkpt lat="47.65045" lon="6.19156">
        <ele>279.32</ele>
        <time>2019-06-26T06:15:15Z</time>
      </trkpt>
      <trkpt lat="47.65049" lon="6.19163">
        <ele>279.33</ele>
        <time>2019-06-26T06:15:17Z</time>
      </trkpt>
      <trkpt lat="47.65053" lon="6.19169">
        <ele>279.34</ele>
        <time>2019-06-26T06:15:19Z</time>
      </trkpt>
      <trkpt lat="47.65057" lon="6.19175">
        <ele>279.36</ele>
        <time>2019-06-26T06:15:21Z</time>
      </trkpt>
      <trkpt lat="47.65061" lon="6.19181">
        <ele>279.37</ele>
        <time>2019-06-26T06:15:23Z</time>
      </trkpt>
      <trkpt lat="47.65065" lon="6.19187">
        <ele>279.38</ele>
        <time>2019-06-26T06:15:25Z</time>
      </trkpt>
      <trkpt lat="47.65069" lon="6.19194">
        <ele>279.4</ele>
        <time>2019-06-26T06:15:27Z</time>
      </trkpt>
      <trkpt lat="47.65073" lon="6.19199">
        <ele>279.42</ele>
        <time>2019-06-26T06:15:29Z</time>
      </trkpt>
      <trkpt lat="47.65077" lon="6.19205">
        <ele>279.44</ele>
        <time>2019-06-26T06:15:31Z</time>
      </trkpt>
      <trkpt lat="47.65081" lon="6.19211">
        <ele>279.46</ele>
        <time>2019-06-26T06:15:33Z</time>
      </trkpt>
      <trkpt lat="47.65085" lon="6.19218">
        <ele>279.48</ele>
        <time>2019-06-26T06:15:35Z</time>
      </trkpt>
      <trkpt lat="47.65089" lon="6.19224">
        <ele>279.51</ele>
        <time>2019-06-26T06:15:37Z</time>
      </trkpt>
      <trkpt lat="47.65093" lon="6.1923">
        <ele>279.54</ele>
        <time>2019-06-26T06:15:39Z</time>
      </trkpt>
      <trkpt lat="47.65097" lon="6.19236">
        <ele>279.57</ele>
        <time>2019-06-26T06:15:41Z</time>
      </trkpt>
      <trkpt lat="47.65101" lon="6.19242">
        <ele>279.6</ele>
        <time>2019-06-26T06:15:43Z</time>
      </trkpt>
      <trkpt lat="47.65106" lon="6.19247">
        <ele>279.63</ele>
        <time>2019-06-26T06:15:45Z</time>
      </trkpt>
      <trkpt lat="47.6511" lon="6.19253">
        <ele>279.67</ele>
        <time>2019-06-26T06:15:47Z</time>
      </trkpt>
      <trkpt lat="47.65114" lon="6.19259">
        <ele>279.7</ele>
        <time>2019-06-26T06:15:49Z</time>
      </trkpt>
      <trkpt lat="47.65118" lon="6.19264">
        <ele>279.74</ele>
        <time>2019-06-26T06:15:51Z</time>
      </trkpt>
      <trkpt lat="47.65123" lon="6.1927">
        <ele>279.78</ele>
        <time>2019-06-26T06:15:53Z</time>
      </trkpt>
      <trkpt lat="47.65127" lon="6.19275">
        <ele>279.81</ele>
        <time>2019-06-26T06:15:55Z</time>
      </trkpt>
      <trkpt lat="47.65132" lon="6.19282">
        <ele>279.98</ele>
        <time>2019-06-26T06:15:57Z</time>
      </trkpt>
      <trkpt lat="47.65139" lon="6.19288">
        <ele>280.28</ele>
        <time>2019-06-26T06:15:59Z</time>
      </trkpt>
      <trkpt lat="47.65145" lon="6.19295">
        <ele>280.51</ele>
        <time>2019-06-26T06:16:01Z</time>
      </trkpt>
      <trkpt lat="47.65152" lon="6.19302">
        <ele>280.63</ele>
        <time>2019-06-26T06:16:03Z</time>
      </trkpt>
      <trkpt lat="47.65157" lon="6.19308">
        <ele>280.66</ele>
        <time>2019-06-26T06:16:05Z</time>
      </trkpt>
      <trkpt lat="47.65163" lon="6.19314">
        <ele>280.68</ele>
        <time>2019-06-26T06:16:07Z</time>
      </trkpt>
      <trkpt lat="47.65168" lon="6.19319">
        <ele>280.7</ele>
        <time>2019-06-26T06:16:09Z</time>
      </trkpt>
      <trkpt lat="47.65174" lon="6.19325">
        <ele>280.72</ele>
        <time>2019-06-26T06:16:11Z</time>
      </trkpt>
      <trkpt lat="47.6518" lon="6.19332">
        <ele>280.74</ele>
        <time>2019-06-26T06:16:13Z</time>
      </trkpt>
      <trkpt lat="47.65185" lon="6.19338">
        <ele>280.9</ele>
        <time>2019-06-26T06:16:15Z</time>
      </trkpt>
      <trkpt lat="47.65191" lon="6.19347">
        <ele>280.97</ele>
        <time>2019-06-26T06:16:16Z</time>
      </trkpt>
      <trkpt lat="47.65197" lon="6.19357">
        <ele>281.08</ele>
        <time>2019-06-26T06:16:18Z</time>
      </trkpt>
      <trkpt lat="47.652" lon="6.19362">
        <ele>281.12</ele>
        <time>2019-06-26T06:16:19Z</time>
      </trkpt>
      <trkpt lat="47.65203" lon="6.19368">
        <ele>281.15</ele>
        <time>2019-06-26T06:16:20Z</time>
      </trkpt>
      <trkpt lat="47.65206" lon="6.19373">
        <ele>281.17</ele>
        <time>2019-06-26T06:16:21Z</time>
      </trkpt>
      <trkpt lat="47.65209" lon="6.19379">
        <ele>281.19</ele>
        <time>2019-06-26T06:16:22Z</time>
      </trkpt>
      <trkpt lat="47.65212" lon="6.19385">
        <ele>281.21</ele>
        <time>2019-06-26T06:16:23Z</time>
      </trkpt>
      <trkpt lat="47.65215" lon="6.1939">
        <ele>281.22</ele>
        <time>2019-06-26T06:16:24Z</time>
      </trkpt>
      <trkpt lat="47.65218" lon="6.19396">
        <ele>281.24</ele>
        <time>2019-06-26T06:16:25Z</time>
      </trkpt>
      <trkpt lat="47.65221" lon="6.19401">
        <ele>281.25</ele>
        <time>2019-06-26T06:16:26Z</time>
      </trkpt>
      <trkpt lat="47.65224" lon="6.19407">
        <ele>281.26</ele>
        <time>2019-06-26T06:16:27Z</time>
      </trkpt>
      <trkpt lat="47.65227" lon="6.19412">
        <ele>281.28</ele>
        <time>2019-06-26T06:16:28Z</time>
      </trkpt>
      <trkpt lat="47.6523" lon="6.19417">
        <ele>281.29</ele>
        <time>2019-06-26T06:16:29Z</time>
      </trkpt>
      <trkpt lat="47.65233" lon="6.19422">
        <ele>281.31</ele>
        <time>2019-06-26T06:16:30Z</time>
      </trkpt>
      <trkpt lat="47.65238" lon="6.19431">
        <ele>281.34</ele>
        <time>2019-06-26T06:16:32Z</time>
      </trkpt>
      <trkpt lat="47.65243" lon="6.1944">
        <ele>281.35</ele>
        <time>2019-06-26T06:16:34Z</time>
      </trkpt>
      <trkpt lat="47.65247" lon="6.19446">
        <ele>281.36</ele>
        <time>2019-06-26T06:16:36Z</time>
      </trkpt>
      <trkpt lat="47.65251" lon="6.19451">
        <ele>281.36</ele>
        <time>2019-06-26T06:16:38Z</time>
      </trkpt>
      <trkpt lat="47.65255" lon="6.19456">
        <ele>281.36</ele>
        <time>2019-06-26T06:16:40Z</time>
      </trkpt>
      <trkpt lat="47.6526" lon="6.19461">
        <ele>281.36</ele>
        <time>2019-06-26T06:16:42Z</time>
      </trkpt>
      <trkpt lat="47.65264" lon="6.19468">
        <ele>281.36</ele>
        <time>2019-06-26T06:16:45Z</time>
      </trkpt>
      <trkpt lat="47.65268" lon="6.19475">
        <ele>281.36</ele>
        <time>2019-06-26T06:16:47Z</time>
      </trkpt>
      <trkpt lat="47.65272" lon="6.19483">
        <ele>281.35</ele>
        <time>2019-06-26T06:16:49Z</time>
      </trkpt>
      <trkpt lat="47.65276" lon="6.19493">
        <ele>281.33</ele>
        <time>2019-06-26T06:16:51Z</time>
      </trkpt>
      <trkpt lat="47.65281" lon="6.19503">
        <ele>281.33</ele>
        <time>2019-06-26T06:16:52Z</time>
      </trkpt>
      <trkpt lat="47.65285" lon="6.19513">
        <ele>281.33</ele>
        <time>2019-06-26T06:16:54Z</time>
      </trkpt>
      <trkpt lat="47.65288" lon="6.19524">
        <ele>281.34</ele>
        <time>2019-06-26T06:16:56Z</time>
      </trkpt>
      <trkpt lat="47.6529" lon="6.19535">
        <ele>281.34</ele>
        <time>2019-06-26T06:16:58Z</time>
      </trkpt>
      <trkpt lat="47.65293" lon="6.19546">
        <ele>281.35</ele>
        <time>2019-06-26T06:17:00Z</time>
      </trkpt>
      <trkpt lat="47.65295" lon="6.19555">
        <ele>281.36</ele>
        <time>2019-06-26T06:17:02Z</time>
      </trkpt>
      <trkpt lat="47.65299" lon="6.19564">
        <ele>281.37</ele>
        <time>2019-06-26T06:17:04Z</time>
      </trkpt>
      <trkpt lat="47.65301" lon="6.1957">
        <ele>281.36</ele>
        <time>2019-06-26T06:17:05Z</time>
      </trkpt>
      <trkpt lat="47.65304" lon="6.19579">
        <ele>281.34</ele>
        <time>2019-06-26T06:17:06Z</time>
      </trkpt>
      <trkpt lat="47.65307" lon="6.19589">
        <ele>281.31</ele>
        <time>2019-06-26T06:17:07Z</time>
      </trkpt>
      <trkpt lat="47.6531" lon="6.19598">
        <ele>281.27</ele>
        <time>2019-06-26T06:17:08Z</time>
      </trkpt>
      <trkpt lat="47.65314" lon="6.19606">
        <ele>281.24</ele>
        <time>2019-06-26T06:17:09Z</time>
      </trkpt>
      <trkpt lat="47.65316" lon="6.19615">
        <ele>281.2</ele>
        <time>2019-06-26T06:17:10Z</time>
      </trkpt>
      <trkpt lat="47.65318" lon="6.19624">
        <ele>281.16</ele>
        <time>2019-06-26T06:17:11Z</time>
      </trkpt>
      <trkpt lat="47.6532" lon="6.19632">
        <ele>281.11</ele>
        <time>2019-06-26T06:17:12Z</time>
      </trkpt>
      <trkpt lat="47.65322" lon="6.1964">
        <ele>281.06</ele>
        <time>2019-06-26T06:17:13Z</time>
      </trkpt>
      <trkpt lat="47.65324" lon="6.19647">
        <ele>281.01</ele>
        <time>2019-06-26T06:17:14Z</time>
      </trkpt>
      <trkpt lat="47.65326" lon="6.19654">
        <ele>280.95</ele>
        <time>2019-06-26T06:17:15Z</time>
      </trkpt>
      <trkpt lat="47.65329" lon="6.19665">
        <ele>280.86</ele>
        <time>2019-06-26T06:17:17Z</time>
      </trkpt>
      <trkpt lat="47.65332" lon="6.19671">
        <ele>280.84</ele>
        <time>2019-06-26T06:17:18Z</time>
      </trkpt>
      <trkpt lat="47.65337" lon="6.19682">
        <ele>280.81</ele>
        <time>2019-06-26T06:17:21Z</time>
      </trkpt>
      <trkpt lat="47.6534" lon="6.19689">
        <ele>280.78</ele>
        <time>2019-06-26T06:17:23Z</time>
      </trkpt>
      <trkpt lat="47.65344" lon="6.19699">
        <ele>280.75</ele>
        <time>2019-06-26T06:17:25Z</time>
      </trkpt>
      <trkpt lat="47.65349" lon="6.19713">
        <ele>280.74</ele>
        <time>2019-06-26T06:17:26Z</time>
      </trkpt>
      <trkpt lat="47.65351" lon="6.19719">
        <ele>280.73</ele>
        <time>2019-06-26T06:17:28Z</time>
      </trkpt>
      <trkpt lat="47.65355" lon="6.19728">
        <ele>280.72</ele>
        <time>2019-06-26T06:17:30Z</time>
      </trkpt>
      <trkpt lat="47.65359" lon="6.19736">
        <ele>280.71</ele>
        <time>2019-06-26T06:17:33Z</time>
      </trkpt>
      <trkpt lat="47.65362" lon="6.19743">
        <ele>280.71</ele>
        <time>2019-06-26T06:17:35Z</time>
      </trkpt>
      <trkpt lat="47.65366" lon="6.19752">
        <ele>280.72</ele>
        <time>2019-06-26T06:17:37Z</time>
      </trkpt>
      <trkpt lat="47.65369" lon="6.19759">
        <ele>280.73</ele>
        <time>2019-06-26T06:17:39Z</time>
      </trkpt>
      <trkpt lat="47.65374" lon="6.1977">
        <ele>280.74</ele>
        <time>2019-06-26T06:17:41Z</time>
      </trkpt>
      <trkpt lat="47.65378" lon="6.19777">
        <ele>280.74</ele>
        <time>2019-06-26T06:17:43Z</time>
      </trkpt>
      <trkpt lat="47.65381" lon="6.19785">
        <ele>280.74</ele>
        <time>2019-06-26T06:17:45Z</time>
      </trkpt>
      <trkpt lat="47.65385" lon="6.19792">
        <ele>280.73</ele>
        <time>2019-06-26T06:17:47Z</time>
      </trkpt>
      <trkpt lat="47.6539" lon="6.198">
        <ele>280.72</ele>
        <time>2019-06-26T06:17:49Z</time>
      </trkpt>
      <trkpt lat="47.65393" lon="6.19805">
        <ele>280.7</ele>
        <time>2019-06-26T06:17:51Z</time>
      </trkpt>
      <trkpt lat="47.65397" lon="6.1981">
        <ele>280.68</ele>
        <time>2019-06-26T06:17:53Z</time>
      </trkpt>
      <trkpt lat="47.654" lon="6.19816">
        <ele>280.66</ele>
        <time>2019-06-26T06:17:55Z</time>
      </trkpt>
      <trkpt lat="47.65404" lon="6.19821">
        <ele>280.64</ele>
        <time>2019-06-26T06:17:57Z</time>
      </trkpt>
      <trkpt lat="47.65407" lon="6.19827">
        <ele>280.62</ele>
        <time>2019-06-26T06:17:59Z</time>
      </trkpt>
      <trkpt lat="47.6541" lon="6.19834">
        <ele>280.6</ele>
        <time>2019-06-26T06:18:01Z</time>
      </trkpt>
      <trkpt lat="47.65414" lon="6.19841">
        <ele>280.58</ele>
        <time>2019-06-26T06:18:03Z</time>
      </trkpt>
      <trkpt lat="47.65418" lon="6.19846">
        <ele>280.57</ele>
        <time>2019-06-26T06:18:05Z</time>
      </trkpt>
      <trkpt lat="47.65421" lon="6.19852">
        <ele>280.55</ele>
        <time>2019-06-26T06:18:07Z</time>
      </trkpt>
      <trkpt lat="47.65426" lon="6.19858">
        <ele>280.52</ele>
        <time>2019-06-26T06:18:09Z</time>
      </trkpt>
      <trkpt lat="47.6543" lon="6.19866">
        <ele>280.49</ele>
        <time>2019-06-26T06:18:11Z</time>
      </trkpt>
      <trkpt lat="47.65434" lon="6.19872">
        <ele>280.45</ele>
        <time>2019-06-26T06:18:13Z</time>
      </trkpt>
      <trkpt lat="47.65437" lon="6.19878">
        <ele>280.29</ele>
        <time>2019-06-26T06:18:15Z</time>
      </trkpt>
      <trkpt lat="47.65439" lon="6.19888">
        <ele>280.1</ele>
        <time>2019-06-26T06:18:17Z</time>
      </trkpt>
      <trkpt lat="47.65441" lon="6.19899">
        <ele>280.07</ele>
        <time>2019-06-26T06:18:19Z</time>
      </trkpt>
      <trkpt lat="47.65444" lon="6.19909">
        <ele>279.89</ele>
        <time>2019-06-26T06:18:21Z</time>
      </trkpt>
      <trkpt lat="47.65449" lon="6.19924">
        <ele>279.71</ele>
        <time>2019-06-26T06:18:23Z</time>
      </trkpt>
      <trkpt lat="47.65453" lon="6.19933">
        <ele>279.66</ele>
        <time>2019-06-26T06:18:25Z</time>
      </trkpt>
      <trkpt lat="47.65456" lon="6.19943">
        <ele>279.64</ele>
        <time>2019-06-26T06:18:27Z</time>
      </trkpt>
      <trkpt lat="47.65459" lon="6.19949">
        <ele>279.63</ele>
        <time>2019-06-26T06:18:28Z</time>
      </trkpt>
      <trkpt lat="47.65463" lon="6.19956">
        <ele>279.61</ele>
        <time>2019-06-26T06:18:30Z</time>
      </trkpt>
      <trkpt lat="47.65468" lon="6.19964">
        <ele>279.59</ele>
        <time>2019-06-26T06:18:32Z</time>
      </trkpt>
      <trkpt lat="47.65474" lon="6.19972">
        <ele>279.56</ele>
        <time>2019-06-26T06:18:34Z</time>
      </trkpt>
      <trkpt lat="47.65479" lon="6.19979">
        <ele>279.54</ele>
        <time>2019-06-26T06:18:36Z</time>
      </trkpt>
      <trkpt lat="47.65485" lon="6.19986">
        <ele>279.52</ele>
        <time>2019-06-26T06:18:38Z</time>
      </trkpt>
      <trkpt lat="47.65489" lon="6.19992">
        <ele>279.5</ele>
        <time>2019-06-26T06:18:40Z</time>
      </trkpt>
      <trkpt lat="47.65493" lon="6.19997">
        <ele>279.49</ele>
        <time>2019-06-26T06:18:42Z</time>
      </trkpt>
      <trkpt lat="47.65498" lon="6.20002">
        <ele>279.48</ele>
        <time>2019-06-26T06:18:45Z</time>
      </trkpt>
      <trkpt lat="47.65502" lon="6.20007">
        <ele>279.48</ele>
        <time>2019-06-26T06:18:47Z</time>
      </trkpt>
      <trkpt lat="47.65507" lon="6.20014">
        <ele>279.48</ele>
        <time>2019-06-26T06:18:49Z</time>
      </trkpt>
      <trkpt lat="47.65512" lon="6.2002">
        <ele>279.47</ele>
        <time>2019-06-26T06:18:51Z</time>
      </trkpt>
      <trkpt lat="47.65518" lon="6.20027">
        <ele>279.47</ele>
        <time>2019-06-26T06:18:53Z</time>
      </trkpt>
      <trkpt lat="47.65523" lon="6.20033">
        <ele>279.46</ele>
        <time>2019-06-26T06:18:55Z</time>
      </trkpt>
      <trkpt lat="47.65527" lon="6.20039">
        <ele>279.45</ele>
        <time>2019-06-26T06:18:57Z</time>
      </trkpt>
      <trkpt lat="47.6553" lon="6.20043">
        <ele>279.45</ele>
        <time>2019-06-26T06:18:59Z</time>
      </trkpt>
      <trkpt lat="47.65536" lon="6.20051">
        <ele>279.44</ele>
        <time>2019-06-26T06:19:01Z</time>
      </trkpt>
      <trkpt lat="47.65541" lon="6.20058">
        <ele>279.44</ele>
        <time>2019-06-26T06:19:03Z</time>
      </trkpt>
      <trkpt lat="47.65545" lon="6.20063">
        <ele>279.43</ele>
        <time>2019-06-26T06:19:05Z</time>
      </trkpt>
      <trkpt lat="47.6555" lon="6.20068">
        <ele>279.42</ele>
        <time>2019-06-26T06:19:07Z</time>
      </trkpt>
      <trkpt lat="47.65554" lon="6.20073">
        <ele>279.41</ele>
        <time>2019-06-26T06:19:09Z</time>
      </trkpt>
      <trkpt lat="47.65558" lon="6.20076">
        <ele>279.4</ele>
        <time>2019-06-26T06:19:11Z</time>
      </trkpt>
      <trkpt lat="47.65562" lon="6.20081">
        <ele>279.39</ele>
        <time>2019-06-26T06:19:13Z</time>
      </trkpt>
      <trkpt lat="47.65568" lon="6.20089">
        <ele>279.37</ele>
        <time>2019-06-26T06:19:15Z</time>
      </trkpt>
      <trkpt lat="47.65572" lon="6.20094">
        <ele>279.36</ele>
        <time>2019-06-26T06:19:17Z</time>
      </trkpt>
      <trkpt lat="47.65578" lon="6.20099">
        <ele>279.34</ele>
        <time>2019-06-26T06:19:19Z</time>
      </trkpt>
      <trkpt lat="47.65582" lon="6.20103">
        <ele>279.32</ele>
        <time>2019-06-26T06:19:21Z</time>
      </trkpt>
      <trkpt lat="47.65586" lon="6.20106">
        <ele>279.31</ele>
        <time>2019-06-26T06:19:23Z</time>
      </trkpt>
      <trkpt lat="47.65592" lon="6.20111">
        <ele>279.29</ele>
        <time>2019-06-26T06:19:25Z</time>
      </trkpt>
      <trkpt lat="47.65596" lon="6.20116">
        <ele>279.28</ele>
        <time>2019-06-26T06:19:27Z</time>
      </trkpt>
      <trkpt lat="47.65602" lon="6.20121">
        <ele>279.26</ele>
        <time>2019-06-26T06:19:30Z</time>
      </trkpt>
      <trkpt lat="47.65606" lon="6.20125">
        <ele>279.25</ele>
        <time>2019-06-26T06:19:32Z</time>
      </trkpt>
      <trkpt lat="47.6561" lon="6.20129">
        <ele>279.23</ele>
        <time>2019-06-26T06:19:34Z</time>
      </trkpt>
      <trkpt lat="47.65614" lon="6.20133">
        <ele>279.22</ele>
        <time>2019-06-26T06:19:36Z</time>
      </trkpt>
      <trkpt lat="47.65618" lon="6.20138">
        <ele>279.21</ele>
        <time>2019-06-26T06:19:38Z</time>
      </trkpt>
      <trkpt lat="47.65624" lon="6.20143">
        <ele>279.19</ele>
        <time>2019-06-26T06:19:40Z</time>
      </trkpt>
      <trkpt lat="47.65629" lon="6.20146">
        <ele>279.17</ele>
        <time>2019-06-26T06:19:43Z</time>
      </trkpt>
      <trkpt lat="47.65634" lon="6.20148">
        <ele>279.16</ele>
        <time>2019-06-26T06:19:45Z</time>
      </trkpt>
      <trkpt lat="47.65638" lon="6.20152">
        <ele>279.15</ele>
        <time>2019-06-26T06:19:47Z</time>
      </trkpt>
      <trkpt lat="47.65641" lon="6.20158">
        <ele>279.14</ele>
        <time>2019-06-26T06:19:49Z</time>
      </trkpt>
      <trkpt lat="47.65643" lon="6.20165">
        <ele>279.13</ele>
        <time>2019-06-26T06:19:51Z</time>
      </trkpt>
      <trkpt lat="47.65645" lon="6.20173">
        <ele>279.12</ele>
        <time>2019-06-26T06:19:53Z</time>
      </trkpt>
      <trkpt lat="47.65649" lon="6.20179">
        <ele>279.12</ele>
        <time>2019-06-26T06:19:55Z</time>
      </trkpt>
      <trkpt lat="47.65654" lon="6.20186">
        <ele>279.11</ele>
        <time>2019-06-26T06:19:57Z</time>
      </trkpt>
      <trkpt lat="47.65661" lon="6.20195">
        <ele>279.07</ele>
        <time>2019-06-26T06:19:59Z</time>
      </trkpt>
      <trkpt lat="47.65667" lon="6.20203">
        <ele>279.05</ele>
        <time>2019-06-26T06:20:01Z</time>
      </trkpt>
      <trkpt lat="47.65674" lon="6.20211">
        <ele>279.05</ele>
        <time>2019-06-26T06:20:03Z</time>
      </trkpt>
      <trkpt lat="47.65679" lon="6.20217">
        <ele>279.05</ele>
        <time>2019-06-26T06:20:05Z</time>
      </trkpt>
      <trkpt lat="47.65683" lon="6.20221">
        <ele>279.05</ele>
        <time>2019-06-26T06:20:07Z</time>
      </trkpt>
      <trkpt lat="47.65686" lon="6.20226">
        <ele>279.05</ele>
        <time>2019-06-26T06:20:10Z</time>
      </trkpt>
      <trkpt lat="47.65685" lon="6.20219">
        <ele>279.21</ele>
        <time>2019-06-26T06:20:51Z</time>
      </trkpt>
      <trkpt lat="47.65681" lon="6.20221">
        <ele>279.27</ele>
        <time>2019-06-26T06:21:22Z</time>
      </trkpt>
      <trkpt lat="47.65679" lon="6.20227">
        <ele>279.27</ele>
        <time>2019-06-26T06:22:12Z</time>
      </trkpt>
      <trkpt lat="47.65683" lon="6.20229">
        <ele>279.2</ele>
        <time>2019-06-26T06:22:30Z</time>
      </trkpt>
      <trkpt lat="47.65687" lon="6.20233">
        <ele>279.14</ele>
        <time>2019-06-26T06:22:34Z</time>
      </trkpt>
      <trkpt lat="47.65691" lon="6.20238">
        <ele>279.1</ele>
        <time>2019-06-26T06:22:36Z</time>
      </trkpt>
      <trkpt lat="47.65696" lon="6.20243">
        <ele>279.07</ele>
        <time>2019-06-26T06:22:38Z</time>
      </trkpt>
      <trkpt lat="47.65701" lon="6.20249">
        <ele>279.03</ele>
        <time>2019-06-26T06:22:40Z</time>
      </trkpt>
      <trkpt lat="47.65706" lon="6.20255">
        <ele>278.99</ele>
        <time>2019-06-26T06:22:42Z</time>
      </trkpt>
      <trkpt lat="47.65711" lon="6.20261">
        <ele>278.95</ele>
        <time>2019-06-26T06:22:44Z</time>
      </trkpt>
      <trkpt lat="47.65717" lon="6.20266">
        <ele>278.91</ele>
        <time>2019-06-26T06:22:46Z</time>
      </trkpt>
      <trkpt lat="47.65723" lon="6.20273">
        <ele>278.75</ele>
        <time>2019-06-26T06:22:48Z</time>
      </trkpt>
      <trkpt lat="47.6573" lon="6.2028">
        <ele>278.61</ele>
        <time>2019-06-26T06:22:49Z</time>
      </trkpt>
      <trkpt lat="47.65734" lon="6.20284">
        <ele>278.48</ele>
        <time>2019-06-26T06:22:50Z</time>
      </trkpt>
      <trkpt lat="47.65737" lon="6.20288">
        <ele>278.37</ele>
        <time>2019-06-26T06:22:51Z</time>
      </trkpt>
      <trkpt lat="47.65742" lon="6.20294">
        <ele>278.29</ele>
        <time>2019-06-26T06:22:52Z</time>
      </trkpt>
      <trkpt lat="47.65747" lon="6.203">
        <ele>278.22</ele>
        <time>2019-06-26T06:22:53Z</time>
      </trkpt>
      <trkpt lat="47.65753" lon="6.20306">
        <ele>278.17</ele>
        <time>2019-06-26T06:22:54Z</time>
      </trkpt>
      <trkpt lat="47.65759" lon="6.20312">
        <ele>278.13</ele>
        <time>2019-06-26T06:22:55Z</time>
      </trkpt>
      <trkpt lat="47.65764" lon="6.20318">
        <ele>278.11</ele>
        <time>2019-06-26T06:22:56Z</time>
      </trkpt>
      <trkpt lat="47.6577" lon="6.20323">
        <ele>278.09</ele>
        <time>2019-06-26T06:22:57Z</time>
      </trkpt>
      <trkpt lat="47.65776" lon="6.20328">
        <ele>278.08</ele>
        <time>2019-06-26T06:22:58Z</time>
      </trkpt>
      <trkpt lat="47.65781" lon="6.20332">
        <ele>278.08</ele>
        <time>2019-06-26T06:22:59Z</time>
      </trkpt>
      <trkpt lat="47.65787" lon="6.20337">
        <ele>278.07</ele>
        <time>2019-06-26T06:23:00Z</time>
      </trkpt>
      <trkpt lat="47.65792" lon="6.20343">
        <ele>278.06</ele>
        <time>2019-06-26T06:23:01Z</time>
      </trkpt>
      <trkpt lat="47.65797" lon="6.20348">
        <ele>278.04</ele>
        <time>2019-06-26T06:23:02Z</time>
      </trkpt>
      <trkpt lat="47.65802" lon="6.20354">
        <ele>278.01</ele>
        <time>2019-06-26T06:23:03Z</time>
      </trkpt>
      <trkpt lat="47.65808" lon="6.2036">
        <ele>277.98</ele>
        <time>2019-06-26T06:23:04Z</time>
      </trkpt>
      <trkpt lat="47.65813" lon="6.20367">
        <ele>277.92</ele>
        <time>2019-06-26T06:23:05Z</time>
      </trkpt>
      <trkpt lat="47.65818" lon="6.20373">
        <ele>277.87</ele>
        <time>2019-06-26T06:23:06Z</time>
      </trkpt>
      <trkpt lat="47.65824" lon="6.2038">
        <ele>277.81</ele>
        <time>2019-06-26T06:23:07Z</time>
      </trkpt>
      <trkpt lat="47.65829" lon="6.20386">
        <ele>277.77</ele>
        <time>2019-06-26T06:23:08Z</time>
      </trkpt>
      <trkpt lat="47.65833" lon="6.20392">
        <ele>277.73</ele>
        <time>2019-06-26T06:23:09Z</time>
      </trkpt>
      <trkpt lat="47.65839" lon="6.20395">
        <ele>277.75</ele>
        <time>2019-06-26T06:23:10Z</time>
      </trkpt>
      <trkpt lat="47.65844" lon="6.20399">
        <ele>277.74</ele>
        <time>2019-06-26T06:23:11Z</time>
      </trkpt>
      <trkpt lat="47.65849" lon="6.20404">
        <ele>277.75</ele>
        <time>2019-06-26T06:23:12Z</time>
      </trkpt>
      <trkpt lat="47.65854" lon="6.20409">
        <ele>277.77</ele>
        <time>2019-06-26T06:23:13Z</time>
      </trkpt>
      <trkpt lat="47.65858" lon="6.20414">
        <ele>277.77</ele>
        <time>2019-06-26T06:23:14Z</time>
      </trkpt>
      <trkpt lat="47.65866" lon="6.20422">
        <ele>277.74</ele>
        <time>2019-06-26T06:23:16Z</time>
      </trkpt>
      <trkpt lat="47.6587" lon="6.20425">
        <ele>277.71</ele>
        <time>2019-06-26T06:23:17Z</time>
      </trkpt>
      <trkpt lat="47.65875" lon="6.20429">
        <ele>277.66</ele>
        <time>2019-06-26T06:23:19Z</time>
      </trkpt>
      <trkpt lat="47.65879" lon="6.20433">
        <ele>277.59</ele>
        <time>2019-06-26T06:23:22Z</time>
      </trkpt>
      <trkpt lat="47.65884" lon="6.20437">
        <ele>277.54</ele>
        <time>2019-06-26T06:23:24Z</time>
      </trkpt>
      <trkpt lat="47.6589" lon="6.20443">
        <ele>277.47</ele>
        <time>2019-06-26T06:23:26Z</time>
      </trkpt>
      <trkpt lat="47.659" lon="6.20453">
        <ele>277.3</ele>
        <time>2019-06-26T06:23:28Z</time>
      </trkpt>
      <trkpt lat="47.65904" lon="6.20457">
        <ele>277.14</ele>
        <time>2019-06-26T06:23:29Z</time>
      </trkpt>
      <trkpt lat="47.65908" lon="6.20461">
        <ele>276.98</ele>
        <time>2019-06-26T06:23:30Z</time>
      </trkpt>
      <trkpt lat="47.65912" lon="6.20465">
        <ele>276.85</ele>
        <time>2019-06-26T06:23:31Z</time>
      </trkpt>
      <trkpt lat="47.65916" lon="6.20468">
        <ele>276.76</ele>
        <time>2019-06-26T06:23:32Z</time>
      </trkpt>
      <trkpt lat="47.65923" lon="6.20475">
        <ele>276.58</ele>
        <time>2019-06-26T06:23:34Z</time>
      </trkpt>
      <trkpt lat="47.6593" lon="6.20481">
        <ele>276.43</ele>
        <time>2019-06-26T06:23:36Z</time>
      </trkpt>
      <trkpt lat="47.65937" lon="6.20486">
        <ele>276.38</ele>
        <time>2019-06-26T06:23:38Z</time>
      </trkpt>
      <trkpt lat="47.65944" lon="6.2049">
        <ele>276.37</ele>
        <time>2019-06-26T06:23:40Z</time>
      </trkpt>
      <trkpt lat="47.65951" lon="6.20494">
        <ele>276.29</ele>
        <time>2019-06-26T06:23:42Z</time>
      </trkpt>
      <trkpt lat="47.65958" lon="6.20499">
        <ele>276.11</ele>
        <time>2019-06-26T06:23:44Z</time>
      </trkpt>
      <trkpt lat="47.65965" lon="6.20504">
        <ele>275.91</ele>
        <time>2019-06-26T06:23:46Z</time>
      </trkpt>
      <trkpt lat="47.65973" lon="6.2051">
        <ele>275.72</ele>
        <time>2019-06-26T06:23:48Z</time>
      </trkpt>
      <trkpt lat="47.65977" lon="6.20513">
        <ele>275.65</ele>
        <time>2019-06-26T06:23:49Z</time>
      </trkpt>
      <trkpt lat="47.65982" lon="6.20516">
        <ele>275.58</ele>
        <time>2019-06-26T06:23:50Z</time>
      </trkpt>
      <trkpt lat="47.65989" lon="6.20521">
        <ele>275.43</ele>
        <time>2019-06-26T06:23:52Z</time>
      </trkpt>
      <trkpt lat="47.65994" lon="6.20524">
        <ele>275.37</ele>
        <time>2019-06-26T06:23:53Z</time>
      </trkpt>
      <trkpt lat="47.65998" lon="6.20526">
        <ele>275.3</ele>
        <time>2019-06-26T06:23:54Z</time>
      </trkpt>
      <trkpt lat="47.66003" lon="6.20528">
        <ele>275.25</ele>
        <time>2019-06-26T06:23:55Z</time>
      </trkpt>
      <trkpt lat="47.66008" lon="6.2053">
        <ele>275.19</ele>
        <time>2019-06-26T06:23:56Z</time>
      </trkpt>
      <trkpt lat="47.66013" lon="6.20532">
        <ele>275.14</ele>
        <time>2019-06-26T06:23:57Z</time>
      </trkpt>
      <trkpt lat="47.66017" lon="6.20533">
        <ele>275.08</ele>
        <time>2019-06-26T06:23:58Z</time>
      </trkpt>
      <trkpt lat="47.66022" lon="6.20536">
        <ele>275.04</ele>
        <time>2019-06-26T06:23:59Z</time>
      </trkpt>
      <trkpt lat="47.66026" lon="6.20538">
        <ele>275.03</ele>
        <time>2019-06-26T06:24:00Z</time>
      </trkpt>
      <trkpt lat="47.66031" lon="6.2054">
        <ele>275.02</ele>
        <time>2019-06-26T06:24:01Z</time>
      </trkpt>
      <trkpt lat="47.66035" lon="6.20543">
        <ele>275.01</ele>
        <time>2019-06-26T06:24:02Z</time>
      </trkpt>
      <trkpt lat="47.6604" lon="6.20545">
        <ele>275.02</ele>
        <time>2019-06-26T06:24:03Z</time>
      </trkpt>
      <trkpt lat="47.66048" lon="6.2055">
        <ele>275.02</ele>
        <time>2019-06-26T06:24:05Z</time>
      </trkpt>
      <trkpt lat="47.66055" lon="6.20555">
        <ele>274.99</ele>
        <time>2019-06-26T06:24:07Z</time>
      </trkpt>
      <trkpt lat="47.66062" lon="6.20558">
        <ele>274.98</ele>
        <time>2019-06-26T06:24:09Z</time>
      </trkpt>
      <trkpt lat="47.66068" lon="6.20563">
        <ele>274.93</ele>
        <time>2019-06-26T06:24:11Z</time>
      </trkpt>
      <trkpt lat="47.66075" lon="6.20567">
        <ele>274.82</ele>
        <time>2019-06-26T06:24:13Z</time>
      </trkpt>
      <trkpt lat="47.66083" lon="6.2057">
        <ele>274.73</ele>
        <time>2019-06-26T06:24:15Z</time>
      </trkpt>
      <trkpt lat="47.6609" lon="6.20574">
        <ele>274.63</ele>
        <time>2019-06-26T06:24:17Z</time>
      </trkpt>
      <trkpt lat="47.66097" lon="6.20578">
        <ele>274.51</ele>
        <time>2019-06-26T06:24:19Z</time>
      </trkpt>
      <trkpt lat="47.66104" lon="6.20581">
        <ele>274.43</ele>
        <time>2019-06-26T06:24:21Z</time>
      </trkpt>
      <trkpt lat="47.6611" lon="6.20585">
        <ele>274.41</ele>
        <time>2019-06-26T06:24:23Z</time>
      </trkpt>
      <trkpt lat="47.66115" lon="6.20588">
        <ele>274.39</ele>
        <time>2019-06-26T06:24:25Z</time>
      </trkpt>
      <trkpt lat="47.66121" lon="6.2059">
        <ele>274.36</ele>
        <time>2019-06-26T06:24:28Z</time>
      </trkpt>
      <trkpt lat="47.66125" lon="6.20593">
        <ele>274.33</ele>
        <time>2019-06-26T06:24:30Z</time>
      </trkpt>
      <trkpt lat="47.6613" lon="6.20597">
        <ele>274.31</ele>
        <time>2019-06-26T06:24:32Z</time>
      </trkpt>
      <trkpt lat="47.66135" lon="6.206">
        <ele>274.28</ele>
        <time>2019-06-26T06:24:34Z</time>
      </trkpt>
      <trkpt lat="47.6614" lon="6.20603">
        <ele>274.26</ele>
        <time>2019-06-26T06:24:36Z</time>
      </trkpt>
      <trkpt lat="47.66145" lon="6.20606">
        <ele>274.24</ele>
        <time>2019-06-26T06:24:38Z</time>
      </trkpt>
      <trkpt lat="47.66151" lon="6.20608">
        <ele>274.21</ele>
        <time>2019-06-26T06:24:40Z</time>
      </trkpt>
      <trkpt lat="47.66157" lon="6.20611">
        <ele>274.12</ele>
        <time>2019-06-26T06:24:42Z</time>
      </trkpt>
      <trkpt lat="47.66164" lon="6.20614">
        <ele>273.93</ele>
        <time>2019-06-26T06:24:44Z</time>
      </trkpt>
      <trkpt lat="47.66172" lon="6.20619">
        <ele>273.78</ele>
        <time>2019-06-26T06:24:46Z</time>
      </trkpt>
      <trkpt lat="47.66182" lon="6.20625">
        <ele>273.67</ele>
        <time>2019-06-26T06:24:48Z</time>
      </trkpt>
      <trkpt lat="47.6619" lon="6.20631">
        <ele>273.55</ele>
        <time>2019-06-26T06:24:50Z</time>
      </trkpt>
      <trkpt lat="47.66195" lon="6.20634">
        <ele>273.49</ele>
        <time>2019-06-26T06:24:51Z</time>
      </trkpt>
      <trkpt lat="47.662" lon="6.20639">
        <ele>273.44</ele>
        <time>2019-06-26T06:24:52Z</time>
      </trkpt>
      <trkpt lat="47.66204" lon="6.20643">
        <ele>273.39</ele>
        <time>2019-06-26T06:24:53Z</time>
      </trkpt>
      <trkpt lat="47.66209" lon="6.20647">
        <ele>273.35</ele>
        <time>2019-06-26T06:24:54Z</time>
      </trkpt>
      <trkpt lat="47.66213" lon="6.20653">
        <ele>273.3</ele>
        <time>2019-06-26T06:24:55Z</time>
      </trkpt>
      <trkpt lat="47.66217" lon="6.20658">
        <ele>273.26</ele>
        <time>2019-06-26T06:24:56Z</time>
      </trkpt>
      <trkpt lat="47.66221" lon="6.20664">
        <ele>273.22</ele>
        <time>2019-06-26T06:24:57Z</time>
      </trkpt>
      <trkpt lat="47.66224" lon="6.2067">
        <ele>273.17</ele>
        <time>2019-06-26T06:24:58Z</time>
      </trkpt>
      <trkpt lat="47.66228" lon="6.20675">
        <ele>273.12</ele>
        <time>2019-06-26T06:24:59Z</time>
      </trkpt>
      <trkpt lat="47.66233" lon="6.20685">
        <ele>273</ele>
        <time>2019-06-26T06:25:01Z</time>
      </trkpt>
      <trkpt lat="47.66238" lon="6.20694">
        <ele>272.87</ele>
        <time>2019-06-26T06:25:03Z</time>
      </trkpt>
      <trkpt lat="47.66245" lon="6.20702">
        <ele>272.75</ele>
        <time>2019-06-26T06:25:05Z</time>
      </trkpt>
      <trkpt lat="47.66249" lon="6.20706">
        <ele>272.69</ele>
        <time>2019-06-26T06:25:06Z</time>
      </trkpt>
      <trkpt lat="47.66256" lon="6.20714">
        <ele>272.55</ele>
        <time>2019-06-26T06:25:08Z</time>
      </trkpt>
      <trkpt lat="47.6626" lon="6.20717">
        <ele>272.49</ele>
        <time>2019-06-26T06:25:09Z</time>
      </trkpt>
      <trkpt lat="47.66267" lon="6.20724">
        <ele>272.42</ele>
        <time>2019-06-26T06:25:11Z</time>
      </trkpt>
      <trkpt lat="47.66275" lon="6.20727">
        <ele>272.4</ele>
        <time>2019-06-26T06:25:13Z</time>
      </trkpt>
      <trkpt lat="47.66282" lon="6.2073">
        <ele>272.27</ele>
        <time>2019-06-26T06:25:15Z</time>
      </trkpt>
      <trkpt lat="47.66288" lon="6.20731">
        <ele>272.2</ele>
        <time>2019-06-26T06:25:16Z</time>
      </trkpt>
      <trkpt lat="47.66292" lon="6.20732">
        <ele>272.13</ele>
        <time>2019-06-26T06:25:17Z</time>
      </trkpt>
      <trkpt lat="47.66302" lon="6.20733">
        <ele>272</ele>
        <time>2019-06-26T06:25:19Z</time>
      </trkpt>
      <trkpt lat="47.66307" lon="6.20734">
        <ele>271.94</ele>
        <time>2019-06-26T06:25:20Z</time>
      </trkpt>
      <trkpt lat="47.66315" lon="6.20735">
        <ele>271.81</ele>
        <time>2019-06-26T06:25:22Z</time>
      </trkpt>
      <trkpt lat="47.6632" lon="6.20736">
        <ele>271.74</ele>
        <time>2019-06-26T06:25:23Z</time>
      </trkpt>
      <trkpt lat="47.66325" lon="6.20737">
        <ele>271.69</ele>
        <time>2019-06-26T06:25:24Z</time>
      </trkpt>
      <trkpt lat="47.66332" lon="6.20739">
        <ele>271.59</ele>
        <time>2019-06-26T06:25:26Z</time>
      </trkpt>
      <trkpt lat="47.66339" lon="6.20743">
        <ele>271.52</ele>
        <time>2019-06-26T06:25:28Z</time>
      </trkpt>
      <trkpt lat="47.66346" lon="6.20748">
        <ele>271.39</ele>
        <time>2019-06-26T06:25:30Z</time>
      </trkpt>
      <trkpt lat="47.66351" lon="6.20756">
        <ele>271.19</ele>
        <time>2019-06-26T06:25:32Z</time>
      </trkpt>
      <trkpt lat="47.66354" lon="6.20762">
        <ele>271.07</ele>
        <time>2019-06-26T06:25:33Z</time>
      </trkpt>
      <trkpt lat="47.66358" lon="6.20775">
        <ele>270.91</ele>
        <time>2019-06-26T06:25:35Z</time>
      </trkpt>
      <trkpt lat="47.66362" lon="6.20785">
        <ele>270.88</ele>
        <time>2019-06-26T06:25:37Z</time>
      </trkpt>
      <trkpt lat="47.66364" lon="6.20797">
        <ele>270.85</ele>
        <time>2019-06-26T06:25:39Z</time>
      </trkpt>
      <trkpt lat="47.66368" lon="6.20808">
        <ele>270.64</ele>
        <time>2019-06-26T06:25:41Z</time>
      </trkpt>
      <trkpt lat="47.66373" lon="6.20816">
        <ele>270.38</ele>
        <time>2019-06-26T06:25:43Z</time>
      </trkpt>
      <trkpt lat="47.66378" lon="6.20826">
        <ele>270.12</ele>
        <time>2019-06-26T06:25:45Z</time>
      </trkpt>
      <trkpt lat="47.66381" lon="6.20838">
        <ele>269.88</ele>
        <time>2019-06-26T06:25:47Z</time>
      </trkpt>
      <trkpt lat="47.66382" lon="6.20845">
        <ele>269.79</ele>
        <time>2019-06-26T06:25:48Z</time>
      </trkpt>
      <trkpt lat="47.66383" lon="6.20852">
        <ele>269.71</ele>
        <time>2019-06-26T06:25:49Z</time>
      </trkpt>
      <trkpt lat="47.66384" lon="6.20863">
        <ele>269.55</ele>
        <time>2019-06-26T06:25:51Z</time>
      </trkpt>
      <trkpt lat="47.66386" lon="6.20871">
        <ele>269.48</ele>
        <time>2019-06-26T06:25:52Z</time>
      </trkpt>
      <trkpt lat="47.66387" lon="6.20878">
        <ele>269.45</ele>
        <time>2019-06-26T06:25:53Z</time>
      </trkpt>
      <trkpt lat="47.6639" lon="6.2089">
        <ele>269.39</ele>
        <time>2019-06-26T06:25:55Z</time>
      </trkpt>
      <trkpt lat="47.66393" lon="6.209">
        <ele>269.38</ele>
        <time>2019-06-26T06:25:57Z</time>
      </trkpt>
      <trkpt lat="47.66397" lon="6.20912">
        <ele>269.34</ele>
        <time>2019-06-26T06:25:59Z</time>
      </trkpt>
      <trkpt lat="47.664" lon="6.20924">
        <ele>269.25</ele>
        <time>2019-06-26T06:26:01Z</time>
      </trkpt>
      <trkpt lat="47.66403" lon="6.20935">
        <ele>269.12</ele>
        <time>2019-06-26T06:26:03Z</time>
      </trkpt>
      <trkpt lat="47.66405" lon="6.20948">
        <ele>268.96</ele>
        <time>2019-06-26T06:26:05Z</time>
      </trkpt>
      <trkpt lat="47.66406" lon="6.20954">
        <ele>268.87</ele>
        <time>2019-06-26T06:26:06Z</time>
      </trkpt>
      <trkpt lat="47.66406" lon="6.20961">
        <ele>268.78</ele>
        <time>2019-06-26T06:26:07Z</time>
      </trkpt>
      <trkpt lat="47.66404" lon="6.20972">
        <ele>268.67</ele>
        <time>2019-06-26T06:26:09Z</time>
      </trkpt>
      <trkpt lat="47.66399" lon="6.20976">
        <ele>268.64</ele>
        <time>2019-06-26T06:26:11Z</time>
      </trkpt>
      <trkpt lat="47.66397" lon="6.20985">
        <ele>268.44</ele>
        <time>2019-06-26T06:26:13Z</time>
      </trkpt>
      <trkpt lat="47.66398" lon="6.20997">
        <ele>268.26</ele>
        <time>2019-06-26T06:26:15Z</time>
      </trkpt>
      <trkpt lat="47.66399" lon="6.21011">
        <ele>268.14</ele>
        <time>2019-06-26T06:26:17Z</time>
      </trkpt>
      <trkpt lat="47.66399" lon="6.21018">
        <ele>268.1</ele>
        <time>2019-06-26T06:26:18Z</time>
      </trkpt>
      <trkpt lat="47.66399" lon="6.21025">
        <ele>268.06</ele>
        <time>2019-06-26T06:26:19Z</time>
      </trkpt>
      <trkpt lat="47.664" lon="6.21033">
        <ele>268.04</ele>
        <time>2019-06-26T06:26:20Z</time>
      </trkpt>
      <trkpt lat="47.664" lon="6.21041">
        <ele>268.03</ele>
        <time>2019-06-26T06:26:21Z</time>
      </trkpt>
      <trkpt lat="47.66401" lon="6.2105">
        <ele>268.02</ele>
        <time>2019-06-26T06:26:22Z</time>
      </trkpt>
      <trkpt lat="47.66401" lon="6.21057">
        <ele>268.02</ele>
        <time>2019-06-26T06:26:23Z</time>
      </trkpt>
      <trkpt lat="47.66402" lon="6.21064">
        <ele>268.02</ele>
        <time>2019-06-26T06:26:24Z</time>
      </trkpt>
      <trkpt lat="47.66402" lon="6.21072">
        <ele>268.02</ele>
        <time>2019-06-26T06:26:25Z</time>
      </trkpt>
      <trkpt lat="47.66403" lon="6.2108">
        <ele>268.03</ele>
        <time>2019-06-26T06:26:26Z</time>
      </trkpt>
      <trkpt lat="47.66404" lon="6.21088">
        <ele>268.04</ele>
        <time>2019-06-26T06:26:27Z</time>
      </trkpt>
      <trkpt lat="47.66404" lon="6.21096">
        <ele>268.04</ele>
        <time>2019-06-26T06:26:28Z</time>
      </trkpt>
      <trkpt lat="47.66405" lon="6.21104">
        <ele>268.05</ele>
        <time>2019-06-26T06:26:29Z</time>
      </trkpt>
      <trkpt lat="47.66406" lon="6.21112">
        <ele>268.05</ele>
        <time>2019-06-26T06:26:30Z</time>
      </trkpt>
      <trkpt lat="47.66407" lon="6.21121">
        <ele>268.06</ele>
        <time>2019-06-26T06:26:31Z</time>
      </trkpt>
      <trkpt lat="47.66408" lon="6.21128">
        <ele>268.06</ele>
        <time>2019-06-26T06:26:32Z</time>
      </trkpt>
      <trkpt lat="47.66409" lon="6.21136">
        <ele>268.07</ele>
        <time>2019-06-26T06:26:33Z</time>
      </trkpt>
      <trkpt lat="47.66409" lon="6.21144">
        <ele>268.07</ele>
        <time>2019-06-26T06:26:34Z</time>
      </trkpt>
      <trkpt lat="47.66409" lon="6.21153">
        <ele>268.06</ele>
        <time>2019-06-26T06:26:35Z</time>
      </trkpt>
      <trkpt lat="47.66404" lon="6.21161">
        <ele>268</ele>
        <time>2019-06-26T06:26:36Z</time>
      </trkpt>
      <trkpt lat="47.664" lon="6.21171">
        <ele>267.92</ele>
        <time>2019-06-26T06:26:37Z</time>
      </trkpt>
      <trkpt lat="47.66397" lon="6.21179">
        <ele>267.83</ele>
        <time>2019-06-26T06:26:38Z</time>
      </trkpt>
      <trkpt lat="47.66393" lon="6.21187">
        <ele>267.75</ele>
        <time>2019-06-26T06:26:39Z</time>
      </trkpt>
      <trkpt lat="47.66389" lon="6.21196">
        <ele>267.64</ele>
        <time>2019-06-26T06:26:40Z</time>
      </trkpt>
      <trkpt lat="47.66386" lon="6.21205">
        <ele>267.53</ele>
        <time>2019-06-26T06:26:41Z</time>
      </trkpt>
      <trkpt lat="47.66382" lon="6.21213">
        <ele>267.41</ele>
        <time>2019-06-26T06:26:42Z</time>
      </trkpt>
      <trkpt lat="47.66378" lon="6.21221">
        <ele>267.29</ele>
        <time>2019-06-26T06:26:43Z</time>
      </trkpt>
      <trkpt lat="47.66374" lon="6.21229">
        <ele>267.21</ele>
        <time>2019-06-26T06:26:44Z</time>
      </trkpt>
      <trkpt lat="47.6637" lon="6.21237">
        <ele>267.11</ele>
        <time>2019-06-26T06:26:45Z</time>
      </trkpt>
      <trkpt lat="47.66367" lon="6.21245">
        <ele>267.02</ele>
        <time>2019-06-26T06:26:46Z</time>
      </trkpt>
      <trkpt lat="47.66362" lon="6.21253">
        <ele>266.95</ele>
        <time>2019-06-26T06:26:47Z</time>
      </trkpt>
      <trkpt lat="47.66359" lon="6.21261">
        <ele>266.89</ele>
        <time>2019-06-26T06:26:48Z</time>
      </trkpt>
      <trkpt lat="47.66356" lon="6.21269">
        <ele>266.83</ele>
        <time>2019-06-26T06:26:49Z</time>
      </trkpt>
      <trkpt lat="47.66353" lon="6.21277">
        <ele>266.79</ele>
        <time>2019-06-26T06:26:50Z</time>
      </trkpt>
      <trkpt lat="47.6635" lon="6.21285">
        <ele>266.76</ele>
        <time>2019-06-26T06:26:51Z</time>
      </trkpt>
      <trkpt lat="47.66349" lon="6.21293">
        <ele>266.73</ele>
        <time>2019-06-26T06:26:52Z</time>
      </trkpt>
      <trkpt lat="47.66347" lon="6.21301">
        <ele>266.72</ele>
        <time>2019-06-26T06:26:53Z</time>
      </trkpt>
      <trkpt lat="47.66345" lon="6.21308">
        <ele>266.68</ele>
        <time>2019-06-26T06:26:54Z</time>
      </trkpt>
      <trkpt lat="47.66343" lon="6.21314">
        <ele>266.64</ele>
        <time>2019-06-26T06:26:55Z</time>
      </trkpt>
      <trkpt lat="47.6634" lon="6.21327">
        <ele>266.68</ele>
        <time>2019-06-26T06:26:57Z</time>
      </trkpt>
      <trkpt lat="47.66338" lon="6.21339">
        <ele>266.67</ele>
        <time>2019-06-26T06:26:59Z</time>
      </trkpt>
      <trkpt lat="47.66336" lon="6.21349">
        <ele>266.68</ele>
        <time>2019-06-26T06:27:01Z</time>
      </trkpt>
      <trkpt lat="47.66334" lon="6.21359">
        <ele>266.71</ele>
        <time>2019-06-26T06:27:04Z</time>
      </trkpt>
      <trkpt lat="47.66332" lon="6.21367">
        <ele>266.74</ele>
        <time>2019-06-26T06:27:07Z</time>
      </trkpt>
      <trkpt lat="47.66329" lon="6.21375">
        <ele>266.79</ele>
        <time>2019-06-26T06:27:10Z</time>
      </trkpt>
      <trkpt lat="47.66324" lon="6.21383">
        <ele>266.83</ele>
        <time>2019-06-26T06:27:13Z</time>
      </trkpt>
      <trkpt lat="47.66321" lon="6.21391">
        <ele>266.85</ele>
        <time>2019-06-26T06:27:15Z</time>
      </trkpt>
      <trkpt lat="47.66318" lon="6.214">
        <ele>266.92</ele>
        <time>2019-06-26T06:27:16Z</time>
      </trkpt>
      <trkpt lat="47.66316" lon="6.21406">
        <ele>266.97</ele>
        <time>2019-06-26T06:27:17Z</time>
      </trkpt>
      <trkpt lat="47.66315" lon="6.21414">
        <ele>267</ele>
        <time>2019-06-26T06:27:18Z</time>
      </trkpt>
      <trkpt lat="47.66314" lon="6.2142">
        <ele>267.01</ele>
        <time>2019-06-26T06:27:19Z</time>
      </trkpt>
      <trkpt lat="47.66314" lon="6.21428">
        <ele>266.97</ele>
        <time>2019-06-26T06:27:20Z</time>
      </trkpt>
      <trkpt lat="47.66313" lon="6.21435">
        <ele>266.89</ele>
        <time>2019-06-26T06:27:21Z</time>
      </trkpt>
      <trkpt lat="47.66313" lon="6.21442">
        <ele>266.82</ele>
        <time>2019-06-26T06:27:22Z</time>
      </trkpt>
      <trkpt lat="47.66312" lon="6.2145">
        <ele>266.74</ele>
        <time>2019-06-26T06:27:23Z</time>
      </trkpt>
      <trkpt lat="47.66312" lon="6.21457">
        <ele>266.67</ele>
        <time>2019-06-26T06:27:24Z</time>
      </trkpt>
      <trkpt lat="47.66311" lon="6.21465">
        <ele>266.66</ele>
        <time>2019-06-26T06:27:25Z</time>
      </trkpt>
      <trkpt lat="47.66311" lon="6.21472">
        <ele>266.67</ele>
        <time>2019-06-26T06:27:26Z</time>
      </trkpt>
      <trkpt lat="47.6631" lon="6.21479">
        <ele>266.7</ele>
        <time>2019-06-26T06:27:27Z</time>
      </trkpt>
      <trkpt lat="47.66309" lon="6.2149">
        <ele>266.81</ele>
        <time>2019-06-26T06:27:29Z</time>
      </trkpt>
      <trkpt lat="47.66309" lon="6.21501">
        <ele>266.93</ele>
        <time>2019-06-26T06:27:31Z</time>
      </trkpt>
      <trkpt lat="47.66309" lon="6.2151">
        <ele>266.96</ele>
        <time>2019-06-26T06:27:33Z</time>
      </trkpt>
      <trkpt lat="47.66309" lon="6.21519">
        <ele>266.99</ele>
        <time>2019-06-26T06:27:35Z</time>
      </trkpt>
      <trkpt lat="47.66309" lon="6.21527">
        <ele>267.03</ele>
        <time>2019-06-26T06:27:37Z</time>
      </trkpt>
      <trkpt lat="47.6631" lon="6.21534">
        <ele>267.07</ele>
        <time>2019-06-26T06:27:39Z</time>
      </trkpt>
      <trkpt lat="47.66312" lon="6.21542">
        <ele>267.12</ele>
        <time>2019-06-26T06:27:41Z</time>
      </trkpt>
      <trkpt lat="47.66313" lon="6.21549">
        <ele>267.16</ele>
        <time>2019-06-26T06:27:43Z</time>
      </trkpt>
      <trkpt lat="47.66313" lon="6.21556">
        <ele>267.2</ele>
        <time>2019-06-26T06:27:45Z</time>
      </trkpt>
      <trkpt lat="47.66315" lon="6.21563">
        <ele>267.23</ele>
        <time>2019-06-26T06:27:47Z</time>
      </trkpt>
      <trkpt lat="47.66316" lon="6.21571">
        <ele>267.26</ele>
        <time>2019-06-26T06:27:49Z</time>
      </trkpt>
      <trkpt lat="47.66317" lon="6.21579">
        <ele>267.29</ele>
        <time>2019-06-26T06:27:51Z</time>
      </trkpt>
      <trkpt lat="47.66318" lon="6.21587">
        <ele>267.33</ele>
        <time>2019-06-26T06:27:53Z</time>
      </trkpt>
      <trkpt lat="47.66319" lon="6.21595">
        <ele>267.35</ele>
        <time>2019-06-26T06:27:55Z</time>
      </trkpt>
      <trkpt lat="47.6632" lon="6.21602">
        <ele>267.37</ele>
        <time>2019-06-26T06:27:57Z</time>
      </trkpt>
      <trkpt lat="47.66322" lon="6.2161">
        <ele>267.38</ele>
        <time>2019-06-26T06:27:59Z</time>
      </trkpt>
      <trkpt lat="47.66322" lon="6.21618">
        <ele>267.38</ele>
        <time>2019-06-26T06:28:01Z</time>
      </trkpt>
      <trkpt lat="47.66323" lon="6.21625">
        <ele>267.4</ele>
        <time>2019-06-26T06:28:03Z</time>
      </trkpt>
      <trkpt lat="47.66324" lon="6.21631">
        <ele>267.41</ele>
        <time>2019-06-26T06:28:05Z</time>
      </trkpt>
      <trkpt lat="47.66325" lon="6.21638">
        <ele>267.43</ele>
        <time>2019-06-26T06:28:07Z</time>
      </trkpt>
      <trkpt lat="47.66326" lon="6.21648">
        <ele>267.48</ele>
        <time>2019-06-26T06:28:10Z</time>
      </trkpt>
      <trkpt lat="47.66326" lon="6.21657">
        <ele>267.53</ele>
        <time>2019-06-26T06:28:13Z</time>
      </trkpt>
      <trkpt lat="47.66327" lon="6.21664">
        <ele>267.59</ele>
        <time>2019-06-26T06:28:15Z</time>
      </trkpt>
      <trkpt lat="47.66327" lon="6.21672">
        <ele>267.64</ele>
        <time>2019-06-26T06:28:17Z</time>
      </trkpt>
      <trkpt lat="47.66327" lon="6.21682">
        <ele>267.7</ele>
        <time>2019-06-26T06:28:20Z</time>
      </trkpt>
      <trkpt lat="47.66327" lon="6.21692">
        <ele>267.77</ele>
        <time>2019-06-26T06:28:23Z</time>
      </trkpt>
      <trkpt lat="47.66327" lon="6.21703">
        <ele>267.84</ele>
        <time>2019-06-26T06:28:26Z</time>
      </trkpt>
      <trkpt lat="47.66327" lon="6.21712">
        <ele>267.91</ele>
        <time>2019-06-26T06:28:29Z</time>
      </trkpt>
      <trkpt lat="47.66326" lon="6.21722">
        <ele>267.96</ele>
        <time>2019-06-26T06:28:31Z</time>
      </trkpt>
      <trkpt lat="47.66325" lon="6.21731">
        <ele>268.01</ele>
        <time>2019-06-26T06:28:33Z</time>
      </trkpt>
      <trkpt lat="47.66324" lon="6.21738">
        <ele>268.06</ele>
        <time>2019-06-26T06:28:35Z</time>
      </trkpt>
      <trkpt lat="47.66323" lon="6.21745">
        <ele>268.12</ele>
        <time>2019-06-26T06:28:37Z</time>
      </trkpt>
      <trkpt lat="47.66322" lon="6.21752">
        <ele>268.17</ele>
        <time>2019-06-26T06:28:39Z</time>
      </trkpt>
      <trkpt lat="47.6632" lon="6.21761">
        <ele>268.25</ele>
        <time>2019-06-26T06:28:42Z</time>
      </trkpt>
      <trkpt lat="47.66319" lon="6.21769">
        <ele>268.34</ele>
        <time>2019-06-26T06:28:45Z</time>
      </trkpt>
      <trkpt lat="47.66316" lon="6.21777">
        <ele>268.43</ele>
        <time>2019-06-26T06:28:48Z</time>
      </trkpt>
      <trkpt lat="47.66314" lon="6.21784">
        <ele>268.53</ele>
        <time>2019-06-26T06:28:51Z</time>
      </trkpt>
      <trkpt lat="47.66313" lon="6.21791">
        <ele>268.67</ele>
        <time>2019-06-26T06:28:55Z</time>
      </trkpt>
      <trkpt lat="47.66311" lon="6.21797">
        <ele>268.77</ele>
        <time>2019-06-26T06:28:58Z</time>
      </trkpt>
      <trkpt lat="47.66308" lon="6.21803">
        <ele>268.84</ele>
        <time>2019-06-26T06:29:00Z</time>
      </trkpt>
      <trkpt lat="47.66304" lon="6.21811">
        <ele>268.9</ele>
        <time>2019-06-26T06:29:02Z</time>
      </trkpt>
      <trkpt lat="47.66301" lon="6.21817">
        <ele>268.97</ele>
        <time>2019-06-26T06:29:04Z</time>
      </trkpt>
      <trkpt lat="47.66298" lon="6.21822">
        <ele>269.03</ele>
        <time>2019-06-26T06:29:06Z</time>
      </trkpt>
      <trkpt lat="47.66295" lon="6.21826">
        <ele>269.08</ele>
        <time>2019-06-26T06:29:08Z</time>
      </trkpt>
      <trkpt lat="47.6629" lon="6.21834">
        <ele>269.17</ele>
        <time>2019-06-26T06:29:11Z</time>
      </trkpt>
      <trkpt lat="47.66287" lon="6.21841">
        <ele>269.26</ele>
        <time>2019-06-26T06:29:14Z</time>
      </trkpt>
      <trkpt lat="47.66284" lon="6.21848">
        <ele>269.33</ele>
        <time>2019-06-26T06:29:17Z</time>
      </trkpt>
      <trkpt lat="47.66282" lon="6.21854">
        <ele>269.39</ele>
        <time>2019-06-26T06:29:20Z</time>
      </trkpt>
      <trkpt lat="47.66281" lon="6.21862">
        <ele>269.45</ele>
        <time>2019-06-26T06:29:24Z</time>
      </trkpt>
      <trkpt lat="47.66281" lon="6.21869">
        <ele>269.49</ele>
        <time>2019-06-26T06:29:28Z</time>
      </trkpt>
      <trkpt lat="47.66281" lon="6.21876">
        <ele>269.52</ele>
        <time>2019-06-26T06:29:32Z</time>
      </trkpt>
      <trkpt lat="47.6628" lon="6.21883">
        <ele>269.54</ele>
        <time>2019-06-26T06:29:36Z</time>
      </trkpt>
      <trkpt lat="47.66277" lon="6.21889">
        <ele>269.54</ele>
        <time>2019-06-26T06:29:40Z</time>
      </trkpt>
      <trkpt lat="47.66273" lon="6.21891">
        <ele>269.46</ele>
        <time>2019-06-26T06:29:42Z</time>
      </trkpt>
      <trkpt lat="47.66266" lon="6.21895">
        <ele>269.35</ele>
        <time>2019-06-26T06:29:44Z</time>
      </trkpt>
      <trkpt lat="47.6626" lon="6.21899">
        <ele>269.23</ele>
        <time>2019-06-26T06:29:46Z</time>
      </trkpt>
      <trkpt lat="47.66255" lon="6.21903">
        <ele>269.12</ele>
        <time>2019-06-26T06:29:48Z</time>
      </trkpt>
      <trkpt lat="47.66252" lon="6.2191">
        <ele>269.01</ele>
        <time>2019-06-26T06:29:50Z</time>
      </trkpt>
      <trkpt lat="47.66249" lon="6.21917">
        <ele>268.91</ele>
        <time>2019-06-26T06:29:52Z</time>
      </trkpt>
      <trkpt lat="47.66245" lon="6.21923">
        <ele>268.8</ele>
        <time>2019-06-26T06:29:54Z</time>
      </trkpt>
      <trkpt lat="47.6624" lon="6.21929">
        <ele>268.66</ele>
        <time>2019-06-26T06:29:57Z</time>
      </trkpt>
      <trkpt lat="47.66235" lon="6.21934">
        <ele>268.54</ele>
        <time>2019-06-26T06:30:00Z</time>
      </trkpt>
      <trkpt lat="47.66231" lon="6.21939">
        <ele>268.46</ele>
        <time>2019-06-26T06:30:03Z</time>
      </trkpt>
      <trkpt lat="47.66227" lon="6.21943">
        <ele>268.39</ele>
        <time>2019-06-26T06:30:06Z</time>
      </trkpt>
      <trkpt lat="47.66224" lon="6.21948">
        <ele>268.28</ele>
        <time>2019-06-26T06:30:12Z</time>
      </trkpt>
      <trkpt lat="47.66219" lon="6.21952">
        <ele>268.15</ele>
        <time>2019-06-26T06:30:18Z</time>
      </trkpt>
      <trkpt lat="47.66215" lon="6.21954">
        <ele>268.07</ele>
        <time>2019-06-26T06:30:22Z</time>
      </trkpt>
      <trkpt lat="47.6621" lon="6.21956">
        <ele>268.01</ele>
        <time>2019-06-26T06:30:26Z</time>
      </trkpt>
      <trkpt lat="47.66205" lon="6.21957">
        <ele>267.98</ele>
        <time>2019-06-26T06:30:30Z</time>
      </trkpt>
      <trkpt lat="47.66199" lon="6.21958">
        <ele>267.95</ele>
        <time>2019-06-26T06:30:34Z</time>
      </trkpt>
      <trkpt lat="47.66194" lon="6.21958">
        <ele>267.94</ele>
        <time>2019-06-26T06:30:38Z</time>
      </trkpt>
      <trkpt lat="47.6619" lon="6.21958">
        <ele>267.93</ele>
        <time>2019-06-26T06:30:42Z</time>
      </trkpt>
      <trkpt lat="47.66185" lon="6.21957">
        <ele>267.93</ele>
        <time>2019-06-26T06:30:45Z</time>
      </trkpt>
      <trkpt lat="47.6618" lon="6.21955">
        <ele>267.95</ele>
        <time>2019-06-26T06:30:49Z</time>
      </trkpt>
      <trkpt lat="47.66176" lon="6.21951">
        <ele>267.97</ele>
        <time>2019-06-26T06:30:53Z</time>
      </trkpt>
      <trkpt lat="47.66172" lon="6.21945">
        <ele>268.01</ele>
        <time>2019-06-26T06:30:57Z</time>
      </trkpt>
      <trkpt lat="47.66169" lon="6.2194">
        <ele>268.05</ele>
        <time>2019-06-26T06:31:01Z</time>
      </trkpt>
      <trkpt lat="47.66165" lon="6.21935">
        <ele>268.12</ele>
        <time>2019-06-26T06:31:05Z</time>
      </trkpt>
      <trkpt lat="47.66161" lon="6.21931">
        <ele>268.21</ele>
        <time>2019-06-26T06:31:09Z</time>
      </trkpt>
      <trkpt lat="47.66157" lon="6.21926">
        <ele>268.31</ele>
        <time>2019-06-26T06:31:13Z</time>
      </trkpt>
      <trkpt lat="47.66153" lon="6.2192">
        <ele>268.44</ele>
        <time>2019-06-26T06:31:17Z</time>
      </trkpt>
      <trkpt lat="47.6615" lon="6.21915">
        <ele>268.57</ele>
        <time>2019-06-26T06:31:21Z</time>
      </trkpt>
      <trkpt lat="47.66146" lon="6.21911">
        <ele>268.72</ele>
        <time>2019-06-26T06:31:25Z</time>
      </trkpt>
      <trkpt lat="47.66143" lon="6.21906">
        <ele>268.88</ele>
        <time>2019-06-26T06:31:29Z</time>
      </trkpt>
      <trkpt lat="47.66139" lon="6.21901">
        <ele>269.01</ele>
        <time>2019-06-26T06:31:33Z</time>
      </trkpt>
      <trkpt lat="47.66134" lon="6.21897">
        <ele>269.16</ele>
        <time>2019-06-26T06:31:37Z</time>
      </trkpt>
      <trkpt lat="47.66131" lon="6.21892">
        <ele>269.26</ele>
        <time>2019-06-26T06:31:41Z</time>
      </trkpt>
      <trkpt lat="47.66127" lon="6.21887">
        <ele>269.33</ele>
        <time>2019-06-26T06:31:45Z</time>
      </trkpt>
      <trkpt lat="47.66123" lon="6.21883">
        <ele>269.41</ele>
        <time>2019-06-26T06:31:49Z</time>
      </trkpt>
      <trkpt lat="47.6612" lon="6.21878">
        <ele>269.46</ele>
        <time>2019-06-26T06:31:53Z</time>
      </trkpt>
      <trkpt lat="47.66115" lon="6.21874">
        <ele>269.49</ele>
        <time>2019-06-26T06:31:57Z</time>
      </trkpt>
      <trkpt lat="47.6611" lon="6.21872">
        <ele>269.51</ele>
        <time>2019-06-26T06:32:00Z</time>
      </trkpt>
      <trkpt lat="47.66105" lon="6.21869">
        <ele>269.51</ele>
        <time>2019-06-26T06:32:03Z</time>
      </trkpt>
      <trkpt lat="47.66101" lon="6.21864">
        <ele>269.5</ele>
        <time>2019-06-26T06:32:07Z</time>
      </trkpt>
      <trkpt lat="47.66099" lon="6.21858">
        <ele>269.46</ele>
        <time>2019-06-26T06:32:11Z</time>
      </trkpt>
      <trkpt lat="47.66095" lon="6.21852">
        <ele>269.41</ele>
        <time>2019-06-26T06:32:15Z</time>
      </trkpt>
      <trkpt lat="47.66091" lon="6.21847">
        <ele>269.36</ele>
        <time>2019-06-26T06:32:19Z</time>
      </trkpt>
      <trkpt lat="47.66087" lon="6.21842">
        <ele>269.3</ele>
        <time>2019-06-26T06:32:23Z</time>
      </trkpt>
      <trkpt lat="47.66083" lon="6.21837">
        <ele>269.24</ele>
        <time>2019-06-26T06:32:27Z</time>
      </trkpt>
      <trkpt lat="47.66079" lon="6.21833">
        <ele>269.17</ele>
        <time>2019-06-26T06:32:31Z</time>
      </trkpt>
      <trkpt lat="47.66075" lon="6.21828">
        <ele>269.1</ele>
        <time>2019-06-26T06:32:35Z</time>
      </trkpt>
      <trkpt lat="47.66071" lon="6.21823">
        <ele>269.03</ele>
        <time>2019-06-26T06:32:39Z</time>
      </trkpt>
      <trkpt lat="47.66067" lon="6.21818">
        <ele>268.95</ele>
        <time>2019-06-26T06:32:43Z</time>
      </trkpt>
      <trkpt lat="47.66064" lon="6.21813">
        <ele>268.88</ele>
        <time>2019-06-26T06:32:47Z</time>
      </trkpt>
      <trkpt lat="47.66059" lon="6.2181">
        <ele>268.82</ele>
        <time>2019-06-26T06:32:51Z</time>
      </trkpt>
      <trkpt lat="47.66054" lon="6.21807">
        <ele>268.75</ele>
        <time>2019-06-26T06:32:56Z</time>
      </trkpt>
      <trkpt lat="47.6605" lon="6.21803">
        <ele>268.7</ele>
        <time>2019-06-26T06:33:00Z</time>
      </trkpt>
      <trkpt lat="47.66047" lon="6.21797">
        <ele>268.66</ele>
        <time>2019-06-26T06:33:04Z</time>
      </trkpt>
      <trkpt lat="47.66045" lon="6.21789">
        <ele>268.62</ele>
        <time>2019-06-26T06:33:08Z</time>
      </trkpt>
      <trkpt lat="47.66042" lon="6.21783">
        <ele>268.6</ele>
        <time>2019-06-26T06:33:11Z</time>
      </trkpt>
      <trkpt lat="47.66037" lon="6.21778">
        <ele>268.58</ele>
        <time>2019-06-26T06:33:15Z</time>
      </trkpt>
      <trkpt lat="47.66033" lon="6.21772">
        <ele>268.56</ele>
        <time>2019-06-26T06:33:19Z</time>
      </trkpt>
      <trkpt lat="47.66029" lon="6.21766">
        <ele>268.56</ele>
        <time>2019-06-26T06:33:23Z</time>
      </trkpt>
      <trkpt lat="47.66025" lon="6.21761">
        <ele>268.56</ele>
        <time>2019-06-26T06:33:26Z</time>
      </trkpt>
      <trkpt lat="47.6602" lon="6.21759">
        <ele>268.58</ele>
        <time>2019-06-26T06:33:29Z</time>
      </trkpt>
      <trkpt lat="47.66016" lon="6.21755">
        <ele>268.61</ele>
        <time>2019-06-26T06:33:33Z</time>
      </trkpt>
      <trkpt lat="47.66011" lon="6.21752">
        <ele>268.65</ele>
        <time>2019-06-26T06:33:37Z</time>
      </trkpt>
      <trkpt lat="47.66006" lon="6.21748">
        <ele>268.72</ele>
        <time>2019-06-26T06:33:42Z</time>
      </trkpt>
      <trkpt lat="47.66001" lon="6.21748">
        <ele>268.79</ele>
        <time>2019-06-26T06:33:46Z</time>
      </trkpt>
      <trkpt lat="47.65995" lon="6.21749">
        <ele>268.88</ele>
        <time>2019-06-26T06:33:50Z</time>
      </trkpt>
      <trkpt lat="47.6599" lon="6.21748">
        <ele>268.99</ele>
        <time>2019-06-26T06:33:54Z</time>
      </trkpt>
      <trkpt lat="47.65984" lon="6.21749">
        <ele>269.11</ele>
        <time>2019-06-26T06:33:58Z</time>
      </trkpt>
      <trkpt lat="47.65979" lon="6.21748">
        <ele>269.24</ele>
        <time>2019-06-26T06:34:02Z</time>
      </trkpt>
      <trkpt lat="47.65974" lon="6.21748">
        <ele>269.34</ele>
        <time>2019-06-26T06:34:05Z</time>
      </trkpt>
      <trkpt lat="47.65969" lon="6.21749">
        <ele>269.45</ele>
        <time>2019-06-26T06:34:08Z</time>
      </trkpt>
      <trkpt lat="47.65964" lon="6.2175">
        <ele>269.56</ele>
        <time>2019-06-26T06:34:11Z</time>
      </trkpt>
      <trkpt lat="47.65959" lon="6.21753">
        <ele>269.71</ele>
        <time>2019-06-26T06:34:15Z</time>
      </trkpt>
      <trkpt lat="47.65954" lon="6.21755">
        <ele>269.87</ele>
        <time>2019-06-26T06:34:19Z</time>
      </trkpt>
      <trkpt lat="47.65949" lon="6.21758">
        <ele>270.07</ele>
        <time>2019-06-26T06:34:24Z</time>
      </trkpt>
      <trkpt lat="47.65944" lon="6.21763">
        <ele>270.29</ele>
        <time>2019-06-26T06:34:29Z</time>
      </trkpt>
      <trkpt lat="47.65941" lon="6.21769">
        <ele>270.42</ele>
        <time>2019-06-26T06:34:32Z</time>
      </trkpt>
      <trkpt lat="47.65936" lon="6.21773">
        <ele>270.6</ele>
        <time>2019-06-26T06:34:36Z</time>
      </trkpt>
      <trkpt lat="47.65931" lon="6.21777">
        <ele>270.78</ele>
        <time>2019-06-26T06:34:40Z</time>
      </trkpt>
      <trkpt lat="47.65925" lon="6.21778">
        <ele>270.92</ele>
        <time>2019-06-26T06:34:43Z</time>
      </trkpt>
      <trkpt lat="47.6592" lon="6.2178">
        <ele>271.07</ele>
        <time>2019-06-26T06:34:46Z</time>
      </trkpt>
      <trkpt lat="47.65915" lon="6.21784">
        <ele>271.21</ele>
        <time>2019-06-26T06:34:49Z</time>
      </trkpt>
      <trkpt lat="47.65911" lon="6.21785">
        <ele>271.44</ele>
        <time>2019-06-26T06:34:58Z</time>
      </trkpt>
      <trkpt lat="47.6591" lon="6.21792">
        <ele>272.3</ele>
        <time>2019-06-26T06:35:52Z</time>
      </trkpt>
      <trkpt lat="47.65908" lon="6.21797">
        <ele>272.8</ele>
        <time>2019-06-26T06:36:05Z</time>
      </trkpt>
      <trkpt lat="47.65903" lon="6.21801">
        <ele>273.22</ele>
        <time>2019-06-26T06:36:10Z</time>
      </trkpt>
      <trkpt lat="47.65898" lon="6.21805">
        <ele>273.61</ele>
        <time>2019-06-26T06:36:15Z</time>
      </trkpt>
      <trkpt lat="47.65893" lon="6.21809">
        <ele>273.97</ele>
        <time>2019-06-26T06:36:20Z</time>
      </trkpt>
      <trkpt lat="47.6589" lon="6.21814">
        <ele>274.24</ele>
        <time>2019-06-26T06:36:24Z</time>
      </trkpt>
      <trkpt lat="47.65888" lon="6.21822">
        <ele>274.49</ele>
        <time>2019-06-26T06:36:28Z</time>
      </trkpt>
      <trkpt lat="47.65885" lon="6.21828">
        <ele>274.67</ele>
        <time>2019-06-26T06:36:31Z</time>
      </trkpt>
      <trkpt lat="47.65883" lon="6.21834">
        <ele>274.85</ele>
        <time>2019-06-26T06:36:34Z</time>
      </trkpt>
      <trkpt lat="47.65881" lon="6.21841">
        <ele>275.02</ele>
        <time>2019-06-26T06:36:37Z</time>
      </trkpt>
      <trkpt lat="47.6588" lon="6.21849">
        <ele>275.18</ele>
        <time>2019-06-26T06:36:40Z</time>
      </trkpt>
      <trkpt lat="47.65876" lon="6.21856">
        <ele>275.39</ele>
        <time>2019-06-26T06:36:44Z</time>
      </trkpt>
      <trkpt lat="47.65873" lon="6.21863">
        <ele>275.55</ele>
        <time>2019-06-26T06:36:47Z</time>
      </trkpt>
      <trkpt lat="47.6587" lon="6.21869">
        <ele>275.75</ele>
        <time>2019-06-26T06:36:51Z</time>
      </trkpt>
      <trkpt lat="47.65866" lon="6.21875">
        <ele>275.9</ele>
        <time>2019-06-26T06:36:54Z</time>
      </trkpt>
      <trkpt lat="47.65863" lon="6.21883">
        <ele>276.04</ele>
        <time>2019-06-26T06:36:57Z</time>
      </trkpt>
      <trkpt lat="47.65861" lon="6.2189">
        <ele>276.13</ele>
        <time>2019-06-26T06:36:59Z</time>
      </trkpt>
      <trkpt lat="47.65858" lon="6.21898">
        <ele>276.25</ele>
        <time>2019-06-26T06:37:02Z</time>
      </trkpt>
      <trkpt lat="47.65856" lon="6.21905">
        <ele>276.33</ele>
        <time>2019-06-26T06:37:04Z</time>
      </trkpt>
      <trkpt lat="47.65855" lon="6.21914">
        <ele>276.45</ele>
        <time>2019-06-26T06:37:07Z</time>
      </trkpt>
      <trkpt lat="47.65853" lon="6.21921">
        <ele>276.55</ele>
        <time>2019-06-26T06:37:10Z</time>
      </trkpt>
      <trkpt lat="47.65852" lon="6.21929">
        <ele>276.62</ele>
        <time>2019-06-26T06:37:12Z</time>
      </trkpt>
      <trkpt lat="47.65851" lon="6.21936">
        <ele>276.68</ele>
        <time>2019-06-26T06:37:14Z</time>
      </trkpt>
      <trkpt lat="47.65849" lon="6.21944">
        <ele>276.73</ele>
        <time>2019-06-26T06:37:16Z</time>
      </trkpt>
      <trkpt lat="47.65848" lon="6.21953">
        <ele>276.79</ele>
        <time>2019-06-26T06:37:18Z</time>
      </trkpt>
      <trkpt lat="47.65847" lon="6.21961">
        <ele>276.84</ele>
        <time>2019-06-26T06:37:20Z</time>
      </trkpt>
      <trkpt lat="47.65846" lon="6.21968">
        <ele>276.89</ele>
        <time>2019-06-26T06:37:22Z</time>
      </trkpt>
      <trkpt lat="47.65845" lon="6.21974">
        <ele>276.93</ele>
        <time>2019-06-26T06:37:24Z</time>
      </trkpt>
      <trkpt lat="47.65844" lon="6.21982">
        <ele>276.97</ele>
        <time>2019-06-26T06:37:26Z</time>
      </trkpt>
      <trkpt lat="47.65844" lon="6.21991">
        <ele>277.03</ele>
        <time>2019-06-26T06:37:29Z</time>
      </trkpt>
      <trkpt lat="47.65843" lon="6.21998">
        <ele>277.07</ele>
        <time>2019-06-26T06:37:31Z</time>
      </trkpt>
      <trkpt lat="47.65841" lon="6.22006">
        <ele>277.12</ele>
        <time>2019-06-26T06:37:34Z</time>
      </trkpt>
      <trkpt lat="47.6584" lon="6.22013">
        <ele>277.17</ele>
        <time>2019-06-26T06:37:37Z</time>
      </trkpt>
      <trkpt lat="47.65838" lon="6.2202">
        <ele>277.2</ele>
        <time>2019-06-26T06:37:39Z</time>
      </trkpt>
      <trkpt lat="47.65837" lon="6.22028">
        <ele>277.23</ele>
        <time>2019-06-26T06:37:41Z</time>
      </trkpt>
      <trkpt lat="47.65836" lon="6.22035">
        <ele>277.26</ele>
        <time>2019-06-26T06:37:43Z</time>
      </trkpt>
      <trkpt lat="47.65833" lon="6.22044">
        <ele>277.29</ele>
        <time>2019-06-26T06:37:45Z</time>
      </trkpt>
      <trkpt lat="47.6583" lon="6.22051">
        <ele>277.31</ele>
        <time>2019-06-26T06:37:47Z</time>
      </trkpt>
      <trkpt lat="47.65828" lon="6.22057">
        <ele>277.33</ele>
        <time>2019-06-26T06:37:49Z</time>
      </trkpt>
      <trkpt lat="47.65826" lon="6.22066">
        <ele>277.37</ele>
        <time>2019-06-26T06:37:52Z</time>
      </trkpt>
      <trkpt lat="47.65824" lon="6.22073">
        <ele>277.39</ele>
        <time>2019-06-26T06:37:55Z</time>
      </trkpt>
      <trkpt lat="47.65822" lon="6.2208">
        <ele>277.42</ele>
        <time>2019-06-26T06:37:58Z</time>
      </trkpt>
      <trkpt lat="47.65821" lon="6.22087">
        <ele>277.44</ele>
        <time>2019-06-26T06:38:01Z</time>
      </trkpt>
      <trkpt lat="47.65819" lon="6.22095">
        <ele>277.46</ele>
        <time>2019-06-26T06:38:04Z</time>
      </trkpt>
      <trkpt lat="47.65818" lon="6.22102">
        <ele>277.47</ele>
        <time>2019-06-26T06:38:06Z</time>
      </trkpt>
      <trkpt lat="47.65816" lon="6.22109">
        <ele>277.48</ele>
        <time>2019-06-26T06:38:08Z</time>
      </trkpt>
      <trkpt lat="47.65813" lon="6.22115">
        <ele>277.49</ele>
        <time>2019-06-26T06:38:10Z</time>
      </trkpt>
      <trkpt lat="47.65811" lon="6.22122">
        <ele>277.5</ele>
        <time>2019-06-26T06:38:12Z</time>
      </trkpt>
      <trkpt lat="47.65809" lon="6.22129">
        <ele>277.5</ele>
        <time>2019-06-26T06:38:14Z</time>
      </trkpt>
      <trkpt lat="47.65807" lon="6.22136">
        <ele>277.51</ele>
        <time>2019-06-26T06:38:16Z</time>
      </trkpt>
      <trkpt lat="47.65804" lon="6.22144">
        <ele>277.52</ele>
        <time>2019-06-26T06:38:18Z</time>
      </trkpt>
      <trkpt lat="47.65801" lon="6.22152">
        <ele>277.52</ele>
        <time>2019-06-26T06:38:20Z</time>
      </trkpt>
      <trkpt lat="47.65799" lon="6.22161">
        <ele>277.53</ele>
        <time>2019-06-26T06:38:22Z</time>
      </trkpt>
      <trkpt lat="47.65797" lon="6.22171">
        <ele>277.53</ele>
        <time>2019-06-26T06:38:24Z</time>
      </trkpt>
      <trkpt lat="47.65795" lon="6.2218">
        <ele>277.53</ele>
        <time>2019-06-26T06:38:26Z</time>
      </trkpt>
      <trkpt lat="47.65794" lon="6.22189">
        <ele>277.53</ele>
        <time>2019-06-26T06:38:28Z</time>
      </trkpt>
      <trkpt lat="47.65793" lon="6.22198">
        <ele>277.53</ele>
        <time>2019-06-26T06:38:30Z</time>
      </trkpt>
      <trkpt lat="47.65791" lon="6.22206">
        <ele>277.54</ele>
        <time>2019-06-26T06:38:32Z</time>
      </trkpt>
      <trkpt lat="47.6579" lon="6.22215">
        <ele>277.54</ele>
        <time>2019-06-26T06:38:35Z</time>
      </trkpt>
      <trkpt lat="47.65788" lon="6.22224">
        <ele>277.54</ele>
        <time>2019-06-26T06:38:38Z</time>
      </trkpt>
      <trkpt lat="47.65788" lon="6.22234">
        <ele>277.54</ele>
        <time>2019-06-26T06:38:41Z</time>
      </trkpt>
      <trkpt lat="47.65788" lon="6.22241">
        <ele>277.54</ele>
        <time>2019-06-26T06:38:43Z</time>
      </trkpt>
      <trkpt lat="47.65787" lon="6.22248">
        <ele>277.53</ele>
        <time>2019-06-26T06:38:45Z</time>
      </trkpt>
      <trkpt lat="47.65788" lon="6.22256">
        <ele>277.53</ele>
        <time>2019-06-26T06:38:47Z</time>
      </trkpt>
      <trkpt lat="47.65788" lon="6.22263">
        <ele>277.53</ele>
        <time>2019-06-26T06:38:49Z</time>
      </trkpt>
      <trkpt lat="47.65788" lon="6.22271">
        <ele>277.52</ele>
        <time>2019-06-26T06:38:51Z</time>
      </trkpt>
      <trkpt lat="47.65787" lon="6.22277">
        <ele>277.51</ele>
        <time>2019-06-26T06:38:53Z</time>
      </trkpt>
      <trkpt lat="47.65787" lon="6.22286">
        <ele>277.51</ele>
        <time>2019-06-26T06:38:55Z</time>
      </trkpt>
      <trkpt lat="47.65787" lon="6.22297">
        <ele>277.44</ele>
        <time>2019-06-26T06:38:57Z</time>
      </trkpt>
      <trkpt lat="47.65787" lon="6.2231">
        <ele>277.37</ele>
        <time>2019-06-26T06:38:59Z</time>
      </trkpt>
      <trkpt lat="47.65788" lon="6.22323">
        <ele>277.32</ele>
        <time>2019-06-26T06:39:01Z</time>
      </trkpt>
      <trkpt lat="47.65789" lon="6.2234">
        <ele>277.29</ele>
        <time>2019-06-26T06:39:02Z</time>
      </trkpt>
      <trkpt lat="47.65791" lon="6.22346">
        <ele>277.27</ele>
        <time>2019-06-26T06:39:03Z</time>
      </trkpt>
      <trkpt lat="47.65792" lon="6.22358">
        <ele>277.25</ele>
        <time>2019-06-26T06:39:05Z</time>
      </trkpt>
      <trkpt lat="47.65791" lon="6.22368">
        <ele>277.25</ele>
        <time>2019-06-26T06:39:07Z</time>
      </trkpt>
      <trkpt lat="47.65791" lon="6.22379">
        <ele>277.24</ele>
        <time>2019-06-26T06:39:09Z</time>
      </trkpt>
      <trkpt lat="47.6579" lon="6.22388">
        <ele>277.23</ele>
        <time>2019-06-26T06:39:11Z</time>
      </trkpt>
      <trkpt lat="47.65789" lon="6.22396">
        <ele>277.23</ele>
        <time>2019-06-26T06:39:13Z</time>
      </trkpt>
      <trkpt lat="47.65788" lon="6.22406">
        <ele>277.21</ele>
        <time>2019-06-26T06:39:16Z</time>
      </trkpt>
      <trkpt lat="47.65787" lon="6.22412">
        <ele>277.2</ele>
        <time>2019-06-26T06:39:19Z</time>
      </trkpt>
      <trkpt lat="47.65786" lon="6.2242">
        <ele>277.19</ele>
        <time>2019-06-26T06:39:22Z</time>
      </trkpt>
      <trkpt lat="47.65785" lon="6.22429">
        <ele>277.18</ele>
        <time>2019-06-26T06:39:25Z</time>
      </trkpt>
      <trkpt lat="47.65784" lon="6.22438">
        <ele>277.18</ele>
        <time>2019-06-26T06:39:27Z</time>
      </trkpt>
      <trkpt lat="47.65784" lon="6.22446">
        <ele>277.17</ele>
        <time>2019-06-26T06:39:29Z</time>
      </trkpt>
      <trkpt lat="47.65783" lon="6.22454">
        <ele>277.16</ele>
        <time>2019-06-26T06:39:31Z</time>
      </trkpt>
      <trkpt lat="47.65782" lon="6.22462">
        <ele>277.15</ele>
        <time>2019-06-26T06:39:33Z</time>
      </trkpt>
      <trkpt lat="47.65781" lon="6.22472">
        <ele>277.14</ele>
        <time>2019-06-26T06:39:36Z</time>
      </trkpt>
      <trkpt lat="47.65781" lon="6.22479">
        <ele>277.13</ele>
        <time>2019-06-26T06:39:38Z</time>
      </trkpt>
      <trkpt lat="47.65781" lon="6.22486">
        <ele>277.12</ele>
        <time>2019-06-26T06:39:40Z</time>
      </trkpt>
      <trkpt lat="47.6578" lon="6.22493">
        <ele>277.11</ele>
        <time>2019-06-26T06:39:42Z</time>
      </trkpt>
      <trkpt lat="47.6578" lon="6.22501">
        <ele>277.1</ele>
        <time>2019-06-26T06:39:44Z</time>
      </trkpt>
      <trkpt lat="47.65778" lon="6.22511">
        <ele>277.09</ele>
        <time>2019-06-26T06:39:47Z</time>
      </trkpt>
      <trkpt lat="47.65777" lon="6.22517">
        <ele>277.08</ele>
        <time>2019-06-26T06:39:49Z</time>
      </trkpt>
      <trkpt lat="47.65776" lon="6.22525">
        <ele>277.08</ele>
        <time>2019-06-26T06:39:51Z</time>
      </trkpt>
      <trkpt lat="47.65775" lon="6.22531">
        <ele>277.07</ele>
        <time>2019-06-26T06:39:53Z</time>
      </trkpt>
      <trkpt lat="47.65773" lon="6.22541">
        <ele>277.06</ele>
        <time>2019-06-26T06:39:56Z</time>
      </trkpt>
      <trkpt lat="47.65772" lon="6.2255">
        <ele>277.04</ele>
        <time>2019-06-26T06:39:59Z</time>
      </trkpt>
      <trkpt lat="47.65769" lon="6.22558">
        <ele>277.03</ele>
        <time>2019-06-26T06:40:02Z</time>
      </trkpt>
      <trkpt lat="47.65768" lon="6.22566">
        <ele>277.02</ele>
        <time>2019-06-26T06:40:05Z</time>
      </trkpt>
      <trkpt lat="47.65765" lon="6.22573">
        <ele>277.01</ele>
        <time>2019-06-26T06:40:08Z</time>
      </trkpt>
      <trkpt lat="47.65763" lon="6.2258">
        <ele>276.99</ele>
        <time>2019-06-26T06:40:11Z</time>
      </trkpt>
      <trkpt lat="47.65761" lon="6.22589">
        <ele>276.98</ele>
        <time>2019-06-26T06:40:14Z</time>
      </trkpt>
      <trkpt lat="47.65758" lon="6.22597">
        <ele>276.96</ele>
        <time>2019-06-26T06:40:18Z</time>
      </trkpt>
      <trkpt lat="47.65756" lon="6.22603">
        <ele>276.95</ele>
        <time>2019-06-26T06:40:21Z</time>
      </trkpt>
      <trkpt lat="47.65753" lon="6.22609">
        <ele>276.93</ele>
        <time>2019-06-26T06:40:24Z</time>
      </trkpt>
      <trkpt lat="47.6575" lon="6.22615">
        <ele>276.92</ele>
        <time>2019-06-26T06:40:27Z</time>
      </trkpt>
      <trkpt lat="47.65746" lon="6.22621">
        <ele>276.9</ele>
        <time>2019-06-26T06:40:30Z</time>
      </trkpt>
      <trkpt lat="47.65742" lon="6.22627">
        <ele>276.89</ele>
        <time>2019-06-26T06:40:33Z</time>
      </trkpt>
      <trkpt lat="47.65738" lon="6.22631">
        <ele>276.87</ele>
        <time>2019-06-26T06:40:36Z</time>
      </trkpt>
      <trkpt lat="47.65734" lon="6.22635">
        <ele>276.86</ele>
        <time>2019-06-26T06:40:39Z</time>
      </trkpt>
      <trkpt lat="47.65729" lon="6.22638">
        <ele>276.84</ele>
        <time>2019-06-26T06:40:43Z</time>
      </trkpt>
      <trkpt lat="47.65725" lon="6.2264">
        <ele>276.84</ele>
        <time>2019-06-26T06:40:45Z</time>
      </trkpt>
      <trkpt lat="47.6572" lon="6.22643">
        <ele>276.82</ele>
        <time>2019-06-26T06:40:50Z</time>
      </trkpt>
      <trkpt lat="47.65715" lon="6.22646">
        <ele>276.81</ele>
        <time>2019-06-26T06:40:54Z</time>
      </trkpt>
      <trkpt lat="47.65708" lon="6.22647">
        <ele>276.81</ele>
        <time>2019-06-26T06:40:59Z</time>
      </trkpt>
      <trkpt lat="47.65704" lon="6.22648">
        <ele>276.81</ele>
        <time>2019-06-26T06:41:01Z</time>
      </trkpt>
      <trkpt lat="47.65698" lon="6.22651">
        <ele>276.81</ele>
        <time>2019-06-26T06:41:04Z</time>
      </trkpt>
      <trkpt lat="47.65691" lon="6.22655">
        <ele>276.82</ele>
        <time>2019-06-26T06:41:07Z</time>
      </trkpt>
      <trkpt lat="47.65686" lon="6.22658">
        <ele>276.83</ele>
        <time>2019-06-26T06:41:10Z</time>
      </trkpt>
      <trkpt lat="47.65681" lon="6.2266">
        <ele>276.83</ele>
        <time>2019-06-26T06:41:12Z</time>
      </trkpt>
      <trkpt lat="47.65678" lon="6.22665">
        <ele>276.87</ele>
        <time>2019-06-26T06:41:16Z</time>
      </trkpt>
      <trkpt lat="47.65674" lon="6.22671">
        <ele>276.9</ele>
        <time>2019-06-26T06:41:19Z</time>
      </trkpt>
      <trkpt lat="47.65669" lon="6.22676">
        <ele>276.93</ele>
        <time>2019-06-26T06:41:22Z</time>
      </trkpt>
      <trkpt lat="47.65665" lon="6.22682">
        <ele>276.96</ele>
        <time>2019-06-26T06:41:25Z</time>
      </trkpt>
      <trkpt lat="47.65661" lon="6.22688">
        <ele>276.99</ele>
        <time>2019-06-26T06:41:28Z</time>
      </trkpt>
      <trkpt lat="47.65659" lon="6.22695">
        <ele>277.02</ele>
        <time>2019-06-26T06:41:31Z</time>
      </trkpt>
      <trkpt lat="47.65656" lon="6.22703">
        <ele>277.05</ele>
        <time>2019-06-26T06:41:35Z</time>
      </trkpt>
      <trkpt lat="47.65653" lon="6.22709">
        <ele>277.08</ele>
        <time>2019-06-26T06:41:38Z</time>
      </trkpt>
      <trkpt lat="47.65651" lon="6.22718">
        <ele>277.11</ele>
        <time>2019-06-26T06:41:41Z</time>
      </trkpt>
      <trkpt lat="47.6565" lon="6.22725">
        <ele>277.13</ele>
        <time>2019-06-26T06:41:44Z</time>
      </trkpt>
      <trkpt lat="47.65649" lon="6.22733">
        <ele>277.16</ele>
        <time>2019-06-26T06:41:47Z</time>
      </trkpt>
      <trkpt lat="47.6565" lon="6.22742">
        <ele>277.19</ele>
        <time>2019-06-26T06:41:50Z</time>
      </trkpt>
      <trkpt lat="47.6565" lon="6.22751">
        <ele>277.21</ele>
        <time>2019-06-26T06:41:53Z</time>
      </trkpt>
      <trkpt lat="47.65651" lon="6.22759">
        <ele>277.24</ele>
        <time>2019-06-26T06:41:56Z</time>
      </trkpt>
      <trkpt lat="47.65654" lon="6.22766">
        <ele>277.27</ele>
        <time>2019-06-26T06:41:59Z</time>
      </trkpt>
      <trkpt lat="47.65658" lon="6.22773">
        <ele>277.3</ele>
        <time>2019-06-26T06:42:02Z</time>
      </trkpt>
      <trkpt lat="47.65662" lon="6.22778">
        <ele>277.33</ele>
        <time>2019-06-26T06:42:05Z</time>
      </trkpt>
      <trkpt lat="47.65665" lon="6.22786">
        <ele>277.37</ele>
        <time>2019-06-26T06:42:08Z</time>
      </trkpt>
      <trkpt lat="47.65666" lon="6.22794">
        <ele>277.42</ele>
        <time>2019-06-26T06:42:11Z</time>
      </trkpt>
      <trkpt lat="47.65667" lon="6.22801">
        <ele>277.46</ele>
        <time>2019-06-26T06:42:14Z</time>
      </trkpt>
      <trkpt lat="47.65669" lon="6.22808">
        <ele>277.5</ele>
        <time>2019-06-26T06:42:17Z</time>
      </trkpt>
      <trkpt lat="47.65672" lon="6.22815">
        <ele>277.54</ele>
        <time>2019-06-26T06:42:20Z</time>
      </trkpt>
      <trkpt lat="47.65674" lon="6.22822">
        <ele>277.57</ele>
        <time>2019-06-26T06:42:23Z</time>
      </trkpt>
      <trkpt lat="47.65676" lon="6.2283">
        <ele>277.6</ele>
        <time>2019-06-26T06:42:26Z</time>
      </trkpt>
      <trkpt lat="47.65677" lon="6.22838">
        <ele>277.64</ele>
        <time>2019-06-26T06:42:29Z</time>
      </trkpt>
      <trkpt lat="47.65679" lon="6.22845">
        <ele>277.67</ele>
        <time>2019-06-26T06:42:32Z</time>
      </trkpt>
      <trkpt lat="47.65683" lon="6.22852">
        <ele>277.73</ele>
        <time>2019-06-26T06:42:35Z</time>
      </trkpt>
      <trkpt lat="47.65685" lon="6.22859">
        <ele>277.77</ele>
        <time>2019-06-26T06:42:37Z</time>
      </trkpt>
      <trkpt lat="47.65686" lon="6.22866">
        <ele>277.83</ele>
        <time>2019-06-26T06:42:39Z</time>
      </trkpt>
      <trkpt lat="47.65688" lon="6.22873">
        <ele>277.89</ele>
        <time>2019-06-26T06:42:41Z</time>
      </trkpt>
      <trkpt lat="47.65689" lon="6.22882">
        <ele>277.98</ele>
        <time>2019-06-26T06:42:44Z</time>
      </trkpt>
      <trkpt lat="47.6569" lon="6.22892">
        <ele>278.06</ele>
        <time>2019-06-26T06:42:47Z</time>
      </trkpt>
      <trkpt lat="47.65693" lon="6.22898">
        <ele>278.13</ele>
        <time>2019-06-26T06:42:49Z</time>
      </trkpt>
      <trkpt lat="47.65694" lon="6.22904">
        <ele>278.2</ele>
        <time>2019-06-26T06:42:51Z</time>
      </trkpt>
      <trkpt lat="47.65693" lon="6.22912">
        <ele>278.27</ele>
        <time>2019-06-26T06:42:53Z</time>
      </trkpt>
      <trkpt lat="47.65693" lon="6.22919">
        <ele>278.35</ele>
        <time>2019-06-26T06:42:55Z</time>
      </trkpt>
      <trkpt lat="47.65691" lon="6.22931">
        <ele>278.47</ele>
        <time>2019-06-26T06:42:58Z</time>
      </trkpt>
      <trkpt lat="47.65687" lon="6.2294">
        <ele>278.52</ele>
        <time>2019-06-26T06:42:59Z</time>
      </trkpt>
      <trkpt lat="47.65685" lon="6.22946">
        <ele>278.59</ele>
        <time>2019-06-26T06:43:00Z</time>
      </trkpt>
      <trkpt lat="47.65682" lon="6.22957">
        <ele>278.82</ele>
        <time>2019-06-26T06:43:02Z</time>
      </trkpt>
      <trkpt lat="47.65683" lon="6.22966">
        <ele>279.13</ele>
        <time>2019-06-26T06:43:04Z</time>
      </trkpt>
      <trkpt lat="47.65688" lon="6.22971">
        <ele>279.45</ele>
        <time>2019-06-26T06:43:06Z</time>
      </trkpt>
      <trkpt lat="47.65692" lon="6.22978">
        <ele>279.78</ele>
        <time>2019-06-26T06:43:08Z</time>
      </trkpt>
      <trkpt lat="47.65694" lon="6.22986">
        <ele>280.08</ele>
        <time>2019-06-26T06:43:10Z</time>
      </trkpt>
      <trkpt lat="47.65693" lon="6.22995">
        <ele>280.38</ele>
        <time>2019-06-26T06:43:12Z</time>
      </trkpt>
      <trkpt lat="47.65693" lon="6.23003">
        <ele>280.67</ele>
        <time>2019-06-26T06:43:14Z</time>
      </trkpt>
      <trkpt lat="47.65692" lon="6.23012">
        <ele>280.94</ele>
        <time>2019-06-26T06:43:16Z</time>
      </trkpt>
      <trkpt lat="47.6569" lon="6.23022">
        <ele>281.2</ele>
        <time>2019-06-26T06:43:18Z</time>
      </trkpt>
      <trkpt lat="47.6569" lon="6.23031">
        <ele>281.45</ele>
        <time>2019-06-26T06:43:20Z</time>
      </trkpt>
      <trkpt lat="47.65688" lon="6.2304">
        <ele>281.69</ele>
        <time>2019-06-26T06:43:22Z</time>
      </trkpt>
      <trkpt lat="47.65687" lon="6.23049">
        <ele>281.92</ele>
        <time>2019-06-26T06:43:24Z</time>
      </trkpt>
      <trkpt lat="47.65686" lon="6.23059">
        <ele>282.15</ele>
        <time>2019-06-26T06:43:26Z</time>
      </trkpt>
      <trkpt lat="47.65685" lon="6.23067">
        <ele>282.36</ele>
        <time>2019-06-26T06:43:28Z</time>
      </trkpt>
      <trkpt lat="47.65684" lon="6.23075">
        <ele>282.57</ele>
        <time>2019-06-26T06:43:30Z</time>
      </trkpt>
      <trkpt lat="47.65682" lon="6.23083">
        <ele>282.77</ele>
        <time>2019-06-26T06:43:32Z</time>
      </trkpt>
      <trkpt lat="47.65681" lon="6.23091">
        <ele>282.96</ele>
        <time>2019-06-26T06:43:34Z</time>
      </trkpt>
      <trkpt lat="47.6568" lon="6.23099">
        <ele>283.14</ele>
        <time>2019-06-26T06:43:36Z</time>
      </trkpt>
      <trkpt lat="47.6568" lon="6.23107">
        <ele>283.32</ele>
        <time>2019-06-26T06:43:38Z</time>
      </trkpt>
      <trkpt lat="47.65679" lon="6.23115">
        <ele>283.49</ele>
        <time>2019-06-26T06:43:40Z</time>
      </trkpt>
      <trkpt lat="47.65678" lon="6.23123">
        <ele>283.66</ele>
        <time>2019-06-26T06:43:42Z</time>
      </trkpt>
      <trkpt lat="47.65678" lon="6.23131">
        <ele>283.81</ele>
        <time>2019-06-26T06:43:44Z</time>
      </trkpt>
      <trkpt lat="47.65679" lon="6.23138">
        <ele>283.97</ele>
        <time>2019-06-26T06:43:46Z</time>
      </trkpt>
      <trkpt lat="47.65678" lon="6.23146">
        <ele>284.12</ele>
        <time>2019-06-26T06:43:48Z</time>
      </trkpt>
      <trkpt lat="47.65676" lon="6.23153">
        <ele>284.26</ele>
        <time>2019-06-26T06:43:50Z</time>
      </trkpt>
      <trkpt lat="47.65675" lon="6.23162">
        <ele>284.4</ele>
        <time>2019-06-26T06:43:52Z</time>
      </trkpt>
      <trkpt lat="47.65673" lon="6.2317">
        <ele>284.53</ele>
        <time>2019-06-26T06:43:54Z</time>
      </trkpt>
      <trkpt lat="47.65672" lon="6.23178">
        <ele>284.66</ele>
        <time>2019-06-26T06:43:56Z</time>
      </trkpt>
      <trkpt lat="47.65671" lon="6.23186">
        <ele>284.79</ele>
        <time>2019-06-26T06:43:58Z</time>
      </trkpt>
      <trkpt lat="47.65671" lon="6.23193">
        <ele>284.9</ele>
        <time>2019-06-26T06:44:00Z</time>
      </trkpt>
      <trkpt lat="47.6567" lon="6.23202">
        <ele>285.02</ele>
        <time>2019-06-26T06:44:02Z</time>
      </trkpt>
      <trkpt lat="47.6567" lon="6.23209">
        <ele>285.13</ele>
        <time>2019-06-26T06:44:04Z</time>
      </trkpt>
      <trkpt lat="47.65669" lon="6.23218">
        <ele>285.23</ele>
        <time>2019-06-26T06:44:06Z</time>
      </trkpt>
      <trkpt lat="47.65668" lon="6.23226">
        <ele>285.33</ele>
        <time>2019-06-26T06:44:08Z</time>
      </trkpt>
      <trkpt lat="47.65667" lon="6.23234">
        <ele>285.43</ele>
        <time>2019-06-26T06:44:10Z</time>
      </trkpt>
      <trkpt lat="47.65666" lon="6.23241">
        <ele>285.52</ele>
        <time>2019-06-26T06:44:12Z</time>
      </trkpt>
      <trkpt lat="47.65664" lon="6.23251">
        <ele>285.66</ele>
        <time>2019-06-26T06:44:15Z</time>
      </trkpt>
      <trkpt lat="47.65663" lon="6.23257">
        <ele>285.74</ele>
        <time>2019-06-26T06:44:17Z</time>
      </trkpt>
      <trkpt lat="47.65661" lon="6.23265">
        <ele>285.83</ele>
        <time>2019-06-26T06:44:19Z</time>
      </trkpt>
      <trkpt lat="47.6566" lon="6.23273">
        <ele>285.92</ele>
        <time>2019-06-26T06:44:21Z</time>
      </trkpt>
      <trkpt lat="47.65659" lon="6.23281">
        <ele>286</ele>
        <time>2019-06-26T06:44:23Z</time>
      </trkpt>
      <trkpt lat="47.65657" lon="6.23288">
        <ele>286.08</ele>
        <time>2019-06-26T06:44:25Z</time>
      </trkpt>
      <trkpt lat="47.65656" lon="6.23295">
        <ele>286.18</ele>
        <time>2019-06-26T06:44:27Z</time>
      </trkpt>
      <trkpt lat="47.65658" lon="6.23302">
        <ele>286.33</ele>
        <time>2019-06-26T06:44:30Z</time>
      </trkpt>
      <trkpt lat="47.6566" lon="6.23309">
        <ele>286.44</ele>
        <time>2019-06-26T06:44:32Z</time>
      </trkpt>
      <trkpt lat="47.6566" lon="6.23317">
        <ele>286.56</ele>
        <time>2019-06-26T06:44:34Z</time>
      </trkpt>
      <trkpt lat="47.65658" lon="6.23326">
        <ele>286.67</ele>
        <time>2019-06-26T06:44:36Z</time>
      </trkpt>
      <trkpt lat="47.65656" lon="6.23334">
        <ele>286.77</ele>
        <time>2019-06-26T06:44:38Z</time>
      </trkpt>
      <trkpt lat="47.65654" lon="6.23341">
        <ele>286.88</ele>
        <time>2019-06-26T06:44:40Z</time>
      </trkpt>
      <trkpt lat="47.65652" lon="6.23351">
        <ele>286.98</ele>
        <time>2019-06-26T06:44:42Z</time>
      </trkpt>
      <trkpt lat="47.6565" lon="6.23358">
        <ele>287.08</ele>
        <time>2019-06-26T06:44:44Z</time>
      </trkpt>
      <trkpt lat="47.65648" lon="6.23365">
        <ele>287.18</ele>
        <time>2019-06-26T06:44:46Z</time>
      </trkpt>
      <trkpt lat="47.65646" lon="6.23372">
        <ele>287.28</ele>
        <time>2019-06-26T06:44:48Z</time>
      </trkpt>
      <trkpt lat="47.65643" lon="6.23378">
        <ele>287.38</ele>
        <time>2019-06-26T06:44:50Z</time>
      </trkpt>
      <trkpt lat="47.65639" lon="6.23384">
        <ele>287.48</ele>
        <time>2019-06-26T06:44:52Z</time>
      </trkpt>
      <trkpt lat="47.65636" lon="6.23389">
        <ele>287.58</ele>
        <time>2019-06-26T06:44:54Z</time>
      </trkpt>
      <trkpt lat="47.65631" lon="6.23395">
        <ele>287.68</ele>
        <time>2019-06-26T06:44:56Z</time>
      </trkpt>
      <trkpt lat="47.65627" lon="6.23399">
        <ele>287.79</ele>
        <time>2019-06-26T06:44:58Z</time>
      </trkpt>
      <trkpt lat="47.65623" lon="6.23405">
        <ele>288.06</ele>
        <time>2019-06-26T06:45:01Z</time>
      </trkpt>
      <trkpt lat="47.6562" lon="6.23398">
        <ele>289.22</ele>
        <time>2019-06-26T06:45:07Z</time>
      </trkpt>
      <trkpt lat="47.65618" lon="6.2339">
        <ele>290.02</ele>
        <time>2019-06-26T06:45:10Z</time>
      </trkpt>
      <trkpt lat="47.65616" lon="6.23383">
        <ele>291.19</ele>
        <time>2019-06-26T06:45:14Z</time>
      </trkpt>
      <trkpt lat="47.65613" lon="6.23375">
        <ele>292.41</ele>
        <time>2019-06-26T06:45:18Z</time>
      </trkpt>
      <trkpt lat="47.65609" lon="6.23367">
        <ele>293.35</ele>
        <time>2019-06-26T06:45:21Z</time>
      </trkpt>
      <trkpt lat="47.65605" lon="6.23361">
        <ele>294.29</ele>
        <time>2019-06-26T06:45:24Z</time>
      </trkpt>
      <trkpt lat="47.65602" lon="6.23354">
        <ele>294.91</ele>
        <time>2019-06-26T06:45:26Z</time>
      </trkpt>
      <trkpt lat="47.65597" lon="6.23347">
        <ele>295.55</ele>
        <time>2019-06-26T06:45:28Z</time>
      </trkpt>
      <trkpt lat="47.65593" lon="6.23342">
        <ele>296.2</ele>
        <time>2019-06-26T06:45:30Z</time>
      </trkpt>
      <trkpt lat="47.65588" lon="6.23336">
        <ele>296.85</ele>
        <time>2019-06-26T06:45:32Z</time>
      </trkpt>
      <trkpt lat="47.65583" lon="6.2333">
        <ele>297.51</ele>
        <time>2019-06-26T06:45:34Z</time>
      </trkpt>
      <trkpt lat="47.65579" lon="6.23324">
        <ele>298.17</ele>
        <time>2019-06-26T06:45:36Z</time>
      </trkpt>
      <trkpt lat="47.65574" lon="6.23317">
        <ele>300.84</ele>
        <time>2019-06-26T06:45:38Z</time>
      </trkpt>
      <trkpt lat="47.65568" lon="6.23309">
        <ele>305.65</ele>
        <time>2019-06-26T06:45:40Z</time>
      </trkpt>
      <trkpt lat="47.65563" lon="6.23301">
        <ele>308.26</ele>
        <time>2019-06-26T06:45:42Z</time>
      </trkpt>
      <trkpt lat="47.65558" lon="6.23294">
        <ele>308.77</ele>
        <time>2019-06-26T06:45:44Z</time>
      </trkpt>
      <trkpt lat="47.65554" lon="6.23289">
        <ele>309.08</ele>
        <time>2019-06-26T06:45:46Z</time>
      </trkpt>
      <trkpt lat="47.6555" lon="6.23283">
        <ele>309.38</ele>
        <time>2019-06-26T06:45:48Z</time>
      </trkpt>
      <trkpt lat="47.65544" lon="6.23276">
        <ele>309.67</ele>
        <time>2019-06-26T06:45:50Z</time>
      </trkpt>
      <trkpt lat="47.6554" lon="6.23272">
        <ele>309.97</ele>
        <time>2019-06-26T06:45:52Z</time>
      </trkpt>
      <trkpt lat="47.65535" lon="6.23268">
        <ele>310.26</ele>
        <time>2019-06-26T06:45:54Z</time>
      </trkpt>
      <trkpt lat="47.65531" lon="6.23265">
        <ele>310.55</ele>
        <time>2019-06-26T06:45:56Z</time>
      </trkpt>
      <trkpt lat="47.65525" lon="6.2326">
        <ele>310.99</ele>
        <time>2019-06-26T06:45:59Z</time>
      </trkpt>
      <trkpt lat="47.65521" lon="6.23261">
        <ele>311.29</ele>
        <time>2019-06-26T06:46:01Z</time>
      </trkpt>
      <trkpt lat="47.65516" lon="6.23264">
        <ele>311.59</ele>
        <time>2019-06-26T06:46:03Z</time>
      </trkpt>
      <trkpt lat="47.65512" lon="6.23265">
        <ele>311.89</ele>
        <time>2019-06-26T06:46:05Z</time>
      </trkpt>
      <trkpt lat="47.65505" lon="6.23268">
        <ele>312.47</ele>
        <time>2019-06-26T06:46:09Z</time>
      </trkpt>
      <trkpt lat="47.65499" lon="6.23269">
        <ele>312.92</ele>
        <time>2019-06-26T06:46:12Z</time>
      </trkpt>
      <trkpt lat="47.65493" lon="6.2327">
        <ele>313.21</ele>
        <time>2019-06-26T06:46:14Z</time>
      </trkpt>
      <trkpt lat="47.65488" lon="6.23272">
        <ele>313.51</ele>
        <time>2019-06-26T06:46:16Z</time>
      </trkpt>
      <trkpt lat="47.65483" lon="6.23274">
        <ele>313.8</ele>
        <time>2019-06-26T06:46:18Z</time>
      </trkpt>
      <trkpt lat="47.65477" lon="6.23275">
        <ele>314.09</ele>
        <time>2019-06-26T06:46:20Z</time>
      </trkpt>
      <trkpt lat="47.65472" lon="6.23277">
        <ele>314.37</ele>
        <time>2019-06-26T06:46:22Z</time>
      </trkpt>
      <trkpt lat="47.65467" lon="6.23279">
        <ele>314.65</ele>
        <time>2019-06-26T06:46:24Z</time>
      </trkpt>
      <trkpt lat="47.65462" lon="6.2328">
        <ele>314.93</ele>
        <time>2019-06-26T06:46:26Z</time>
      </trkpt>
      <trkpt lat="47.65455" lon="6.23281">
        <ele>315.35</ele>
        <time>2019-06-26T06:46:29Z</time>
      </trkpt>
      <trkpt lat="47.65448" lon="6.23281">
        <ele>315.63</ele>
        <time>2019-06-26T06:46:31Z</time>
      </trkpt>
      <trkpt lat="47.65443" lon="6.23281">
        <ele>315.92</ele>
        <time>2019-06-26T06:46:33Z</time>
      </trkpt>
      <trkpt lat="47.65438" lon="6.23281">
        <ele>316.2</ele>
        <time>2019-06-26T06:46:35Z</time>
      </trkpt>
      <trkpt lat="47.65432" lon="6.2328">
        <ele>316.62</ele>
        <time>2019-06-26T06:46:38Z</time>
      </trkpt>
      <trkpt lat="47.65425" lon="6.23281">
        <ele>317.04</ele>
        <time>2019-06-26T06:46:41Z</time>
      </trkpt>
      <trkpt lat="47.6542" lon="6.2328">
        <ele>317.32</ele>
        <time>2019-06-26T06:46:43Z</time>
      </trkpt>
      <trkpt lat="47.65414" lon="6.23277">
        <ele>317.73</ele>
        <time>2019-06-26T06:46:46Z</time>
      </trkpt>
      <trkpt lat="47.65409" lon="6.23275">
        <ele>318</ele>
        <time>2019-06-26T06:46:48Z</time>
      </trkpt>
      <trkpt lat="47.65403" lon="6.23272">
        <ele>319.06</ele>
        <time>2019-06-26T06:46:50Z</time>
      </trkpt>
      <trkpt lat="47.65396" lon="6.23269">
        <ele>320.91</ele>
        <time>2019-06-26T06:46:52Z</time>
      </trkpt>
      <trkpt lat="47.65387" lon="6.23265">
        <ele>321.86</ele>
        <time>2019-06-26T06:46:54Z</time>
      </trkpt>
      <trkpt lat="47.65382" lon="6.23263">
        <ele>321.97</ele>
        <time>2019-06-26T06:46:55Z</time>
      </trkpt>
      <trkpt lat="47.65377" lon="6.23262">
        <ele>322.35</ele>
        <time>2019-06-26T06:46:56Z</time>
      </trkpt>
      <trkpt lat="47.65369" lon="6.23258">
        <ele>322.56</ele>
        <time>2019-06-26T06:46:58Z</time>
      </trkpt>
      <trkpt lat="47.65363" lon="6.23253">
        <ele>322.64</ele>
        <time>2019-06-26T06:47:00Z</time>
      </trkpt>
      <trkpt lat="47.65357" lon="6.23247">
        <ele>322.93</ele>
        <time>2019-06-26T06:47:02Z</time>
      </trkpt>
      <trkpt lat="47.65354" lon="6.23243">
        <ele>323.19</ele>
        <time>2019-06-26T06:47:03Z</time>
      </trkpt>
      <trkpt lat="47.6535" lon="6.23238">
        <ele>323.29</ele>
        <time>2019-06-26T06:47:04Z</time>
      </trkpt>
      <trkpt lat="47.65347" lon="6.23233">
        <ele>323.48</ele>
        <time>2019-06-26T06:47:05Z</time>
      </trkpt>
      <trkpt lat="47.65344" lon="6.23226">
        <ele>323.68</ele>
        <time>2019-06-26T06:47:06Z</time>
      </trkpt>
      <trkpt lat="47.6534" lon="6.23219">
        <ele>323.86</ele>
        <time>2019-06-26T06:47:07Z</time>
      </trkpt>
      <trkpt lat="47.65336" lon="6.23213">
        <ele>324.02</ele>
        <time>2019-06-26T06:47:08Z</time>
      </trkpt>
      <trkpt lat="47.65329" lon="6.23201">
        <ele>324.16</ele>
        <time>2019-06-26T06:47:09Z</time>
      </trkpt>
      <trkpt lat="47.65325" lon="6.23195">
        <ele>324.29</ele>
        <time>2019-06-26T06:47:10Z</time>
      </trkpt>
      <trkpt lat="47.65317" lon="6.23185">
        <ele>324.36</ele>
        <time>2019-06-26T06:47:12Z</time>
      </trkpt>
      <trkpt lat="47.65312" lon="6.23177">
        <ele>324.39</ele>
        <time>2019-06-26T06:47:14Z</time>
      </trkpt>
      <trkpt lat="47.65308" lon="6.23174">
        <ele>324.42</ele>
        <time>2019-06-26T06:47:16Z</time>
      </trkpt>
      <trkpt lat="47.65304" lon="6.2317">
        <ele>324.46</ele>
        <time>2019-06-26T06:47:18Z</time>
      </trkpt>
      <trkpt lat="47.65298" lon="6.23166">
        <ele>324.49</ele>
        <time>2019-06-26T06:47:20Z</time>
      </trkpt>
      <trkpt lat="47.65291" lon="6.23163">
        <ele>324.53</ele>
        <time>2019-06-26T06:47:22Z</time>
      </trkpt>
      <trkpt lat="47.65283" lon="6.23159">
        <ele>324.67</ele>
        <time>2019-06-26T06:47:24Z</time>
      </trkpt>
      <trkpt lat="47.65278" lon="6.23158">
        <ele>324.72</ele>
        <time>2019-06-26T06:47:25Z</time>
      </trkpt>
      <trkpt lat="47.6527" lon="6.23155">
        <ele>324.82</ele>
        <time>2019-06-26T06:47:27Z</time>
      </trkpt>
      <trkpt lat="47.65261" lon="6.23152">
        <ele>324.9</ele>
        <time>2019-06-26T06:47:28Z</time>
      </trkpt>
      <trkpt lat="47.65254" lon="6.2315">
        <ele>324.93</ele>
        <time>2019-06-26T06:47:29Z</time>
      </trkpt>
      <trkpt lat="47.65248" lon="6.23148">
        <ele>324.94</ele>
        <time>2019-06-26T06:47:30Z</time>
      </trkpt>
      <trkpt lat="47.65243" lon="6.23147">
        <ele>324.98</ele>
        <time>2019-06-26T06:47:31Z</time>
      </trkpt>
      <trkpt lat="47.6523" lon="6.23143">
        <ele>325.02</ele>
        <time>2019-06-26T06:47:32Z</time>
      </trkpt>
      <trkpt lat="47.65225" lon="6.23141">
        <ele>325.05</ele>
        <time>2019-06-26T06:47:33Z</time>
      </trkpt>
      <trkpt lat="47.6522" lon="6.23139">
        <ele>325.06</ele>
        <time>2019-06-26T06:47:34Z</time>
      </trkpt>
      <trkpt lat="47.65215" lon="6.23137">
        <ele>325.06</ele>
        <time>2019-06-26T06:47:35Z</time>
      </trkpt>
      <trkpt lat="47.65211" lon="6.23136">
        <ele>325.05</ele>
        <time>2019-06-26T06:47:36Z</time>
      </trkpt>
      <trkpt lat="47.65206" lon="6.23133">
        <ele>325.04</ele>
        <time>2019-06-26T06:47:37Z</time>
      </trkpt>
      <trkpt lat="47.65197" lon="6.23126">
        <ele>325.03</ele>
        <time>2019-06-26T06:47:39Z</time>
      </trkpt>
      <trkpt lat="47.65192" lon="6.23123">
        <ele>325.02</ele>
        <time>2019-06-26T06:47:40Z</time>
      </trkpt>
      <trkpt lat="47.65188" lon="6.23119">
        <ele>325</ele>
        <time>2019-06-26T06:47:41Z</time>
      </trkpt>
      <trkpt lat="47.65182" lon="6.23114">
        <ele>324.99</ele>
        <time>2019-06-26T06:47:42Z</time>
      </trkpt>
      <trkpt lat="47.65178" lon="6.23111">
        <ele>324.98</ele>
        <time>2019-06-26T06:47:43Z</time>
      </trkpt>
      <trkpt lat="47.65172" lon="6.23106">
        <ele>324.98</ele>
        <time>2019-06-26T06:47:44Z</time>
      </trkpt>
      <trkpt lat="47.65167" lon="6.23101">
        <ele>324.98</ele>
        <time>2019-06-26T06:47:45Z</time>
      </trkpt>
      <trkpt lat="47.65162" lon="6.23096">
        <ele>324.99</ele>
        <time>2019-06-26T06:47:46Z</time>
      </trkpt>
      <trkpt lat="47.65157" lon="6.23091">
        <ele>325.01</ele>
        <time>2019-06-26T06:47:47Z</time>
      </trkpt>
      <trkpt lat="47.65151" lon="6.23087">
        <ele>325.03</ele>
        <time>2019-06-26T06:47:48Z</time>
      </trkpt>
      <trkpt lat="47.65146" lon="6.23082">
        <ele>325.05</ele>
        <time>2019-06-26T06:47:49Z</time>
      </trkpt>
      <trkpt lat="47.65141" lon="6.23078">
        <ele>325.06</ele>
        <time>2019-06-26T06:47:50Z</time>
      </trkpt>
      <trkpt lat="47.65135" lon="6.23073">
        <ele>325.08</ele>
        <time>2019-06-26T06:47:51Z</time>
      </trkpt>
      <trkpt lat="47.65131" lon="6.23069">
        <ele>325.09</ele>
        <time>2019-06-26T06:47:52Z</time>
      </trkpt>
      <trkpt lat="47.65126" lon="6.23065">
        <ele>325.1</ele>
        <time>2019-06-26T06:47:53Z</time>
      </trkpt>
      <trkpt lat="47.65121" lon="6.23061">
        <ele>325.11</ele>
        <time>2019-06-26T06:47:54Z</time>
      </trkpt>
      <trkpt lat="47.65116" lon="6.23057">
        <ele>325.11</ele>
        <time>2019-06-26T06:47:55Z</time>
      </trkpt>
      <trkpt lat="47.65112" lon="6.23053">
        <ele>325.12</ele>
        <time>2019-06-26T06:47:56Z</time>
      </trkpt>
      <trkpt lat="47.65108" lon="6.23048">
        <ele>325.13</ele>
        <time>2019-06-26T06:47:57Z</time>
      </trkpt>
      <trkpt lat="47.65104" lon="6.23044">
        <ele>325.14</ele>
        <time>2019-06-26T06:47:58Z</time>
      </trkpt>
      <trkpt lat="47.65098" lon="6.23038">
        <ele>325.14</ele>
        <time>2019-06-26T06:48:00Z</time>
      </trkpt>
      <trkpt lat="47.65092" lon="6.23031">
        <ele>325.14</ele>
        <time>2019-06-26T06:48:02Z</time>
      </trkpt>
      <trkpt lat="47.65088" lon="6.23024">
        <ele>325.13</ele>
        <time>2019-06-26T06:48:04Z</time>
      </trkpt>
      <trkpt lat="47.65084" lon="6.23018">
        <ele>325.13</ele>
        <time>2019-06-26T06:48:06Z</time>
      </trkpt>
      <trkpt lat="47.6508" lon="6.23012">
        <ele>325.12</ele>
        <time>2019-06-26T06:48:08Z</time>
      </trkpt>
      <trkpt lat="47.65076" lon="6.23007">
        <ele>325.11</ele>
        <time>2019-06-26T06:48:10Z</time>
      </trkpt>
      <trkpt lat="47.65072" lon="6.23001">
        <ele>325.09</ele>
        <time>2019-06-26T06:48:13Z</time>
      </trkpt>
      <trkpt lat="47.65068" lon="6.22993">
        <ele>325.06</ele>
        <time>2019-06-26T06:48:16Z</time>
      </trkpt>
      <trkpt lat="47.65064" lon="6.22986">
        <ele>325.04</ele>
        <time>2019-06-26T06:48:19Z</time>
      </trkpt>
      <trkpt lat="47.65061" lon="6.2298">
        <ele>325.02</ele>
        <time>2019-06-26T06:48:21Z</time>
      </trkpt>
      <trkpt lat="47.65059" lon="6.22973">
        <ele>324.99</ele>
        <time>2019-06-26T06:48:23Z</time>
      </trkpt>
      <trkpt lat="47.65056" lon="6.22966">
        <ele>324.96</ele>
        <time>2019-06-26T06:48:26Z</time>
      </trkpt>
      <trkpt lat="47.65053" lon="6.22958">
        <ele>324.92</ele>
        <time>2019-06-26T06:48:29Z</time>
      </trkpt>
      <trkpt lat="47.65051" lon="6.22949">
        <ele>324.89</ele>
        <time>2019-06-26T06:48:32Z</time>
      </trkpt>
      <trkpt lat="47.65049" lon="6.22941">
        <ele>324.86</ele>
        <time>2019-06-26T06:48:34Z</time>
      </trkpt>
      <trkpt lat="47.65047" lon="6.22934">
        <ele>324.84</ele>
        <time>2019-06-26T06:48:36Z</time>
      </trkpt>
      <trkpt lat="47.65044" lon="6.22927">
        <ele>324.82</ele>
        <time>2019-06-26T06:48:38Z</time>
      </trkpt>
      <trkpt lat="47.65042" lon="6.22919">
        <ele>324.8</ele>
        <time>2019-06-26T06:48:40Z</time>
      </trkpt>
      <trkpt lat="47.6504" lon="6.22911">
        <ele>324.78</ele>
        <time>2019-06-26T06:48:42Z</time>
      </trkpt>
      <trkpt lat="47.65038" lon="6.22902">
        <ele>324.77</ele>
        <time>2019-06-26T06:48:44Z</time>
      </trkpt>
      <trkpt lat="47.65035" lon="6.22894">
        <ele>324.75</ele>
        <time>2019-06-26T06:48:46Z</time>
      </trkpt>
      <trkpt lat="47.65033" lon="6.22886">
        <ele>324.74</ele>
        <time>2019-06-26T06:48:48Z</time>
      </trkpt>
      <trkpt lat="47.65031" lon="6.22877">
        <ele>324.72</ele>
        <time>2019-06-26T06:48:50Z</time>
      </trkpt>
      <trkpt lat="47.65028" lon="6.22868">
        <ele>324.71</ele>
        <time>2019-06-26T06:48:52Z</time>
      </trkpt>
      <trkpt lat="47.65026" lon="6.22859">
        <ele>324.71</ele>
        <time>2019-06-26T06:48:54Z</time>
      </trkpt>
      <trkpt lat="47.65024" lon="6.22852">
        <ele>324.7</ele>
        <time>2019-06-26T06:48:56Z</time>
      </trkpt>
      <trkpt lat="47.65022" lon="6.22844">
        <ele>324.7</ele>
        <time>2019-06-26T06:48:58Z</time>
      </trkpt>
      <trkpt lat="47.6502" lon="6.22835">
        <ele>324.69</ele>
        <time>2019-06-26T06:49:00Z</time>
      </trkpt>
      <trkpt lat="47.65018" lon="6.22826">
        <ele>324.69</ele>
        <time>2019-06-26T06:49:02Z</time>
      </trkpt>
      <trkpt lat="47.65015" lon="6.22816">
        <ele>324.69</ele>
        <time>2019-06-26T06:49:04Z</time>
      </trkpt>
      <trkpt lat="47.65012" lon="6.22805">
        <ele>324.7</ele>
        <time>2019-06-26T06:49:06Z</time>
      </trkpt>
      <trkpt lat="47.65008" lon="6.22794">
        <ele>324.72</ele>
        <time>2019-06-26T06:49:08Z</time>
      </trkpt>
      <trkpt lat="47.65005" lon="6.22782">
        <ele>324.73</ele>
        <time>2019-06-26T06:49:09Z</time>
      </trkpt>
      <trkpt lat="47.65002" lon="6.2277">
        <ele>324.74</ele>
        <time>2019-06-26T06:49:11Z</time>
      </trkpt>
      <trkpt lat="47.64998" lon="6.22759">
        <ele>324.77</ele>
        <time>2019-06-26T06:49:13Z</time>
      </trkpt>
      <trkpt lat="47.64994" lon="6.22748">
        <ele>324.79</ele>
        <time>2019-06-26T06:49:15Z</time>
      </trkpt>
      <trkpt lat="47.64991" lon="6.22737">
        <ele>324.82</ele>
        <time>2019-06-26T06:49:17Z</time>
      </trkpt>
      <trkpt lat="47.64988" lon="6.22727">
        <ele>324.83</ele>
        <time>2019-06-26T06:49:19Z</time>
      </trkpt>
      <trkpt lat="47.64983" lon="6.22716">
        <ele>324.85</ele>
        <time>2019-06-26T06:49:21Z</time>
      </trkpt>
      <trkpt lat="47.6498" lon="6.22704">
        <ele>324.87</ele>
        <time>2019-06-26T06:49:23Z</time>
      </trkpt>
      <trkpt lat="47.64977" lon="6.22693">
        <ele>324.91</ele>
        <time>2019-06-26T06:49:25Z</time>
      </trkpt>
      <trkpt lat="47.64974" lon="6.22683">
        <ele>324.94</ele>
        <time>2019-06-26T06:49:27Z</time>
      </trkpt>
      <trkpt lat="47.64971" lon="6.22674">
        <ele>324.95</ele>
        <time>2019-06-26T06:49:29Z</time>
      </trkpt>
      <trkpt lat="47.64968" lon="6.22665">
        <ele>324.96</ele>
        <time>2019-06-26T06:49:31Z</time>
      </trkpt>
      <trkpt lat="47.64964" lon="6.22655">
        <ele>324.96</ele>
        <time>2019-06-26T06:49:33Z</time>
      </trkpt>
      <trkpt lat="47.64962" lon="6.22645">
        <ele>324.97</ele>
        <time>2019-06-26T06:49:35Z</time>
      </trkpt>
      <trkpt lat="47.6496" lon="6.22636">
        <ele>324.98</ele>
        <time>2019-06-26T06:49:37Z</time>
      </trkpt>
      <trkpt lat="47.64958" lon="6.22628">
        <ele>324.99</ele>
        <time>2019-06-26T06:49:40Z</time>
      </trkpt>
      <trkpt lat="47.64956" lon="6.22622">
        <ele>325.01</ele>
        <time>2019-06-26T06:49:43Z</time>
      </trkpt>
      <trkpt lat="47.64953" lon="6.22615">
        <ele>325.05</ele>
        <time>2019-06-26T06:49:49Z</time>
      </trkpt>
      <trkpt lat="47.64951" lon="6.22607">
        <ele>325.09</ele>
        <time>2019-06-26T06:49:54Z</time>
      </trkpt>
      <trkpt lat="47.64949" lon="6.226">
        <ele>325.1</ele>
        <time>2019-06-26T06:49:57Z</time>
      </trkpt>
      <trkpt lat="47.64947" lon="6.22593">
        <ele>325.17</ele>
        <time>2019-06-26T06:50:28Z</time>
      </trkpt>
      <trkpt lat="47.64945" lon="6.22586">
        <ele>325.19</ele>
        <time>2019-06-26T06:50:31Z</time>
      </trkpt>
      <trkpt lat="47.64944" lon="6.22576">
        <ele>325.22</ele>
        <time>2019-06-26T06:50:34Z</time>
      </trkpt>
      <trkpt lat="47.64944" lon="6.22567">
        <ele>325.24</ele>
        <time>2019-06-26T06:50:37Z</time>
      </trkpt>
      <trkpt lat="47.64945" lon="6.22559">
        <ele>325.27</ele>
        <time>2019-06-26T06:50:40Z</time>
      </trkpt>
      <trkpt lat="47.64946" lon="6.22552">
        <ele>325.3</ele>
        <time>2019-06-26T06:50:43Z</time>
      </trkpt>
      <trkpt lat="47.64947" lon="6.22543">
        <ele>325.34</ele>
        <time>2019-06-26T06:50:46Z</time>
      </trkpt>
      <trkpt lat="47.64947" lon="6.22534">
        <ele>325.37</ele>
        <time>2019-06-26T06:50:49Z</time>
      </trkpt>
      <trkpt lat="47.64948" lon="6.22525">
        <ele>325.4</ele>
        <time>2019-06-26T06:50:52Z</time>
      </trkpt>
      <trkpt lat="47.64949" lon="6.22517">
        <ele>325.43</ele>
        <time>2019-06-26T06:50:55Z</time>
      </trkpt>
      <trkpt lat="47.6495" lon="6.22509">
        <ele>325.46</ele>
        <time>2019-06-26T06:50:58Z</time>
      </trkpt>
      <trkpt lat="47.64953" lon="6.22502">
        <ele>325.51</ele>
        <time>2019-06-26T06:51:02Z</time>
      </trkpt>
      <trkpt lat="47.64959" lon="6.22504">
        <ele>325.55</ele>
        <time>2019-06-26T06:51:06Z</time>
      </trkpt>
      <trkpt lat="47.64964" lon="6.22508">
        <ele>325.59</ele>
        <time>2019-06-26T06:51:09Z</time>
      </trkpt>
      <trkpt lat="47.64968" lon="6.22513">
        <ele>325.62</ele>
        <time>2019-06-26T06:51:12Z</time>
      </trkpt>
      <trkpt lat="47.64972" lon="6.22519">
        <ele>325.65</ele>
        <time>2019-06-26T06:51:16Z</time>
      </trkpt>
      <trkpt lat="47.64976" lon="6.22524">
        <ele>325.69</ele>
        <time>2019-06-26T06:51:20Z</time>
      </trkpt>
      <trkpt lat="47.6498" lon="6.22528">
        <ele>325.78</ele>
        <time>2019-06-26T06:51:57Z</time>
      </trkpt>
      <trkpt lat="47.64985" lon="6.22533">
        <ele>325.84</ele>
        <time>2019-06-26T06:52:02Z</time>
      </trkpt>
      <trkpt lat="47.64989" lon="6.22536">
        <ele>325.88</ele>
        <time>2019-06-26T06:52:05Z</time>
      </trkpt>
      <trkpt lat="47.64993" lon="6.22539">
        <ele>325.91</ele>
        <time>2019-06-26T06:52:08Z</time>
      </trkpt>
      <trkpt lat="47.64998" lon="6.22541">
        <ele>325.95</ele>
        <time>2019-06-26T06:52:11Z</time>
      </trkpt>
      <trkpt lat="47.65003" lon="6.22542">
        <ele>326</ele>
        <time>2019-06-26T06:52:14Z</time>
      </trkpt>
      <trkpt lat="47.65008" lon="6.22543">
        <ele>326.04</ele>
        <time>2019-06-26T06:52:17Z</time>
      </trkpt>
      <trkpt lat="47.65013" lon="6.22544">
        <ele>326.09</ele>
        <time>2019-06-26T06:52:20Z</time>
      </trkpt>
      <trkpt lat="47.65018" lon="6.22543">
        <ele>326.14</ele>
        <time>2019-06-26T06:52:23Z</time>
      </trkpt>
      <trkpt lat="47.65021" lon="6.22538">
        <ele>326.19</ele>
        <time>2019-06-26T06:52:26Z</time>
      </trkpt>
      <trkpt lat="47.65025" lon="6.22533">
        <ele>326.25</ele>
        <time>2019-06-26T06:52:29Z</time>
      </trkpt>
      <trkpt lat="47.65028" lon="6.22526">
        <ele>326.32</ele>
        <time>2019-06-26T06:52:33Z</time>
      </trkpt>
      <trkpt lat="47.65032" lon="6.2252">
        <ele>326.4</ele>
        <time>2019-06-26T06:52:37Z</time>
      </trkpt>
      <trkpt lat="47.65035" lon="6.22515">
        <ele>326.46</ele>
        <time>2019-06-26T06:52:40Z</time>
      </trkpt>
      <trkpt lat="47.65038" lon="6.22507">
        <ele>326.54</ele>
        <time>2019-06-26T06:52:44Z</time>
      </trkpt>
      <trkpt lat="47.65041" lon="6.22501">
        <ele>326.62</ele>
        <time>2019-06-26T06:52:48Z</time>
      </trkpt>
      <trkpt lat="47.65043" lon="6.22493">
        <ele>326.73</ele>
        <time>2019-06-26T06:52:53Z</time>
      </trkpt>
      <trkpt lat="47.65045" lon="6.22486">
        <ele>326.82</ele>
        <time>2019-06-26T06:52:57Z</time>
      </trkpt>
      <trkpt lat="47.65047" lon="6.2248">
        <ele>326.91</ele>
        <time>2019-06-26T06:53:01Z</time>
      </trkpt>
      <trkpt lat="47.6505" lon="6.22473">
        <ele>326.99</ele>
        <time>2019-06-26T06:53:05Z</time>
      </trkpt>
      <trkpt lat="47.65052" lon="6.22466">
        <ele>327.08</ele>
        <time>2019-06-26T06:53:09Z</time>
      </trkpt>
      <trkpt lat="47.65055" lon="6.22459">
        <ele>327.16</ele>
        <time>2019-06-26T06:53:13Z</time>
      </trkpt>
      <trkpt lat="47.65057" lon="6.22452">
        <ele>327.24</ele>
        <time>2019-06-26T06:53:17Z</time>
      </trkpt>
      <trkpt lat="47.65059" lon="6.22446">
        <ele>327.3</ele>
        <time>2019-06-26T06:53:20Z</time>
      </trkpt>
      <trkpt lat="47.65063" lon="6.22439">
        <ele>327.36</ele>
        <time>2019-06-26T06:53:23Z</time>
      </trkpt>
      <trkpt lat="47.65067" lon="6.22433">
        <ele>327.43</ele>
        <time>2019-06-26T06:53:26Z</time>
      </trkpt>
      <trkpt lat="47.65071" lon="6.22427">
        <ele>327.49</ele>
        <time>2019-06-26T06:53:29Z</time>
      </trkpt>
      <trkpt lat="47.65075" lon="6.22423">
        <ele>327.56</ele>
        <time>2019-06-26T06:53:32Z</time>
      </trkpt>
      <trkpt lat="47.65079" lon="6.2242">
        <ele>327.63</ele>
        <time>2019-06-26T06:53:35Z</time>
      </trkpt>
      <trkpt lat="47.65085" lon="6.22417">
        <ele>327.72</ele>
        <time>2019-06-26T06:53:39Z</time>
      </trkpt>
      <trkpt lat="47.6509" lon="6.22415">
        <ele>327.81</ele>
        <time>2019-06-26T06:53:43Z</time>
      </trkpt>
      <trkpt lat="47.65095" lon="6.22412">
        <ele>327.9</ele>
        <time>2019-06-26T06:53:47Z</time>
      </trkpt>
      <trkpt lat="47.651" lon="6.2241">
        <ele>328</ele>
        <time>2019-06-26T06:53:51Z</time>
      </trkpt>
      <trkpt lat="47.65106" lon="6.22409">
        <ele>328.09</ele>
        <time>2019-06-26T06:53:55Z</time>
      </trkpt>
      <trkpt lat="47.65111" lon="6.22408">
        <ele>328.15</ele>
        <time>2019-06-26T06:53:58Z</time>
      </trkpt>
      <trkpt lat="47.65117" lon="6.22407">
        <ele>328.22</ele>
        <time>2019-06-26T06:54:01Z</time>
      </trkpt>
      <trkpt lat="47.65122" lon="6.22405">
        <ele>328.31</ele>
        <time>2019-06-26T06:54:05Z</time>
      </trkpt>
      <trkpt lat="47.65127" lon="6.22401">
        <ele>328.39</ele>
        <time>2019-06-26T06:54:09Z</time>
      </trkpt>
      <trkpt lat="47.65132" lon="6.22396">
        <ele>328.48</ele>
        <time>2019-06-26T06:54:13Z</time>
      </trkpt>
      <trkpt lat="47.65136" lon="6.2239">
        <ele>328.55</ele>
        <time>2019-06-26T06:54:16Z</time>
      </trkpt>
      <trkpt lat="47.6514" lon="6.22383">
        <ele>328.62</ele>
        <time>2019-06-26T06:54:19Z</time>
      </trkpt>
      <trkpt lat="47.65143" lon="6.22377">
        <ele>328.67</ele>
        <time>2019-06-26T06:54:21Z</time>
      </trkpt>
      <trkpt lat="47.65146" lon="6.22372">
        <ele>328.72</ele>
        <time>2019-06-26T06:54:23Z</time>
      </trkpt>
      <trkpt lat="47.6515" lon="6.22368">
        <ele>328.77</ele>
        <time>2019-06-26T06:54:25Z</time>
      </trkpt>
      <trkpt lat="47.65154" lon="6.22364">
        <ele>328.82</ele>
        <time>2019-06-26T06:54:27Z</time>
      </trkpt>
      <trkpt lat="47.65159" lon="6.22359">
        <ele>328.9</ele>
        <time>2019-06-26T06:54:30Z</time>
      </trkpt>
      <trkpt lat="47.65164" lon="6.22353">
        <ele>328.98</ele>
        <time>2019-06-26T06:54:33Z</time>
      </trkpt>
      <trkpt lat="47.65169" lon="6.22346">
        <ele>329.05</ele>
        <time>2019-06-26T06:54:36Z</time>
      </trkpt>
      <trkpt lat="47.65173" lon="6.22342">
        <ele>329.1</ele>
        <time>2019-06-26T06:54:38Z</time>
      </trkpt>
      <trkpt lat="47.65178" lon="6.22339">
        <ele>329.15</ele>
        <time>2019-06-26T06:54:40Z</time>
      </trkpt>
      <trkpt lat="47.65182" lon="6.22337">
        <ele>329.2</ele>
        <time>2019-06-26T06:54:42Z</time>
      </trkpt>
      <trkpt lat="47.65187" lon="6.22335">
        <ele>329.24</ele>
        <time>2019-06-26T06:54:44Z</time>
      </trkpt>
      <trkpt lat="47.65192" lon="6.22332">
        <ele>329.29</ele>
        <time>2019-06-26T06:54:46Z</time>
      </trkpt>
      <trkpt lat="47.65196" lon="6.22329">
        <ele>329.34</ele>
        <time>2019-06-26T06:54:48Z</time>
      </trkpt>
      <trkpt lat="47.65201" lon="6.22325">
        <ele>329.39</ele>
        <time>2019-06-26T06:54:50Z</time>
      </trkpt>
      <trkpt lat="47.65207" lon="6.2232">
        <ele>329.44</ele>
        <time>2019-06-26T06:54:52Z</time>
      </trkpt>
      <trkpt lat="47.65212" lon="6.22316">
        <ele>329.49</ele>
        <time>2019-06-26T06:54:54Z</time>
      </trkpt>
      <trkpt lat="47.65214" lon="6.2231">
        <ele>329.54</ele>
        <time>2019-06-26T06:54:56Z</time>
      </trkpt>
      <trkpt lat="47.65213" lon="6.22301">
        <ele>329.59</ele>
        <time>2019-06-26T06:54:58Z</time>
      </trkpt>
      <trkpt lat="47.65211" lon="6.22295">
        <ele>329.63</ele>
        <time>2019-06-26T06:55:00Z</time>
      </trkpt>
      <trkpt lat="47.65207" lon="6.2229">
        <ele>329.66</ele>
        <time>2019-06-26T06:55:01Z</time>
      </trkpt>
      <trkpt lat="47.65199" lon="6.22277">
        <ele>330.01</ele>
        <time>2019-06-26T06:55:03Z</time>
      </trkpt>
      <trkpt lat="47.65194" lon="6.22269">
        <ele>330.31</ele>
        <time>2019-06-26T06:55:05Z</time>
      </trkpt>
      <trkpt lat="47.65189" lon="6.2226">
        <ele>330.51</ele>
        <time>2019-06-26T06:55:07Z</time>
      </trkpt>
      <trkpt lat="47.65184" lon="6.2225">
        <ele>330.63</ele>
        <time>2019-06-26T06:55:09Z</time>
      </trkpt>
      <trkpt lat="47.65181" lon="6.22244">
        <ele>330.68</ele>
        <time>2019-06-26T06:55:10Z</time>
      </trkpt>
      <trkpt lat="47.65178" lon="6.22238">
        <ele>330.72</ele>
        <time>2019-06-26T06:55:11Z</time>
      </trkpt>
      <trkpt lat="47.65174" lon="6.22231">
        <ele>330.75</ele>
        <time>2019-06-26T06:55:12Z</time>
      </trkpt>
      <trkpt lat="47.65171" lon="6.22225">
        <ele>330.77</ele>
        <time>2019-06-26T06:55:13Z</time>
      </trkpt>
      <trkpt lat="47.65168" lon="6.22218">
        <ele>330.78</ele>
        <time>2019-06-26T06:55:14Z</time>
      </trkpt>
      <trkpt lat="47.65165" lon="6.22211">
        <ele>330.79</ele>
        <time>2019-06-26T06:55:15Z</time>
      </trkpt>
      <trkpt lat="47.65161" lon="6.22204">
        <ele>330.8</ele>
        <time>2019-06-26T06:55:16Z</time>
      </trkpt>
      <trkpt lat="47.65156" lon="6.22196">
        <ele>330.81</ele>
        <time>2019-06-26T06:55:17Z</time>
      </trkpt>
      <trkpt lat="47.65151" lon="6.22188">
        <ele>330.81</ele>
        <time>2019-06-26T06:55:18Z</time>
      </trkpt>
      <trkpt lat="47.65145" lon="6.2218">
        <ele>330.82</ele>
        <time>2019-06-26T06:55:19Z</time>
      </trkpt>
      <trkpt lat="47.6514" lon="6.22171">
        <ele>330.82</ele>
        <time>2019-06-26T06:55:20Z</time>
      </trkpt>
      <trkpt lat="47.65133" lon="6.22163">
        <ele>330.79</ele>
        <time>2019-06-26T06:55:21Z</time>
      </trkpt>
      <trkpt lat="47.65128" lon="6.22154">
        <ele>330.75</ele>
        <time>2019-06-26T06:55:22Z</time>
      </trkpt>
      <trkpt lat="47.65122" lon="6.22145">
        <ele>330.7</ele>
        <time>2019-06-26T06:55:23Z</time>
      </trkpt>
      <trkpt lat="47.65117" lon="6.22136">
        <ele>330.67</ele>
        <time>2019-06-26T06:55:24Z</time>
      </trkpt>
      <trkpt lat="47.65112" lon="6.22128">
        <ele>330.69</ele>
        <time>2019-06-26T06:55:25Z</time>
      </trkpt>
      <trkpt lat="47.65108" lon="6.2212">
        <ele>330.7</ele>
        <time>2019-06-26T06:55:26Z</time>
      </trkpt>
      <trkpt lat="47.65103" lon="6.22112">
        <ele>330.71</ele>
        <time>2019-06-26T06:55:27Z</time>
      </trkpt>
      <trkpt lat="47.65099" lon="6.22104">
        <ele>330.71</ele>
        <time>2019-06-26T06:55:28Z</time>
      </trkpt>
      <trkpt lat="47.65095" lon="6.22096">
        <ele>330.71</ele>
        <time>2019-06-26T06:55:29Z</time>
      </trkpt>
      <trkpt lat="47.65091" lon="6.22089">
        <ele>330.73</ele>
        <time>2019-06-26T06:55:30Z</time>
      </trkpt>
      <trkpt lat="47.65088" lon="6.22082">
        <ele>330.76</ele>
        <time>2019-06-26T06:55:31Z</time>
      </trkpt>
      <trkpt lat="47.65084" lon="6.22075">
        <ele>330.81</ele>
        <time>2019-06-26T06:55:32Z</time>
      </trkpt>
      <trkpt lat="47.65081" lon="6.22068">
        <ele>330.86</ele>
        <time>2019-06-26T06:55:33Z</time>
      </trkpt>
      <trkpt lat="47.65079" lon="6.22062">
        <ele>330.9</ele>
        <time>2019-06-26T06:55:34Z</time>
      </trkpt>
      <trkpt lat="47.65076" lon="6.22054">
        <ele>330.94</ele>
        <time>2019-06-26T06:55:35Z</time>
      </trkpt>
      <trkpt lat="47.65074" lon="6.22048">
        <ele>330.97</ele>
        <time>2019-06-26T06:55:36Z</time>
      </trkpt>
      <trkpt lat="47.65072" lon="6.22041">
        <ele>330.99</ele>
        <time>2019-06-26T06:55:37Z</time>
      </trkpt>
      <trkpt lat="47.65069" lon="6.22035">
        <ele>331.01</ele>
        <time>2019-06-26T06:55:38Z</time>
      </trkpt>
      <trkpt lat="47.65066" lon="6.2203">
        <ele>331.04</ele>
        <time>2019-06-26T06:55:39Z</time>
      </trkpt>
      <trkpt lat="47.65062" lon="6.2202">
        <ele>331.12</ele>
        <time>2019-06-26T06:55:41Z</time>
      </trkpt>
      <trkpt lat="47.65058" lon="6.22013">
        <ele>331.14</ele>
        <time>2019-06-26T06:55:43Z</time>
      </trkpt>
      <trkpt lat="47.65054" lon="6.22006">
        <ele>331.15</ele>
        <time>2019-06-26T06:55:45Z</time>
      </trkpt>
      <trkpt lat="47.6505" lon="6.21999">
        <ele>331.15</ele>
        <time>2019-06-26T06:55:47Z</time>
      </trkpt>
      <trkpt lat="47.65046" lon="6.21991">
        <ele>331.15</ele>
        <time>2019-06-26T06:55:50Z</time>
      </trkpt>
      <trkpt lat="47.65041" lon="6.21982">
        <ele>331.13</ele>
        <time>2019-06-26T06:55:52Z</time>
      </trkpt>
      <trkpt lat="47.65037" lon="6.21973">
        <ele>331.11</ele>
        <time>2019-06-26T06:55:54Z</time>
      </trkpt>
      <trkpt lat="47.65034" lon="6.21967">
        <ele>331.09</ele>
        <time>2019-06-26T06:55:56Z</time>
      </trkpt>
      <trkpt lat="47.65027" lon="6.21951">
        <ele>331.07</ele>
        <time>2019-06-26T06:55:58Z</time>
      </trkpt>
      <trkpt lat="47.65023" lon="6.21943">
        <ele>331</ele>
        <time>2019-06-26T06:56:00Z</time>
      </trkpt>
      <trkpt lat="47.65021" lon="6.21936">
        <ele>330.98</ele>
        <time>2019-06-26T06:56:03Z</time>
      </trkpt>
      <trkpt lat="47.65018" lon="6.21929">
        <ele>330.97</ele>
        <time>2019-06-26T06:56:05Z</time>
      </trkpt>
      <trkpt lat="47.65015" lon="6.21922">
        <ele>330.96</ele>
        <time>2019-06-26T06:56:07Z</time>
      </trkpt>
      <trkpt lat="47.65011" lon="6.21913">
        <ele>330.95</ele>
        <time>2019-06-26T06:56:09Z</time>
      </trkpt>
      <trkpt lat="47.65007" lon="6.21906">
        <ele>330.93</ele>
        <time>2019-06-26T06:56:11Z</time>
      </trkpt>
      <trkpt lat="47.65005" lon="6.21899">
        <ele>330.91</ele>
        <time>2019-06-26T06:56:13Z</time>
      </trkpt>
      <trkpt lat="47.65001" lon="6.2189">
        <ele>330.9</ele>
        <time>2019-06-26T06:56:15Z</time>
      </trkpt>
      <trkpt lat="47.64996" lon="6.21881">
        <ele>330.88</ele>
        <time>2019-06-26T06:56:17Z</time>
      </trkpt>
      <trkpt lat="47.64992" lon="6.21871">
        <ele>330.87</ele>
        <time>2019-06-26T06:56:19Z</time>
      </trkpt>
      <trkpt lat="47.64988" lon="6.21863">
        <ele>330.86</ele>
        <time>2019-06-26T06:56:21Z</time>
      </trkpt>
      <trkpt lat="47.64984" lon="6.21855">
        <ele>330.86</ele>
        <time>2019-06-26T06:56:23Z</time>
      </trkpt>
      <trkpt lat="47.64981" lon="6.21849">
        <ele>330.85</ele>
        <time>2019-06-26T06:56:25Z</time>
      </trkpt>
      <trkpt lat="47.64978" lon="6.21841">
        <ele>330.82</ele>
        <time>2019-06-26T06:56:28Z</time>
      </trkpt>
      <trkpt lat="47.64975" lon="6.21834">
        <ele>330.78</ele>
        <time>2019-06-26T06:56:31Z</time>
      </trkpt>
      <trkpt lat="47.64972" lon="6.21827">
        <ele>330.72</ele>
        <time>2019-06-26T06:56:34Z</time>
      </trkpt>
      <trkpt lat="47.6497" lon="6.21821">
        <ele>330.66</ele>
        <time>2019-06-26T06:56:37Z</time>
      </trkpt>
      <trkpt lat="47.64969" lon="6.21813">
        <ele>330.6</ele>
        <time>2019-06-26T06:56:40Z</time>
      </trkpt>
      <trkpt lat="47.64969" lon="6.21806">
        <ele>330.56</ele>
        <time>2019-06-26T06:56:42Z</time>
      </trkpt>
      <trkpt lat="47.64969" lon="6.21797">
        <ele>330.51</ele>
        <time>2019-06-26T06:56:44Z</time>
      </trkpt>
      <trkpt lat="47.64969" lon="6.21789">
        <ele>330.47</ele>
        <time>2019-06-26T06:56:46Z</time>
      </trkpt>
      <trkpt lat="47.64969" lon="6.2178">
        <ele>330.41</ele>
        <time>2019-06-26T06:56:49Z</time>
      </trkpt>
      <trkpt lat="47.64969" lon="6.2177">
        <ele>330.38</ele>
        <time>2019-06-26T06:56:52Z</time>
      </trkpt>
      <trkpt lat="47.64969" lon="6.21763">
        <ele>330.36</ele>
        <time>2019-06-26T06:56:55Z</time>
      </trkpt>
      <trkpt lat="47.64968" lon="6.21755">
        <ele>330.36</ele>
        <time>2019-06-26T06:56:58Z</time>
      </trkpt>
      <trkpt lat="47.64966" lon="6.21746">
        <ele>330.38</ele>
        <time>2019-06-26T06:57:01Z</time>
      </trkpt>
      <trkpt lat="47.64964" lon="6.21739">
        <ele>330.4</ele>
        <time>2019-06-26T06:57:03Z</time>
      </trkpt>
      <trkpt lat="47.64963" lon="6.21732">
        <ele>330.43</ele>
        <time>2019-06-26T06:57:05Z</time>
      </trkpt>
      <trkpt lat="47.64962" lon="6.21723">
        <ele>330.47</ele>
        <time>2019-06-26T06:57:08Z</time>
      </trkpt>
      <trkpt lat="47.64961" lon="6.21714">
        <ele>330.52</ele>
        <time>2019-06-26T06:57:11Z</time>
      </trkpt>
      <trkpt lat="47.6496" lon="6.21706">
        <ele>330.57</ele>
        <time>2019-06-26T06:57:14Z</time>
      </trkpt>
      <trkpt lat="47.64959" lon="6.21696">
        <ele>330.63</ele>
        <time>2019-06-26T06:57:17Z</time>
      </trkpt>
      <trkpt lat="47.64958" lon="6.21687">
        <ele>330.67</ele>
        <time>2019-06-26T06:57:19Z</time>
      </trkpt>
      <trkpt lat="47.64957" lon="6.21679">
        <ele>330.72</ele>
        <time>2019-06-26T06:57:21Z</time>
      </trkpt>
      <trkpt lat="47.64956" lon="6.2167">
        <ele>330.78</ele>
        <time>2019-06-26T06:57:23Z</time>
      </trkpt>
      <trkpt lat="47.64955" lon="6.21661">
        <ele>330.84</ele>
        <time>2019-06-26T06:57:25Z</time>
      </trkpt>
      <trkpt lat="47.64954" lon="6.21652">
        <ele>330.91</ele>
        <time>2019-06-26T06:57:27Z</time>
      </trkpt>
      <trkpt lat="47.64953" lon="6.21643">
        <ele>330.99</ele>
        <time>2019-06-26T06:57:29Z</time>
      </trkpt>
      <trkpt lat="47.64952" lon="6.21633">
        <ele>331.07</ele>
        <time>2019-06-26T06:57:31Z</time>
      </trkpt>
      <trkpt lat="47.6495" lon="6.21622">
        <ele>331.14</ele>
        <time>2019-06-26T06:57:33Z</time>
      </trkpt>
      <trkpt lat="47.64949" lon="6.21611">
        <ele>331.22</ele>
        <time>2019-06-26T06:57:35Z</time>
      </trkpt>
      <trkpt lat="47.64948" lon="6.216">
        <ele>331.29</ele>
        <time>2019-06-26T06:57:37Z</time>
      </trkpt>
      <trkpt lat="47.64947" lon="6.21594">
        <ele>331.55</ele>
        <time>2019-06-26T06:57:38Z</time>
      </trkpt>
      <trkpt lat="47.64945" lon="6.21587">
        <ele>331.82</ele>
        <time>2019-06-26T06:57:39Z</time>
      </trkpt>
      <trkpt lat="47.6494" lon="6.21577">
        <ele>332.24</ele>
        <time>2019-06-26T06:57:41Z</time>
      </trkpt>
      <trkpt lat="47.64931" lon="6.21558">
        <ele>332.39</ele>
        <time>2019-06-26T06:57:42Z</time>
      </trkpt>
      <trkpt lat="47.64928" lon="6.21551">
        <ele>332.51</ele>
        <time>2019-06-26T06:57:43Z</time>
      </trkpt>
      <trkpt lat="47.64924" lon="6.21543">
        <ele>332.6</ele>
        <time>2019-06-26T06:57:44Z</time>
      </trkpt>
      <trkpt lat="47.6492" lon="6.21534">
        <ele>332.66</ele>
        <time>2019-06-26T06:57:45Z</time>
      </trkpt>
      <trkpt lat="47.64918" lon="6.21526">
        <ele>332.7</ele>
        <time>2019-06-26T06:57:46Z</time>
      </trkpt>
      <trkpt lat="47.64917" lon="6.21518">
        <ele>332.73</ele>
        <time>2019-06-26T06:57:47Z</time>
      </trkpt>
      <trkpt lat="47.64914" lon="6.21507">
        <ele>332.73</ele>
        <time>2019-06-26T06:57:48Z</time>
      </trkpt>
      <trkpt lat="47.6491" lon="6.21498">
        <ele>332.71</ele>
        <time>2019-06-26T06:57:49Z</time>
      </trkpt>
      <trkpt lat="47.64907" lon="6.21487">
        <ele>332.68</ele>
        <time>2019-06-26T06:57:50Z</time>
      </trkpt>
      <trkpt lat="47.64904" lon="6.21478">
        <ele>332.66</ele>
        <time>2019-06-26T06:57:51Z</time>
      </trkpt>
      <trkpt lat="47.64902" lon="6.21469">
        <ele>332.65</ele>
        <time>2019-06-26T06:57:52Z</time>
      </trkpt>
      <trkpt lat="47.64898" lon="6.2146">
        <ele>332.65</ele>
        <time>2019-06-26T06:57:53Z</time>
      </trkpt>
      <trkpt lat="47.64895" lon="6.21453">
        <ele>332.66</ele>
        <time>2019-06-26T06:57:54Z</time>
      </trkpt>
      <trkpt lat="47.64891" lon="6.21445">
        <ele>332.65</ele>
        <time>2019-06-26T06:57:55Z</time>
      </trkpt>
      <trkpt lat="47.64887" lon="6.21436">
        <ele>332.65</ele>
        <time>2019-06-26T06:57:56Z</time>
      </trkpt>
      <trkpt lat="47.64883" lon="6.21426">
        <ele>332.66</ele>
        <time>2019-06-26T06:57:57Z</time>
      </trkpt>
      <trkpt lat="47.64881" lon="6.21417">
        <ele>332.68</ele>
        <time>2019-06-26T06:57:58Z</time>
      </trkpt>
      <trkpt lat="47.64877" lon="6.21409">
        <ele>332.69</ele>
        <time>2019-06-26T06:57:59Z</time>
      </trkpt>
      <trkpt lat="47.64874" lon="6.214">
        <ele>332.68</ele>
        <time>2019-06-26T06:58:00Z</time>
      </trkpt>
      <trkpt lat="47.64871" lon="6.21391">
        <ele>332.66</ele>
        <time>2019-06-26T06:58:01Z</time>
      </trkpt>
      <trkpt lat="47.64869" lon="6.21383">
        <ele>332.62</ele>
        <time>2019-06-26T06:58:02Z</time>
      </trkpt>
      <trkpt lat="47.64867" lon="6.21376">
        <ele>332.58</ele>
        <time>2019-06-26T06:58:03Z</time>
      </trkpt>
      <trkpt lat="47.64864" lon="6.2137">
        <ele>332.54</ele>
        <time>2019-06-26T06:58:04Z</time>
      </trkpt>
      <trkpt lat="47.64861" lon="6.21364">
        <ele>332.48</ele>
        <time>2019-06-26T06:58:05Z</time>
      </trkpt>
      <trkpt lat="47.64859" lon="6.21356">
        <ele>332.42</ele>
        <time>2019-06-26T06:58:06Z</time>
      </trkpt>
      <trkpt lat="47.64857" lon="6.21349">
        <ele>332.37</ele>
        <time>2019-06-26T06:58:07Z</time>
      </trkpt>
      <trkpt lat="47.64856" lon="6.21342">
        <ele>332.36</ele>
        <time>2019-06-26T06:58:08Z</time>
      </trkpt>
      <trkpt lat="47.64853" lon="6.21334">
        <ele>332.35</ele>
        <time>2019-06-26T06:58:10Z</time>
      </trkpt>
      <trkpt lat="47.64852" lon="6.21326">
        <ele>332.35</ele>
        <time>2019-06-26T06:58:12Z</time>
      </trkpt>
      <trkpt lat="47.64851" lon="6.21315">
        <ele>332.33</ele>
        <time>2019-06-26T06:58:14Z</time>
      </trkpt>
      <trkpt lat="47.6485" lon="6.21305">
        <ele>332.29</ele>
        <time>2019-06-26T06:58:16Z</time>
      </trkpt>
      <trkpt lat="47.6485" lon="6.21297">
        <ele>332.23</ele>
        <time>2019-06-26T06:58:18Z</time>
      </trkpt>
      <trkpt lat="47.64849" lon="6.2129">
        <ele>332.17</ele>
        <time>2019-06-26T06:58:20Z</time>
      </trkpt>
      <trkpt lat="47.64848" lon="6.21283">
        <ele>332.11</ele>
        <time>2019-06-26T06:58:22Z</time>
      </trkpt>
      <trkpt lat="47.64847" lon="6.21274">
        <ele>332.03</ele>
        <time>2019-06-26T06:58:25Z</time>
      </trkpt>
      <trkpt lat="47.64845" lon="6.21267">
        <ele>331.99</ele>
        <time>2019-06-26T06:58:27Z</time>
      </trkpt>
      <trkpt lat="47.64843" lon="6.2126">
        <ele>331.96</ele>
        <time>2019-06-26T06:58:29Z</time>
      </trkpt>
      <trkpt lat="47.64841" lon="6.21253">
        <ele>331.92</ele>
        <time>2019-06-26T06:58:31Z</time>
      </trkpt>
      <trkpt lat="47.64838" lon="6.21245">
        <ele>331.88</ele>
        <time>2019-06-26T06:58:33Z</time>
      </trkpt>
      <trkpt lat="47.64835" lon="6.21238">
        <ele>331.83</ele>
        <time>2019-06-26T06:58:35Z</time>
      </trkpt>
      <trkpt lat="47.64833" lon="6.21232">
        <ele>331.78</ele>
        <time>2019-06-26T06:58:37Z</time>
      </trkpt>
      <trkpt lat="47.6483" lon="6.21224">
        <ele>331.77</ele>
        <time>2019-06-26T06:58:39Z</time>
      </trkpt>
      <trkpt lat="47.64827" lon="6.21218">
        <ele>331.76</ele>
        <time>2019-06-26T06:58:41Z</time>
      </trkpt>
      <trkpt lat="47.64824" lon="6.21211">
        <ele>331.77</ele>
        <time>2019-06-26T06:58:43Z</time>
      </trkpt>
      <trkpt lat="47.64822" lon="6.21205">
        <ele>331.79</ele>
        <time>2019-06-26T06:58:45Z</time>
      </trkpt>
      <trkpt lat="47.64818" lon="6.21197">
        <ele>331.85</ele>
        <time>2019-06-26T06:58:48Z</time>
      </trkpt>
      <trkpt lat="47.64815" lon="6.2119">
        <ele>331.88</ele>
        <time>2019-06-26T06:58:50Z</time>
      </trkpt>
      <trkpt lat="47.64813" lon="6.21182">
        <ele>331.94</ele>
        <time>2019-06-26T06:58:53Z</time>
      </trkpt>
      <trkpt lat="47.6481" lon="6.21176">
        <ele>331.98</ele>
        <time>2019-06-26T06:58:55Z</time>
      </trkpt>
      <trkpt lat="47.64808" lon="6.2117">
        <ele>332.02</ele>
        <time>2019-06-26T06:58:57Z</time>
      </trkpt>
      <trkpt lat="47.64805" lon="6.21164">
        <ele>332.07</ele>
        <time>2019-06-26T06:58:59Z</time>
      </trkpt>
      <trkpt lat="47.64802" lon="6.21156">
        <ele>332.11</ele>
        <time>2019-06-26T06:59:01Z</time>
      </trkpt>
      <trkpt lat="47.64799" lon="6.21147">
        <ele>332.17</ele>
        <time>2019-06-26T06:59:03Z</time>
      </trkpt>
      <trkpt lat="47.64796" lon="6.21136">
        <ele>332.25</ele>
        <time>2019-06-26T06:59:05Z</time>
      </trkpt>
      <trkpt lat="47.64794" lon="6.21127">
        <ele>332.34</ele>
        <time>2019-06-26T06:59:07Z</time>
      </trkpt>
      <trkpt lat="47.64793" lon="6.21118">
        <ele>332.45</ele>
        <time>2019-06-26T06:59:09Z</time>
      </trkpt>
      <trkpt lat="47.64791" lon="6.21109">
        <ele>332.97</ele>
        <time>2019-06-26T06:59:11Z</time>
      </trkpt>
      <trkpt lat="47.64787" lon="6.21099">
        <ele>333.58</ele>
        <time>2019-06-26T06:59:13Z</time>
      </trkpt>
      <trkpt lat="47.64783" lon="6.21088">
        <ele>334.19</ele>
        <time>2019-06-26T06:59:15Z</time>
      </trkpt>
      <trkpt lat="47.64781" lon="6.21081">
        <ele>334.27</ele>
        <time>2019-06-26T06:59:16Z</time>
      </trkpt>
      <trkpt lat="47.64778" lon="6.21071">
        <ele>334.37</ele>
        <time>2019-06-26T06:59:18Z</time>
      </trkpt>
      <trkpt lat="47.64777" lon="6.21062">
        <ele>334.46</ele>
        <time>2019-06-26T06:59:20Z</time>
      </trkpt>
      <trkpt lat="47.64776" lon="6.21056">
        <ele>334.56</ele>
        <time>2019-06-26T06:59:22Z</time>
      </trkpt>
      <trkpt lat="47.64773" lon="6.21049">
        <ele>334.66</ele>
        <time>2019-06-26T06:59:24Z</time>
      </trkpt>
      <trkpt lat="47.64769" lon="6.21045">
        <ele>334.82</ele>
        <time>2019-06-26T06:59:27Z</time>
      </trkpt>
      <trkpt lat="47.64764" lon="6.21046">
        <ele>335.02</ele>
        <time>2019-06-26T06:59:31Z</time>
      </trkpt>
      <trkpt lat="47.6476" lon="6.21052">
        <ele>335.22</ele>
        <time>2019-06-26T06:59:35Z</time>
      </trkpt>
      <trkpt lat="47.64757" lon="6.21058">
        <ele>335.36</ele>
        <time>2019-06-26T06:59:38Z</time>
      </trkpt>
      <trkpt lat="47.64754" lon="6.21064">
        <ele>335.46</ele>
        <time>2019-06-26T06:59:40Z</time>
      </trkpt>
      <trkpt lat="47.64751" lon="6.21069">
        <ele>335.56</ele>
        <time>2019-06-26T06:59:42Z</time>
      </trkpt>
      <trkpt lat="47.64747" lon="6.21074">
        <ele>335.65</ele>
        <time>2019-06-26T06:59:44Z</time>
      </trkpt>
      <trkpt lat="47.64745" lon="6.2108">
        <ele>335.75</ele>
        <time>2019-06-26T06:59:46Z</time>
      </trkpt>
      <trkpt lat="47.64741" lon="6.21087">
        <ele>335.94</ele>
        <time>2019-06-26T06:59:50Z</time>
      </trkpt>
      <trkpt lat="47.64737" lon="6.21093">
        <ele>336.12</ele>
        <time>2019-06-26T06:59:54Z</time>
      </trkpt>
      <trkpt lat="47.64734" lon="6.21099">
        <ele>336.26</ele>
        <time>2019-06-26T06:59:57Z</time>
      </trkpt>
      <trkpt lat="47.64731" lon="6.21105">
        <ele>336.41</ele>
        <time>2019-06-26T07:00:00Z</time>
      </trkpt>
      <trkpt lat="47.64726" lon="6.2111">
        <ele>336.55</ele>
        <time>2019-06-26T07:00:03Z</time>
      </trkpt>
      <trkpt lat="47.64723" lon="6.21114">
        <ele>336.67</ele>
        <time>2019-06-26T07:00:06Z</time>
      </trkpt>
      <trkpt lat="47.64718" lon="6.21119">
        <ele>336.78</ele>
        <time>2019-06-26T07:00:09Z</time>
      </trkpt>
      <trkpt lat="47.64715" lon="6.21123">
        <ele>336.87</ele>
        <time>2019-06-26T07:00:12Z</time>
      </trkpt>
      <trkpt lat="47.64711" lon="6.21128">
        <ele>336.94</ele>
        <time>2019-06-26T07:00:15Z</time>
      </trkpt>
      <trkpt lat="47.64707" lon="6.21134">
        <ele>337.02</ele>
        <time>2019-06-26T07:00:19Z</time>
      </trkpt>
      <trkpt lat="47.64703" lon="6.21142">
        <ele>337.06</ele>
        <time>2019-06-26T07:00:22Z</time>
      </trkpt>
      <trkpt lat="47.647" lon="6.21149">
        <ele>337.1</ele>
        <time>2019-06-26T07:00:25Z</time>
      </trkpt>
      <trkpt lat="47.64697" lon="6.21155">
        <ele>337.11</ele>
        <time>2019-06-26T07:00:27Z</time>
      </trkpt>
      <trkpt lat="47.64693" lon="6.21162">
        <ele>337.12</ele>
        <time>2019-06-26T07:00:29Z</time>
      </trkpt>
      <trkpt lat="47.6469" lon="6.21169">
        <ele>337.12</ele>
        <time>2019-06-26T07:00:31Z</time>
      </trkpt>
      <trkpt lat="47.64687" lon="6.21176">
        <ele>337.12</ele>
        <time>2019-06-26T07:00:33Z</time>
      </trkpt>
      <trkpt lat="47.64684" lon="6.21184">
        <ele>337.12</ele>
        <time>2019-06-26T07:00:36Z</time>
      </trkpt>
      <trkpt lat="47.64682" lon="6.2119">
        <ele>337.11</ele>
        <time>2019-06-26T07:00:39Z</time>
      </trkpt>
      <trkpt lat="47.64682" lon="6.21196">
        <ele>337.11</ele>
        <time>2019-06-26T07:00:42Z</time>
      </trkpt>
      <trkpt lat="47.64683" lon="6.21205">
        <ele>337.12</ele>
        <time>2019-06-26T07:00:44Z</time>
      </trkpt>
      <trkpt lat="47.64684" lon="6.21211">
        <ele>337.12</ele>
        <time>2019-06-26T07:00:45Z</time>
      </trkpt>
      <trkpt lat="47.64685" lon="6.21219">
        <ele>337.13</ele>
        <time>2019-06-26T07:00:47Z</time>
      </trkpt>
      <trkpt lat="47.64682" lon="6.21226">
        <ele>337.15</ele>
        <time>2019-06-26T07:00:51Z</time>
      </trkpt>
      <trkpt lat="47.64677" lon="6.2123">
        <ele>337.2</ele>
        <time>2019-06-26T07:00:55Z</time>
      </trkpt>
      <trkpt lat="47.64671" lon="6.21234">
        <ele>337.26</ele>
        <time>2019-06-26T07:00:59Z</time>
      </trkpt>
      <trkpt lat="47.64667" lon="6.21238">
        <ele>337.34</ele>
        <time>2019-06-26T07:01:03Z</time>
      </trkpt>
      <trkpt lat="47.64663" lon="6.21241">
        <ele>337.4</ele>
        <time>2019-06-26T07:01:06Z</time>
      </trkpt>
      <trkpt lat="47.64658" lon="6.21245">
        <ele>337.47</ele>
        <time>2019-06-26T07:01:10Z</time>
      </trkpt>
      <trkpt lat="47.64654" lon="6.21248">
        <ele>337.52</ele>
        <time>2019-06-26T07:01:13Z</time>
      </trkpt>
      <trkpt lat="47.64651" lon="6.21252">
        <ele>337.56</ele>
        <time>2019-06-26T07:01:16Z</time>
      </trkpt>
      <trkpt lat="47.64646" lon="6.21259">
        <ele>337.58</ele>
        <time>2019-06-26T07:01:19Z</time>
      </trkpt>
      <trkpt lat="47.64642" lon="6.21266">
        <ele>337.6</ele>
        <time>2019-06-26T07:01:22Z</time>
      </trkpt>
      <trkpt lat="47.64639" lon="6.21274">
        <ele>337.62</ele>
        <time>2019-06-26T07:01:27Z</time>
      </trkpt>
      <trkpt lat="47.64637" lon="6.21279">
        <ele>337.63</ele>
        <time>2019-06-26T07:01:30Z</time>
      </trkpt>
      <trkpt lat="47.64634" lon="6.21286">
        <ele>337.63</ele>
        <time>2019-06-26T07:01:33Z</time>
      </trkpt>
      <trkpt lat="47.6463" lon="6.21293">
        <ele>337.63</ele>
        <time>2019-06-26T07:01:36Z</time>
      </trkpt>
      <trkpt lat="47.64627" lon="6.213">
        <ele>337.65</ele>
        <time>2019-06-26T07:01:39Z</time>
      </trkpt>
      <trkpt lat="47.64625" lon="6.21306">
        <ele>337.66</ele>
        <time>2019-06-26T07:01:42Z</time>
      </trkpt>
      <trkpt lat="47.64622" lon="6.21315">
        <ele>337.67</ele>
        <time>2019-06-26T07:01:45Z</time>
      </trkpt>
      <trkpt lat="47.64619" lon="6.21323">
        <ele>337.68</ele>
        <time>2019-06-26T07:01:48Z</time>
      </trkpt>
      <trkpt lat="47.64616" lon="6.21331">
        <ele>337.68</ele>
        <time>2019-06-26T07:01:51Z</time>
      </trkpt>
      <trkpt lat="47.64613" lon="6.21339">
        <ele>337.69</ele>
        <time>2019-06-26T07:01:54Z</time>
      </trkpt>
      <trkpt lat="47.64611" lon="6.21346">
        <ele>337.7</ele>
        <time>2019-06-26T07:01:57Z</time>
      </trkpt>
      <trkpt lat="47.6461" lon="6.21352">
        <ele>337.72</ele>
        <time>2019-06-26T07:02:00Z</time>
      </trkpt>
      <trkpt lat="47.64608" lon="6.21358">
        <ele>337.73</ele>
        <time>2019-06-26T07:02:03Z</time>
      </trkpt>
      <trkpt lat="47.64605" lon="6.21364">
        <ele>337.76</ele>
        <time>2019-06-26T07:02:06Z</time>
      </trkpt>
      <trkpt lat="47.64602" lon="6.21369">
        <ele>337.79</ele>
        <time>2019-06-26T07:02:09Z</time>
      </trkpt>
      <trkpt lat="47.64598" lon="6.21376">
        <ele>337.84</ele>
        <time>2019-06-26T07:02:12Z</time>
      </trkpt>
      <trkpt lat="47.64594" lon="6.21383">
        <ele>337.9</ele>
        <time>2019-06-26T07:02:15Z</time>
      </trkpt>
      <trkpt lat="47.6459" lon="6.21387">
        <ele>337.96</ele>
        <time>2019-06-26T07:02:18Z</time>
      </trkpt>
      <trkpt lat="47.64586" lon="6.21391">
        <ele>338.03</ele>
        <time>2019-06-26T07:02:21Z</time>
      </trkpt>
      <trkpt lat="47.64582" lon="6.21394">
        <ele>338.17</ele>
        <time>2019-06-26T07:02:26Z</time>
      </trkpt>
      <trkpt lat="47.64577" lon="6.21398">
        <ele>338.38</ele>
        <time>2019-06-26T07:02:32Z</time>
      </trkpt>
      <trkpt lat="47.64572" lon="6.21401">
        <ele>338.54</ele>
        <time>2019-06-26T07:02:36Z</time>
      </trkpt>
      <trkpt lat="47.64566" lon="6.21403">
        <ele>338.71</ele>
        <time>2019-06-26T07:02:40Z</time>
      </trkpt>
      <trkpt lat="47.64562" lon="6.21406">
        <ele>338.85</ele>
        <time>2019-06-26T07:02:43Z</time>
      </trkpt>
      <trkpt lat="47.64557" lon="6.21409">
        <ele>338.99</ele>
        <time>2019-06-26T07:02:46Z</time>
      </trkpt>
      <trkpt lat="47.64552" lon="6.21413">
        <ele>339.18</ele>
        <time>2019-06-26T07:02:50Z</time>
      </trkpt>
      <trkpt lat="47.64547" lon="6.21414">
        <ele>339.33</ele>
        <time>2019-06-26T07:02:53Z</time>
      </trkpt>
      <trkpt lat="47.64542" lon="6.21415">
        <ele>339.48</ele>
        <time>2019-06-26T07:02:56Z</time>
      </trkpt>
      <trkpt lat="47.64537" lon="6.21417">
        <ele>339.64</ele>
        <time>2019-06-26T07:02:59Z</time>
      </trkpt>
      <trkpt lat="47.64532" lon="6.21418">
        <ele>339.86</ele>
        <time>2019-06-26T07:03:03Z</time>
      </trkpt>
      <trkpt lat="47.64527" lon="6.2142">
        <ele>340.08</ele>
        <time>2019-06-26T07:03:07Z</time>
      </trkpt>
      <trkpt lat="47.64522" lon="6.21422">
        <ele>340.38</ele>
        <time>2019-06-26T07:03:12Z</time>
      </trkpt>
      <trkpt lat="47.64518" lon="6.21426">
        <ele>340.69</ele>
        <time>2019-06-26T07:03:17Z</time>
      </trkpt>
      <trkpt lat="47.64515" lon="6.21431">
        <ele>341</ele>
        <time>2019-06-26T07:03:22Z</time>
      </trkpt>
      <trkpt lat="47.64511" lon="6.21435">
        <ele>341.2</ele>
        <time>2019-06-26T07:03:25Z</time>
      </trkpt>
      <trkpt lat="47.64508" lon="6.21441">
        <ele>341.46</ele>
        <time>2019-06-26T07:03:29Z</time>
      </trkpt>
      <trkpt lat="47.64504" lon="6.21447">
        <ele>341.86</ele>
        <time>2019-06-26T07:03:35Z</time>
      </trkpt>
      <trkpt lat="47.645" lon="6.2145">
        <ele>342.19</ele>
        <time>2019-06-26T07:03:40Z</time>
      </trkpt>
      <trkpt lat="47.64494" lon="6.21452">
        <ele>342.52</ele>
        <time>2019-06-26T07:03:45Z</time>
      </trkpt>
      <trkpt lat="47.64489" lon="6.21452">
        <ele>342.71</ele>
        <time>2019-06-26T07:03:48Z</time>
      </trkpt>
      <trkpt lat="47.64484" lon="6.21454">
        <ele>342.98</ele>
        <time>2019-06-26T07:03:52Z</time>
      </trkpt>
      <trkpt lat="47.64479" lon="6.21456">
        <ele>343.18</ele>
        <time>2019-06-26T07:03:55Z</time>
      </trkpt>
      <trkpt lat="47.64475" lon="6.21458">
        <ele>343.45</ele>
        <time>2019-06-26T07:03:59Z</time>
      </trkpt>
      <trkpt lat="47.6447" lon="6.21462">
        <ele>343.73</ele>
        <time>2019-06-26T07:04:03Z</time>
      </trkpt>
      <trkpt lat="47.64466" lon="6.21466">
        <ele>343.94</ele>
        <time>2019-06-26T07:04:06Z</time>
      </trkpt>
      <trkpt lat="47.64462" lon="6.21473">
        <ele>344.22</ele>
        <time>2019-06-26T07:04:10Z</time>
      </trkpt>
      <trkpt lat="47.6446" lon="6.21478">
        <ele>344.41</ele>
        <time>2019-06-26T07:04:13Z</time>
      </trkpt>
      <trkpt lat="47.64455" lon="6.21484">
        <ele>344.73</ele>
        <time>2019-06-26T07:04:18Z</time>
      </trkpt>
      <trkpt lat="47.64451" lon="6.21489">
        <ele>344.98</ele>
        <time>2019-06-26T07:04:22Z</time>
      </trkpt>
      <trkpt lat="47.64449" lon="6.21495">
        <ele>345.16</ele>
        <time>2019-06-26T07:04:25Z</time>
      </trkpt>
      <trkpt lat="47.64445" lon="6.21502">
        <ele>345.53</ele>
        <time>2019-06-26T07:04:31Z</time>
      </trkpt>
      <trkpt lat="47.64442" lon="6.21509">
        <ele>345.82</ele>
        <time>2019-06-26T07:04:36Z</time>
      </trkpt>
      <trkpt lat="47.64439" lon="6.21514">
        <ele>346</ele>
        <time>2019-06-26T07:04:39Z</time>
      </trkpt>
      <trkpt lat="47.64436" lon="6.2152">
        <ele>346.16</ele>
        <time>2019-06-26T07:04:42Z</time>
      </trkpt>
      <trkpt lat="47.64431" lon="6.21525">
        <ele>346.38</ele>
        <time>2019-06-26T07:04:46Z</time>
      </trkpt>
      <trkpt lat="47.64427" lon="6.21529">
        <ele>346.6</ele>
        <time>2019-06-26T07:04:50Z</time>
      </trkpt>
      <trkpt lat="47.64423" lon="6.21534">
        <ele>346.82</ele>
        <time>2019-06-26T07:04:54Z</time>
      </trkpt>
      <trkpt lat="47.64419" lon="6.21538">
        <ele>347.09</ele>
        <time>2019-06-26T07:04:59Z</time>
      </trkpt>
      <trkpt lat="47.64414" lon="6.21542">
        <ele>347.32</ele>
        <time>2019-06-26T07:05:03Z</time>
      </trkpt>
      <trkpt lat="47.64411" lon="6.21547">
        <ele>347.52</ele>
        <time>2019-06-26T07:05:09Z</time>
      </trkpt>
      <trkpt lat="47.64407" lon="6.2155">
        <ele>348.02</ele>
        <time>2019-06-26T07:05:36Z</time>
      </trkpt>
      <trkpt lat="47.64402" lon="6.2155">
        <ele>348.2</ele>
        <time>2019-06-26T07:05:39Z</time>
      </trkpt>
      <trkpt lat="47.64397" lon="6.21549">
        <ele>348.31</ele>
        <time>2019-06-26T07:05:41Z</time>
      </trkpt>
      <trkpt lat="47.64391" lon="6.21547">
        <ele>348.43</ele>
        <time>2019-06-26T07:05:43Z</time>
      </trkpt>
      <trkpt lat="47.64386" lon="6.21545">
        <ele>348.54</ele>
        <time>2019-06-26T07:05:45Z</time>
      </trkpt>
      <trkpt lat="47.6438" lon="6.21544">
        <ele>348.72</ele>
        <time>2019-06-26T07:05:48Z</time>
      </trkpt>
      <trkpt lat="47.64375" lon="6.21544">
        <ele>348.9</ele>
        <time>2019-06-26T07:05:51Z</time>
      </trkpt>
      <trkpt lat="47.6437" lon="6.21545">
        <ele>349.07</ele>
        <time>2019-06-26T07:05:54Z</time>
      </trkpt>
      <trkpt lat="47.64364" lon="6.21546">
        <ele>349.24</ele>
        <time>2019-06-26T07:05:57Z</time>
      </trkpt>
      <trkpt lat="47.64358" lon="6.21547">
        <ele>349.42</ele>
        <time>2019-06-26T07:06:00Z</time>
      </trkpt>
      <trkpt lat="47.64354" lon="6.21547">
        <ele>349.61</ele>
        <time>2019-06-26T07:06:03Z</time>
      </trkpt>
      <trkpt lat="47.64348" lon="6.21548">
        <ele>349.8</ele>
        <time>2019-06-26T07:06:06Z</time>
      </trkpt>
      <trkpt lat="47.64342" lon="6.21549">
        <ele>350</ele>
        <time>2019-06-26T07:06:09Z</time>
      </trkpt>
      <trkpt lat="47.64337" lon="6.2155">
        <ele>350.27</ele>
        <time>2019-06-26T07:06:13Z</time>
      </trkpt>
      <trkpt lat="47.64332" lon="6.2155">
        <ele>350.56</ele>
        <time>2019-06-26T07:06:17Z</time>
      </trkpt>
      <trkpt lat="47.64327" lon="6.21551">
        <ele>350.87</ele>
        <time>2019-06-26T07:06:21Z</time>
      </trkpt>
      <trkpt lat="47.64322" lon="6.2155">
        <ele>351.19</ele>
        <time>2019-06-26T07:06:25Z</time>
      </trkpt>
      <trkpt lat="47.64317" lon="6.21549">
        <ele>351.58</ele>
        <time>2019-06-26T07:06:30Z</time>
      </trkpt>
      <trkpt lat="47.64311" lon="6.2155">
        <ele>351.9</ele>
        <time>2019-06-26T07:06:34Z</time>
      </trkpt>
      <trkpt lat="47.64307" lon="6.21551">
        <ele>352.13</ele>
        <time>2019-06-26T07:06:37Z</time>
      </trkpt>
      <trkpt lat="47.64301" lon="6.21551">
        <ele>352.44</ele>
        <time>2019-06-26T07:06:41Z</time>
      </trkpt>
      <trkpt lat="47.64297" lon="6.21553">
        <ele>352.67</ele>
        <time>2019-06-26T07:06:44Z</time>
      </trkpt>
      <trkpt lat="47.64292" lon="6.21556">
        <ele>352.9</ele>
        <time>2019-06-26T07:06:47Z</time>
      </trkpt>
      <trkpt lat="47.64287" lon="6.21559">
        <ele>353.21</ele>
        <time>2019-06-26T07:06:51Z</time>
      </trkpt>
      <trkpt lat="47.64282" lon="6.2156">
        <ele>353.52</ele>
        <time>2019-06-26T07:06:55Z</time>
      </trkpt>
      <trkpt lat="47.64276" lon="6.21559">
        <ele>353.83</ele>
        <time>2019-06-26T07:06:59Z</time>
      </trkpt>
      <trkpt lat="47.6427" lon="6.21559">
        <ele>354.07</ele>
        <time>2019-06-26T07:07:02Z</time>
      </trkpt>
      <trkpt lat="47.64263" lon="6.21559">
        <ele>354.31</ele>
        <time>2019-06-26T07:07:05Z</time>
      </trkpt>
      <trkpt lat="47.64257" lon="6.21559">
        <ele>354.54</ele>
        <time>2019-06-26T07:07:08Z</time>
      </trkpt>
      <trkpt lat="47.64252" lon="6.21559">
        <ele>354.7</ele>
        <time>2019-06-26T07:07:10Z</time>
      </trkpt>
      <trkpt lat="47.64246" lon="6.2156">
        <ele>354.95</ele>
        <time>2019-06-26T07:07:13Z</time>
      </trkpt>
      <trkpt lat="47.64241" lon="6.21561">
        <ele>355.19</ele>
        <time>2019-06-26T07:07:16Z</time>
      </trkpt>
      <trkpt lat="47.64236" lon="6.2156">
        <ele>355.43</ele>
        <time>2019-06-26T07:07:19Z</time>
      </trkpt>
      <trkpt lat="47.64231" lon="6.21559">
        <ele>355.6</ele>
        <time>2019-06-26T07:07:21Z</time>
      </trkpt>
      <trkpt lat="47.64227" lon="6.21555">
        <ele>355.85</ele>
        <time>2019-06-26T07:07:24Z</time>
      </trkpt>
      <trkpt lat="47.64225" lon="6.21548">
        <ele>356.36</ele>
        <time>2019-06-26T07:07:30Z</time>
      </trkpt>
      <trkpt lat="47.64225" lon="6.21541">
        <ele>356.7</ele>
        <time>2019-06-26T07:07:34Z</time>
      </trkpt>
      <trkpt lat="47.64225" lon="6.21531">
        <ele>357.03</ele>
        <time>2019-06-26T07:07:38Z</time>
      </trkpt>
      <trkpt lat="47.64224" lon="6.21524">
        <ele>357.2</ele>
        <time>2019-06-26T07:07:40Z</time>
      </trkpt>
      <trkpt lat="47.6422" lon="6.21516">
        <ele>357.44</ele>
        <time>2019-06-26T07:07:43Z</time>
      </trkpt>
      <trkpt lat="47.64216" lon="6.2151">
        <ele>357.6</ele>
        <time>2019-06-26T07:07:45Z</time>
      </trkpt>
      <trkpt lat="47.64213" lon="6.21505">
        <ele>357.76</ele>
        <time>2019-06-26T07:07:47Z</time>
      </trkpt>
      <trkpt lat="47.6421" lon="6.215">
        <ele>357.92</ele>
        <time>2019-06-26T07:07:49Z</time>
      </trkpt>
      <trkpt lat="47.64207" lon="6.21494">
        <ele>358.07</ele>
        <time>2019-06-26T07:07:51Z</time>
      </trkpt>
      <trkpt lat="47.64205" lon="6.21485">
        <ele>358.3</ele>
        <time>2019-06-26T07:07:54Z</time>
      </trkpt>
      <trkpt lat="47.64203" lon="6.21478">
        <ele>358.51</ele>
        <time>2019-06-26T07:07:57Z</time>
      </trkpt>
      <trkpt lat="47.64202" lon="6.21469">
        <ele>358.72</ele>
        <time>2019-06-26T07:08:00Z</time>
      </trkpt>
      <trkpt lat="47.64201" lon="6.21459">
        <ele>358.93</ele>
        <time>2019-06-26T07:08:03Z</time>
      </trkpt>
      <trkpt lat="47.642" lon="6.2145">
        <ele>359.12</ele>
        <time>2019-06-26T07:08:06Z</time>
      </trkpt>
      <trkpt lat="47.64199" lon="6.21441">
        <ele>359.31</ele>
        <time>2019-06-26T07:08:09Z</time>
      </trkpt>
      <trkpt lat="47.64198" lon="6.21434">
        <ele>359.43</ele>
        <time>2019-06-26T07:08:11Z</time>
      </trkpt>
      <trkpt lat="47.64196" lon="6.21425">
        <ele>359.54</ele>
        <time>2019-06-26T07:08:13Z</time>
      </trkpt>
      <trkpt lat="47.64195" lon="6.21416">
        <ele>359.66</ele>
        <time>2019-06-26T07:08:15Z</time>
      </trkpt>
      <trkpt lat="47.64194" lon="6.21407">
        <ele>359.77</ele>
        <time>2019-06-26T07:08:17Z</time>
      </trkpt>
      <trkpt lat="47.64191" lon="6.21399">
        <ele>359.87</ele>
        <time>2019-06-26T07:08:19Z</time>
      </trkpt>
      <trkpt lat="47.64189" lon="6.21389">
        <ele>359.98</ele>
        <time>2019-06-26T07:08:21Z</time>
      </trkpt>
      <trkpt lat="47.64186" lon="6.21382">
        <ele>360.08</ele>
        <time>2019-06-26T07:08:23Z</time>
      </trkpt>
      <trkpt lat="47.64181" lon="6.21381">
        <ele>360.18</ele>
        <time>2019-06-26T07:08:25Z</time>
      </trkpt>
      <trkpt lat="47.64176" lon="6.21384">
        <ele>360.61</ele>
        <time>2019-06-26T07:08:34Z</time>
      </trkpt>
      <trkpt lat="47.64172" lon="6.21389">
        <ele>360.78</ele>
        <time>2019-06-26T07:08:38Z</time>
      </trkpt>
      <trkpt lat="47.64167" lon="6.21393">
        <ele>360.95</ele>
        <time>2019-06-26T07:08:42Z</time>
      </trkpt>
      <trkpt lat="47.64163" lon="6.21396">
        <ele>361.12</ele>
        <time>2019-06-26T07:08:46Z</time>
      </trkpt>
      <trkpt lat="47.64158" lon="6.21398">
        <ele>361.23</ele>
        <time>2019-06-26T07:08:49Z</time>
      </trkpt>
      <trkpt lat="47.64153" lon="6.21398">
        <ele>361.31</ele>
        <time>2019-06-26T07:08:51Z</time>
      </trkpt>
      <trkpt lat="47.64147" lon="6.21401">
        <ele>361.43</ele>
        <time>2019-06-26T07:08:54Z</time>
      </trkpt>
      <trkpt lat="47.64143" lon="6.21406">
        <ele>361.54</ele>
        <time>2019-06-26T07:08:57Z</time>
      </trkpt>
      <trkpt lat="47.64139" lon="6.2141">
        <ele>361.65</ele>
        <time>2019-06-26T07:09:00Z</time>
      </trkpt>
      <trkpt lat="47.64134" lon="6.21414">
        <ele>361.75</ele>
        <time>2019-06-26T07:09:03Z</time>
      </trkpt>
      <trkpt lat="47.6413" lon="6.21417">
        <ele>361.84</ele>
        <time>2019-06-26T07:09:06Z</time>
      </trkpt>
      <trkpt lat="47.64125" lon="6.21421">
        <ele>361.97</ele>
        <time>2019-06-26T07:09:10Z</time>
      </trkpt>
      <trkpt lat="47.64119" lon="6.21423">
        <ele>362.05</ele>
        <time>2019-06-26T07:09:13Z</time>
      </trkpt>
      <trkpt lat="47.64115" lon="6.21426">
        <ele>362.14</ele>
        <time>2019-06-26T07:09:16Z</time>
      </trkpt>
      <trkpt lat="47.64111" lon="6.21428">
        <ele>362.24</ele>
        <time>2019-06-26T07:09:20Z</time>
      </trkpt>
      <trkpt lat="47.64106" lon="6.2143">
        <ele>362.34</ele>
        <time>2019-06-26T07:09:24Z</time>
      </trkpt>
      <trkpt lat="47.641" lon="6.21434">
        <ele>362.44</ele>
        <time>2019-06-26T07:09:28Z</time>
      </trkpt>
      <trkpt lat="47.64095" lon="6.21437">
        <ele>362.51</ele>
        <time>2019-06-26T07:09:31Z</time>
      </trkpt>
      <trkpt lat="47.64091" lon="6.2144">
        <ele>362.59</ele>
        <time>2019-06-26T07:09:34Z</time>
      </trkpt>
      <trkpt lat="47.64086" lon="6.21443">
        <ele>362.68</ele>
        <time>2019-06-26T07:09:38Z</time>
      </trkpt>
      <trkpt lat="47.64081" lon="6.21446">
        <ele>362.75</ele>
        <time>2019-06-26T07:09:41Z</time>
      </trkpt>
      <trkpt lat="47.64075" lon="6.2145">
        <ele>362.82</ele>
        <time>2019-06-26T07:09:44Z</time>
      </trkpt>
      <trkpt lat="47.64071" lon="6.21453">
        <ele>362.89</ele>
        <time>2019-06-26T07:09:47Z</time>
      </trkpt>
      <trkpt lat="47.64065" lon="6.21457">
        <ele>362.96</ele>
        <time>2019-06-26T07:09:50Z</time>
      </trkpt>
      <trkpt lat="47.6406" lon="6.2146">
        <ele>363.04</ele>
        <time>2019-06-26T07:09:54Z</time>
      </trkpt>
      <trkpt lat="47.64055" lon="6.21463">
        <ele>363.13</ele>
        <time>2019-06-26T07:09:58Z</time>
      </trkpt>
      <trkpt lat="47.6405" lon="6.21466">
        <ele>363.22</ele>
        <time>2019-06-26T07:10:02Z</time>
      </trkpt>
      <trkpt lat="47.64046" lon="6.21468">
        <ele>363.29</ele>
        <time>2019-06-26T07:10:05Z</time>
      </trkpt>
      <trkpt lat="47.6404" lon="6.21469">
        <ele>363.37</ele>
        <time>2019-06-26T07:10:08Z</time>
      </trkpt>
      <trkpt lat="47.64035" lon="6.21469">
        <ele>363.45</ele>
        <time>2019-06-26T07:10:11Z</time>
      </trkpt>
      <trkpt lat="47.64031" lon="6.21471">
        <ele>363.53</ele>
        <time>2019-06-26T07:10:15Z</time>
      </trkpt>
      <trkpt lat="47.64027" lon="6.21476">
        <ele>363.74</ele>
        <time>2019-06-26T07:10:51Z</time>
      </trkpt>
      <trkpt lat="47.64022" lon="6.21478">
        <ele>363.9</ele>
        <time>2019-06-26T07:10:55Z</time>
      </trkpt>
      <trkpt lat="47.64018" lon="6.21481">
        <ele>363.98</ele>
        <time>2019-06-26T07:10:57Z</time>
      </trkpt>
      <trkpt lat="47.64012" lon="6.21484">
        <ele>364.09</ele>
        <time>2019-06-26T07:11:00Z</time>
      </trkpt>
      <trkpt lat="47.64006" lon="6.21487">
        <ele>364.16</ele>
        <time>2019-06-26T07:11:02Z</time>
      </trkpt>
      <trkpt lat="47.64001" lon="6.2149">
        <ele>364.23</ele>
        <time>2019-06-26T07:11:04Z</time>
      </trkpt>
      <trkpt lat="47.63997" lon="6.21493">
        <ele>364.29</ele>
        <time>2019-06-26T07:11:06Z</time>
      </trkpt>
      <trkpt lat="47.63991" lon="6.21497">
        <ele>364.39</ele>
        <time>2019-06-26T07:11:09Z</time>
      </trkpt>
      <trkpt lat="47.63986" lon="6.21501">
        <ele>364.48</ele>
        <time>2019-06-26T07:11:12Z</time>
      </trkpt>
      <trkpt lat="47.63981" lon="6.21505">
        <ele>364.56</ele>
        <time>2019-06-26T07:11:15Z</time>
      </trkpt>
      <trkpt lat="47.63975" lon="6.21508">
        <ele>364.65</ele>
        <time>2019-06-26T07:11:18Z</time>
      </trkpt>
      <trkpt lat="47.6397" lon="6.21512">
        <ele>364.73</ele>
        <time>2019-06-26T07:11:21Z</time>
      </trkpt>
      <trkpt lat="47.63965" lon="6.21514">
        <ele>364.78</ele>
        <time>2019-06-26T07:11:23Z</time>
      </trkpt>
      <trkpt lat="47.63961" lon="6.21517">
        <ele>364.83</ele>
        <time>2019-06-26T07:11:25Z</time>
      </trkpt>
      <trkpt lat="47.63956" lon="6.21519">
        <ele>364.88</ele>
        <time>2019-06-26T07:11:27Z</time>
      </trkpt>
      <trkpt lat="47.63951" lon="6.21521">
        <ele>364.93</ele>
        <time>2019-06-26T07:11:29Z</time>
      </trkpt>
      <trkpt lat="47.63946" lon="6.21524">
        <ele>364.98</ele>
        <time>2019-06-26T07:11:31Z</time>
      </trkpt>
      <trkpt lat="47.63941" lon="6.21527">
        <ele>365.03</ele>
        <time>2019-06-26T07:11:33Z</time>
      </trkpt>
      <trkpt lat="47.63936" lon="6.21529">
        <ele>365.08</ele>
        <time>2019-06-26T07:11:35Z</time>
      </trkpt>
      <trkpt lat="47.6393" lon="6.21531">
        <ele>365.16</ele>
        <time>2019-06-26T07:11:38Z</time>
      </trkpt>
      <trkpt lat="47.63923" lon="6.21532">
        <ele>365.23</ele>
        <time>2019-06-26T07:11:41Z</time>
      </trkpt>
      <trkpt lat="47.63918" lon="6.21531">
        <ele>365.3</ele>
        <time>2019-06-26T07:11:44Z</time>
      </trkpt>
      <trkpt lat="47.63913" lon="6.2153">
        <ele>365.35</ele>
        <time>2019-06-26T07:11:46Z</time>
      </trkpt>
      <trkpt lat="47.63908" lon="6.21528">
        <ele>365.4</ele>
        <time>2019-06-26T07:11:48Z</time>
      </trkpt>
      <trkpt lat="47.63902" lon="6.21525">
        <ele>365.47</ele>
        <time>2019-06-26T07:11:51Z</time>
      </trkpt>
      <trkpt lat="47.63897" lon="6.21523">
        <ele>365.51</ele>
        <time>2019-06-26T07:11:53Z</time>
      </trkpt>
      <trkpt lat="47.63891" lon="6.21521">
        <ele>365.56</ele>
        <time>2019-06-26T07:11:55Z</time>
      </trkpt>
      <trkpt lat="47.63885" lon="6.21519">
        <ele>365.61</ele>
        <time>2019-06-26T07:11:57Z</time>
      </trkpt>
      <trkpt lat="47.6388" lon="6.21518">
        <ele>365.69</ele>
        <time>2019-06-26T07:12:00Z</time>
      </trkpt>
      <trkpt lat="47.63873" lon="6.2152">
        <ele>365.77</ele>
        <time>2019-06-26T07:12:03Z</time>
      </trkpt>
      <trkpt lat="47.63867" lon="6.21522">
        <ele>365.84</ele>
        <time>2019-06-26T07:12:06Z</time>
      </trkpt>
      <trkpt lat="47.63862" lon="6.21524">
        <ele>365.89</ele>
        <time>2019-06-26T07:12:08Z</time>
      </trkpt>
      <trkpt lat="47.63856" lon="6.21526">
        <ele>365.94</ele>
        <time>2019-06-26T07:12:10Z</time>
      </trkpt>
      <trkpt lat="47.6385" lon="6.21527">
        <ele>366.03</ele>
        <time>2019-06-26T07:12:13Z</time>
      </trkpt>
      <trkpt lat="47.63845" lon="6.21529">
        <ele>366.11</ele>
        <time>2019-06-26T07:12:16Z</time>
      </trkpt>
      <trkpt lat="47.6384" lon="6.21531">
        <ele>366.2</ele>
        <time>2019-06-26T07:12:19Z</time>
      </trkpt>
      <trkpt lat="47.63834" lon="6.21531">
        <ele>366.29</ele>
        <time>2019-06-26T07:12:22Z</time>
      </trkpt>
      <trkpt lat="47.63828" lon="6.21529">
        <ele>366.36</ele>
        <time>2019-06-26T07:12:24Z</time>
      </trkpt>
      <trkpt lat="47.63823" lon="6.21526">
        <ele>366.43</ele>
        <time>2019-06-26T07:12:26Z</time>
      </trkpt>
      <trkpt lat="47.63817" lon="6.21524">
        <ele>366.51</ele>
        <time>2019-06-26T07:12:28Z</time>
      </trkpt>
      <trkpt lat="47.63812" lon="6.2152">
        <ele>366.58</ele>
        <time>2019-06-26T07:12:30Z</time>
      </trkpt>
      <trkpt lat="47.63806" lon="6.21518">
        <ele>366.7</ele>
        <time>2019-06-26T07:12:33Z</time>
      </trkpt>
      <trkpt lat="47.63801" lon="6.21518">
        <ele>366.78</ele>
        <time>2019-06-26T07:12:35Z</time>
      </trkpt>
      <trkpt lat="47.63795" lon="6.21518">
        <ele>366.86</ele>
        <time>2019-06-26T07:12:37Z</time>
      </trkpt>
      <trkpt lat="47.6379" lon="6.21518">
        <ele>366.95</ele>
        <time>2019-06-26T07:12:39Z</time>
      </trkpt>
      <trkpt lat="47.63783" lon="6.21519">
        <ele>367.04</ele>
        <time>2019-06-26T07:12:41Z</time>
      </trkpt>
      <trkpt lat="47.63778" lon="6.21519">
        <ele>367.14</ele>
        <time>2019-06-26T07:12:43Z</time>
      </trkpt>
      <trkpt lat="47.63774" lon="6.21518">
        <ele>367.24</ele>
        <time>2019-06-26T07:12:45Z</time>
      </trkpt>
      <trkpt lat="47.63768" lon="6.21515">
        <ele>367.35</ele>
        <time>2019-06-26T07:12:47Z</time>
      </trkpt>
      <trkpt lat="47.63761" lon="6.21511">
        <ele>367.52</ele>
        <time>2019-06-26T07:12:50Z</time>
      </trkpt>
      <trkpt lat="47.63756" lon="6.21507">
        <ele>367.63</ele>
        <time>2019-06-26T07:12:52Z</time>
      </trkpt>
      <trkpt lat="47.63752" lon="6.21504">
        <ele>367.75</ele>
        <time>2019-06-26T07:12:54Z</time>
      </trkpt>
      <trkpt lat="47.63747" lon="6.21499">
        <ele>367.97</ele>
        <time>2019-06-26T07:12:58Z</time>
      </trkpt>
      <trkpt lat="47.63744" lon="6.21493">
        <ele>368.13</ele>
        <time>2019-06-26T07:13:01Z</time>
      </trkpt>
      <trkpt lat="47.63741" lon="6.21487">
        <ele>368.29</ele>
        <time>2019-06-26T07:13:04Z</time>
      </trkpt>
      <trkpt lat="47.63738" lon="6.2148">
        <ele>368.44</ele>
        <time>2019-06-26T07:13:07Z</time>
      </trkpt>
      <trkpt lat="47.63734" lon="6.21473">
        <ele>368.58</ele>
        <time>2019-06-26T07:13:10Z</time>
      </trkpt>
      <trkpt lat="47.63731" lon="6.21467">
        <ele>368.72</ele>
        <time>2019-06-26T07:13:13Z</time>
      </trkpt>
      <trkpt lat="47.63729" lon="6.21459">
        <ele>368.85</ele>
        <time>2019-06-26T07:13:16Z</time>
      </trkpt>
      <trkpt lat="47.63726" lon="6.21451">
        <ele>368.98</ele>
        <time>2019-06-26T07:13:19Z</time>
      </trkpt>
      <trkpt lat="47.63723" lon="6.21445">
        <ele>369.06</ele>
        <time>2019-06-26T07:13:21Z</time>
      </trkpt>
      <trkpt lat="47.63719" lon="6.21438">
        <ele>369.19</ele>
        <time>2019-06-26T07:13:24Z</time>
      </trkpt>
      <trkpt lat="47.63716" lon="6.2143">
        <ele>369.32</ele>
        <time>2019-06-26T07:13:27Z</time>
      </trkpt>
      <trkpt lat="47.63711" lon="6.21427">
        <ele>369.45</ele>
        <time>2019-06-26T07:13:30Z</time>
      </trkpt>
      <trkpt lat="47.63706" lon="6.21426">
        <ele>369.58</ele>
        <time>2019-06-26T07:13:33Z</time>
      </trkpt>
      <trkpt lat="47.63702" lon="6.21428">
        <ele>369.71</ele>
        <time>2019-06-26T07:13:36Z</time>
      </trkpt>
      <trkpt lat="47.63696" lon="6.21431">
        <ele>369.89</ele>
        <time>2019-06-26T07:13:40Z</time>
      </trkpt>
      <trkpt lat="47.63692" lon="6.21434">
        <ele>370.02</ele>
        <time>2019-06-26T07:13:43Z</time>
      </trkpt>
      <trkpt lat="47.63688" lon="6.21439">
        <ele>370.14</ele>
        <time>2019-06-26T07:13:46Z</time>
      </trkpt>
      <trkpt lat="47.63684" lon="6.21446">
        <ele>370.26</ele>
        <time>2019-06-26T07:13:49Z</time>
      </trkpt>
      <trkpt lat="47.63679" lon="6.21452">
        <ele>370.41</ele>
        <time>2019-06-26T07:13:53Z</time>
      </trkpt>
      <trkpt lat="47.63677" lon="6.21458">
        <ele>370.58</ele>
        <time>2019-06-26T07:14:11Z</time>
      </trkpt>
      <trkpt lat="47.63673" lon="6.21462">
        <ele>370.69</ele>
        <time>2019-06-26T07:14:14Z</time>
      </trkpt>
      <trkpt lat="47.63668" lon="6.21465">
        <ele>370.79</ele>
        <time>2019-06-26T07:14:17Z</time>
      </trkpt>
      <trkpt lat="47.63664" lon="6.21471">
        <ele>370.94</ele>
        <time>2019-06-26T07:14:22Z</time>
      </trkpt>
      <trkpt lat="47.63661" lon="6.21478">
        <ele>371.04</ele>
        <time>2019-06-26T07:14:26Z</time>
      </trkpt>
      <trkpt lat="47.63657" lon="6.21485">
        <ele>371.14</ele>
        <time>2019-06-26T07:14:30Z</time>
      </trkpt>
      <trkpt lat="47.63654" lon="6.21492">
        <ele>371.2</ele>
        <time>2019-06-26T07:14:33Z</time>
      </trkpt>
      <trkpt lat="47.63653" lon="6.21501">
        <ele>371.26</ele>
        <time>2019-06-26T07:14:36Z</time>
      </trkpt>
      <trkpt lat="47.6365" lon="6.21507">
        <ele>371.3</ele>
        <time>2019-06-26T07:14:38Z</time>
      </trkpt>
      <trkpt lat="47.63647" lon="6.21513">
        <ele>371.34</ele>
        <time>2019-06-26T07:14:40Z</time>
      </trkpt>
      <trkpt lat="47.63644" lon="6.21522">
        <ele>371.4</ele>
        <time>2019-06-26T07:14:43Z</time>
      </trkpt>
      <trkpt lat="47.63641" lon="6.21532">
        <ele>371.45</ele>
        <time>2019-06-26T07:14:46Z</time>
      </trkpt>
      <trkpt lat="47.63638" lon="6.21539">
        <ele>371.5</ele>
        <time>2019-06-26T07:14:49Z</time>
      </trkpt>
      <trkpt lat="47.63635" lon="6.21546">
        <ele>371.56</ele>
        <time>2019-06-26T07:14:52Z</time>
      </trkpt>
      <trkpt lat="47.63633" lon="6.21552">
        <ele>371.59</ele>
        <time>2019-06-26T07:14:54Z</time>
      </trkpt>
      <trkpt lat="47.63631" lon="6.21559">
        <ele>371.63</ele>
        <time>2019-06-26T07:14:56Z</time>
      </trkpt>
      <trkpt lat="47.63628" lon="6.21564">
        <ele>371.69</ele>
        <time>2019-06-26T07:14:59Z</time>
      </trkpt>
      <trkpt lat="47.63624" lon="6.2157">
        <ele>371.76</ele>
        <time>2019-06-26T07:15:02Z</time>
      </trkpt>
      <trkpt lat="47.63621" lon="6.21575">
        <ele>371.81</ele>
        <time>2019-06-26T07:15:05Z</time>
      </trkpt>
      <trkpt lat="47.63617" lon="6.21582">
        <ele>371.87</ele>
        <time>2019-06-26T07:15:08Z</time>
      </trkpt>
      <trkpt lat="47.63613" lon="6.21589">
        <ele>371.93</ele>
        <time>2019-06-26T07:15:11Z</time>
      </trkpt>
      <trkpt lat="47.6361" lon="6.21596">
        <ele>371.96</ele>
        <time>2019-06-26T07:15:13Z</time>
      </trkpt>
      <trkpt lat="47.63607" lon="6.21602">
        <ele>372</ele>
        <time>2019-06-26T07:15:15Z</time>
      </trkpt>
      <trkpt lat="47.63605" lon="6.2161">
        <ele>372.05</ele>
        <time>2019-06-26T07:15:18Z</time>
      </trkpt>
      <trkpt lat="47.63602" lon="6.21616">
        <ele>372.09</ele>
        <time>2019-06-26T07:15:21Z</time>
      </trkpt>
      <trkpt lat="47.63599" lon="6.21622">
        <ele>372.14</ele>
        <time>2019-06-26T07:15:24Z</time>
      </trkpt>
      <trkpt lat="47.63597" lon="6.21628">
        <ele>372.17</ele>
        <time>2019-06-26T07:15:27Z</time>
      </trkpt>
      <trkpt lat="47.63594" lon="6.21633">
        <ele>372.21</ele>
        <time>2019-06-26T07:15:30Z</time>
      </trkpt>
      <trkpt lat="47.6359" lon="6.21638">
        <ele>372.24</ele>
        <time>2019-06-26T07:15:33Z</time>
      </trkpt>
      <trkpt lat="47.63586" lon="6.21642">
        <ele>372.29</ele>
        <time>2019-06-26T07:15:38Z</time>
      </trkpt>
      <trkpt lat="47.63581" lon="6.21638">
        <ele>372.38</ele>
        <time>2019-06-26T07:15:46Z</time>
      </trkpt>
      <trkpt lat="47.63578" lon="6.21633">
        <ele>372.43</ele>
        <time>2019-06-26T07:15:53Z</time>
      </trkpt>
      <trkpt lat="47.63573" lon="6.21626">
        <ele>372.44</ele>
        <time>2019-06-26T07:15:57Z</time>
      </trkpt>
      <trkpt lat="47.63569" lon="6.21621">
        <ele>372.44</ele>
        <time>2019-06-26T07:16:00Z</time>
      </trkpt>
      <trkpt lat="47.63565" lon="6.21616">
        <ele>372.43</ele>
        <time>2019-06-26T07:16:03Z</time>
      </trkpt>
      <trkpt lat="47.6356" lon="6.21611">
        <ele>372.41</ele>
        <time>2019-06-26T07:16:06Z</time>
      </trkpt>
      <trkpt lat="47.63556" lon="6.21606">
        <ele>372.38</ele>
        <time>2019-06-26T07:16:09Z</time>
      </trkpt>
      <trkpt lat="47.6355" lon="6.21599">
        <ele>372.35</ele>
        <time>2019-06-26T07:16:12Z</time>
      </trkpt>
      <trkpt lat="47.63547" lon="6.21593">
        <ele>372.32</ele>
        <time>2019-06-26T07:16:15Z</time>
      </trkpt>
      <trkpt lat="47.63544" lon="6.21587">
        <ele>372.26</ele>
        <time>2019-06-26T07:16:19Z</time>
      </trkpt>
      <trkpt lat="47.6354" lon="6.21583">
        <ele>372.22</ele>
        <time>2019-06-26T07:16:22Z</time>
      </trkpt>
      <trkpt lat="47.63537" lon="6.21579">
        <ele>372.17</ele>
        <time>2019-06-26T07:16:25Z</time>
      </trkpt>
      <trkpt lat="47.63533" lon="6.21574">
        <ele>372.13</ele>
        <time>2019-06-26T07:16:28Z</time>
      </trkpt>
      <trkpt lat="47.63529" lon="6.21569">
        <ele>372.07</ele>
        <time>2019-06-26T07:16:31Z</time>
      </trkpt>
      <trkpt lat="47.63525" lon="6.21565">
        <ele>372.03</ele>
        <time>2019-06-26T07:16:34Z</time>
      </trkpt>
      <trkpt lat="47.63521" lon="6.21561">
        <ele>371.97</ele>
        <time>2019-06-26T07:16:37Z</time>
      </trkpt>
      <trkpt lat="47.63515" lon="6.21562">
        <ele>371.93</ele>
        <time>2019-06-26T07:16:40Z</time>
      </trkpt>
      <trkpt lat="47.6351" lon="6.21563">
        <ele>371.89</ele>
        <time>2019-06-26T07:16:42Z</time>
      </trkpt>
      <trkpt lat="47.63504" lon="6.21566">
        <ele>371.85</ele>
        <time>2019-06-26T07:16:44Z</time>
      </trkpt>
      <trkpt lat="47.63499" lon="6.21569">
        <ele>371.82</ele>
        <time>2019-06-26T07:16:46Z</time>
      </trkpt>
      <trkpt lat="47.63493" lon="6.21576">
        <ele>371.76</ele>
        <time>2019-06-26T07:16:49Z</time>
      </trkpt>
      <trkpt lat="47.6349" lon="6.21581">
        <ele>371.72</ele>
        <time>2019-06-26T07:16:51Z</time>
      </trkpt>
      <trkpt lat="47.63486" lon="6.21587">
        <ele>371.69</ele>
        <time>2019-06-26T07:16:53Z</time>
      </trkpt>
      <trkpt lat="47.63483" lon="6.21595">
        <ele>371.66</ele>
        <time>2019-06-26T07:16:55Z</time>
      </trkpt>
      <trkpt lat="47.6348" lon="6.21604">
        <ele>371.63</ele>
        <time>2019-06-26T07:16:57Z</time>
      </trkpt>
      <trkpt lat="47.63477" lon="6.21612">
        <ele>371.6</ele>
        <time>2019-06-26T07:16:59Z</time>
      </trkpt>
      <trkpt lat="47.63475" lon="6.21619">
        <ele>371.58</ele>
        <time>2019-06-26T07:17:01Z</time>
      </trkpt>
      <trkpt lat="47.63473" lon="6.21625">
        <ele>371.56</ele>
        <time>2019-06-26T07:17:03Z</time>
      </trkpt>
      <trkpt lat="47.6347" lon="6.21633">
        <ele>371.53</ele>
        <time>2019-06-26T07:17:06Z</time>
      </trkpt>
      <trkpt lat="47.63467" lon="6.21639">
        <ele>371.51</ele>
        <time>2019-06-26T07:17:08Z</time>
      </trkpt>
      <trkpt lat="47.63464" lon="6.21647">
        <ele>371.48</ele>
        <time>2019-06-26T07:17:11Z</time>
      </trkpt>
      <trkpt lat="47.6346" lon="6.21653">
        <ele>371.45</ele>
        <time>2019-06-26T07:17:14Z</time>
      </trkpt>
      <trkpt lat="47.63454" lon="6.21658">
        <ele>371.42</ele>
        <time>2019-06-26T07:17:17Z</time>
      </trkpt>
      <trkpt lat="47.6345" lon="6.21661">
        <ele>371.4</ele>
        <time>2019-06-26T07:17:19Z</time>
      </trkpt>
      <trkpt lat="47.63443" lon="6.21661">
        <ele>371.37</ele>
        <time>2019-06-26T07:17:22Z</time>
      </trkpt>
      <trkpt lat="47.63439" lon="6.2166">
        <ele>371.36</ele>
        <time>2019-06-26T07:17:24Z</time>
      </trkpt>
      <trkpt lat="47.63433" lon="6.21658">
        <ele>371.34</ele>
        <time>2019-06-26T07:17:26Z</time>
      </trkpt>
      <trkpt lat="47.63426" lon="6.21654">
        <ele>371.32</ele>
        <time>2019-06-26T07:17:28Z</time>
      </trkpt>
      <trkpt lat="47.6342" lon="6.21651">
        <ele>371.3</ele>
        <time>2019-06-26T07:17:30Z</time>
      </trkpt>
      <trkpt lat="47.63417" lon="6.21647">
        <ele>371.29</ele>
        <time>2019-06-26T07:17:32Z</time>
      </trkpt>
      <trkpt lat="47.63412" lon="6.21643">
        <ele>371.25</ele>
        <time>2019-06-26T07:17:35Z</time>
      </trkpt>
      <trkpt lat="47.63405" lon="6.21639">
        <ele>371.21</ele>
        <time>2019-06-26T07:17:38Z</time>
      </trkpt>
      <trkpt lat="47.63401" lon="6.21636">
        <ele>371.17</ele>
        <time>2019-06-26T07:17:40Z</time>
      </trkpt>
      <trkpt lat="47.63395" lon="6.21635">
        <ele>371.14</ele>
        <time>2019-06-26T07:17:42Z</time>
      </trkpt>
      <trkpt lat="47.6339" lon="6.21633">
        <ele>371.1</ele>
        <time>2019-06-26T07:17:44Z</time>
      </trkpt>
      <trkpt lat="47.63385" lon="6.21633">
        <ele>371.06</ele>
        <time>2019-06-26T07:17:46Z</time>
      </trkpt>
      <trkpt lat="47.63379" lon="6.21633">
        <ele>371.02</ele>
        <time>2019-06-26T07:17:48Z</time>
      </trkpt>
      <trkpt lat="47.63372" lon="6.21633">
        <ele>370.96</ele>
        <time>2019-06-26T07:17:51Z</time>
      </trkpt>
      <trkpt lat="47.63367" lon="6.21631">
        <ele>370.9</ele>
        <time>2019-06-26T07:17:54Z</time>
      </trkpt>
      <trkpt lat="47.63363" lon="6.21627">
        <ele>370.83</ele>
        <time>2019-06-26T07:17:57Z</time>
      </trkpt>
      <trkpt lat="47.6336" lon="6.21621">
        <ele>370.78</ele>
        <time>2019-06-26T07:17:59Z</time>
      </trkpt>
      <trkpt lat="47.63356" lon="6.21617">
        <ele>370.72</ele>
        <time>2019-06-26T07:18:01Z</time>
      </trkpt>
      <trkpt lat="47.63351" lon="6.2161">
        <ele>370.63</ele>
        <time>2019-06-26T07:18:04Z</time>
      </trkpt>
      <trkpt lat="47.63346" lon="6.21603">
        <ele>370.53</ele>
        <time>2019-06-26T07:18:07Z</time>
      </trkpt>
      <trkpt lat="47.63343" lon="6.21598">
        <ele>370.45</ele>
        <time>2019-06-26T07:18:09Z</time>
      </trkpt>
      <trkpt lat="47.6334" lon="6.21592">
        <ele>370.37</ele>
        <time>2019-06-26T07:18:11Z</time>
      </trkpt>
      <trkpt lat="47.63336" lon="6.21585">
        <ele>370.23</ele>
        <time>2019-06-26T07:18:14Z</time>
      </trkpt>
      <trkpt lat="47.63332" lon="6.2158">
        <ele>370.12</ele>
        <time>2019-06-26T07:18:16Z</time>
      </trkpt>
      <trkpt lat="47.63328" lon="6.21574">
        <ele>369.95</ele>
        <time>2019-06-26T07:18:19Z</time>
      </trkpt>
      <trkpt lat="47.63323" lon="6.21568">
        <ele>369.76</ele>
        <time>2019-06-26T07:18:22Z</time>
      </trkpt>
      <trkpt lat="47.63318" lon="6.21561">
        <ele>369.55</ele>
        <time>2019-06-26T07:18:25Z</time>
      </trkpt>
      <trkpt lat="47.63313" lon="6.21556">
        <ele>369.4</ele>
        <time>2019-06-26T07:18:27Z</time>
      </trkpt>
      <trkpt lat="47.63308" lon="6.21552">
        <ele>369.25</ele>
        <time>2019-06-26T07:18:29Z</time>
      </trkpt>
      <trkpt lat="47.63303" lon="6.21546">
        <ele>369.1</ele>
        <time>2019-06-26T07:18:31Z</time>
      </trkpt>
      <trkpt lat="47.63298" lon="6.2154">
        <ele>368.94</ele>
        <time>2019-06-26T07:18:33Z</time>
      </trkpt>
      <trkpt lat="47.63292" lon="6.21533">
        <ele>368.78</ele>
        <time>2019-06-26T07:18:35Z</time>
      </trkpt>
      <trkpt lat="47.63286" lon="6.21527">
        <ele>368.62</ele>
        <time>2019-06-26T07:18:37Z</time>
      </trkpt>
      <trkpt lat="47.63281" lon="6.2152">
        <ele>368.45</ele>
        <time>2019-06-26T07:18:39Z</time>
      </trkpt>
      <trkpt lat="47.6328" lon="6.21514">
        <ele>368.2</ele>
        <time>2019-06-26T07:18:42Z</time>
      </trkpt>
      <trkpt lat="47.63279" lon="6.21507">
        <ele>367.93</ele>
        <time>2019-06-26T07:18:45Z</time>
      </trkpt>
      <trkpt lat="47.63273" lon="6.21501">
        <ele>367.66</ele>
        <time>2019-06-26T07:18:48Z</time>
      </trkpt>
      <trkpt lat="47.63267" lon="6.21495">
        <ele>367.39</ele>
        <time>2019-06-26T07:18:51Z</time>
      </trkpt>
      <trkpt lat="47.63264" lon="6.21489">
        <ele>367.11</ele>
        <time>2019-06-26T07:18:54Z</time>
      </trkpt>
      <trkpt lat="47.63259" lon="6.21481">
        <ele>366.82</ele>
        <time>2019-06-26T07:18:57Z</time>
      </trkpt>
      <trkpt lat="47.63254" lon="6.21475">
        <ele>366.63</ele>
        <time>2019-06-26T07:18:59Z</time>
      </trkpt>
      <trkpt lat="47.6325" lon="6.2147">
        <ele>366.34</ele>
        <time>2019-06-26T07:19:02Z</time>
      </trkpt>
      <trkpt lat="47.63245" lon="6.21464">
        <ele>366.14</ele>
        <time>2019-06-26T07:19:04Z</time>
      </trkpt>
      <trkpt lat="47.63241" lon="6.21458">
        <ele>365.94</ele>
        <time>2019-06-26T07:19:06Z</time>
      </trkpt>
      <trkpt lat="47.63236" lon="6.21451">
        <ele>365.73</ele>
        <time>2019-06-26T07:19:08Z</time>
      </trkpt>
      <trkpt lat="47.63232" lon="6.21446">
        <ele>365.52</ele>
        <time>2019-06-26T07:19:10Z</time>
      </trkpt>
      <trkpt lat="47.63227" lon="6.2144">
        <ele>365.21</ele>
        <time>2019-06-26T07:19:13Z</time>
      </trkpt>
      <trkpt lat="47.63222" lon="6.21431">
        <ele>364.88</ele>
        <time>2019-06-26T07:19:16Z</time>
      </trkpt>
      <trkpt lat="47.63217" lon="6.21422">
        <ele>364.67</ele>
        <time>2019-06-26T07:19:18Z</time>
      </trkpt>
      <trkpt lat="47.6321" lon="6.21412">
        <ele>364.46</ele>
        <time>2019-06-26T07:19:20Z</time>
      </trkpt>
      <trkpt lat="47.63206" lon="6.21407">
        <ele>364.35</ele>
        <time>2019-06-26T07:19:21Z</time>
      </trkpt>
      <trkpt lat="47.632" lon="6.21399">
        <ele>364.15</ele>
        <time>2019-06-26T07:19:23Z</time>
      </trkpt>
      <trkpt lat="47.63193" lon="6.21393">
        <ele>363.95</ele>
        <time>2019-06-26T07:19:25Z</time>
      </trkpt>
      <trkpt lat="47.6319" lon="6.21388">
        <ele>363.85</ele>
        <time>2019-06-26T07:19:26Z</time>
      </trkpt>
      <trkpt lat="47.63183" lon="6.2138">
        <ele>363.66</ele>
        <time>2019-06-26T07:19:28Z</time>
      </trkpt>
      <trkpt lat="47.63177" lon="6.21373">
        <ele>363.48</ele>
        <time>2019-06-26T07:19:30Z</time>
      </trkpt>
      <trkpt lat="47.63172" lon="6.21367">
        <ele>363.31</ele>
        <time>2019-06-26T07:19:32Z</time>
      </trkpt>
      <trkpt lat="47.63167" lon="6.21361">
        <ele>363.14</ele>
        <time>2019-06-26T07:19:34Z</time>
      </trkpt>
      <trkpt lat="47.63163" lon="6.21356">
        <ele>362.98</ele>
        <time>2019-06-26T07:19:36Z</time>
      </trkpt>
      <trkpt lat="47.63158" lon="6.21351">
        <ele>362.63</ele>
        <time>2019-06-26T07:19:44Z</time>
      </trkpt>
      <trkpt lat="47.63154" lon="6.21347">
        <ele>362.5</ele>
        <time>2019-06-26T07:19:49Z</time>
      </trkpt>
      <trkpt lat="47.63149" lon="6.21343">
        <ele>362.29</ele>
        <time>2019-06-26T07:19:53Z</time>
      </trkpt>
      <trkpt lat="47.63144" lon="6.21337">
        <ele>362.08</ele>
        <time>2019-06-26T07:19:56Z</time>
      </trkpt>
      <trkpt lat="47.63141" lon="6.21332">
        <ele>361.94</ele>
        <time>2019-06-26T07:19:58Z</time>
      </trkpt>
      <trkpt lat="47.63135" lon="6.21326">
        <ele>361.74</ele>
        <time>2019-06-26T07:20:01Z</time>
      </trkpt>
      <trkpt lat="47.63132" lon="6.21321">
        <ele>361.62</ele>
        <time>2019-06-26T07:20:03Z</time>
      </trkpt>
      <trkpt lat="47.63127" lon="6.21313">
        <ele>361.43</ele>
        <time>2019-06-26T07:20:06Z</time>
      </trkpt>
      <trkpt lat="47.63122" lon="6.21307">
        <ele>361.25</ele>
        <time>2019-06-26T07:20:09Z</time>
      </trkpt>
      <trkpt lat="47.63119" lon="6.21302">
        <ele>361.12</ele>
        <time>2019-06-26T07:20:12Z</time>
      </trkpt>
      <trkpt lat="47.63117" lon="6.21294">
        <ele>360.9</ele>
        <time>2019-06-26T07:20:16Z</time>
      </trkpt>
      <trkpt lat="47.63113" lon="6.21288">
        <ele>360.68</ele>
        <time>2019-06-26T07:20:20Z</time>
      </trkpt>
      <trkpt lat="47.63108" lon="6.21286">
        <ele>360.55</ele>
        <time>2019-06-26T07:20:24Z</time>
      </trkpt>
      <trkpt lat="47.63104" lon="6.21285">
        <ele>360.53</ele>
        <time>2019-06-26T07:20:28Z</time>
      </trkpt>
      <trkpt lat="47.631" lon="6.21279">
        <ele>360.41</ele>
        <time>2019-06-26T07:20:49Z</time>
      </trkpt>
      <trkpt lat="47.63097" lon="6.21273">
        <ele>360.3</ele>
        <time>2019-06-26T07:20:51Z</time>
      </trkpt>
      <trkpt lat="47.63093" lon="6.21267">
        <ele>360.17</ele>
        <time>2019-06-26T07:20:53Z</time>
      </trkpt>
      <trkpt lat="47.63089" lon="6.21261">
        <ele>360.05</ele>
        <time>2019-06-26T07:20:55Z</time>
      </trkpt>
      <trkpt lat="47.63084" lon="6.21254">
        <ele>359.92</ele>
        <time>2019-06-26T07:20:57Z</time>
      </trkpt>
      <trkpt lat="47.6308" lon="6.21249">
        <ele>359.8</ele>
        <time>2019-06-26T07:20:59Z</time>
      </trkpt>
      <trkpt lat="47.63075" lon="6.21245">
        <ele>359.68</ele>
        <time>2019-06-26T07:21:01Z</time>
      </trkpt>
      <trkpt lat="47.6307" lon="6.2124">
        <ele>359.57</ele>
        <time>2019-06-26T07:21:03Z</time>
      </trkpt>
      <trkpt lat="47.63066" lon="6.21236">
        <ele>359.45</ele>
        <time>2019-06-26T07:21:05Z</time>
      </trkpt>
      <trkpt lat="47.63061" lon="6.2123">
        <ele>359.34</ele>
        <time>2019-06-26T07:21:07Z</time>
      </trkpt>
      <trkpt lat="47.63056" lon="6.21223">
        <ele>359.23</ele>
        <time>2019-06-26T07:21:09Z</time>
      </trkpt>
      <trkpt lat="47.6305" lon="6.21216">
        <ele>359.12</ele>
        <time>2019-06-26T07:21:11Z</time>
      </trkpt>
      <trkpt lat="47.63045" lon="6.21209">
        <ele>359.01</ele>
        <time>2019-06-26T07:21:13Z</time>
      </trkpt>
      <trkpt lat="47.63039" lon="6.21203">
        <ele>358.91</ele>
        <time>2019-06-26T07:21:15Z</time>
      </trkpt>
      <trkpt lat="47.63034" lon="6.21198">
        <ele>358.81</ele>
        <time>2019-06-26T07:21:17Z</time>
      </trkpt>
      <trkpt lat="47.63028" lon="6.21192">
        <ele>358.71</ele>
        <time>2019-06-26T07:21:19Z</time>
      </trkpt>
      <trkpt lat="47.63024" lon="6.21187">
        <ele>358.61</ele>
        <time>2019-06-26T07:21:20Z</time>
      </trkpt>
      <trkpt lat="47.63019" lon="6.21182">
        <ele>358.51</ele>
        <time>2019-06-26T07:21:22Z</time>
      </trkpt>
      <trkpt lat="47.63014" lon="6.21177">
        <ele>358.42</ele>
        <time>2019-06-26T07:21:24Z</time>
      </trkpt>
      <trkpt lat="47.6301" lon="6.21172">
        <ele>358.32</ele>
        <time>2019-06-26T07:21:26Z</time>
      </trkpt>
      <trkpt lat="47.63006" lon="6.21168">
        <ele>358.23</ele>
        <time>2019-06-26T07:21:28Z</time>
      </trkpt>
      <trkpt lat="47.63002" lon="6.21162">
        <ele>358.1</ele>
        <time>2019-06-26T07:21:31Z</time>
      </trkpt>
      <trkpt lat="47.62996" lon="6.21156">
        <ele>357.96</ele>
        <time>2019-06-26T07:21:34Z</time>
      </trkpt>
      <trkpt lat="47.62991" lon="6.2115">
        <ele>357.83</ele>
        <time>2019-06-26T07:21:37Z</time>
      </trkpt>
      <trkpt lat="47.62987" lon="6.21145">
        <ele>357.73</ele>
        <time>2019-06-26T07:21:39Z</time>
      </trkpt>
      <trkpt lat="47.62984" lon="6.2114">
        <ele>357.64</ele>
        <time>2019-06-26T07:21:41Z</time>
      </trkpt>
      <trkpt lat="47.6298" lon="6.21134">
        <ele>357.55</ele>
        <time>2019-06-26T07:21:43Z</time>
      </trkpt>
      <trkpt lat="47.62977" lon="6.21128">
        <ele>357.46</ele>
        <time>2019-06-26T07:21:45Z</time>
      </trkpt>
      <trkpt lat="47.62973" lon="6.21122">
        <ele>357.37</ele>
        <time>2019-06-26T07:21:47Z</time>
      </trkpt>
      <trkpt lat="47.62968" lon="6.21115">
        <ele>357.28</ele>
        <time>2019-06-26T07:21:49Z</time>
      </trkpt>
      <trkpt lat="47.62964" lon="6.21111">
        <ele>357.2</ele>
        <time>2019-06-26T07:21:51Z</time>
      </trkpt>
      <trkpt lat="47.62958" lon="6.21105">
        <ele>357.07</ele>
        <time>2019-06-26T07:21:54Z</time>
      </trkpt>
      <trkpt lat="47.62953" lon="6.211">
        <ele>356.99</ele>
        <time>2019-06-26T07:21:56Z</time>
      </trkpt>
      <trkpt lat="47.62948" lon="6.21095">
        <ele>356.9</ele>
        <time>2019-06-26T07:21:58Z</time>
      </trkpt>
      <trkpt lat="47.62942" lon="6.21089">
        <ele>356.82</ele>
        <time>2019-06-26T07:22:00Z</time>
      </trkpt>
      <trkpt lat="47.62936" lon="6.21083">
        <ele>356.73</ele>
        <time>2019-06-26T07:22:02Z</time>
      </trkpt>
      <trkpt lat="47.6293" lon="6.21078">
        <ele>356.63</ele>
        <time>2019-06-26T07:22:04Z</time>
      </trkpt>
      <trkpt lat="47.62925" lon="6.21073">
        <ele>356.52</ele>
        <time>2019-06-26T07:22:06Z</time>
      </trkpt>
      <trkpt lat="47.6292" lon="6.21068">
        <ele>356.4</ele>
        <time>2019-06-26T07:22:08Z</time>
      </trkpt>
      <trkpt lat="47.62915" lon="6.21063">
        <ele>356.22</ele>
        <time>2019-06-26T07:22:11Z</time>
      </trkpt>
      <trkpt lat="47.62912" lon="6.21057">
        <ele>355.95</ele>
        <time>2019-06-26T07:22:15Z</time>
      </trkpt>
      <trkpt lat="47.62908" lon="6.21051">
        <ele>355.72</ele>
        <time>2019-06-26T07:22:18Z</time>
      </trkpt>
      <trkpt lat="47.62902" lon="6.21044">
        <ele>355.46</ele>
        <time>2019-06-26T07:22:21Z</time>
      </trkpt>
      <trkpt lat="47.62897" lon="6.21038">
        <ele>355.28</ele>
        <time>2019-06-26T07:22:23Z</time>
      </trkpt>
      <trkpt lat="47.62891" lon="6.21032">
        <ele>355.09</ele>
        <time>2019-06-26T07:22:25Z</time>
      </trkpt>
      <trkpt lat="47.62886" lon="6.21026">
        <ele>354.89</ele>
        <time>2019-06-26T07:22:27Z</time>
      </trkpt>
      <trkpt lat="47.62883" lon="6.2102">
        <ele>354.68</ele>
        <time>2019-06-26T07:22:29Z</time>
      </trkpt>
      <trkpt lat="47.62877" lon="6.21014">
        <ele>354.47</ele>
        <time>2019-06-26T07:22:31Z</time>
      </trkpt>
      <trkpt lat="47.62873" lon="6.21006">
        <ele>354.25</ele>
        <time>2019-06-26T07:22:33Z</time>
      </trkpt>
      <trkpt lat="47.6287" lon="6.21002">
        <ele>354.14</ele>
        <time>2019-06-26T07:22:34Z</time>
      </trkpt>
      <trkpt lat="47.62862" lon="6.20991">
        <ele>353.92</ele>
        <time>2019-06-26T07:22:36Z</time>
      </trkpt>
      <trkpt lat="47.62858" lon="6.20986">
        <ele>353.81</ele>
        <time>2019-06-26T07:22:37Z</time>
      </trkpt>
      <trkpt lat="47.62852" lon="6.20978">
        <ele>353.57</ele>
        <time>2019-06-26T07:22:39Z</time>
      </trkpt>
      <trkpt lat="47.62846" lon="6.20971">
        <ele>353.34</ele>
        <time>2019-06-26T07:22:41Z</time>
      </trkpt>
      <trkpt lat="47.62842" lon="6.20967">
        <ele>353.22</ele>
        <time>2019-06-26T07:22:42Z</time>
      </trkpt>
      <trkpt lat="47.62838" lon="6.20963">
        <ele>353.1</ele>
        <time>2019-06-26T07:22:43Z</time>
      </trkpt>
      <trkpt lat="47.62834" lon="6.20959">
        <ele>352.98</ele>
        <time>2019-06-26T07:22:44Z</time>
      </trkpt>
      <trkpt lat="47.62828" lon="6.20954">
        <ele>352.86</ele>
        <time>2019-06-26T07:22:45Z</time>
      </trkpt>
      <trkpt lat="47.62822" lon="6.20949">
        <ele>352.61</ele>
        <time>2019-06-26T07:22:47Z</time>
      </trkpt>
      <trkpt lat="47.62817" lon="6.20942">
        <ele>352.37</ele>
        <time>2019-06-26T07:22:49Z</time>
      </trkpt>
      <trkpt lat="47.62813" lon="6.20937">
        <ele>352.12</ele>
        <time>2019-06-26T07:22:51Z</time>
      </trkpt>
      <trkpt lat="47.6281" lon="6.20932">
        <ele>351.87</ele>
        <time>2019-06-26T07:22:53Z</time>
      </trkpt>
      <trkpt lat="47.62806" lon="6.20926">
        <ele>351.61</ele>
        <time>2019-06-26T07:22:55Z</time>
      </trkpt>
      <trkpt lat="47.62804" lon="6.20919">
        <ele>351.36</ele>
        <time>2019-06-26T07:22:57Z</time>
      </trkpt>
      <trkpt lat="47.62801" lon="6.20914">
        <ele>351.11</ele>
        <time>2019-06-26T07:22:59Z</time>
      </trkpt>
      <trkpt lat="47.62797" lon="6.20907">
        <ele>350.73</ele>
        <time>2019-06-26T07:23:02Z</time>
      </trkpt>
      <trkpt lat="47.62792" lon="6.20904">
        <ele>350.33</ele>
        <time>2019-06-26T07:23:05Z</time>
      </trkpt>
      <trkpt lat="47.62786" lon="6.20903">
        <ele>349.9</ele>
        <time>2019-06-26T07:23:08Z</time>
      </trkpt>
      <trkpt lat="47.62782" lon="6.209">
        <ele>349.61</ele>
        <time>2019-06-26T07:23:10Z</time>
      </trkpt>
      <trkpt lat="47.62776" lon="6.20899">
        <ele>349.17</ele>
        <time>2019-06-26T07:23:13Z</time>
      </trkpt>
      <trkpt lat="47.62771" lon="6.20899">
        <ele>348.86</ele>
        <time>2019-06-26T07:23:15Z</time>
      </trkpt>
      <trkpt lat="47.62765" lon="6.209">
        <ele>348.56</ele>
        <time>2019-06-26T07:23:17Z</time>
      </trkpt>
      <trkpt lat="47.62758" lon="6.20901">
        <ele>348.26</ele>
        <time>2019-06-26T07:23:19Z</time>
      </trkpt>
      <trkpt lat="47.62752" lon="6.20903">
        <ele>347.96</ele>
        <time>2019-06-26T07:23:21Z</time>
      </trkpt>
      <trkpt lat="47.62746" lon="6.20905">
        <ele>347.66</ele>
        <time>2019-06-26T07:23:23Z</time>
      </trkpt>
      <trkpt lat="47.6274" lon="6.20907">
        <ele>347.36</ele>
        <time>2019-06-26T07:23:25Z</time>
      </trkpt>
      <trkpt lat="47.62735" lon="6.20909">
        <ele>347.07</ele>
        <time>2019-06-26T07:23:27Z</time>
      </trkpt>
      <trkpt lat="47.62729" lon="6.2091">
        <ele>346.79</ele>
        <time>2019-06-26T07:23:29Z</time>
      </trkpt>
      <trkpt lat="47.62725" lon="6.2091">
        <ele>346.37</ele>
        <time>2019-06-26T07:23:32Z</time>
      </trkpt>
      <trkpt lat="47.6272" lon="6.20908">
        <ele>346.09</ele>
        <time>2019-06-26T07:23:34Z</time>
      </trkpt>
      <trkpt lat="47.62713" lon="6.20907">
        <ele>345.68</ele>
        <time>2019-06-26T07:23:37Z</time>
      </trkpt>
      <trkpt lat="47.62707" lon="6.20906">
        <ele>345.4</ele>
        <time>2019-06-26T07:23:39Z</time>
      </trkpt>
      <trkpt lat="47.627" lon="6.20905">
        <ele>345.12</ele>
        <time>2019-06-26T07:23:41Z</time>
      </trkpt>
      <trkpt lat="47.62693" lon="6.20907">
        <ele>344.84</ele>
        <time>2019-06-26T07:23:43Z</time>
      </trkpt>
      <trkpt lat="47.62687" lon="6.20908">
        <ele>344.56</ele>
        <time>2019-06-26T07:23:45Z</time>
      </trkpt>
      <trkpt lat="47.62681" lon="6.20907">
        <ele>344.29</ele>
        <time>2019-06-26T07:23:47Z</time>
      </trkpt>
      <trkpt lat="47.62676" lon="6.20904">
        <ele>344.01</ele>
        <time>2019-06-26T07:23:49Z</time>
      </trkpt>
      <trkpt lat="47.62671" lon="6.20901">
        <ele>343.72</ele>
        <time>2019-06-26T07:23:51Z</time>
      </trkpt>
      <trkpt lat="47.62665" lon="6.20899">
        <ele>343.43</ele>
        <time>2019-06-26T07:23:53Z</time>
      </trkpt>
      <trkpt lat="47.6266" lon="6.20896">
        <ele>343.14</ele>
        <time>2019-06-26T07:23:55Z</time>
      </trkpt>
      <trkpt lat="47.62655" lon="6.20894">
        <ele>342.83</ele>
        <time>2019-06-26T07:23:57Z</time>
      </trkpt>
      <trkpt lat="47.62649" lon="6.20893">
        <ele>341.53</ele>
        <time>2019-06-26T07:23:59Z</time>
      </trkpt>
      <trkpt lat="47.62643" lon="6.20896">
        <ele>339.22</ele>
        <time>2019-06-26T07:24:01Z</time>
      </trkpt>
      <trkpt lat="47.62635" lon="6.209">
        <ele>337.6</ele>
        <time>2019-06-26T07:24:03Z</time>
      </trkpt>
      <trkpt lat="47.6263" lon="6.20903">
        <ele>336.99</ele>
        <time>2019-06-26T07:24:04Z</time>
      </trkpt>
      <trkpt lat="47.62625" lon="6.20906">
        <ele>336.46</ele>
        <time>2019-06-26T07:24:05Z</time>
      </trkpt>
      <trkpt lat="47.62616" lon="6.20914">
        <ele>336</ele>
        <time>2019-06-26T07:24:06Z</time>
      </trkpt>
      <trkpt lat="47.6261" lon="6.20918">
        <ele>335.63</ele>
        <time>2019-06-26T07:24:07Z</time>
      </trkpt>
      <trkpt lat="47.62604" lon="6.20921">
        <ele>335.33</ele>
        <time>2019-06-26T07:24:08Z</time>
      </trkpt>
      <trkpt lat="47.62598" lon="6.20925">
        <ele>335.08</ele>
        <time>2019-06-26T07:24:09Z</time>
      </trkpt>
      <trkpt lat="47.62591" lon="6.20927">
        <ele>334.87</ele>
        <time>2019-06-26T07:24:10Z</time>
      </trkpt>
      <trkpt lat="47.62585" lon="6.20928">
        <ele>334.69</ele>
        <time>2019-06-26T07:24:11Z</time>
      </trkpt>
      <trkpt lat="47.62579" lon="6.20928">
        <ele>334.54</ele>
        <time>2019-06-26T07:24:12Z</time>
      </trkpt>
      <trkpt lat="47.62573" lon="6.20926">
        <ele>334.39</ele>
        <time>2019-06-26T07:24:13Z</time>
      </trkpt>
      <trkpt lat="47.62567" lon="6.20922">
        <ele>334.23</ele>
        <time>2019-06-26T07:24:14Z</time>
      </trkpt>
      <trkpt lat="47.62561" lon="6.20918">
        <ele>334.06</ele>
        <time>2019-06-26T07:24:15Z</time>
      </trkpt>
      <trkpt lat="47.62554" lon="6.20913">
        <ele>333.86</ele>
        <time>2019-06-26T07:24:16Z</time>
      </trkpt>
      <trkpt lat="47.62547" lon="6.2091">
        <ele>333.62</ele>
        <time>2019-06-26T07:24:17Z</time>
      </trkpt>
      <trkpt lat="47.62541" lon="6.20907">
        <ele>333.34</ele>
        <time>2019-06-26T07:24:18Z</time>
      </trkpt>
      <trkpt lat="47.62535" lon="6.20905">
        <ele>333.08</ele>
        <time>2019-06-26T07:24:19Z</time>
      </trkpt>
      <trkpt lat="47.6253" lon="6.20903">
        <ele>332.88</ele>
        <time>2019-06-26T07:24:20Z</time>
      </trkpt>
      <trkpt lat="47.62522" lon="6.20902">
        <ele>332.61</ele>
        <time>2019-06-26T07:24:22Z</time>
      </trkpt>
      <trkpt lat="47.62514" lon="6.20897">
        <ele>332.51</ele>
        <time>2019-06-26T07:24:24Z</time>
      </trkpt>
      <trkpt lat="47.62508" lon="6.20887">
        <ele>332.56</ele>
        <time>2019-06-26T07:24:26Z</time>
      </trkpt>
      <trkpt lat="47.62505" lon="6.20877">
        <ele>332.89</ele>
        <time>2019-06-26T07:24:28Z</time>
      </trkpt>
      <trkpt lat="47.62505" lon="6.20869">
        <ele>333.04</ele>
        <time>2019-06-26T07:24:31Z</time>
      </trkpt>
      <trkpt lat="47.62505" lon="6.20862">
        <ele>333.15</ele>
        <time>2019-06-26T07:24:33Z</time>
      </trkpt>
      <trkpt lat="47.62505" lon="6.20852">
        <ele>333.29</ele>
        <time>2019-06-26T07:24:36Z</time>
      </trkpt>
      <trkpt lat="47.62505" lon="6.20843">
        <ele>333.44</ele>
        <time>2019-06-26T07:24:39Z</time>
      </trkpt>
      <trkpt lat="47.62505" lon="6.20834">
        <ele>333.59</ele>
        <time>2019-06-26T07:24:42Z</time>
      </trkpt>
      <trkpt lat="47.62505" lon="6.20827">
        <ele>333.68</ele>
        <time>2019-06-26T07:24:44Z</time>
      </trkpt>
      <trkpt lat="47.62505" lon="6.2082">
        <ele>333.78</ele>
        <time>2019-06-26T07:24:46Z</time>
      </trkpt>
      <trkpt lat="47.62505" lon="6.20809">
        <ele>333.93</ele>
        <time>2019-06-26T07:24:49Z</time>
      </trkpt>
      <trkpt lat="47.62505" lon="6.20793">
        <ele>334.29</ele>
        <time>2019-06-26T07:24:51Z</time>
      </trkpt>
      <trkpt lat="47.62504" lon="6.2078">
        <ele>334.89</ele>
        <time>2019-06-26T07:24:53Z</time>
      </trkpt>
      <trkpt lat="47.62501" lon="6.20768">
        <ele>335.46</ele>
        <time>2019-06-26T07:24:55Z</time>
      </trkpt>
      <trkpt lat="47.625" lon="6.20761">
        <ele>335.71</ele>
        <time>2019-06-26T07:24:56Z</time>
      </trkpt>
      <trkpt lat="47.62498" lon="6.20754">
        <ele>335.93</ele>
        <time>2019-06-26T07:24:57Z</time>
      </trkpt>
      <trkpt lat="47.62496" lon="6.20742">
        <ele>336.49</ele>
        <time>2019-06-26T07:24:59Z</time>
      </trkpt>
      <trkpt lat="47.62493" lon="6.2073">
        <ele>336.97</ele>
        <time>2019-06-26T07:25:01Z</time>
      </trkpt>
      <trkpt lat="47.62491" lon="6.20718">
        <ele>337.39</ele>
        <time>2019-06-26T07:25:03Z</time>
      </trkpt>
      <trkpt lat="47.62489" lon="6.20706">
        <ele>337.49</ele>
        <time>2019-06-26T07:25:05Z</time>
      </trkpt>
      <trkpt lat="47.62488" lon="6.20698">
        <ele>337.54</ele>
        <time>2019-06-26T07:25:07Z</time>
      </trkpt>
      <trkpt lat="47.62487" lon="6.20691">
        <ele>337.58</ele>
        <time>2019-06-26T07:25:09Z</time>
      </trkpt>
      <trkpt lat="47.62486" lon="6.20683">
        <ele>337.63</ele>
        <time>2019-06-26T07:25:11Z</time>
      </trkpt>
      <trkpt lat="47.62485" lon="6.20673">
        <ele>337.67</ele>
        <time>2019-06-26T07:25:13Z</time>
      </trkpt>
      <trkpt lat="47.62484" lon="6.20664">
        <ele>337.71</ele>
        <time>2019-06-26T07:25:15Z</time>
      </trkpt>
      <trkpt lat="47.62483" lon="6.20653">
        <ele>337.75</ele>
        <time>2019-06-26T07:25:17Z</time>
      </trkpt>
      <trkpt lat="47.62481" lon="6.20641">
        <ele>337.79</ele>
        <time>2019-06-26T07:25:19Z</time>
      </trkpt>
      <trkpt lat="47.62479" lon="6.20633">
        <ele>337.82</ele>
        <time>2019-06-26T07:25:21Z</time>
      </trkpt>
      <trkpt lat="47.62478" lon="6.20621">
        <ele>337.84</ele>
        <time>2019-06-26T07:25:23Z</time>
      </trkpt>
      <trkpt lat="47.62476" lon="6.20609">
        <ele>337.85</ele>
        <time>2019-06-26T07:25:25Z</time>
      </trkpt>
      <trkpt lat="47.62475" lon="6.20599">
        <ele>337.86</ele>
        <time>2019-06-26T07:25:27Z</time>
      </trkpt>
      <trkpt lat="47.62474" lon="6.20584">
        <ele>337.89</ele>
        <time>2019-06-26T07:25:29Z</time>
      </trkpt>
      <trkpt lat="47.62473" lon="6.20573">
        <ele>337.92</ele>
        <time>2019-06-26T07:25:31Z</time>
      </trkpt>
      <trkpt lat="47.62472" lon="6.20562">
        <ele>337.9</ele>
        <time>2019-06-26T07:25:33Z</time>
      </trkpt>
      <trkpt lat="47.6247" lon="6.20549">
        <ele>337.8</ele>
        <time>2019-06-26T07:25:35Z</time>
      </trkpt>
      <trkpt lat="47.6247" lon="6.20542">
        <ele>337.72</ele>
        <time>2019-06-26T07:25:36Z</time>
      </trkpt>
      <trkpt lat="47.62469" lon="6.20535">
        <ele>337.64</ele>
        <time>2019-06-26T07:25:37Z</time>
      </trkpt>
      <trkpt lat="47.62468" lon="6.20527">
        <ele>337.56</ele>
        <time>2019-06-26T07:25:38Z</time>
      </trkpt>
      <trkpt lat="47.62468" lon="6.20519">
        <ele>337.49</ele>
        <time>2019-06-26T07:25:39Z</time>
      </trkpt>
      <trkpt lat="47.62467" lon="6.20511">
        <ele>337.42</ele>
        <time>2019-06-26T07:25:40Z</time>
      </trkpt>
      <trkpt lat="47.62466" lon="6.20503">
        <ele>337.35</ele>
        <time>2019-06-26T07:25:41Z</time>
      </trkpt>
      <trkpt lat="47.62465" lon="6.20494">
        <ele>337.27</ele>
        <time>2019-06-26T07:25:42Z</time>
      </trkpt>
      <trkpt lat="47.62464" lon="6.20486">
        <ele>337.2</ele>
        <time>2019-06-26T07:25:43Z</time>
      </trkpt>
      <trkpt lat="47.62463" lon="6.20477">
        <ele>337.12</ele>
        <time>2019-06-26T07:25:44Z</time>
      </trkpt>
      <trkpt lat="47.62461" lon="6.20468">
        <ele>337.02</ele>
        <time>2019-06-26T07:25:45Z</time>
      </trkpt>
      <trkpt lat="47.62461" lon="6.20459">
        <ele>336.93</ele>
        <time>2019-06-26T07:25:46Z</time>
      </trkpt>
      <trkpt lat="47.62459" lon="6.2045">
        <ele>336.83</ele>
        <time>2019-06-26T07:25:47Z</time>
      </trkpt>
      <trkpt lat="47.62458" lon="6.2044">
        <ele>336.71</ele>
        <time>2019-06-26T07:25:48Z</time>
      </trkpt>
      <trkpt lat="47.62457" lon="6.20431">
        <ele>336.58</ele>
        <time>2019-06-26T07:25:49Z</time>
      </trkpt>
      <trkpt lat="47.62456" lon="6.20422">
        <ele>336.45</ele>
        <time>2019-06-26T07:25:50Z</time>
      </trkpt>
      <trkpt lat="47.62455" lon="6.20413">
        <ele>336.31</ele>
        <time>2019-06-26T07:25:51Z</time>
      </trkpt>
      <trkpt lat="47.62454" lon="6.20404">
        <ele>336.16</ele>
        <time>2019-06-26T07:25:52Z</time>
      </trkpt>
      <trkpt lat="47.62453" lon="6.20395">
        <ele>336.01</ele>
        <time>2019-06-26T07:25:53Z</time>
      </trkpt>
      <trkpt lat="47.62452" lon="6.20385">
        <ele>335.85</ele>
        <time>2019-06-26T07:25:54Z</time>
      </trkpt>
      <trkpt lat="47.62451" lon="6.20376">
        <ele>335.67</ele>
        <time>2019-06-26T07:25:55Z</time>
      </trkpt>
      <trkpt lat="47.62449" lon="6.20367">
        <ele>335.5</ele>
        <time>2019-06-26T07:25:56Z</time>
      </trkpt>
      <trkpt lat="47.62448" lon="6.20358">
        <ele>335.34</ele>
        <time>2019-06-26T07:25:57Z</time>
      </trkpt>
      <trkpt lat="47.62447" lon="6.20349">
        <ele>335.19</ele>
        <time>2019-06-26T07:25:58Z</time>
      </trkpt>
      <trkpt lat="47.62446" lon="6.2034">
        <ele>335.05</ele>
        <time>2019-06-26T07:25:59Z</time>
      </trkpt>
      <trkpt lat="47.62444" lon="6.20331">
        <ele>334.92</ele>
        <time>2019-06-26T07:26:00Z</time>
      </trkpt>
      <trkpt lat="47.62443" lon="6.20322">
        <ele>334.81</ele>
        <time>2019-06-26T07:26:01Z</time>
      </trkpt>
      <trkpt lat="47.62442" lon="6.20314">
        <ele>334.74</ele>
        <time>2019-06-26T07:26:02Z</time>
      </trkpt>
      <trkpt lat="47.62441" lon="6.20305">
        <ele>334.69</ele>
        <time>2019-06-26T07:26:03Z</time>
      </trkpt>
      <trkpt lat="47.62441" lon="6.20297">
        <ele>334.64</ele>
        <time>2019-06-26T07:26:04Z</time>
      </trkpt>
      <trkpt lat="47.6244" lon="6.20289">
        <ele>334.6</ele>
        <time>2019-06-26T07:26:05Z</time>
      </trkpt>
      <trkpt lat="47.6244" lon="6.20281">
        <ele>334.57</ele>
        <time>2019-06-26T07:26:06Z</time>
      </trkpt>
      <trkpt lat="47.6244" lon="6.20274">
        <ele>334.54</ele>
        <time>2019-06-26T07:26:07Z</time>
      </trkpt>
      <trkpt lat="47.62439" lon="6.20267">
        <ele>334.5</ele>
        <time>2019-06-26T07:26:08Z</time>
      </trkpt>
      <trkpt lat="47.62438" lon="6.20254">
        <ele>334.42</ele>
        <time>2019-06-26T07:26:10Z</time>
      </trkpt>
      <trkpt lat="47.62438" lon="6.20241">
        <ele>334.35</ele>
        <time>2019-06-26T07:26:12Z</time>
      </trkpt>
      <trkpt lat="47.62438" lon="6.20234">
        <ele>334.3</ele>
        <time>2019-06-26T07:26:13Z</time>
      </trkpt>
      <trkpt lat="47.62438" lon="6.20227">
        <ele>334.24</ele>
        <time>2019-06-26T07:26:14Z</time>
      </trkpt>
      <trkpt lat="47.62438" lon="6.2022">
        <ele>334.18</ele>
        <time>2019-06-26T07:26:15Z</time>
      </trkpt>
      <trkpt lat="47.62438" lon="6.20213">
        <ele>334.12</ele>
        <time>2019-06-26T07:26:16Z</time>
      </trkpt>
      <trkpt lat="47.62438" lon="6.20205">
        <ele>334.05</ele>
        <time>2019-06-26T07:26:17Z</time>
      </trkpt>
      <trkpt lat="47.62438" lon="6.20198">
        <ele>333.99</ele>
        <time>2019-06-26T07:26:18Z</time>
      </trkpt>
      <trkpt lat="47.62438" lon="6.2019">
        <ele>333.91</ele>
        <time>2019-06-26T07:26:19Z</time>
      </trkpt>
      <trkpt lat="47.62438" lon="6.20182">
        <ele>333.81</ele>
        <time>2019-06-26T07:26:20Z</time>
      </trkpt>
      <trkpt lat="47.62438" lon="6.20174">
        <ele>333.7</ele>
        <time>2019-06-26T07:26:21Z</time>
      </trkpt>
      <trkpt lat="47.62439" lon="6.20165">
        <ele>333.53</ele>
        <time>2019-06-26T07:26:22Z</time>
      </trkpt>
      <trkpt lat="47.62439" lon="6.20156">
        <ele>333.35</ele>
        <time>2019-06-26T07:26:23Z</time>
      </trkpt>
      <trkpt lat="47.62439" lon="6.20147">
        <ele>333.18</ele>
        <time>2019-06-26T07:26:24Z</time>
      </trkpt>
      <trkpt lat="47.6244" lon="6.20137">
        <ele>332.9</ele>
        <time>2019-06-26T07:26:25Z</time>
      </trkpt>
      <trkpt lat="47.62441" lon="6.20127">
        <ele>332.55</ele>
        <time>2019-06-26T07:26:26Z</time>
      </trkpt>
      <trkpt lat="47.62442" lon="6.20116">
        <ele>332.19</ele>
        <time>2019-06-26T07:26:27Z</time>
      </trkpt>
      <trkpt lat="47.62443" lon="6.20105">
        <ele>331.84</ele>
        <time>2019-06-26T07:26:28Z</time>
      </trkpt>
      <trkpt lat="47.62444" lon="6.20093">
        <ele>331.5</ele>
        <time>2019-06-26T07:26:29Z</time>
      </trkpt>
      <trkpt lat="47.62446" lon="6.20081">
        <ele>331.2</ele>
        <time>2019-06-26T07:26:30Z</time>
      </trkpt>
      <trkpt lat="47.62448" lon="6.20069">
        <ele>330.95</ele>
        <time>2019-06-26T07:26:31Z</time>
      </trkpt>
      <trkpt lat="47.62449" lon="6.20057">
        <ele>330.74</ele>
        <time>2019-06-26T07:26:32Z</time>
      </trkpt>
      <trkpt lat="47.62451" lon="6.20046">
        <ele>330.59</ele>
        <time>2019-06-26T07:26:33Z</time>
      </trkpt>
      <trkpt lat="47.62453" lon="6.20035">
        <ele>330.48</ele>
        <time>2019-06-26T07:26:34Z</time>
      </trkpt>
      <trkpt lat="47.62455" lon="6.20025">
        <ele>330.46</ele>
        <time>2019-06-26T07:26:35Z</time>
      </trkpt>
      <trkpt lat="47.62456" lon="6.20017">
        <ele>330.45</ele>
        <time>2019-06-26T07:26:36Z</time>
      </trkpt>
      <trkpt lat="47.62457" lon="6.20009">
        <ele>330.44</ele>
        <time>2019-06-26T07:26:37Z</time>
      </trkpt>
      <trkpt lat="47.62459" lon="6.20002">
        <ele>330.4</ele>
        <time>2019-06-26T07:26:38Z</time>
      </trkpt>
      <trkpt lat="47.6246" lon="6.19995">
        <ele>330.34</ele>
        <time>2019-06-26T07:26:39Z</time>
      </trkpt>
      <trkpt lat="47.62461" lon="6.19988">
        <ele>330.27</ele>
        <time>2019-06-26T07:26:40Z</time>
      </trkpt>
      <trkpt lat="47.62462" lon="6.19981">
        <ele>330.19</ele>
        <time>2019-06-26T07:26:41Z</time>
      </trkpt>
      <trkpt lat="47.62463" lon="6.19974">
        <ele>330.09</ele>
        <time>2019-06-26T07:26:42Z</time>
      </trkpt>
      <trkpt lat="47.62463" lon="6.19968">
        <ele>329.97</ele>
        <time>2019-06-26T07:26:43Z</time>
      </trkpt>
      <trkpt lat="47.62464" lon="6.19961">
        <ele>329.83</ele>
        <time>2019-06-26T07:26:44Z</time>
      </trkpt>
      <trkpt lat="47.62465" lon="6.19948">
        <ele>329.52</ele>
        <time>2019-06-26T07:26:46Z</time>
      </trkpt>
      <trkpt lat="47.62466" lon="6.19936">
        <ele>329.23</ele>
        <time>2019-06-26T07:26:48Z</time>
      </trkpt>
      <trkpt lat="47.62467" lon="6.19924">
        <ele>328.92</ele>
        <time>2019-06-26T07:26:50Z</time>
      </trkpt>
      <trkpt lat="47.62467" lon="6.19912">
        <ele>328.61</ele>
        <time>2019-06-26T07:26:52Z</time>
      </trkpt>
      <trkpt lat="47.62467" lon="6.19899">
        <ele>328.32</ele>
        <time>2019-06-26T07:26:54Z</time>
      </trkpt>
      <trkpt lat="47.62466" lon="6.19887">
        <ele>328.12</ele>
        <time>2019-06-26T07:26:56Z</time>
      </trkpt>
      <trkpt lat="47.62464" lon="6.19877">
        <ele>328.07</ele>
        <time>2019-06-26T07:26:58Z</time>
      </trkpt>
      <trkpt lat="47.62463" lon="6.19867">
        <ele>328.02</ele>
        <time>2019-06-26T07:27:01Z</time>
      </trkpt>
      <trkpt lat="47.62461" lon="6.1986">
        <ele>327.98</ele>
        <time>2019-06-26T07:27:03Z</time>
      </trkpt>
      <trkpt lat="47.62459" lon="6.1985">
        <ele>327.93</ele>
        <time>2019-06-26T07:27:05Z</time>
      </trkpt>
      <trkpt lat="47.62456" lon="6.19841">
        <ele>327.87</ele>
        <time>2019-06-26T07:27:07Z</time>
      </trkpt>
      <trkpt lat="47.62454" lon="6.19834">
        <ele>327.8</ele>
        <time>2019-06-26T07:27:09Z</time>
      </trkpt>
      <trkpt lat="47.62451" lon="6.19826">
        <ele>327.7</ele>
        <time>2019-06-26T07:27:11Z</time>
      </trkpt>
      <trkpt lat="47.62448" lon="6.19819">
        <ele>327.64</ele>
        <time>2019-06-26T07:27:12Z</time>
      </trkpt>
      <trkpt lat="47.62445" lon="6.19811">
        <ele>327.51</ele>
        <time>2019-06-26T07:27:14Z</time>
      </trkpt>
      <trkpt lat="47.62441" lon="6.19803">
        <ele>327.37</ele>
        <time>2019-06-26T07:27:16Z</time>
      </trkpt>
      <trkpt lat="47.62437" lon="6.19795">
        <ele>327.21</ele>
        <time>2019-06-26T07:27:18Z</time>
      </trkpt>
      <trkpt lat="47.62433" lon="6.19787">
        <ele>327.03</ele>
        <time>2019-06-26T07:27:20Z</time>
      </trkpt>
      <trkpt lat="47.62426" lon="6.19774">
        <ele>326.85</ele>
        <time>2019-06-26T07:27:22Z</time>
      </trkpt>
      <trkpt lat="47.62421" lon="6.19765">
        <ele>325.29</ele>
        <time>2019-06-26T07:27:24Z</time>
      </trkpt>
      <trkpt lat="47.62416" lon="6.19757">
        <ele>323.85</ele>
        <time>2019-06-26T07:27:26Z</time>
      </trkpt>
      <trkpt lat="47.62411" lon="6.19746">
        <ele>322.64</ele>
        <time>2019-06-26T07:27:28Z</time>
      </trkpt>
      <trkpt lat="47.62406" lon="6.19735">
        <ele>321.66</ele>
        <time>2019-06-26T07:27:30Z</time>
      </trkpt>
      <trkpt lat="47.62401" lon="6.19725">
        <ele>320.92</ele>
        <time>2019-06-26T07:27:32Z</time>
      </trkpt>
      <trkpt lat="47.62398" lon="6.19716">
        <ele>320.53</ele>
        <time>2019-06-26T07:27:34Z</time>
      </trkpt>
      <trkpt lat="47.62395" lon="6.19707">
        <ele>320.47</ele>
        <time>2019-06-26T07:27:36Z</time>
      </trkpt>
      <trkpt lat="47.62392" lon="6.19699">
        <ele>320.43</ele>
        <time>2019-06-26T07:27:38Z</time>
      </trkpt>
      <trkpt lat="47.6239" lon="6.19691">
        <ele>320.4</ele>
        <time>2019-06-26T07:27:40Z</time>
      </trkpt>
      <trkpt lat="47.62387" lon="6.19682">
        <ele>320.37</ele>
        <time>2019-06-26T07:27:42Z</time>
      </trkpt>
      <trkpt lat="47.62385" lon="6.19673">
        <ele>320.34</ele>
        <time>2019-06-26T07:27:44Z</time>
      </trkpt>
      <trkpt lat="47.62383" lon="6.19666">
        <ele>320.32</ele>
        <time>2019-06-26T07:27:46Z</time>
      </trkpt>
      <trkpt lat="47.62382" lon="6.19658">
        <ele>320.29</ele>
        <time>2019-06-26T07:27:48Z</time>
      </trkpt>
      <trkpt lat="47.6238" lon="6.19649">
        <ele>320.27</ele>
        <time>2019-06-26T07:27:50Z</time>
      </trkpt>
      <trkpt lat="47.62379" lon="6.19639">
        <ele>320.25</ele>
        <time>2019-06-26T07:27:52Z</time>
      </trkpt>
      <trkpt lat="47.62377" lon="6.1963">
        <ele>320.23</ele>
        <time>2019-06-26T07:27:54Z</time>
      </trkpt>
      <trkpt lat="47.62377" lon="6.19622">
        <ele>320.2</ele>
        <time>2019-06-26T07:27:56Z</time>
      </trkpt>
      <trkpt lat="47.62376" lon="6.19612">
        <ele>320.18</ele>
        <time>2019-06-26T07:27:58Z</time>
      </trkpt>
      <trkpt lat="47.62374" lon="6.19601">
        <ele>320.16</ele>
        <time>2019-06-26T07:28:00Z</time>
      </trkpt>
      <trkpt lat="47.62373" lon="6.19593">
        <ele>320.14</ele>
        <time>2019-06-26T07:28:02Z</time>
      </trkpt>
      <trkpt lat="47.62371" lon="6.19583">
        <ele>320.13</ele>
        <time>2019-06-26T07:28:04Z</time>
      </trkpt>
      <trkpt lat="47.62369" lon="6.19576">
        <ele>320.11</ele>
        <time>2019-06-26T07:28:06Z</time>
      </trkpt>
      <trkpt lat="47.62367" lon="6.19567">
        <ele>320.09</ele>
        <time>2019-06-26T07:28:08Z</time>
      </trkpt>
      <trkpt lat="47.62365" lon="6.19556">
        <ele>320.03</ele>
        <time>2019-06-26T07:28:10Z</time>
      </trkpt>
      <trkpt lat="47.62363" lon="6.19545">
        <ele>319.91</ele>
        <time>2019-06-26T07:28:12Z</time>
      </trkpt>
      <trkpt lat="47.62362" lon="6.19533">
        <ele>319.82</ele>
        <time>2019-06-26T07:28:14Z</time>
      </trkpt>
      <trkpt lat="47.62361" lon="6.19521">
        <ele>319.78</ele>
        <time>2019-06-26T07:28:15Z</time>
      </trkpt>
      <trkpt lat="47.6236" lon="6.19509">
        <ele>319.73</ele>
        <time>2019-06-26T07:28:17Z</time>
      </trkpt>
      <trkpt lat="47.62359" lon="6.19502">
        <ele>319.71</ele>
        <time>2019-06-26T07:28:18Z</time>
      </trkpt>
      <trkpt lat="47.62358" lon="6.19489">
        <ele>319.67</ele>
        <time>2019-06-26T07:28:20Z</time>
      </trkpt>
      <trkpt lat="47.62357" lon="6.19482">
        <ele>319.66</ele>
        <time>2019-06-26T07:28:21Z</time>
      </trkpt>
      <trkpt lat="47.62356" lon="6.19476">
        <ele>319.65</ele>
        <time>2019-06-26T07:28:22Z</time>
      </trkpt>
      <trkpt lat="47.62355" lon="6.19469">
        <ele>319.64</ele>
        <time>2019-06-26T07:28:23Z</time>
      </trkpt>
      <trkpt lat="47.62355" lon="6.19462">
        <ele>319.62</ele>
        <time>2019-06-26T07:28:24Z</time>
      </trkpt>
      <trkpt lat="47.62354" lon="6.19455">
        <ele>319.62</ele>
        <time>2019-06-26T07:28:25Z</time>
      </trkpt>
      <trkpt lat="47.62353" lon="6.19442">
        <ele>319.6</ele>
        <time>2019-06-26T07:28:27Z</time>
      </trkpt>
      <trkpt lat="47.62351" lon="6.19429">
        <ele>319.59</ele>
        <time>2019-06-26T07:28:29Z</time>
      </trkpt>
      <trkpt lat="47.6235" lon="6.19415">
        <ele>319.58</ele>
        <time>2019-06-26T07:28:31Z</time>
      </trkpt>
      <trkpt lat="47.62349" lon="6.19402">
        <ele>319.56</ele>
        <time>2019-06-26T07:28:33Z</time>
      </trkpt>
      <trkpt lat="47.62349" lon="6.19395">
        <ele>319.55</ele>
        <time>2019-06-26T07:28:34Z</time>
      </trkpt>
      <trkpt lat="47.62348" lon="6.19388">
        <ele>319.54</ele>
        <time>2019-06-26T07:28:35Z</time>
      </trkpt>
      <trkpt lat="47.62348" lon="6.19381">
        <ele>319.52</ele>
        <time>2019-06-26T07:28:36Z</time>
      </trkpt>
      <trkpt lat="47.62347" lon="6.19374">
        <ele>319.51</ele>
        <time>2019-06-26T07:28:37Z</time>
      </trkpt>
      <trkpt lat="47.62347" lon="6.19366">
        <ele>319.49</ele>
        <time>2019-06-26T07:28:38Z</time>
      </trkpt>
      <trkpt lat="47.62347" lon="6.19359">
        <ele>319.47</ele>
        <time>2019-06-26T07:28:39Z</time>
      </trkpt>
      <trkpt lat="47.62346" lon="6.19352">
        <ele>319.45</ele>
        <time>2019-06-26T07:28:40Z</time>
      </trkpt>
      <trkpt lat="47.62346" lon="6.19344">
        <ele>319.44</ele>
        <time>2019-06-26T07:28:41Z</time>
      </trkpt>
      <trkpt lat="47.62346" lon="6.19337">
        <ele>319.42</ele>
        <time>2019-06-26T07:28:42Z</time>
      </trkpt>
      <trkpt lat="47.62346" lon="6.1933">
        <ele>319.4</ele>
        <time>2019-06-26T07:28:43Z</time>
      </trkpt>
      <trkpt lat="47.62346" lon="6.19323">
        <ele>319.38</ele>
        <time>2019-06-26T07:28:44Z</time>
      </trkpt>
      <trkpt lat="47.62346" lon="6.19315">
        <ele>319.37</ele>
        <time>2019-06-26T07:28:45Z</time>
      </trkpt>
      <trkpt lat="47.62345" lon="6.19308">
        <ele>319.35</ele>
        <time>2019-06-26T07:28:46Z</time>
      </trkpt>
      <trkpt lat="47.62345" lon="6.19301">
        <ele>319.34</ele>
        <time>2019-06-26T07:28:47Z</time>
      </trkpt>
      <trkpt lat="47.62345" lon="6.19294">
        <ele>319.33</ele>
        <time>2019-06-26T07:28:48Z</time>
      </trkpt>
      <trkpt lat="47.62346" lon="6.19287">
        <ele>319.31</ele>
        <time>2019-06-26T07:28:49Z</time>
      </trkpt>
      <trkpt lat="47.62346" lon="6.1928">
        <ele>319.3</ele>
        <time>2019-06-26T07:28:50Z</time>
      </trkpt>
      <trkpt lat="47.62346" lon="6.19273">
        <ele>319.29</ele>
        <time>2019-06-26T07:28:51Z</time>
      </trkpt>
      <trkpt lat="47.62346" lon="6.19265">
        <ele>319.27</ele>
        <time>2019-06-26T07:28:52Z</time>
      </trkpt>
      <trkpt lat="47.62346" lon="6.19258">
        <ele>319.26</ele>
        <time>2019-06-26T07:28:53Z</time>
      </trkpt>
      <trkpt lat="47.62347" lon="6.19251">
        <ele>319.24</ele>
        <time>2019-06-26T07:28:54Z</time>
      </trkpt>
      <trkpt lat="47.62347" lon="6.19244">
        <ele>319.22</ele>
        <time>2019-06-26T07:28:55Z</time>
      </trkpt>
      <trkpt lat="47.62348" lon="6.19237">
        <ele>319.2</ele>
        <time>2019-06-26T07:28:56Z</time>
      </trkpt>
      <trkpt lat="47.62349" lon="6.1923">
        <ele>319.18</ele>
        <time>2019-06-26T07:28:57Z</time>
      </trkpt>
      <trkpt lat="47.62349" lon="6.19223">
        <ele>319.16</ele>
        <time>2019-06-26T07:28:58Z</time>
      </trkpt>
      <trkpt lat="47.6235" lon="6.19216">
        <ele>319.14</ele>
        <time>2019-06-26T07:28:59Z</time>
      </trkpt>
      <trkpt lat="47.6235" lon="6.19209">
        <ele>319.12</ele>
        <time>2019-06-26T07:29:00Z</time>
      </trkpt>
      <trkpt lat="47.62351" lon="6.19202">
        <ele>319.1</ele>
        <time>2019-06-26T07:29:01Z</time>
      </trkpt>
      <trkpt lat="47.62352" lon="6.19195">
        <ele>319.09</ele>
        <time>2019-06-26T07:29:02Z</time>
      </trkpt>
      <trkpt lat="47.62353" lon="6.19187">
        <ele>319.08</ele>
        <time>2019-06-26T07:29:03Z</time>
      </trkpt>
      <trkpt lat="47.62354" lon="6.19179">
        <ele>319.07</ele>
        <time>2019-06-26T07:29:04Z</time>
      </trkpt>
      <trkpt lat="47.62355" lon="6.19171">
        <ele>319.06</ele>
        <time>2019-06-26T07:29:05Z</time>
      </trkpt>
      <trkpt lat="47.62356" lon="6.19163">
        <ele>319.05</ele>
        <time>2019-06-26T07:29:06Z</time>
      </trkpt>
      <trkpt lat="47.62358" lon="6.19155">
        <ele>319.04</ele>
        <time>2019-06-26T07:29:07Z</time>
      </trkpt>
      <trkpt lat="47.6236" lon="6.19147">
        <ele>319.03</ele>
        <time>2019-06-26T07:29:08Z</time>
      </trkpt>
      <trkpt lat="47.62361" lon="6.19138">
        <ele>319.02</ele>
        <time>2019-06-26T07:29:09Z</time>
      </trkpt>
      <trkpt lat="47.62363" lon="6.1913">
        <ele>319.02</ele>
        <time>2019-06-26T07:29:10Z</time>
      </trkpt>
      <trkpt lat="47.62365" lon="6.19122">
        <ele>319.02</ele>
        <time>2019-06-26T07:29:11Z</time>
      </trkpt>
      <trkpt lat="47.62367" lon="6.19114">
        <ele>319.02</ele>
        <time>2019-06-26T07:29:12Z</time>
      </trkpt>
      <trkpt lat="47.62368" lon="6.19106">
        <ele>319.02</ele>
        <time>2019-06-26T07:29:13Z</time>
      </trkpt>
      <trkpt lat="47.62369" lon="6.19097">
        <ele>319</ele>
        <time>2019-06-26T07:29:14Z</time>
      </trkpt>
      <trkpt lat="47.6237" lon="6.19089">
        <ele>318.97</ele>
        <time>2019-06-26T07:29:15Z</time>
      </trkpt>
      <trkpt lat="47.62372" lon="6.1908">
        <ele>318.93</ele>
        <time>2019-06-26T07:29:16Z</time>
      </trkpt>
      <trkpt lat="47.62374" lon="6.19071">
        <ele>318.89</ele>
        <time>2019-06-26T07:29:17Z</time>
      </trkpt>
      <trkpt lat="47.62376" lon="6.19063">
        <ele>318.85</ele>
        <time>2019-06-26T07:29:18Z</time>
      </trkpt>
      <trkpt lat="47.62377" lon="6.19055">
        <ele>318.8</ele>
        <time>2019-06-26T07:29:19Z</time>
      </trkpt>
      <trkpt lat="47.62379" lon="6.19047">
        <ele>318.75</ele>
        <time>2019-06-26T07:29:20Z</time>
      </trkpt>
      <trkpt lat="47.62381" lon="6.19039">
        <ele>318.7</ele>
        <time>2019-06-26T07:29:21Z</time>
      </trkpt>
      <trkpt lat="47.62383" lon="6.19032">
        <ele>318.64</ele>
        <time>2019-06-26T07:29:22Z</time>
      </trkpt>
      <trkpt lat="47.62386" lon="6.19025">
        <ele>318.58</ele>
        <time>2019-06-26T07:29:23Z</time>
      </trkpt>
      <trkpt lat="47.6239" lon="6.19019">
        <ele>318.52</ele>
        <time>2019-06-26T07:29:24Z</time>
      </trkpt>
      <trkpt lat="47.62394" lon="6.19013">
        <ele>318.46</ele>
        <time>2019-06-26T07:29:25Z</time>
      </trkpt>
      <trkpt lat="47.62398" lon="6.19008">
        <ele>318.4</ele>
        <time>2019-06-26T07:29:26Z</time>
      </trkpt>
      <trkpt lat="47.62402" lon="6.19003">
        <ele>318.34</ele>
        <time>2019-06-26T07:29:27Z</time>
      </trkpt>
      <trkpt lat="47.62406" lon="6.18997">
        <ele>318.29</ele>
        <time>2019-06-26T07:29:28Z</time>
      </trkpt>
      <trkpt lat="47.6241" lon="6.18993">
        <ele>318.24</ele>
        <time>2019-06-26T07:29:29Z</time>
      </trkpt>
      <trkpt lat="47.62414" lon="6.18988">
        <ele>318.19</ele>
        <time>2019-06-26T07:29:30Z</time>
      </trkpt>
      <trkpt lat="47.62417" lon="6.18983">
        <ele>318.15</ele>
        <time>2019-06-26T07:29:31Z</time>
      </trkpt>
      <trkpt lat="47.62424" lon="6.18976">
        <ele>318.12</ele>
        <time>2019-06-26T07:29:33Z</time>
      </trkpt>
      <trkpt lat="47.62428" lon="6.18972">
        <ele>318.11</ele>
        <time>2019-06-26T07:29:35Z</time>
      </trkpt>
      <trkpt lat="47.62431" lon="6.18963">
        <ele>318.09</ele>
        <time>2019-06-26T07:29:38Z</time>
      </trkpt>
      <trkpt lat="47.62425" lon="6.18954">
        <ele>318.01</ele>
        <time>2019-06-26T07:29:41Z</time>
      </trkpt>
      <trkpt lat="47.62418" lon="6.18944">
        <ele>317.92</ele>
        <time>2019-06-26T07:29:43Z</time>
      </trkpt>
      <trkpt lat="47.62414" lon="6.1894">
        <ele>317.76</ele>
        <time>2019-06-26T07:29:44Z</time>
      </trkpt>
      <trkpt lat="47.6241" lon="6.18935">
        <ele>317.7</ele>
        <time>2019-06-26T07:29:45Z</time>
      </trkpt>
      <trkpt lat="47.62404" lon="6.18928">
        <ele>317.39</ele>
        <time>2019-06-26T07:29:47Z</time>
      </trkpt>
      <trkpt lat="47.624" lon="6.18924">
        <ele>317.2</ele>
        <time>2019-06-26T07:29:48Z</time>
      </trkpt>
      <trkpt lat="47.62396" lon="6.1892">
        <ele>317.05</ele>
        <time>2019-06-26T07:29:49Z</time>
      </trkpt>
      <trkpt lat="47.62389" lon="6.18913">
        <ele>316.86</ele>
        <time>2019-06-26T07:29:51Z</time>
      </trkpt>
      <trkpt lat="47.62383" lon="6.18905">
        <ele>316.62</ele>
        <time>2019-06-26T07:29:53Z</time>
      </trkpt>
      <trkpt lat="47.62382" lon="6.18898">
        <ele>316.53</ele>
        <time>2019-06-26T07:29:54Z</time>
      </trkpt>
      <trkpt lat="47.6238" lon="6.18883">
        <ele>315.11</ele>
        <time>2019-06-26T07:29:55Z</time>
      </trkpt>
      <trkpt lat="47.62376" lon="6.18876">
        <ele>313.28</ele>
        <time>2019-06-26T07:29:57Z</time>
      </trkpt>
      <trkpt lat="47.62373" lon="6.18869">
        <ele>312.95</ele>
        <time>2019-06-26T07:29:59Z</time>
      </trkpt>
      <trkpt lat="47.6237" lon="6.18861">
        <ele>312.23</ele>
        <time>2019-06-26T07:30:01Z</time>
      </trkpt>
      <trkpt lat="47.62366" lon="6.18852">
        <ele>310.93</ele>
        <time>2019-06-26T07:30:03Z</time>
      </trkpt>
      <trkpt lat="47.62362" lon="6.18843">
        <ele>309.98</ele>
        <time>2019-06-26T07:30:05Z</time>
      </trkpt>
      <trkpt lat="47.62359" lon="6.18832">
        <ele>309.37</ele>
        <time>2019-06-26T07:30:07Z</time>
      </trkpt>
      <trkpt lat="47.62355" lon="6.18821">
        <ele>308.98</ele>
        <time>2019-06-26T07:30:09Z</time>
      </trkpt>
      <trkpt lat="47.62352" lon="6.18811">
        <ele>308.69</ele>
        <time>2019-06-26T07:30:11Z</time>
      </trkpt>
      <trkpt lat="47.62349" lon="6.18804">
        <ele>308.58</ele>
        <time>2019-06-26T07:30:12Z</time>
      </trkpt>
      <trkpt lat="47.62346" lon="6.18797">
        <ele>308.47</ele>
        <time>2019-06-26T07:30:13Z</time>
      </trkpt>
      <trkpt lat="47.62343" lon="6.18792">
        <ele>308.36</ele>
        <time>2019-06-26T07:30:14Z</time>
      </trkpt>
      <trkpt lat="47.6234" lon="6.18786">
        <ele>308.24</ele>
        <time>2019-06-26T07:30:15Z</time>
      </trkpt>
      <trkpt lat="47.62335" lon="6.18777">
        <ele>308.05</ele>
        <time>2019-06-26T07:30:17Z</time>
      </trkpt>
      <trkpt lat="47.62331" lon="6.18768">
        <ele>308</ele>
        <time>2019-06-26T07:30:19Z</time>
      </trkpt>
      <trkpt lat="47.62329" lon="6.18761">
        <ele>307.96</ele>
        <time>2019-06-26T07:30:21Z</time>
      </trkpt>
      <trkpt lat="47.62324" lon="6.18756">
        <ele>307.72</ele>
        <time>2019-06-26T07:30:23Z</time>
      </trkpt>
      <trkpt lat="47.62321" lon="6.18751">
        <ele>307.35</ele>
        <time>2019-06-26T07:30:25Z</time>
      </trkpt>
      <trkpt lat="47.62317" lon="6.18744">
        <ele>306.99</ele>
        <time>2019-06-26T07:30:27Z</time>
      </trkpt>
      <trkpt lat="47.62311" lon="6.18738">
        <ele>306.63</ele>
        <time>2019-06-26T07:30:29Z</time>
      </trkpt>
      <trkpt lat="47.62306" lon="6.18735">
        <ele>306.28</ele>
        <time>2019-06-26T07:30:31Z</time>
      </trkpt>
      <trkpt lat="47.62302" lon="6.18731">
        <ele>305.95</ele>
        <time>2019-06-26T07:30:33Z</time>
      </trkpt>
      <trkpt lat="47.62299" lon="6.18722">
        <ele>304.6</ele>
        <time>2019-06-26T07:30:35Z</time>
      </trkpt>
      <trkpt lat="47.62295" lon="6.18713">
        <ele>302.21</ele>
        <time>2019-06-26T07:30:37Z</time>
      </trkpt>
      <trkpt lat="47.62292" lon="6.18703">
        <ele>300.54</ele>
        <time>2019-06-26T07:30:39Z</time>
      </trkpt>
      <trkpt lat="47.62286" lon="6.18686">
        <ele>299.42</ele>
        <time>2019-06-26T07:30:41Z</time>
      </trkpt>
      <trkpt lat="47.62284" lon="6.1868">
        <ele>299.01</ele>
        <time>2019-06-26T07:30:42Z</time>
      </trkpt>
      <trkpt lat="47.62282" lon="6.18673">
        <ele>298.68</ele>
        <time>2019-06-26T07:30:43Z</time>
      </trkpt>
      <trkpt lat="47.6228" lon="6.18667">
        <ele>297.92</ele>
        <time>2019-06-26T07:30:44Z</time>
      </trkpt>
      <trkpt lat="47.62277" lon="6.18661">
        <ele>297.13</ele>
        <time>2019-06-26T07:30:45Z</time>
      </trkpt>
      <trkpt lat="47.62272" lon="6.18655">
        <ele>295.36</ele>
        <time>2019-06-26T07:30:46Z</time>
      </trkpt>
      <trkpt lat="47.62267" lon="6.1865">
        <ele>292.88</ele>
        <time>2019-06-26T07:30:47Z</time>
      </trkpt>
      <trkpt lat="47.62262" lon="6.18647">
        <ele>290</ele>
        <time>2019-06-26T07:30:48Z</time>
      </trkpt>
      <trkpt lat="47.62257" lon="6.18642">
        <ele>287.42</ele>
        <time>2019-06-26T07:30:49Z</time>
      </trkpt>
      <trkpt lat="47.62252" lon="6.18638">
        <ele>284.93</ele>
        <time>2019-06-26T07:30:50Z</time>
      </trkpt>
      <trkpt lat="47.62248" lon="6.18635">
        <ele>282.77</ele>
        <time>2019-06-26T07:30:51Z</time>
      </trkpt>
      <trkpt lat="47.62244" lon="6.18631">
        <ele>280.98</ele>
        <time>2019-06-26T07:30:52Z</time>
      </trkpt>
      <trkpt lat="47.62239" lon="6.18627">
        <ele>279.51</ele>
        <time>2019-06-26T07:30:53Z</time>
      </trkpt>
      <trkpt lat="47.62235" lon="6.18622">
        <ele>278.3</ele>
        <time>2019-06-26T07:30:54Z</time>
      </trkpt>
      <trkpt lat="47.6223" lon="6.18618">
        <ele>276.96</ele>
        <time>2019-06-26T07:30:55Z</time>
      </trkpt>
      <trkpt lat="47.62225" lon="6.18613">
        <ele>275.23</ele>
        <time>2019-06-26T07:30:56Z</time>
      </trkpt>
      <trkpt lat="47.62221" lon="6.18608">
        <ele>273.31</ele>
        <time>2019-06-26T07:30:57Z</time>
      </trkpt>
      <trkpt lat="47.62216" lon="6.18603">
        <ele>271.35</ele>
        <time>2019-06-26T07:30:58Z</time>
      </trkpt>
      <trkpt lat="47.62211" lon="6.18599">
        <ele>269.49</ele>
        <time>2019-06-26T07:30:59Z</time>
      </trkpt>
      <trkpt lat="47.62206" lon="6.18596">
        <ele>267.76</ele>
        <time>2019-06-26T07:31:00Z</time>
      </trkpt>
      <trkpt lat="47.62203" lon="6.18593">
        <ele>266.2</ele>
        <time>2019-06-26T07:31:01Z</time>
      </trkpt>
      <trkpt lat="47.62198" lon="6.18589">
        <ele>264.7</ele>
        <time>2019-06-26T07:31:02Z</time>
      </trkpt>
      <trkpt lat="47.62193" lon="6.18584">
        <ele>263.22</ele>
        <time>2019-06-26T07:31:03Z</time>
      </trkpt>
      <trkpt lat="47.62188" lon="6.18581">
        <ele>261.87</ele>
        <time>2019-06-26T07:31:04Z</time>
      </trkpt>
      <trkpt lat="47.62183" lon="6.18577">
        <ele>260.63</ele>
        <time>2019-06-26T07:31:05Z</time>
      </trkpt>
      <trkpt lat="47.62179" lon="6.18574">
        <ele>259.48</ele>
        <time>2019-06-26T07:31:06Z</time>
      </trkpt>
      <trkpt lat="47.62175" lon="6.1857">
        <ele>258.35</ele>
        <time>2019-06-26T07:31:07Z</time>
      </trkpt>
      <trkpt lat="47.62171" lon="6.18566">
        <ele>257.29</ele>
        <time>2019-06-26T07:31:08Z</time>
      </trkpt>
      <trkpt lat="47.62167" lon="6.18562">
        <ele>256.26</ele>
        <time>2019-06-26T07:31:09Z</time>
      </trkpt>
      <trkpt lat="47.62164" lon="6.18559">
        <ele>255.3</ele>
        <time>2019-06-26T07:31:10Z</time>
      </trkpt>
      <trkpt lat="47.62157" lon="6.18551">
        <ele>253.62</ele>
        <time>2019-06-26T07:31:12Z</time>
      </trkpt>
      <trkpt lat="47.6215" lon="6.18542">
        <ele>252.26</ele>
        <time>2019-06-26T07:31:14Z</time>
      </trkpt>
      <trkpt lat="47.62146" lon="6.18538">
        <ele>251.72</ele>
        <time>2019-06-26T07:31:15Z</time>
      </trkpt>
      <trkpt lat="47.62143" lon="6.18532">
        <ele>251.25</ele>
        <time>2019-06-26T07:31:16Z</time>
      </trkpt>
      <trkpt lat="47.6214" lon="6.18526">
        <ele>250.83</ele>
        <time>2019-06-26T07:31:17Z</time>
      </trkpt>
      <trkpt lat="47.62137" lon="6.1852">
        <ele>250.44</ele>
        <time>2019-06-26T07:31:18Z</time>
      </trkpt>
      <trkpt lat="47.62135" lon="6.18511">
        <ele>250.04</ele>
        <time>2019-06-26T07:31:19Z</time>
      </trkpt>
      <trkpt lat="47.62134" lon="6.18502">
        <ele>249.62</ele>
        <time>2019-06-26T07:31:20Z</time>
      </trkpt>
      <trkpt lat="47.62133" lon="6.18492">
        <ele>249.15</ele>
        <time>2019-06-26T07:31:21Z</time>
      </trkpt>
      <trkpt lat="47.62133" lon="6.18482">
        <ele>248.67</ele>
        <time>2019-06-26T07:31:22Z</time>
      </trkpt>
      <trkpt lat="47.62133" lon="6.18472">
        <ele>248.22</ele>
        <time>2019-06-26T07:31:23Z</time>
      </trkpt>
      <trkpt lat="47.62134" lon="6.18463">
        <ele>247.78</ele>
        <time>2019-06-26T07:31:24Z</time>
      </trkpt>
      <trkpt lat="47.62136" lon="6.18455">
        <ele>247.35</ele>
        <time>2019-06-26T07:31:25Z</time>
      </trkpt>
      <trkpt lat="47.62138" lon="6.18448">
        <ele>246.95</ele>
        <time>2019-06-26T07:31:26Z</time>
      </trkpt>
      <trkpt lat="47.6214" lon="6.18442">
        <ele>246.58</ele>
        <time>2019-06-26T07:31:27Z</time>
      </trkpt>
      <trkpt lat="47.62143" lon="6.18432">
        <ele>246.38</ele>
        <time>2019-06-26T07:31:29Z</time>
      </trkpt>
      <trkpt lat="47.62143" lon="6.18422">
        <ele>246.29</ele>
        <time>2019-06-26T07:31:31Z</time>
      </trkpt>
      <trkpt lat="47.62139" lon="6.18416">
        <ele>245.8</ele>
        <time>2019-06-26T07:31:33Z</time>
      </trkpt>
      <trkpt lat="47.62133" lon="6.18414">
        <ele>245.66</ele>
        <time>2019-06-26T07:31:35Z</time>
      </trkpt>
      <trkpt lat="47.62126" lon="6.18414">
        <ele>244.77</ele>
        <time>2019-06-26T07:31:37Z</time>
      </trkpt>
      <trkpt lat="47.62118" lon="6.18414">
        <ele>243.93</ele>
        <time>2019-06-26T07:31:39Z</time>
      </trkpt>
      <trkpt lat="47.62111" lon="6.18414">
        <ele>243.2</ele>
        <time>2019-06-26T07:31:41Z</time>
      </trkpt>
      <trkpt lat="47.62104" lon="6.18411">
        <ele>242.61</ele>
        <time>2019-06-26T07:31:43Z</time>
      </trkpt>
      <trkpt lat="47.621" lon="6.18406">
        <ele>242.35</ele>
        <time>2019-06-26T07:31:44Z</time>
      </trkpt>
      <trkpt lat="47.62097" lon="6.184">
        <ele>242.11</ele>
        <time>2019-06-26T07:31:45Z</time>
      </trkpt>
      <trkpt lat="47.62095" lon="6.18393">
        <ele>241.87</ele>
        <time>2019-06-26T07:31:46Z</time>
      </trkpt>
      <trkpt lat="47.62093" lon="6.18385">
        <ele>241.63</ele>
        <time>2019-06-26T07:31:47Z</time>
      </trkpt>
      <trkpt lat="47.62091" lon="6.18376">
        <ele>241.38</ele>
        <time>2019-06-26T07:31:48Z</time>
      </trkpt>
      <trkpt lat="47.6209" lon="6.18367">
        <ele>241.15</ele>
        <time>2019-06-26T07:31:49Z</time>
      </trkpt>
      <trkpt lat="47.62089" lon="6.18359">
        <ele>240.94</ele>
        <time>2019-06-26T07:31:50Z</time>
      </trkpt>
      <trkpt lat="47.62088" lon="6.1835">
        <ele>240.73</ele>
        <time>2019-06-26T07:31:51Z</time>
      </trkpt>
      <trkpt lat="47.62086" lon="6.18342">
        <ele>240.53</ele>
        <time>2019-06-26T07:31:52Z</time>
      </trkpt>
      <trkpt lat="47.62085" lon="6.18334">
        <ele>240.31</ele>
        <time>2019-06-26T07:31:53Z</time>
      </trkpt>
      <trkpt lat="47.62083" lon="6.18327">
        <ele>240.09</ele>
        <time>2019-06-26T07:31:54Z</time>
      </trkpt>
      <trkpt lat="47.62082" lon="6.18318">
        <ele>239.87</ele>
        <time>2019-06-26T07:31:55Z</time>
      </trkpt>
      <trkpt lat="47.6208" lon="6.1831">
        <ele>239.67</ele>
        <time>2019-06-26T07:31:56Z</time>
      </trkpt>
      <trkpt lat="47.62079" lon="6.18302">
        <ele>239.5</ele>
        <time>2019-06-26T07:31:57Z</time>
      </trkpt>
      <trkpt lat="47.62078" lon="6.18294">
        <ele>239.36</ele>
        <time>2019-06-26T07:31:58Z</time>
      </trkpt>
      <trkpt lat="47.62076" lon="6.18286">
        <ele>239.24</ele>
        <time>2019-06-26T07:31:59Z</time>
      </trkpt>
      <trkpt lat="47.62075" lon="6.1828">
        <ele>239.12</ele>
        <time>2019-06-26T07:32:00Z</time>
      </trkpt>
      <trkpt lat="47.62074" lon="6.18273">
        <ele>238.99</ele>
        <time>2019-06-26T07:32:01Z</time>
      </trkpt>
      <trkpt lat="47.62073" lon="6.18266">
        <ele>238.87</ele>
        <time>2019-06-26T07:32:02Z</time>
      </trkpt>
      <trkpt lat="47.62072" lon="6.18259">
        <ele>238.75</ele>
        <time>2019-06-26T07:32:03Z</time>
      </trkpt>
      <trkpt lat="47.62071" lon="6.18252">
        <ele>238.64</ele>
        <time>2019-06-26T07:32:04Z</time>
      </trkpt>
      <trkpt lat="47.62069" lon="6.18246">
        <ele>238.52</ele>
        <time>2019-06-26T07:32:05Z</time>
      </trkpt>
      <trkpt lat="47.62067" lon="6.18233">
        <ele>238.27</ele>
        <time>2019-06-26T07:32:07Z</time>
      </trkpt>
      <trkpt lat="47.62065" lon="6.18226">
        <ele>238.15</ele>
        <time>2019-06-26T07:32:08Z</time>
      </trkpt>
      <trkpt lat="47.62064" lon="6.18219">
        <ele>238.03</ele>
        <time>2019-06-26T07:32:09Z</time>
      </trkpt>
      <trkpt lat="47.62063" lon="6.18212">
        <ele>237.91</ele>
        <time>2019-06-26T07:32:10Z</time>
      </trkpt>
      <trkpt lat="47.62061" lon="6.18205">
        <ele>237.81</ele>
        <time>2019-06-26T07:32:11Z</time>
      </trkpt>
      <trkpt lat="47.6206" lon="6.18197">
        <ele>237.72</ele>
        <time>2019-06-26T07:32:12Z</time>
      </trkpt>
      <trkpt lat="47.62059" lon="6.1819">
        <ele>237.64</ele>
        <time>2019-06-26T07:32:13Z</time>
      </trkpt>
      <trkpt lat="47.62057" lon="6.18183">
        <ele>237.56</ele>
        <time>2019-06-26T07:32:14Z</time>
      </trkpt>
      <trkpt lat="47.62056" lon="6.18176">
        <ele>237.49</ele>
        <time>2019-06-26T07:32:15Z</time>
      </trkpt>
      <trkpt lat="47.62055" lon="6.18169">
        <ele>237.42</ele>
        <time>2019-06-26T07:32:16Z</time>
      </trkpt>
      <trkpt lat="47.62054" lon="6.18162">
        <ele>237.35</ele>
        <time>2019-06-26T07:32:17Z</time>
      </trkpt>
      <trkpt lat="47.62053" lon="6.18155">
        <ele>237.28</ele>
        <time>2019-06-26T07:32:18Z</time>
      </trkpt>
      <trkpt lat="47.62051" lon="6.18148">
        <ele>237.22</ele>
        <time>2019-06-26T07:32:19Z</time>
      </trkpt>
      <trkpt lat="47.62049" lon="6.1814">
        <ele>237.14</ele>
        <time>2019-06-26T07:32:20Z</time>
      </trkpt>
      <trkpt lat="47.62047" lon="6.18133">
        <ele>237.04</ele>
        <time>2019-06-26T07:32:21Z</time>
      </trkpt>
      <trkpt lat="47.62046" lon="6.18125">
        <ele>236.93</ele>
        <time>2019-06-26T07:32:22Z</time>
      </trkpt>
      <trkpt lat="47.62044" lon="6.18119">
        <ele>236.82</ele>
        <time>2019-06-26T07:32:23Z</time>
      </trkpt>
      <trkpt lat="47.62043" lon="6.18107">
        <ele>236.61</ele>
        <time>2019-06-26T07:32:25Z</time>
      </trkpt>
      <trkpt lat="47.62043" lon="6.18093">
        <ele>236.37</ele>
        <time>2019-06-26T07:32:27Z</time>
      </trkpt>
      <trkpt lat="47.62043" lon="6.18086">
        <ele>236.26</ele>
        <time>2019-06-26T07:32:28Z</time>
      </trkpt>
      <trkpt lat="47.62044" lon="6.18079">
        <ele>236.15</ele>
        <time>2019-06-26T07:32:29Z</time>
      </trkpt>
      <trkpt lat="47.62044" lon="6.18072">
        <ele>236.05</ele>
        <time>2019-06-26T07:32:30Z</time>
      </trkpt>
      <trkpt lat="47.62046" lon="6.18065">
        <ele>235.97</ele>
        <time>2019-06-26T07:32:31Z</time>
      </trkpt>
      <trkpt lat="47.62046" lon="6.18058">
        <ele>235.89</ele>
        <time>2019-06-26T07:32:32Z</time>
      </trkpt>
      <trkpt lat="47.62047" lon="6.1805">
        <ele>235.82</ele>
        <time>2019-06-26T07:32:33Z</time>
      </trkpt>
      <trkpt lat="47.62048" lon="6.18044">
        <ele>235.75</ele>
        <time>2019-06-26T07:32:34Z</time>
      </trkpt>
      <trkpt lat="47.62048" lon="6.18037">
        <ele>235.68</ele>
        <time>2019-06-26T07:32:35Z</time>
      </trkpt>
      <trkpt lat="47.6205" lon="6.18025">
        <ele>235.52</ele>
        <time>2019-06-26T07:32:37Z</time>
      </trkpt>
      <trkpt lat="47.62052" lon="6.18012">
        <ele>235.35</ele>
        <time>2019-06-26T07:32:39Z</time>
      </trkpt>
      <trkpt lat="47.62054" lon="6.17998">
        <ele>235.19</ele>
        <time>2019-06-26T07:32:41Z</time>
      </trkpt>
      <trkpt lat="47.62055" lon="6.17991">
        <ele>235.13</ele>
        <time>2019-06-26T07:32:42Z</time>
      </trkpt>
      <trkpt lat="47.62056" lon="6.17984">
        <ele>235.08</ele>
        <time>2019-06-26T07:32:43Z</time>
      </trkpt>
      <trkpt lat="47.62057" lon="6.17977">
        <ele>235.03</ele>
        <time>2019-06-26T07:32:44Z</time>
      </trkpt>
      <trkpt lat="47.62058" lon="6.17969">
        <ele>234.99</ele>
        <time>2019-06-26T07:32:45Z</time>
      </trkpt>
      <trkpt lat="47.62059" lon="6.17962">
        <ele>234.95</ele>
        <time>2019-06-26T07:32:46Z</time>
      </trkpt>
      <trkpt lat="47.6206" lon="6.17956">
        <ele>234.9</ele>
        <time>2019-06-26T07:32:47Z</time>
      </trkpt>
      <trkpt lat="47.62061" lon="6.17949">
        <ele>234.85</ele>
        <time>2019-06-26T07:32:48Z</time>
      </trkpt>
      <trkpt lat="47.62061" lon="6.17942">
        <ele>234.79</ele>
        <time>2019-06-26T07:32:49Z</time>
      </trkpt>
      <trkpt lat="47.62062" lon="6.17935">
        <ele>234.73</ele>
        <time>2019-06-26T07:32:50Z</time>
      </trkpt>
      <trkpt lat="47.62063" lon="6.17928">
        <ele>234.66</ele>
        <time>2019-06-26T07:32:51Z</time>
      </trkpt>
      <trkpt lat="47.62063" lon="6.1792">
        <ele>234.6</ele>
        <time>2019-06-26T07:32:52Z</time>
      </trkpt>
      <trkpt lat="47.62064" lon="6.17913">
        <ele>234.53</ele>
        <time>2019-06-26T07:32:53Z</time>
      </trkpt>
      <trkpt lat="47.62065" lon="6.17905">
        <ele>234.47</ele>
        <time>2019-06-26T07:32:54Z</time>
      </trkpt>
      <trkpt lat="47.62066" lon="6.17898">
        <ele>234.41</ele>
        <time>2019-06-26T07:32:55Z</time>
      </trkpt>
      <trkpt lat="47.62067" lon="6.17891">
        <ele>234.36</ele>
        <time>2019-06-26T07:32:56Z</time>
      </trkpt>
      <trkpt lat="47.62068" lon="6.17883">
        <ele>234.3</ele>
        <time>2019-06-26T07:32:57Z</time>
      </trkpt>
      <trkpt lat="47.62069" lon="6.17876">
        <ele>234.25</ele>
        <time>2019-06-26T07:32:58Z</time>
      </trkpt>
      <trkpt lat="47.6207" lon="6.1787">
        <ele>234.21</ele>
        <time>2019-06-26T07:32:59Z</time>
      </trkpt>
      <trkpt lat="47.62071" lon="6.17863">
        <ele>234.16</ele>
        <time>2019-06-26T07:33:00Z</time>
      </trkpt>
      <trkpt lat="47.62072" lon="6.17856">
        <ele>234.12</ele>
        <time>2019-06-26T07:33:01Z</time>
      </trkpt>
      <trkpt lat="47.62074" lon="6.17849">
        <ele>234.09</ele>
        <time>2019-06-26T07:33:02Z</time>
      </trkpt>
      <trkpt lat="47.62075" lon="6.17842">
        <ele>234.05</ele>
        <time>2019-06-26T07:33:03Z</time>
      </trkpt>
      <trkpt lat="47.62076" lon="6.17835">
        <ele>234.01</ele>
        <time>2019-06-26T07:33:04Z</time>
      </trkpt>
      <trkpt lat="47.62076" lon="6.17828">
        <ele>233.97</ele>
        <time>2019-06-26T07:33:05Z</time>
      </trkpt>
      <trkpt lat="47.62077" lon="6.17821">
        <ele>233.93</ele>
        <time>2019-06-26T07:33:06Z</time>
      </trkpt>
      <trkpt lat="47.62078" lon="6.17813">
        <ele>233.89</ele>
        <time>2019-06-26T07:33:07Z</time>
      </trkpt>
      <trkpt lat="47.62078" lon="6.17806">
        <ele>233.85</ele>
        <time>2019-06-26T07:33:08Z</time>
      </trkpt>
      <trkpt lat="47.62079" lon="6.17799">
        <ele>233.8</ele>
        <time>2019-06-26T07:33:09Z</time>
      </trkpt>
      <trkpt lat="47.6208" lon="6.17792">
        <ele>233.75</ele>
        <time>2019-06-26T07:33:10Z</time>
      </trkpt>
      <trkpt lat="47.6208" lon="6.17786">
        <ele>233.71</ele>
        <time>2019-06-26T07:33:11Z</time>
      </trkpt>
      <trkpt lat="47.62081" lon="6.17779">
        <ele>233.67</ele>
        <time>2019-06-26T07:33:12Z</time>
      </trkpt>
      <trkpt lat="47.62081" lon="6.17772">
        <ele>233.62</ele>
        <time>2019-06-26T07:33:13Z</time>
      </trkpt>
      <trkpt lat="47.62082" lon="6.17765">
        <ele>233.58</ele>
        <time>2019-06-26T07:33:14Z</time>
      </trkpt>
      <trkpt lat="47.62083" lon="6.17758">
        <ele>233.53</ele>
        <time>2019-06-26T07:33:15Z</time>
      </trkpt>
      <trkpt lat="47.62083" lon="6.17751">
        <ele>233.48</ele>
        <time>2019-06-26T07:33:16Z</time>
      </trkpt>
      <trkpt lat="47.62084" lon="6.17744">
        <ele>233.43</ele>
        <time>2019-06-26T07:33:17Z</time>
      </trkpt>
      <trkpt lat="47.62085" lon="6.17737">
        <ele>233.39</ele>
        <time>2019-06-26T07:33:18Z</time>
      </trkpt>
      <trkpt lat="47.62085" lon="6.1773">
        <ele>233.35</ele>
        <time>2019-06-26T07:33:19Z</time>
      </trkpt>
      <trkpt lat="47.62086" lon="6.17723">
        <ele>233.3</ele>
        <time>2019-06-26T07:33:20Z</time>
      </trkpt>
      <trkpt lat="47.62087" lon="6.17717">
        <ele>233.26</ele>
        <time>2019-06-26T07:33:21Z</time>
      </trkpt>
      <trkpt lat="47.62087" lon="6.1771">
        <ele>233.21</ele>
        <time>2019-06-26T07:33:22Z</time>
      </trkpt>
      <trkpt lat="47.62087" lon="6.17703">
        <ele>233.17</ele>
        <time>2019-06-26T07:33:23Z</time>
      </trkpt>
      <trkpt lat="47.62088" lon="6.17696">
        <ele>233.12</ele>
        <time>2019-06-26T07:33:24Z</time>
      </trkpt>
      <trkpt lat="47.62088" lon="6.17689">
        <ele>233.08</ele>
        <time>2019-06-26T07:33:25Z</time>
      </trkpt>
      <trkpt lat="47.62089" lon="6.17682">
        <ele>233.04</ele>
        <time>2019-06-26T07:33:26Z</time>
      </trkpt>
      <trkpt lat="47.6209" lon="6.17675">
        <ele>232.99</ele>
        <time>2019-06-26T07:33:27Z</time>
      </trkpt>
      <trkpt lat="47.62091" lon="6.17662">
        <ele>232.9</ele>
        <time>2019-06-26T07:33:29Z</time>
      </trkpt>
      <trkpt lat="47.62092" lon="6.17656">
        <ele>232.86</ele>
        <time>2019-06-26T07:33:30Z</time>
      </trkpt>
      <trkpt lat="47.62092" lon="6.17649">
        <ele>232.83</ele>
        <time>2019-06-26T07:33:31Z</time>
      </trkpt>
      <trkpt lat="47.62092" lon="6.17642">
        <ele>232.79</ele>
        <time>2019-06-26T07:33:32Z</time>
      </trkpt>
      <trkpt lat="47.62093" lon="6.17635">
        <ele>232.75</ele>
        <time>2019-06-26T07:33:33Z</time>
      </trkpt>
      <trkpt lat="47.62094" lon="6.17628">
        <ele>232.71</ele>
        <time>2019-06-26T07:33:34Z</time>
      </trkpt>
      <trkpt lat="47.62094" lon="6.17621">
        <ele>232.67</ele>
        <time>2019-06-26T07:33:35Z</time>
      </trkpt>
      <trkpt lat="47.62095" lon="6.17613">
        <ele>232.63</ele>
        <time>2019-06-26T07:33:36Z</time>
      </trkpt>
      <trkpt lat="47.62095" lon="6.17606">
        <ele>232.6</ele>
        <time>2019-06-26T07:33:37Z</time>
      </trkpt>
      <trkpt lat="47.62096" lon="6.17599">
        <ele>232.56</ele>
        <time>2019-06-26T07:33:38Z</time>
      </trkpt>
      <trkpt lat="47.62096" lon="6.17591">
        <ele>232.52</ele>
        <time>2019-06-26T07:33:39Z</time>
      </trkpt>
      <trkpt lat="47.62097" lon="6.17584">
        <ele>232.48</ele>
        <time>2019-06-26T07:33:40Z</time>
      </trkpt>
      <trkpt lat="47.62097" lon="6.17577">
        <ele>232.44</ele>
        <time>2019-06-26T07:33:41Z</time>
      </trkpt>
      <trkpt lat="47.62098" lon="6.17569">
        <ele>232.41</ele>
        <time>2019-06-26T07:33:42Z</time>
      </trkpt>
      <trkpt lat="47.62098" lon="6.17562">
        <ele>232.38</ele>
        <time>2019-06-26T07:33:43Z</time>
      </trkpt>
      <trkpt lat="47.62099" lon="6.17555">
        <ele>232.34</ele>
        <time>2019-06-26T07:33:44Z</time>
      </trkpt>
      <trkpt lat="47.62099" lon="6.17548">
        <ele>232.3</ele>
        <time>2019-06-26T07:33:45Z</time>
      </trkpt>
      <trkpt lat="47.621" lon="6.17541">
        <ele>232.27</ele>
        <time>2019-06-26T07:33:46Z</time>
      </trkpt>
      <trkpt lat="47.621" lon="6.17533">
        <ele>232.24</ele>
        <time>2019-06-26T07:33:47Z</time>
      </trkpt>
      <trkpt lat="47.621" lon="6.17526">
        <ele>232.2</ele>
        <time>2019-06-26T07:33:48Z</time>
      </trkpt>
      <trkpt lat="47.62101" lon="6.17519">
        <ele>232.17</ele>
        <time>2019-06-26T07:33:49Z</time>
      </trkpt>
      <trkpt lat="47.62101" lon="6.17512">
        <ele>232.13</ele>
        <time>2019-06-26T07:33:50Z</time>
      </trkpt>
      <trkpt lat="47.62101" lon="6.17505">
        <ele>232.09</ele>
        <time>2019-06-26T07:33:51Z</time>
      </trkpt>
      <trkpt lat="47.62102" lon="6.17497">
        <ele>232.06</ele>
        <time>2019-06-26T07:33:52Z</time>
      </trkpt>
      <trkpt lat="47.62102" lon="6.1749">
        <ele>232.02</ele>
        <time>2019-06-26T07:33:53Z</time>
      </trkpt>
      <trkpt lat="47.62102" lon="6.17483">
        <ele>231.98</ele>
        <time>2019-06-26T07:33:54Z</time>
      </trkpt>
      <trkpt lat="47.62102" lon="6.17475">
        <ele>231.94</ele>
        <time>2019-06-26T07:33:55Z</time>
      </trkpt>
      <trkpt lat="47.62103" lon="6.17468">
        <ele>231.9</ele>
        <time>2019-06-26T07:33:56Z</time>
      </trkpt>
      <trkpt lat="47.62103" lon="6.1746">
        <ele>231.86</ele>
        <time>2019-06-26T07:33:57Z</time>
      </trkpt>
      <trkpt lat="47.62104" lon="6.17453">
        <ele>231.82</ele>
        <time>2019-06-26T07:33:58Z</time>
      </trkpt>
      <trkpt lat="47.62104" lon="6.17446">
        <ele>231.78</ele>
        <time>2019-06-26T07:33:59Z</time>
      </trkpt>
      <trkpt lat="47.62104" lon="6.17438">
        <ele>231.74</ele>
        <time>2019-06-26T07:34:00Z</time>
      </trkpt>
      <trkpt lat="47.62105" lon="6.17431">
        <ele>231.7</ele>
        <time>2019-06-26T07:34:01Z</time>
      </trkpt>
      <trkpt lat="47.62105" lon="6.17423">
        <ele>231.66</ele>
        <time>2019-06-26T07:34:02Z</time>
      </trkpt>
      <trkpt lat="47.62105" lon="6.17415">
        <ele>231.62</ele>
        <time>2019-06-26T07:34:03Z</time>
      </trkpt>
      <trkpt lat="47.62106" lon="6.17408">
        <ele>231.59</ele>
        <time>2019-06-26T07:34:04Z</time>
      </trkpt>
      <trkpt lat="47.62106" lon="6.17401">
        <ele>231.56</ele>
        <time>2019-06-26T07:34:05Z</time>
      </trkpt>
      <trkpt lat="47.62106" lon="6.17393">
        <ele>231.52</ele>
        <time>2019-06-26T07:34:06Z</time>
      </trkpt>
      <trkpt lat="47.62107" lon="6.17386">
        <ele>231.49</ele>
        <time>2019-06-26T07:34:07Z</time>
      </trkpt>
      <trkpt lat="47.62107" lon="6.17378">
        <ele>231.46</ele>
        <time>2019-06-26T07:34:08Z</time>
      </trkpt>
      <trkpt lat="47.62107" lon="6.17371">
        <ele>231.43</ele>
        <time>2019-06-26T07:34:09Z</time>
      </trkpt>
      <trkpt lat="47.62108" lon="6.17364">
        <ele>231.4</ele>
        <time>2019-06-26T07:34:10Z</time>
      </trkpt>
      <trkpt lat="47.62108" lon="6.17356">
        <ele>231.37</ele>
        <time>2019-06-26T07:34:11Z</time>
      </trkpt>
      <trkpt lat="47.62108" lon="6.17349">
        <ele>231.33</ele>
        <time>2019-06-26T07:34:12Z</time>
      </trkpt>
      <trkpt lat="47.62109" lon="6.17342">
        <ele>231.3</ele>
        <time>2019-06-26T07:34:13Z</time>
      </trkpt>
      <trkpt lat="47.62109" lon="6.17335">
        <ele>231.26</ele>
        <time>2019-06-26T07:34:14Z</time>
      </trkpt>
      <trkpt lat="47.6211" lon="6.17322">
        <ele>231.19</ele>
        <time>2019-06-26T07:34:16Z</time>
      </trkpt>
      <trkpt lat="47.62112" lon="6.17309">
        <ele>231.11</ele>
        <time>2019-06-26T07:34:18Z</time>
      </trkpt>
      <trkpt lat="47.62114" lon="6.17296">
        <ele>231.05</ele>
        <time>2019-06-26T07:34:20Z</time>
      </trkpt>
      <trkpt lat="47.62116" lon="6.17284">
        <ele>231.01</ele>
        <time>2019-06-26T07:34:22Z</time>
      </trkpt>
      <trkpt lat="47.62119" lon="6.17272">
        <ele>230.98</ele>
        <time>2019-06-26T07:34:24Z</time>
      </trkpt>
      <trkpt lat="47.62121" lon="6.1726">
        <ele>230.94</ele>
        <time>2019-06-26T07:34:26Z</time>
      </trkpt>
      <trkpt lat="47.62123" lon="6.17248">
        <ele>230.9</ele>
        <time>2019-06-26T07:34:28Z</time>
      </trkpt>
      <trkpt lat="47.62126" lon="6.17238">
        <ele>230.87</ele>
        <time>2019-06-26T07:34:30Z</time>
      </trkpt>
      <trkpt lat="47.62129" lon="6.17226">
        <ele>230.84</ele>
        <time>2019-06-26T07:34:32Z</time>
      </trkpt>
      <trkpt lat="47.62131" lon="6.17215">
        <ele>230.82</ele>
        <time>2019-06-26T07:34:34Z</time>
      </trkpt>
      <trkpt lat="47.62133" lon="6.17204">
        <ele>230.8</ele>
        <time>2019-06-26T07:34:36Z</time>
      </trkpt>
      <trkpt lat="47.62136" lon="6.17192">
        <ele>230.78</ele>
        <time>2019-06-26T07:34:38Z</time>
      </trkpt>
      <trkpt lat="47.62138" lon="6.17181">
        <ele>230.76</ele>
        <time>2019-06-26T07:34:40Z</time>
      </trkpt>
      <trkpt lat="47.6214" lon="6.17169">
        <ele>230.73</ele>
        <time>2019-06-26T07:34:42Z</time>
      </trkpt>
      <trkpt lat="47.62142" lon="6.17158">
        <ele>230.69</ele>
        <time>2019-06-26T07:34:44Z</time>
      </trkpt>
      <trkpt lat="47.62144" lon="6.17146">
        <ele>230.63</ele>
        <time>2019-06-26T07:34:46Z</time>
      </trkpt>
      <trkpt lat="47.62146" lon="6.17135">
        <ele>230.58</ele>
        <time>2019-06-26T07:34:48Z</time>
      </trkpt>
      <trkpt lat="47.62148" lon="6.17124">
        <ele>230.56</ele>
        <time>2019-06-26T07:34:50Z</time>
      </trkpt>
      <trkpt lat="47.6215" lon="6.17114">
        <ele>230.56</ele>
        <time>2019-06-26T07:34:52Z</time>
      </trkpt>
      <trkpt lat="47.62151" lon="6.17105">
        <ele>230.55</ele>
        <time>2019-06-26T07:34:54Z</time>
      </trkpt>
      <trkpt lat="47.62153" lon="6.17095">
        <ele>230.54</ele>
        <time>2019-06-26T07:34:56Z</time>
      </trkpt>
      <trkpt lat="47.62155" lon="6.17085">
        <ele>230.53</ele>
        <time>2019-06-26T07:34:58Z</time>
      </trkpt>
      <trkpt lat="47.62157" lon="6.17076">
        <ele>230.51</ele>
        <time>2019-06-26T07:35:01Z</time>
      </trkpt>
      <trkpt lat="47.62158" lon="6.1707">
        <ele>230.5</ele>
        <time>2019-06-26T07:35:03Z</time>
      </trkpt>
      <trkpt lat="47.62159" lon="6.17062">
        <ele>230.49</ele>
        <time>2019-06-26T07:35:05Z</time>
      </trkpt>
      <trkpt lat="47.6216" lon="6.17053">
        <ele>230.47</ele>
        <time>2019-06-26T07:35:08Z</time>
      </trkpt>
      <trkpt lat="47.62162" lon="6.17045">
        <ele>230.45</ele>
        <time>2019-06-26T07:35:11Z</time>
      </trkpt>
      <trkpt lat="47.62164" lon="6.17038">
        <ele>230.42</ele>
        <time>2019-06-26T07:35:16Z</time>
      </trkpt>
      <trkpt lat="47.62166" lon="6.17031">
        <ele>230.41</ele>
        <time>2019-06-26T07:35:32Z</time>
      </trkpt>
      <trkpt lat="47.62168" lon="6.17023">
        <ele>230.41</ele>
        <time>2019-06-26T07:35:35Z</time>
      </trkpt>
      <trkpt lat="47.6217" lon="6.17016">
        <ele>230.42</ele>
        <time>2019-06-26T07:35:37Z</time>
      </trkpt>
      <trkpt lat="47.62173" lon="6.17008">
        <ele>230.42</ele>
        <time>2019-06-26T07:35:39Z</time>
      </trkpt>
      <trkpt lat="47.62175" lon="6.17002">
        <ele>230.42</ele>
        <time>2019-06-26T07:35:41Z</time>
      </trkpt>
      <trkpt lat="47.62177" lon="6.16996">
        <ele>230.44</ele>
        <time>2019-06-26T07:35:45Z</time>
      </trkpt>
      <trkpt lat="47.62182" lon="6.16994">
        <ele>230.47</ele>
        <time>2019-06-26T07:35:53Z</time>
      </trkpt>
      <trkpt lat="47.62186" lon="6.16997">
        <ele>230.47</ele>
        <time>2019-06-26T07:35:56Z</time>
      </trkpt>
      <trkpt lat="47.6219" lon="6.17001">
        <ele>230.47</ele>
        <time>2019-06-26T07:35:58Z</time>
      </trkpt>
      <trkpt lat="47.62195" lon="6.17005">
        <ele>230.47</ele>
        <time>2019-06-26T07:36:00Z</time>
      </trkpt>
      <trkpt lat="47.62199" lon="6.17008">
        <ele>230.46</ele>
        <time>2019-06-26T07:36:02Z</time>
      </trkpt>
      <trkpt lat="47.62204" lon="6.17012">
        <ele>230.45</ele>
        <time>2019-06-26T07:36:04Z</time>
      </trkpt>
      <trkpt lat="47.6221" lon="6.17016">
        <ele>230.44</ele>
        <time>2019-06-26T07:36:06Z</time>
      </trkpt>
      <trkpt lat="47.62217" lon="6.17022">
        <ele>230.33</ele>
        <time>2019-06-26T07:36:08Z</time>
      </trkpt>
      <trkpt lat="47.62222" lon="6.17027">
        <ele>230.24</ele>
        <time>2019-06-26T07:36:10Z</time>
      </trkpt>
      <trkpt lat="47.62229" lon="6.17032">
        <ele>230.22</ele>
        <time>2019-06-26T07:36:12Z</time>
      </trkpt>
      <trkpt lat="47.62236" lon="6.17038">
        <ele>230.18</ele>
        <time>2019-06-26T07:36:14Z</time>
      </trkpt>
      <trkpt lat="47.62245" lon="6.17045">
        <ele>230.11</ele>
        <time>2019-06-26T07:36:16Z</time>
      </trkpt>
      <trkpt lat="47.6225" lon="6.17048">
        <ele>230.07</ele>
        <time>2019-06-26T07:36:17Z</time>
      </trkpt>
      <trkpt lat="47.6226" lon="6.17055">
        <ele>230.04</ele>
        <time>2019-06-26T07:36:18Z</time>
      </trkpt>
      <trkpt lat="47.62266" lon="6.17058">
        <ele>230.01</ele>
        <time>2019-06-26T07:36:19Z</time>
      </trkpt>
      <trkpt lat="47.6227" lon="6.17061">
        <ele>229.98</ele>
        <time>2019-06-26T07:36:20Z</time>
      </trkpt>
      <trkpt lat="47.62275" lon="6.17062">
        <ele>229.96</ele>
        <time>2019-06-26T07:36:21Z</time>
      </trkpt>
      <trkpt lat="47.62281" lon="6.17065">
        <ele>229.93</ele>
        <time>2019-06-26T07:36:22Z</time>
      </trkpt>
      <trkpt lat="47.62286" lon="6.17068">
        <ele>229.9</ele>
        <time>2019-06-26T07:36:23Z</time>
      </trkpt>
      <trkpt lat="47.62291" lon="6.1707">
        <ele>229.87</ele>
        <time>2019-06-26T07:36:24Z</time>
      </trkpt>
      <trkpt lat="47.62296" lon="6.17072">
        <ele>229.84</ele>
        <time>2019-06-26T07:36:25Z</time>
      </trkpt>
      <trkpt lat="47.62301" lon="6.17075">
        <ele>229.82</ele>
        <time>2019-06-26T07:36:26Z</time>
      </trkpt>
      <trkpt lat="47.62306" lon="6.17077">
        <ele>229.79</ele>
        <time>2019-06-26T07:36:27Z</time>
      </trkpt>
      <trkpt lat="47.62314" lon="6.17081">
        <ele>229.73</ele>
        <time>2019-06-26T07:36:29Z</time>
      </trkpt>
      <trkpt lat="47.62318" lon="6.17084">
        <ele>229.7</ele>
        <time>2019-06-26T07:36:30Z</time>
      </trkpt>
      <trkpt lat="47.62326" lon="6.17088">
        <ele>229.62</ele>
        <time>2019-06-26T07:36:32Z</time>
      </trkpt>
      <trkpt lat="47.62334" lon="6.17093">
        <ele>229.55</ele>
        <time>2019-06-26T07:36:34Z</time>
      </trkpt>
      <trkpt lat="47.62342" lon="6.17096">
        <ele>229.48</ele>
        <time>2019-06-26T07:36:36Z</time>
      </trkpt>
      <trkpt lat="47.6235" lon="6.17099">
        <ele>229.42</ele>
        <time>2019-06-26T07:36:38Z</time>
      </trkpt>
      <trkpt lat="47.62359" lon="6.17101">
        <ele>229.36</ele>
        <time>2019-06-26T07:36:40Z</time>
      </trkpt>
      <trkpt lat="47.62363" lon="6.17103">
        <ele>229.34</ele>
        <time>2019-06-26T07:36:41Z</time>
      </trkpt>
      <trkpt lat="47.62368" lon="6.17105">
        <ele>229.31</ele>
        <time>2019-06-26T07:36:42Z</time>
      </trkpt>
      <trkpt lat="47.62373" lon="6.17106">
        <ele>229.28</ele>
        <time>2019-06-26T07:36:43Z</time>
      </trkpt>
      <trkpt lat="47.62377" lon="6.17107">
        <ele>229.25</ele>
        <time>2019-06-26T07:36:44Z</time>
      </trkpt>
      <trkpt lat="47.62382" lon="6.17109">
        <ele>229.22</ele>
        <time>2019-06-26T07:36:45Z</time>
      </trkpt>
      <trkpt lat="47.62386" lon="6.1711">
        <ele>229.19</ele>
        <time>2019-06-26T07:36:46Z</time>
      </trkpt>
      <trkpt lat="47.62391" lon="6.17112">
        <ele>229.16</ele>
        <time>2019-06-26T07:36:47Z</time>
      </trkpt>
      <trkpt lat="47.62395" lon="6.17113">
        <ele>229.13</ele>
        <time>2019-06-26T07:36:48Z</time>
      </trkpt>
      <trkpt lat="47.624" lon="6.17115">
        <ele>229.1</ele>
        <time>2019-06-26T07:36:49Z</time>
      </trkpt>
      <trkpt lat="47.62409" lon="6.17118">
        <ele>229.03</ele>
        <time>2019-06-26T07:36:51Z</time>
      </trkpt>
      <trkpt lat="47.62418" lon="6.17121">
        <ele>228.96</ele>
        <time>2019-06-26T07:36:53Z</time>
      </trkpt>
      <trkpt lat="47.62422" lon="6.17123">
        <ele>228.92</ele>
        <time>2019-06-26T07:36:54Z</time>
      </trkpt>
      <trkpt lat="47.62427" lon="6.17124">
        <ele>228.87</ele>
        <time>2019-06-26T07:36:55Z</time>
      </trkpt>
      <trkpt lat="47.62432" lon="6.17126">
        <ele>228.83</ele>
        <time>2019-06-26T07:36:56Z</time>
      </trkpt>
      <trkpt lat="47.6244" lon="6.17128">
        <ele>228.73</ele>
        <time>2019-06-26T07:36:58Z</time>
      </trkpt>
      <trkpt lat="47.62449" lon="6.17132">
        <ele>228.63</ele>
        <time>2019-06-26T07:37:00Z</time>
      </trkpt>
      <trkpt lat="47.62457" lon="6.17134">
        <ele>228.55</ele>
        <time>2019-06-26T07:37:02Z</time>
      </trkpt>
      <trkpt lat="47.62465" lon="6.17137">
        <ele>228.48</ele>
        <time>2019-06-26T07:37:04Z</time>
      </trkpt>
      <trkpt lat="47.62473" lon="6.17139">
        <ele>228.42</ele>
        <time>2019-06-26T07:37:06Z</time>
      </trkpt>
      <trkpt lat="47.62482" lon="6.17142">
        <ele>228.36</ele>
        <time>2019-06-26T07:37:08Z</time>
      </trkpt>
      <trkpt lat="47.6249" lon="6.17144">
        <ele>228.31</ele>
        <time>2019-06-26T07:37:10Z</time>
      </trkpt>
      <trkpt lat="47.62497" lon="6.17147">
        <ele>228.25</ele>
        <time>2019-06-26T07:37:12Z</time>
      </trkpt>
      <trkpt lat="47.62505" lon="6.1715">
        <ele>228.2</ele>
        <time>2019-06-26T07:37:14Z</time>
      </trkpt>
      <trkpt lat="47.62513" lon="6.17153">
        <ele>228.15</ele>
        <time>2019-06-26T07:37:16Z</time>
      </trkpt>
      <trkpt lat="47.62518" lon="6.17155">
        <ele>228.13</ele>
        <time>2019-06-26T07:37:17Z</time>
      </trkpt>
      <trkpt lat="47.62523" lon="6.17156">
        <ele>228.12</ele>
        <time>2019-06-26T07:37:18Z</time>
      </trkpt>
      <trkpt lat="47.62527" lon="6.17158">
        <ele>228.11</ele>
        <time>2019-06-26T07:37:19Z</time>
      </trkpt>
      <trkpt lat="47.62532" lon="6.17159">
        <ele>228.1</ele>
        <time>2019-06-26T07:37:20Z</time>
      </trkpt>
      <trkpt lat="47.62536" lon="6.1716">
        <ele>228.09</ele>
        <time>2019-06-26T07:37:21Z</time>
      </trkpt>
      <trkpt lat="47.62542" lon="6.17161">
        <ele>228.07</ele>
        <time>2019-06-26T07:37:22Z</time>
      </trkpt>
      <trkpt lat="47.62547" lon="6.17163">
        <ele>228.06</ele>
        <time>2019-06-26T07:37:23Z</time>
      </trkpt>
      <trkpt lat="47.62552" lon="6.17165">
        <ele>228.05</ele>
        <time>2019-06-26T07:37:24Z</time>
      </trkpt>
      <trkpt lat="47.62557" lon="6.17167">
        <ele>228.04</ele>
        <time>2019-06-26T07:37:25Z</time>
      </trkpt>
      <trkpt lat="47.62562" lon="6.17169">
        <ele>228.02</ele>
        <time>2019-06-26T07:37:26Z</time>
      </trkpt>
      <trkpt lat="47.62568" lon="6.1717">
        <ele>228.01</ele>
        <time>2019-06-26T07:37:27Z</time>
      </trkpt>
      <trkpt lat="47.62573" lon="6.17172">
        <ele>228</ele>
        <time>2019-06-26T07:37:28Z</time>
      </trkpt>
      <trkpt lat="47.62579" lon="6.17174">
        <ele>227.99</ele>
        <time>2019-06-26T07:37:29Z</time>
      </trkpt>
      <trkpt lat="47.62585" lon="6.17176">
        <ele>227.98</ele>
        <time>2019-06-26T07:37:30Z</time>
      </trkpt>
      <trkpt lat="47.6259" lon="6.17178">
        <ele>227.97</ele>
        <time>2019-06-26T07:37:31Z</time>
      </trkpt>
      <trkpt lat="47.62595" lon="6.17179">
        <ele>227.96</ele>
        <time>2019-06-26T07:37:32Z</time>
      </trkpt>
      <trkpt lat="47.626" lon="6.17181">
        <ele>227.94</ele>
        <time>2019-06-26T07:37:33Z</time>
      </trkpt>
      <trkpt lat="47.62605" lon="6.17183">
        <ele>227.93</ele>
        <time>2019-06-26T07:37:34Z</time>
      </trkpt>
      <trkpt lat="47.6261" lon="6.17184">
        <ele>227.91</ele>
        <time>2019-06-26T07:37:35Z</time>
      </trkpt>
      <trkpt lat="47.62614" lon="6.17186">
        <ele>227.88</ele>
        <time>2019-06-26T07:37:36Z</time>
      </trkpt>
      <trkpt lat="47.62619" lon="6.17187">
        <ele>227.86</ele>
        <time>2019-06-26T07:37:37Z</time>
      </trkpt>
      <trkpt lat="47.62624" lon="6.17188">
        <ele>227.84</ele>
        <time>2019-06-26T07:37:38Z</time>
      </trkpt>
      <trkpt lat="47.62628" lon="6.1719">
        <ele>227.82</ele>
        <time>2019-06-26T07:37:39Z</time>
      </trkpt>
      <trkpt lat="47.62634" lon="6.1719">
        <ele>227.8</ele>
        <time>2019-06-26T07:37:40Z</time>
      </trkpt>
      <trkpt lat="47.62638" lon="6.17191">
        <ele>227.79</ele>
        <time>2019-06-26T07:37:41Z</time>
      </trkpt>
      <trkpt lat="47.62646" lon="6.17192">
        <ele>227.79</ele>
        <time>2019-06-26T07:37:43Z</time>
      </trkpt>
      <trkpt lat="47.62653" lon="6.17194">
        <ele>227.79</ele>
        <time>2019-06-26T07:37:45Z</time>
      </trkpt>
      <trkpt lat="47.6266" lon="6.17196">
        <ele>227.79</ele>
        <time>2019-06-26T07:37:47Z</time>
      </trkpt>
      <trkpt lat="47.62666" lon="6.17199">
        <ele>227.79</ele>
        <time>2019-06-26T07:37:49Z</time>
      </trkpt>
      <trkpt lat="47.62675" lon="6.17201">
        <ele>227.78</ele>
        <time>2019-06-26T07:37:51Z</time>
      </trkpt>
      <trkpt lat="47.62683" lon="6.17204">
        <ele>227.78</ele>
        <time>2019-06-26T07:37:53Z</time>
      </trkpt>
      <trkpt lat="47.6269" lon="6.17207">
        <ele>227.77</ele>
        <time>2019-06-26T07:37:55Z</time>
      </trkpt>
      <trkpt lat="47.62698" lon="6.1721">
        <ele>227.77</ele>
        <time>2019-06-26T07:37:57Z</time>
      </trkpt>
      <trkpt lat="47.62706" lon="6.17212">
        <ele>227.73</ele>
        <time>2019-06-26T07:37:59Z</time>
      </trkpt>
      <trkpt lat="47.62715" lon="6.17215">
        <ele>227.66</ele>
        <time>2019-06-26T07:38:01Z</time>
      </trkpt>
      <trkpt lat="47.62722" lon="6.17218">
        <ele>227.61</ele>
        <time>2019-06-26T07:38:03Z</time>
      </trkpt>
      <trkpt lat="47.6273" lon="6.17221">
        <ele>227.55</ele>
        <time>2019-06-26T07:38:05Z</time>
      </trkpt>
      <trkpt lat="47.62737" lon="6.17224">
        <ele>227.54</ele>
        <time>2019-06-26T07:38:07Z</time>
      </trkpt>
      <trkpt lat="47.62745" lon="6.17226">
        <ele>227.5</ele>
        <time>2019-06-26T07:38:09Z</time>
      </trkpt>
      <trkpt lat="47.62753" lon="6.17228">
        <ele>227.46</ele>
        <time>2019-06-26T07:38:11Z</time>
      </trkpt>
      <trkpt lat="47.62761" lon="6.17231">
        <ele>227.42</ele>
        <time>2019-06-26T07:38:13Z</time>
      </trkpt>
      <trkpt lat="47.62769" lon="6.17233">
        <ele>227.37</ele>
        <time>2019-06-26T07:38:15Z</time>
      </trkpt>
      <trkpt lat="47.62777" lon="6.17234">
        <ele>227.35</ele>
        <time>2019-06-26T07:38:17Z</time>
      </trkpt>
      <trkpt lat="47.62784" lon="6.17236">
        <ele>227.36</ele>
        <time>2019-06-26T07:38:19Z</time>
      </trkpt>
      <trkpt lat="47.62793" lon="6.17239">
        <ele>227.37</ele>
        <time>2019-06-26T07:38:21Z</time>
      </trkpt>
      <trkpt lat="47.62802" lon="6.17243">
        <ele>227.37</ele>
        <time>2019-06-26T07:38:23Z</time>
      </trkpt>
      <trkpt lat="47.62809" lon="6.17247">
        <ele>227.36</ele>
        <time>2019-06-26T07:38:25Z</time>
      </trkpt>
      <trkpt lat="47.62816" lon="6.17248">
        <ele>227.36</ele>
        <time>2019-06-26T07:38:27Z</time>
      </trkpt>
      <trkpt lat="47.62823" lon="6.1725">
        <ele>227.35</ele>
        <time>2019-06-26T07:38:29Z</time>
      </trkpt>
      <trkpt lat="47.62829" lon="6.17253">
        <ele>227.34</ele>
        <time>2019-06-26T07:38:31Z</time>
      </trkpt>
      <trkpt lat="47.62836" lon="6.17255">
        <ele>227.34</ele>
        <time>2019-06-26T07:38:33Z</time>
      </trkpt>
      <trkpt lat="47.62843" lon="6.17256">
        <ele>227.33</ele>
        <time>2019-06-26T07:38:35Z</time>
      </trkpt>
      <trkpt lat="47.6285" lon="6.17258">
        <ele>227.32</ele>
        <time>2019-06-26T07:38:37Z</time>
      </trkpt>
      <trkpt lat="47.62856" lon="6.1726">
        <ele>227.31</ele>
        <time>2019-06-26T07:38:39Z</time>
      </trkpt>
      <trkpt lat="47.62861" lon="6.17262">
        <ele>227.29</ele>
        <time>2019-06-26T07:38:41Z</time>
      </trkpt>
      <trkpt lat="47.62868" lon="6.17264">
        <ele>227.28</ele>
        <time>2019-06-26T07:38:43Z</time>
      </trkpt>
      <trkpt lat="47.62875" lon="6.17265">
        <ele>227.27</ele>
        <time>2019-06-26T07:38:45Z</time>
      </trkpt>
      <trkpt lat="47.62881" lon="6.17266">
        <ele>227.25</ele>
        <time>2019-06-26T07:38:47Z</time>
      </trkpt>
      <trkpt lat="47.62888" lon="6.17266">
        <ele>227.23</ele>
        <time>2019-06-26T07:38:49Z</time>
      </trkpt>
      <trkpt lat="47.62895" lon="6.17266">
        <ele>227.22</ele>
        <time>2019-06-26T07:38:51Z</time>
      </trkpt>
      <trkpt lat="47.62902" lon="6.17266">
        <ele>227.2</ele>
        <time>2019-06-26T07:38:53Z</time>
      </trkpt>
      <trkpt lat="47.62908" lon="6.17266">
        <ele>227.18</ele>
        <time>2019-06-26T07:38:55Z</time>
      </trkpt>
      <trkpt lat="47.62915" lon="6.17264">
        <ele>227.17</ele>
        <time>2019-06-26T07:38:57Z</time>
      </trkpt>
      <trkpt lat="47.62921" lon="6.17263">
        <ele>227.15</ele>
        <time>2019-06-26T07:38:59Z</time>
      </trkpt>
      <trkpt lat="47.62927" lon="6.17267">
        <ele>227.13</ele>
        <time>2019-06-26T07:39:01Z</time>
      </trkpt>
      <trkpt lat="47.62931" lon="6.17274">
        <ele>227.11</ele>
        <time>2019-06-26T07:39:03Z</time>
      </trkpt>
      <trkpt lat="47.62935" lon="6.1728">
        <ele>227.1</ele>
        <time>2019-06-26T07:39:05Z</time>
      </trkpt>
      <trkpt lat="47.62939" lon="6.17284">
        <ele>227.08</ele>
        <time>2019-06-26T07:39:07Z</time>
      </trkpt>
      <trkpt lat="47.62944" lon="6.17289">
        <ele>226.99</ele>
        <time>2019-06-26T07:39:09Z</time>
      </trkpt>
      <trkpt lat="47.62951" lon="6.17295">
        <ele>226.85</ele>
        <time>2019-06-26T07:39:11Z</time>
      </trkpt>
      <trkpt lat="47.62958" lon="6.17303">
        <ele>226.74</ele>
        <time>2019-06-26T07:39:13Z</time>
      </trkpt>
      <trkpt lat="47.62966" lon="6.17311">
        <ele>226.71</ele>
        <time>2019-06-26T07:39:14Z</time>
      </trkpt>
      <trkpt lat="47.62971" lon="6.17314">
        <ele>226.67</ele>
        <time>2019-06-26T07:39:15Z</time>
      </trkpt>
      <trkpt lat="47.62976" lon="6.17318">
        <ele>226.64</ele>
        <time>2019-06-26T07:39:16Z</time>
      </trkpt>
      <trkpt lat="47.62981" lon="6.1732">
        <ele>226.61</ele>
        <time>2019-06-26T07:39:17Z</time>
      </trkpt>
      <trkpt lat="47.62986" lon="6.17322">
        <ele>226.58</ele>
        <time>2019-06-26T07:39:18Z</time>
      </trkpt>
      <trkpt lat="47.62991" lon="6.17323">
        <ele>226.57</ele>
        <time>2019-06-26T07:39:19Z</time>
      </trkpt>
      <trkpt lat="47.62995" lon="6.17325">
        <ele>226.56</ele>
        <time>2019-06-26T07:39:20Z</time>
      </trkpt>
      <trkpt lat="47.63" lon="6.17326">
        <ele>226.55</ele>
        <time>2019-06-26T07:39:21Z</time>
      </trkpt>
      <trkpt lat="47.63008" lon="6.1733">
        <ele>226.55</ele>
        <time>2019-06-26T07:39:23Z</time>
      </trkpt>
      <trkpt lat="47.63014" lon="6.17332">
        <ele>226.55</ele>
        <time>2019-06-26T07:39:25Z</time>
      </trkpt>
      <trkpt lat="47.63019" lon="6.17335">
        <ele>226.55</ele>
        <time>2019-06-26T07:39:27Z</time>
      </trkpt>
      <trkpt lat="47.63024" lon="6.17337">
        <ele>226.54</ele>
        <time>2019-06-26T07:39:30Z</time>
      </trkpt>
      <trkpt lat="47.63031" lon="6.1734">
        <ele>226.54</ele>
        <time>2019-06-26T07:39:33Z</time>
      </trkpt>
      <trkpt lat="47.63038" lon="6.17343">
        <ele>226.54</ele>
        <time>2019-06-26T07:39:35Z</time>
      </trkpt>
      <trkpt lat="47.63045" lon="6.17346">
        <ele>226.53</ele>
        <time>2019-06-26T07:39:37Z</time>
      </trkpt>
      <trkpt lat="47.63053" lon="6.17348">
        <ele>226.52</ele>
        <time>2019-06-26T07:39:39Z</time>
      </trkpt>
      <trkpt lat="47.6306" lon="6.1735">
        <ele>226.5</ele>
        <time>2019-06-26T07:39:41Z</time>
      </trkpt>
      <trkpt lat="47.63068" lon="6.17352">
        <ele>226.46</ele>
        <time>2019-06-26T07:39:43Z</time>
      </trkpt>
      <trkpt lat="47.63075" lon="6.17355">
        <ele>226.45</ele>
        <time>2019-06-26T07:39:45Z</time>
      </trkpt>
      <trkpt lat="47.63082" lon="6.17357">
        <ele>226.45</ele>
        <time>2019-06-26T07:39:47Z</time>
      </trkpt>
      <trkpt lat="47.63088" lon="6.1736">
        <ele>226.44</ele>
        <time>2019-06-26T07:39:49Z</time>
      </trkpt>
      <trkpt lat="47.63094" lon="6.17362">
        <ele>226.41</ele>
        <time>2019-06-26T07:39:51Z</time>
      </trkpt>
      <trkpt lat="47.63106" lon="6.17366">
        <ele>226.34</ele>
        <time>2019-06-26T07:39:53Z</time>
      </trkpt>
      <trkpt lat="47.63111" lon="6.17367">
        <ele>226.3</ele>
        <time>2019-06-26T07:39:54Z</time>
      </trkpt>
      <trkpt lat="47.63116" lon="6.17369">
        <ele>226.26</ele>
        <time>2019-06-26T07:39:55Z</time>
      </trkpt>
      <trkpt lat="47.63121" lon="6.17372">
        <ele>226.23</ele>
        <time>2019-06-26T07:39:56Z</time>
      </trkpt>
      <trkpt lat="47.63127" lon="6.17372">
        <ele>226.2</ele>
        <time>2019-06-26T07:39:57Z</time>
      </trkpt>
      <trkpt lat="47.63132" lon="6.17374">
        <ele>226.18</ele>
        <time>2019-06-26T07:39:58Z</time>
      </trkpt>
      <trkpt lat="47.63137" lon="6.17375">
        <ele>226.16</ele>
        <time>2019-06-26T07:39:59Z</time>
      </trkpt>
      <trkpt lat="47.63146" lon="6.17378">
        <ele>226.12</ele>
        <time>2019-06-26T07:40:01Z</time>
      </trkpt>
      <trkpt lat="47.63154" lon="6.17381">
        <ele>226.08</ele>
        <time>2019-06-26T07:40:03Z</time>
      </trkpt>
      <trkpt lat="47.63159" lon="6.17383">
        <ele>226.07</ele>
        <time>2019-06-26T07:40:04Z</time>
      </trkpt>
      <trkpt lat="47.63163" lon="6.17384">
        <ele>226.05</ele>
        <time>2019-06-26T07:40:05Z</time>
      </trkpt>
      <trkpt lat="47.63168" lon="6.17386">
        <ele>226.03</ele>
        <time>2019-06-26T07:40:06Z</time>
      </trkpt>
      <trkpt lat="47.63176" lon="6.1739">
        <ele>226</ele>
        <time>2019-06-26T07:40:08Z</time>
      </trkpt>
      <trkpt lat="47.63181" lon="6.17393">
        <ele>225.98</ele>
        <time>2019-06-26T07:40:09Z</time>
      </trkpt>
      <trkpt lat="47.63185" lon="6.17395">
        <ele>225.96</ele>
        <time>2019-06-26T07:40:10Z</time>
      </trkpt>
      <trkpt lat="47.63193" lon="6.17399">
        <ele>225.91</ele>
        <time>2019-06-26T07:40:12Z</time>
      </trkpt>
      <trkpt lat="47.632" lon="6.17404">
        <ele>225.87</ele>
        <time>2019-06-26T07:40:14Z</time>
      </trkpt>
      <trkpt lat="47.63207" lon="6.17409">
        <ele>225.83</ele>
        <time>2019-06-26T07:40:16Z</time>
      </trkpt>
      <trkpt lat="47.63214" lon="6.17413">
        <ele>225.82</ele>
        <time>2019-06-26T07:40:18Z</time>
      </trkpt>
      <trkpt lat="47.6322" lon="6.17417">
        <ele>225.82</ele>
        <time>2019-06-26T07:40:20Z</time>
      </trkpt>
      <trkpt lat="47.63225" lon="6.17421">
        <ele>225.81</ele>
        <time>2019-06-26T07:40:22Z</time>
      </trkpt>
      <trkpt lat="47.6323" lon="6.17425">
        <ele>225.8</ele>
        <time>2019-06-26T07:40:25Z</time>
      </trkpt>
      <trkpt lat="47.63235" lon="6.17429">
        <ele>225.79</ele>
        <time>2019-06-26T07:40:28Z</time>
      </trkpt>
      <trkpt lat="47.63241" lon="6.17433">
        <ele>225.78</ele>
        <time>2019-06-26T07:40:31Z</time>
      </trkpt>
      <trkpt lat="47.63246" lon="6.17436">
        <ele>225.77</ele>
        <time>2019-06-26T07:40:33Z</time>
      </trkpt>
      <trkpt lat="47.63251" lon="6.17439">
        <ele>225.77</ele>
        <time>2019-06-26T07:40:35Z</time>
      </trkpt>
      <trkpt lat="47.63257" lon="6.17441">
        <ele>225.76</ele>
        <time>2019-06-26T07:40:37Z</time>
      </trkpt>
      <trkpt lat="47.63264" lon="6.17444">
        <ele>225.74</ele>
        <time>2019-06-26T07:40:39Z</time>
      </trkpt>
      <trkpt lat="47.63271" lon="6.17448">
        <ele>225.72</ele>
        <time>2019-06-26T07:40:41Z</time>
      </trkpt>
      <trkpt lat="47.63278" lon="6.17453">
        <ele>225.71</ele>
        <time>2019-06-26T07:40:43Z</time>
      </trkpt>
      <trkpt lat="47.63285" lon="6.17457">
        <ele>225.71</ele>
        <time>2019-06-26T07:40:45Z</time>
      </trkpt>
      <trkpt lat="47.63291" lon="6.17462">
        <ele>225.71</ele>
        <time>2019-06-26T07:40:47Z</time>
      </trkpt>
      <trkpt lat="47.63297" lon="6.17465">
        <ele>225.72</ele>
        <time>2019-06-26T07:40:49Z</time>
      </trkpt>
      <trkpt lat="47.63303" lon="6.17468">
        <ele>225.72</ele>
        <time>2019-06-26T07:40:51Z</time>
      </trkpt>
      <trkpt lat="47.63308" lon="6.1747">
        <ele>225.72</ele>
        <time>2019-06-26T07:40:53Z</time>
      </trkpt>
      <trkpt lat="47.63313" lon="6.17473">
        <ele>225.73</ele>
        <time>2019-06-26T07:40:55Z</time>
      </trkpt>
      <trkpt lat="47.63317" lon="6.17476">
        <ele>225.73</ele>
        <time>2019-06-26T07:40:57Z</time>
      </trkpt>
      <trkpt lat="47.63322" lon="6.17479">
        <ele>225.74</ele>
        <time>2019-06-26T07:40:59Z</time>
      </trkpt>
      <trkpt lat="47.63328" lon="6.17482">
        <ele>225.75</ele>
        <time>2019-06-26T07:41:01Z</time>
      </trkpt>
      <trkpt lat="47.63332" lon="6.17485">
        <ele>225.76</ele>
        <time>2019-06-26T07:41:03Z</time>
      </trkpt>
      <trkpt lat="47.63337" lon="6.17488">
        <ele>225.77</ele>
        <time>2019-06-26T07:41:05Z</time>
      </trkpt>
      <trkpt lat="47.63342" lon="6.17491">
        <ele>225.78</ele>
        <time>2019-06-26T07:41:07Z</time>
      </trkpt>
      <trkpt lat="47.63347" lon="6.17495">
        <ele>225.8</ele>
        <time>2019-06-26T07:41:09Z</time>
      </trkpt>
      <trkpt lat="47.63352" lon="6.17498">
        <ele>225.81</ele>
        <time>2019-06-26T07:41:11Z</time>
      </trkpt>
      <trkpt lat="47.63357" lon="6.17501">
        <ele>225.83</ele>
        <time>2019-06-26T07:41:13Z</time>
      </trkpt>
      <trkpt lat="47.63362" lon="6.17504">
        <ele>225.84</ele>
        <time>2019-06-26T07:41:15Z</time>
      </trkpt>
      <trkpt lat="47.63367" lon="6.17508">
        <ele>225.86</ele>
        <time>2019-06-26T07:41:17Z</time>
      </trkpt>
      <trkpt lat="47.63373" lon="6.17512">
        <ele>225.87</ele>
        <time>2019-06-26T07:41:19Z</time>
      </trkpt>
      <trkpt lat="47.63379" lon="6.17516">
        <ele>225.89</ele>
        <time>2019-06-26T07:41:21Z</time>
      </trkpt>
      <trkpt lat="47.63385" lon="6.1752">
        <ele>225.91</ele>
        <time>2019-06-26T07:41:23Z</time>
      </trkpt>
      <trkpt lat="47.63391" lon="6.17524">
        <ele>225.92</ele>
        <time>2019-06-26T07:41:25Z</time>
      </trkpt>
      <trkpt lat="47.63398" lon="6.17528">
        <ele>225.94</ele>
        <time>2019-06-26T07:41:27Z</time>
      </trkpt>
      <trkpt lat="47.63405" lon="6.17532">
        <ele>225.96</ele>
        <time>2019-06-26T07:41:29Z</time>
      </trkpt>
      <trkpt lat="47.63411" lon="6.17536">
        <ele>225.97</ele>
        <time>2019-06-26T07:41:31Z</time>
      </trkpt>
      <trkpt lat="47.63417" lon="6.1754">
        <ele>225.99</ele>
        <time>2019-06-26T07:41:33Z</time>
      </trkpt>
      <trkpt lat="47.63423" lon="6.17544">
        <ele>226.01</ele>
        <time>2019-06-26T07:41:35Z</time>
      </trkpt>
      <trkpt lat="47.6343" lon="6.17548">
        <ele>226.02</ele>
        <time>2019-06-26T07:41:37Z</time>
      </trkpt>
      <trkpt lat="47.63436" lon="6.17552">
        <ele>226.04</ele>
        <time>2019-06-26T07:41:39Z</time>
      </trkpt>
      <trkpt lat="47.63443" lon="6.17557">
        <ele>226.05</ele>
        <time>2019-06-26T07:41:41Z</time>
      </trkpt>
      <trkpt lat="47.63448" lon="6.17562">
        <ele>226.07</ele>
        <time>2019-06-26T07:41:43Z</time>
      </trkpt>
      <trkpt lat="47.63453" lon="6.17566">
        <ele>226.09</ele>
        <time>2019-06-26T07:41:45Z</time>
      </trkpt>
      <trkpt lat="47.63459" lon="6.17571">
        <ele>226.1</ele>
        <time>2019-06-26T07:41:47Z</time>
      </trkpt>
      <trkpt lat="47.63466" lon="6.17576">
        <ele>226.12</ele>
        <time>2019-06-26T07:41:49Z</time>
      </trkpt>
      <trkpt lat="47.63472" lon="6.17581">
        <ele>226.14</ele>
        <time>2019-06-26T07:41:51Z</time>
      </trkpt>
      <trkpt lat="47.63478" lon="6.17586">
        <ele>226.15</ele>
        <time>2019-06-26T07:41:53Z</time>
      </trkpt>
      <trkpt lat="47.63485" lon="6.17592">
        <ele>226.17</ele>
        <time>2019-06-26T07:41:55Z</time>
      </trkpt>
      <trkpt lat="47.63492" lon="6.17598">
        <ele>226.19</ele>
        <time>2019-06-26T07:41:57Z</time>
      </trkpt>
      <trkpt lat="47.63498" lon="6.17603">
        <ele>226.21</ele>
        <time>2019-06-26T07:41:59Z</time>
      </trkpt>
      <trkpt lat="47.63504" lon="6.17609">
        <ele>226.23</ele>
        <time>2019-06-26T07:42:01Z</time>
      </trkpt>
      <trkpt lat="47.6351" lon="6.17614">
        <ele>226.25</ele>
        <time>2019-06-26T07:42:03Z</time>
      </trkpt>
      <trkpt lat="47.63516" lon="6.1762">
        <ele>226.27</ele>
        <time>2019-06-26T07:42:05Z</time>
      </trkpt>
      <trkpt lat="47.63522" lon="6.17625">
        <ele>226.29</ele>
        <time>2019-06-26T07:42:07Z</time>
      </trkpt>
      <trkpt lat="47.63527" lon="6.17631">
        <ele>226.31</ele>
        <time>2019-06-26T07:42:09Z</time>
      </trkpt>
      <trkpt lat="47.63533" lon="6.17637">
        <ele>226.38</ele>
        <time>2019-06-26T07:42:11Z</time>
      </trkpt>
      <trkpt lat="47.63543" lon="6.17647">
        <ele>226.52</ele>
        <time>2019-06-26T07:42:13Z</time>
      </trkpt>
      <trkpt lat="47.63547" lon="6.17651">
        <ele>226.58</ele>
        <time>2019-06-26T07:42:14Z</time>
      </trkpt>
      <trkpt lat="47.63552" lon="6.17656">
        <ele>226.62</ele>
        <time>2019-06-26T07:42:15Z</time>
      </trkpt>
      <trkpt lat="47.63556" lon="6.1766">
        <ele>226.66</ele>
        <time>2019-06-26T07:42:16Z</time>
      </trkpt>
      <trkpt lat="47.63561" lon="6.17665">
        <ele>226.68</ele>
        <time>2019-06-26T07:42:17Z</time>
      </trkpt>
      <trkpt lat="47.63566" lon="6.17669">
        <ele>226.71</ele>
        <time>2019-06-26T07:42:18Z</time>
      </trkpt>
      <trkpt lat="47.6357" lon="6.17674">
        <ele>226.73</ele>
        <time>2019-06-26T07:42:19Z</time>
      </trkpt>
      <trkpt lat="47.63574" lon="6.17678">
        <ele>226.74</ele>
        <time>2019-06-26T07:42:20Z</time>
      </trkpt>
      <trkpt lat="47.63578" lon="6.17682">
        <ele>226.76</ele>
        <time>2019-06-26T07:42:21Z</time>
      </trkpt>
      <trkpt lat="47.63582" lon="6.17686">
        <ele>226.77</ele>
        <time>2019-06-26T07:42:22Z</time>
      </trkpt>
      <trkpt lat="47.63586" lon="6.1769">
        <ele>226.78</ele>
        <time>2019-06-26T07:42:23Z</time>
      </trkpt>
      <trkpt lat="47.63593" lon="6.17697">
        <ele>226.8</ele>
        <time>2019-06-26T07:42:25Z</time>
      </trkpt>
      <trkpt lat="47.636" lon="6.17703">
        <ele>226.82</ele>
        <time>2019-06-26T07:42:27Z</time>
      </trkpt>
      <trkpt lat="47.63606" lon="6.17709">
        <ele>226.82</ele>
        <time>2019-06-26T07:42:29Z</time>
      </trkpt>
      <trkpt lat="47.63611" lon="6.17715">
        <ele>226.82</ele>
        <time>2019-06-26T07:42:31Z</time>
      </trkpt>
      <trkpt lat="47.63616" lon="6.1772">
        <ele>226.83</ele>
        <time>2019-06-26T07:42:33Z</time>
      </trkpt>
      <trkpt lat="47.63622" lon="6.17725">
        <ele>226.83</ele>
        <time>2019-06-26T07:42:35Z</time>
      </trkpt>
      <trkpt lat="47.63628" lon="6.1773">
        <ele>226.83</ele>
        <time>2019-06-26T07:42:37Z</time>
      </trkpt>
      <trkpt lat="47.63632" lon="6.17733">
        <ele>226.84</ele>
        <time>2019-06-26T07:42:39Z</time>
      </trkpt>
      <trkpt lat="47.63638" lon="6.17739">
        <ele>226.85</ele>
        <time>2019-06-26T07:42:42Z</time>
      </trkpt>
      <trkpt lat="47.63642" lon="6.17744">
        <ele>226.86</ele>
        <time>2019-06-26T07:42:44Z</time>
      </trkpt>
      <trkpt lat="47.63648" lon="6.17749">
        <ele>226.87</ele>
        <time>2019-06-26T07:42:46Z</time>
      </trkpt>
      <trkpt lat="47.63653" lon="6.17754">
        <ele>226.88</ele>
        <time>2019-06-26T07:42:48Z</time>
      </trkpt>
      <trkpt lat="47.63658" lon="6.17759">
        <ele>226.89</ele>
        <time>2019-06-26T07:42:50Z</time>
      </trkpt>
      <trkpt lat="47.63663" lon="6.17766">
        <ele>226.9</ele>
        <time>2019-06-26T07:42:52Z</time>
      </trkpt>
      <trkpt lat="47.63668" lon="6.17772">
        <ele>226.91</ele>
        <time>2019-06-26T07:42:54Z</time>
      </trkpt>
      <trkpt lat="47.63674" lon="6.17778">
        <ele>226.92</ele>
        <time>2019-06-26T07:42:56Z</time>
      </trkpt>
      <trkpt lat="47.6368" lon="6.17784">
        <ele>226.93</ele>
        <time>2019-06-26T07:42:58Z</time>
      </trkpt>
      <trkpt lat="47.63685" lon="6.17789">
        <ele>226.94</ele>
        <time>2019-06-26T07:43:00Z</time>
      </trkpt>
      <trkpt lat="47.6369" lon="6.17794">
        <ele>226.95</ele>
        <time>2019-06-26T07:43:02Z</time>
      </trkpt>
      <trkpt lat="47.63695" lon="6.17799">
        <ele>226.96</ele>
        <time>2019-06-26T07:43:04Z</time>
      </trkpt>
      <trkpt lat="47.637" lon="6.17804">
        <ele>226.97</ele>
        <time>2019-06-26T07:43:06Z</time>
      </trkpt>
      <trkpt lat="47.63705" lon="6.1781">
        <ele>226.98</ele>
        <time>2019-06-26T07:43:08Z</time>
      </trkpt>
      <trkpt lat="47.63708" lon="6.17815">
        <ele>226.99</ele>
        <time>2019-06-26T07:43:10Z</time>
      </trkpt>
      <trkpt lat="47.63712" lon="6.17819">
        <ele>227</ele>
        <time>2019-06-26T07:43:12Z</time>
      </trkpt>
      <trkpt lat="47.63716" lon="6.17823">
        <ele>227.01</ele>
        <time>2019-06-26T07:43:14Z</time>
      </trkpt>
      <trkpt lat="47.6372" lon="6.17827">
        <ele>227.02</ele>
        <time>2019-06-26T07:43:16Z</time>
      </trkpt>
      <trkpt lat="47.63726" lon="6.17832">
        <ele>227.03</ele>
        <time>2019-06-26T07:43:19Z</time>
      </trkpt>
      <trkpt lat="47.63731" lon="6.17838">
        <ele>227.05</ele>
        <time>2019-06-26T07:43:22Z</time>
      </trkpt>
      <trkpt lat="47.63736" lon="6.17844">
        <ele>227.07</ele>
        <time>2019-06-26T07:43:25Z</time>
      </trkpt>
      <trkpt lat="47.63739" lon="6.17848">
        <ele>227.08</ele>
        <time>2019-06-26T07:43:27Z</time>
      </trkpt>
      <trkpt lat="47.63743" lon="6.17852">
        <ele>227.1</ele>
        <time>2019-06-26T07:43:29Z</time>
      </trkpt>
      <trkpt lat="47.63747" lon="6.17857">
        <ele>227.11</ele>
        <time>2019-06-26T07:43:31Z</time>
      </trkpt>
      <trkpt lat="47.63751" lon="6.17862">
        <ele>227.12</ele>
        <time>2019-06-26T07:43:33Z</time>
      </trkpt>
      <trkpt lat="47.63755" lon="6.17866">
        <ele>227.14</ele>
        <time>2019-06-26T07:43:35Z</time>
      </trkpt>
      <trkpt lat="47.63758" lon="6.17871">
        <ele>227.15</ele>
        <time>2019-06-26T07:43:37Z</time>
      </trkpt>
      <trkpt lat="47.63762" lon="6.17876">
        <ele>227.17</ele>
        <time>2019-06-26T07:43:39Z</time>
      </trkpt>
      <trkpt lat="47.63766" lon="6.1788">
        <ele>227.19</ele>
        <time>2019-06-26T07:43:41Z</time>
      </trkpt>
      <trkpt lat="47.6377" lon="6.17886">
        <ele>227.21</ele>
        <time>2019-06-26T07:43:43Z</time>
      </trkpt>
      <trkpt lat="47.63774" lon="6.1789">
        <ele>227.22</ele>
        <time>2019-06-26T07:43:45Z</time>
      </trkpt>
      <trkpt lat="47.63779" lon="6.17895">
        <ele>227.24</ele>
        <time>2019-06-26T07:43:47Z</time>
      </trkpt>
      <trkpt lat="47.63783" lon="6.179">
        <ele>227.26</ele>
        <time>2019-06-26T07:43:49Z</time>
      </trkpt>
      <trkpt lat="47.63787" lon="6.17905">
        <ele>227.29</ele>
        <time>2019-06-26T07:43:51Z</time>
      </trkpt>
      <trkpt lat="47.63791" lon="6.1791">
        <ele>227.31</ele>
        <time>2019-06-26T07:43:53Z</time>
      </trkpt>
      <trkpt lat="47.63795" lon="6.17915">
        <ele>227.33</ele>
        <time>2019-06-26T07:43:55Z</time>
      </trkpt>
      <trkpt lat="47.63799" lon="6.1792">
        <ele>227.35</ele>
        <time>2019-06-26T07:43:57Z</time>
      </trkpt>
      <trkpt lat="47.63802" lon="6.17925">
        <ele>227.37</ele>
        <time>2019-06-26T07:43:59Z</time>
      </trkpt>
      <trkpt lat="47.63806" lon="6.17931">
        <ele>227.4</ele>
        <time>2019-06-26T07:44:01Z</time>
      </trkpt>
      <trkpt lat="47.63812" lon="6.17938">
        <ele>227.57</ele>
        <time>2019-06-26T07:44:03Z</time>
      </trkpt>
      <trkpt lat="47.63817" lon="6.17946">
        <ele>227.72</ele>
        <time>2019-06-26T07:44:05Z</time>
      </trkpt>
      <trkpt lat="47.63823" lon="6.17955">
        <ele>227.83</ele>
        <time>2019-06-26T07:44:07Z</time>
      </trkpt>
      <trkpt lat="47.63826" lon="6.1796">
        <ele>227.87</ele>
        <time>2019-06-26T07:44:08Z</time>
      </trkpt>
      <trkpt lat="47.63829" lon="6.17965">
        <ele>227.9</ele>
        <time>2019-06-26T07:44:09Z</time>
      </trkpt>
      <trkpt lat="47.63836" lon="6.17975">
        <ele>227.92</ele>
        <time>2019-06-26T07:44:10Z</time>
      </trkpt>
      <trkpt lat="47.63839" lon="6.1798">
        <ele>227.94</ele>
        <time>2019-06-26T07:44:11Z</time>
      </trkpt>
      <trkpt lat="47.63845" lon="6.17988">
        <ele>227.95</ele>
        <time>2019-06-26T07:44:13Z</time>
      </trkpt>
      <trkpt lat="47.6385" lon="6.17995">
        <ele>227.96</ele>
        <time>2019-06-26T07:44:15Z</time>
      </trkpt>
      <trkpt lat="47.63855" lon="6.18002">
        <ele>227.96</ele>
        <time>2019-06-26T07:44:17Z</time>
      </trkpt>
      <trkpt lat="47.63859" lon="6.18011">
        <ele>227.96</ele>
        <time>2019-06-26T07:44:19Z</time>
      </trkpt>
      <trkpt lat="47.63864" lon="6.18019">
        <ele>227.96</ele>
        <time>2019-06-26T07:44:21Z</time>
      </trkpt>
      <trkpt lat="47.63869" lon="6.18027">
        <ele>227.95</ele>
        <time>2019-06-26T07:44:23Z</time>
      </trkpt>
      <trkpt lat="47.63876" lon="6.18036">
        <ele>227.94</ele>
        <time>2019-06-26T07:44:25Z</time>
      </trkpt>
      <trkpt lat="47.63882" lon="6.18045">
        <ele>227.93</ele>
        <time>2019-06-26T07:44:27Z</time>
      </trkpt>
      <trkpt lat="47.63887" lon="6.18054">
        <ele>227.92</ele>
        <time>2019-06-26T07:44:29Z</time>
      </trkpt>
      <trkpt lat="47.63894" lon="6.18062">
        <ele>227.91</ele>
        <time>2019-06-26T07:44:31Z</time>
      </trkpt>
      <trkpt lat="47.639" lon="6.1807">
        <ele>227.89</ele>
        <time>2019-06-26T07:44:33Z</time>
      </trkpt>
      <trkpt lat="47.63906" lon="6.18078">
        <ele>227.88</ele>
        <time>2019-06-26T07:44:35Z</time>
      </trkpt>
      <trkpt lat="47.63913" lon="6.18087">
        <ele>227.86</ele>
        <time>2019-06-26T07:44:37Z</time>
      </trkpt>
      <trkpt lat="47.63917" lon="6.18092">
        <ele>227.85</ele>
        <time>2019-06-26T07:44:38Z</time>
      </trkpt>
      <trkpt lat="47.63921" lon="6.18097">
        <ele>227.84</ele>
        <time>2019-06-26T07:44:39Z</time>
      </trkpt>
      <trkpt lat="47.63925" lon="6.18103">
        <ele>227.83</ele>
        <time>2019-06-26T07:44:40Z</time>
      </trkpt>
      <trkpt lat="47.63929" lon="6.18108">
        <ele>227.82</ele>
        <time>2019-06-26T07:44:41Z</time>
      </trkpt>
      <trkpt lat="47.63932" lon="6.18113">
        <ele>227.81</ele>
        <time>2019-06-26T07:44:42Z</time>
      </trkpt>
      <trkpt lat="47.63936" lon="6.18119">
        <ele>227.8</ele>
        <time>2019-06-26T07:44:43Z</time>
      </trkpt>
      <trkpt lat="47.6394" lon="6.18125">
        <ele>227.79</ele>
        <time>2019-06-26T07:44:44Z</time>
      </trkpt>
      <trkpt lat="47.63944" lon="6.1813">
        <ele>227.78</ele>
        <time>2019-06-26T07:44:45Z</time>
      </trkpt>
      <trkpt lat="47.63947" lon="6.18136">
        <ele>227.77</ele>
        <time>2019-06-26T07:44:46Z</time>
      </trkpt>
      <trkpt lat="47.63951" lon="6.18141">
        <ele>227.76</ele>
        <time>2019-06-26T07:44:47Z</time>
      </trkpt>
      <trkpt lat="47.63954" lon="6.18147">
        <ele>227.74</ele>
        <time>2019-06-26T07:44:48Z</time>
      </trkpt>
      <trkpt lat="47.63957" lon="6.18152">
        <ele>227.73</ele>
        <time>2019-06-26T07:44:49Z</time>
      </trkpt>
      <trkpt lat="47.6396" lon="6.18157">
        <ele>227.72</ele>
        <time>2019-06-26T07:44:50Z</time>
      </trkpt>
      <trkpt lat="47.63966" lon="6.18165">
        <ele>227.7</ele>
        <time>2019-06-26T07:44:52Z</time>
      </trkpt>
      <trkpt lat="47.63973" lon="6.18171">
        <ele>227.69</ele>
        <time>2019-06-26T07:44:54Z</time>
      </trkpt>
      <trkpt lat="47.6398" lon="6.18177">
        <ele>227.68</ele>
        <time>2019-06-26T07:44:56Z</time>
      </trkpt>
      <trkpt lat="47.63987" lon="6.18181">
        <ele>227.67</ele>
        <time>2019-06-26T07:44:58Z</time>
      </trkpt>
      <trkpt lat="47.63992" lon="6.18184">
        <ele>227.67</ele>
        <time>2019-06-26T07:44:59Z</time>
      </trkpt>
      <trkpt lat="47.63996" lon="6.18187">
        <ele>227.67</ele>
        <time>2019-06-26T07:45:00Z</time>
      </trkpt>
      <trkpt lat="47.64" lon="6.1819">
        <ele>227.66</ele>
        <time>2019-06-26T07:45:01Z</time>
      </trkpt>
      <trkpt lat="47.64005" lon="6.18193">
        <ele>227.66</ele>
        <time>2019-06-26T07:45:02Z</time>
      </trkpt>
      <trkpt lat="47.64009" lon="6.18196">
        <ele>227.66</ele>
        <time>2019-06-26T07:45:03Z</time>
      </trkpt>
      <trkpt lat="47.64016" lon="6.18202">
        <ele>227.66</ele>
        <time>2019-06-26T07:45:05Z</time>
      </trkpt>
      <trkpt lat="47.6402" lon="6.18205">
        <ele>227.66</ele>
        <time>2019-06-26T07:45:06Z</time>
      </trkpt>
      <trkpt lat="47.64028" lon="6.1821">
        <ele>227.67</ele>
        <time>2019-06-26T07:45:08Z</time>
      </trkpt>
      <trkpt lat="47.64035" lon="6.18215">
        <ele>227.67</ele>
        <time>2019-06-26T07:45:10Z</time>
      </trkpt>
      <trkpt lat="47.64042" lon="6.18219">
        <ele>227.68</ele>
        <time>2019-06-26T07:45:12Z</time>
      </trkpt>
      <trkpt lat="47.64049" lon="6.18224">
        <ele>227.69</ele>
        <time>2019-06-26T07:45:14Z</time>
      </trkpt>
      <trkpt lat="47.64056" lon="6.18229">
        <ele>227.7</ele>
        <time>2019-06-26T07:45:16Z</time>
      </trkpt>
      <trkpt lat="47.64064" lon="6.18228">
        <ele>227.7</ele>
        <time>2019-06-26T07:45:18Z</time>
      </trkpt>
      <trkpt lat="47.64068" lon="6.18224">
        <ele>227.71</ele>
        <time>2019-06-26T07:45:19Z</time>
      </trkpt>
      <trkpt lat="47.64072" lon="6.18218">
        <ele>227.72</ele>
        <time>2019-06-26T07:45:20Z</time>
      </trkpt>
      <trkpt lat="47.64075" lon="6.1821">
        <ele>227.73</ele>
        <time>2019-06-26T07:45:21Z</time>
      </trkpt>
      <trkpt lat="47.64077" lon="6.18202">
        <ele>227.74</ele>
        <time>2019-06-26T07:45:22Z</time>
      </trkpt>
      <trkpt lat="47.64079" lon="6.18195">
        <ele>227.75</ele>
        <time>2019-06-26T07:45:23Z</time>
      </trkpt>
      <trkpt lat="47.64085" lon="6.1819">
        <ele>227.75</ele>
        <time>2019-06-26T07:45:25Z</time>
      </trkpt>
      <trkpt lat="47.64092" lon="6.18196">
        <ele>227.76</ele>
        <time>2019-06-26T07:45:27Z</time>
      </trkpt>
      <trkpt lat="47.64099" lon="6.18204">
        <ele>227.78</ele>
        <time>2019-06-26T07:45:29Z</time>
      </trkpt>
      <trkpt lat="47.64105" lon="6.18212">
        <ele>227.79</ele>
        <time>2019-06-26T07:45:31Z</time>
      </trkpt>
      <trkpt lat="47.64112" lon="6.18219">
        <ele>227.81</ele>
        <time>2019-06-26T07:45:33Z</time>
      </trkpt>
      <trkpt lat="47.64119" lon="6.18224">
        <ele>227.82</ele>
        <time>2019-06-26T07:45:35Z</time>
      </trkpt>
      <trkpt lat="47.64126" lon="6.1823">
        <ele>227.84</ele>
        <time>2019-06-26T07:45:37Z</time>
      </trkpt>
      <trkpt lat="47.64133" lon="6.18236">
        <ele>227.86</ele>
        <time>2019-06-26T07:45:39Z</time>
      </trkpt>
      <trkpt lat="47.64137" lon="6.18239">
        <ele>227.87</ele>
        <time>2019-06-26T07:45:40Z</time>
      </trkpt>
      <trkpt lat="47.64141" lon="6.18243">
        <ele>227.88</ele>
        <time>2019-06-26T07:45:41Z</time>
      </trkpt>
      <trkpt lat="47.64146" lon="6.18246">
        <ele>227.89</ele>
        <time>2019-06-26T07:45:42Z</time>
      </trkpt>
      <trkpt lat="47.64154" lon="6.1825">
        <ele>227.9</ele>
        <time>2019-06-26T07:45:44Z</time>
      </trkpt>
      <trkpt lat="47.64158" lon="6.18253">
        <ele>227.91</ele>
        <time>2019-06-26T07:45:45Z</time>
      </trkpt>
      <trkpt lat="47.64167" lon="6.18256">
        <ele>227.92</ele>
        <time>2019-06-26T07:45:47Z</time>
      </trkpt>
      <trkpt lat="47.64175" lon="6.18258">
        <ele>227.93</ele>
        <time>2019-06-26T07:45:49Z</time>
      </trkpt>
      <trkpt lat="47.64182" lon="6.18259">
        <ele>227.94</ele>
        <time>2019-06-26T07:45:51Z</time>
      </trkpt>
      <trkpt lat="47.64189" lon="6.18262">
        <ele>227.94</ele>
        <time>2019-06-26T07:45:53Z</time>
      </trkpt>
      <trkpt lat="47.64194" lon="6.18263">
        <ele>227.94</ele>
        <time>2019-06-26T07:45:55Z</time>
      </trkpt>
      <trkpt lat="47.64199" lon="6.18264">
        <ele>227.95</ele>
        <time>2019-06-26T07:45:58Z</time>
      </trkpt>
      <trkpt lat="47.64204" lon="6.18265">
        <ele>227.95</ele>
        <time>2019-06-26T07:46:00Z</time>
      </trkpt>
      <trkpt lat="47.6421" lon="6.18264">
        <ele>227.96</ele>
        <time>2019-06-26T07:46:03Z</time>
      </trkpt>
      <trkpt lat="47.64215" lon="6.18263">
        <ele>227.98</ele>
        <time>2019-06-26T07:46:06Z</time>
      </trkpt>
      <trkpt lat="47.64221" lon="6.18265">
        <ele>227.99</ele>
        <time>2019-06-26T07:46:09Z</time>
      </trkpt>
      <trkpt lat="47.64226" lon="6.18271">
        <ele>228.01</ele>
        <time>2019-06-26T07:46:12Z</time>
      </trkpt>
      <trkpt lat="47.6423" lon="6.18276">
        <ele>228.02</ele>
        <time>2019-06-26T07:46:14Z</time>
      </trkpt>
      <trkpt lat="47.64235" lon="6.18279">
        <ele>228.06</ele>
        <time>2019-06-26T07:46:16Z</time>
      </trkpt>
      <trkpt lat="47.64242" lon="6.1828">
        <ele>228.12</ele>
        <time>2019-06-26T07:46:18Z</time>
      </trkpt>
      <trkpt lat="47.64251" lon="6.18281">
        <ele>228.15</ele>
        <time>2019-06-26T07:46:20Z</time>
      </trkpt>
      <trkpt lat="47.64258" lon="6.18282">
        <ele>228.15</ele>
        <time>2019-06-26T07:46:22Z</time>
      </trkpt>
      <trkpt lat="47.64264" lon="6.18285">
        <ele>228.15</ele>
        <time>2019-06-26T07:46:24Z</time>
      </trkpt>
      <trkpt lat="47.64269" lon="6.18288">
        <ele>228.15</ele>
        <time>2019-06-26T07:46:26Z</time>
      </trkpt>
      <trkpt lat="47.64273" lon="6.18292">
        <ele>228.15</ele>
        <time>2019-06-26T07:46:28Z</time>
      </trkpt>
      <trkpt lat="47.6428" lon="6.18297">
        <ele>228.13</ele>
        <time>2019-06-26T07:46:31Z</time>
      </trkpt>
      <trkpt lat="47.64287" lon="6.18303">
        <ele>228.12</ele>
        <time>2019-06-26T07:46:33Z</time>
      </trkpt>
      <trkpt lat="47.64292" lon="6.18308">
        <ele>228.11</ele>
        <time>2019-06-26T07:46:35Z</time>
      </trkpt>
      <trkpt lat="47.64296" lon="6.18314">
        <ele>228.11</ele>
        <time>2019-06-26T07:46:37Z</time>
      </trkpt>
      <trkpt lat="47.64299" lon="6.18319">
        <ele>228.11</ele>
        <time>2019-06-26T07:46:39Z</time>
      </trkpt>
      <trkpt lat="47.64303" lon="6.18324">
        <ele>228.11</ele>
        <time>2019-06-26T07:46:41Z</time>
      </trkpt>
      <trkpt lat="47.64306" lon="6.18328">
        <ele>228.1</ele>
        <time>2019-06-26T07:46:43Z</time>
      </trkpt>
      <trkpt lat="47.6431" lon="6.18333">
        <ele>228.1</ele>
        <time>2019-06-26T07:46:45Z</time>
      </trkpt>
      <trkpt lat="47.64314" lon="6.18337">
        <ele>228.1</ele>
        <time>2019-06-26T07:46:47Z</time>
      </trkpt>
      <trkpt lat="47.64317" lon="6.18342">
        <ele>228.1</ele>
        <time>2019-06-26T07:46:49Z</time>
      </trkpt>
      <trkpt lat="47.6432" lon="6.18346">
        <ele>228.1</ele>
        <time>2019-06-26T07:46:51Z</time>
      </trkpt>
      <trkpt lat="47.64324" lon="6.18351">
        <ele>228.1</ele>
        <time>2019-06-26T07:46:53Z</time>
      </trkpt>
      <trkpt lat="47.64329" lon="6.18358">
        <ele>228.1</ele>
        <time>2019-06-26T07:46:56Z</time>
      </trkpt>
      <trkpt lat="47.64333" lon="6.18362">
        <ele>228.1</ele>
        <time>2019-06-26T07:46:58Z</time>
      </trkpt>
      <trkpt lat="47.64337" lon="6.18367">
        <ele>228.1</ele>
        <time>2019-06-26T07:47:00Z</time>
      </trkpt>
      <trkpt lat="47.64341" lon="6.18371">
        <ele>228.1</ele>
        <time>2019-06-26T07:47:02Z</time>
      </trkpt>
      <trkpt lat="47.64346" lon="6.18376">
        <ele>228.1</ele>
        <time>2019-06-26T07:47:05Z</time>
      </trkpt>
      <trkpt lat="47.6435" lon="6.18381">
        <ele>228.1</ele>
        <time>2019-06-26T07:47:09Z</time>
      </trkpt>
      <trkpt lat="47.64355" lon="6.18385">
        <ele>228.1</ele>
        <time>2019-06-26T07:47:13Z</time>
      </trkpt>
      <trkpt lat="47.6436" lon="6.18383">
        <ele>228.1</ele>
        <time>2019-06-26T07:47:16Z</time>
      </trkpt>
      <trkpt lat="47.64365" lon="6.18379">
        <ele>228.11</ele>
        <time>2019-06-26T07:47:19Z</time>
      </trkpt>
      <trkpt lat="47.6437" lon="6.18374">
        <ele>228.11</ele>
        <time>2019-06-26T07:47:22Z</time>
      </trkpt>
      <trkpt lat="47.64375" lon="6.1837">
        <ele>228.12</ele>
        <time>2019-06-26T07:47:25Z</time>
      </trkpt>
      <trkpt lat="47.6438" lon="6.18365">
        <ele>228.13</ele>
        <time>2019-06-26T07:47:28Z</time>
      </trkpt>
      <trkpt lat="47.64385" lon="6.1836">
        <ele>228.14</ele>
        <time>2019-06-26T07:47:31Z</time>
      </trkpt>
      <trkpt lat="47.6439" lon="6.18355">
        <ele>228.15</ele>
        <time>2019-06-26T07:47:34Z</time>
      </trkpt>
      <trkpt lat="47.64395" lon="6.18351">
        <ele>228.17</ele>
        <time>2019-06-26T07:47:37Z</time>
      </trkpt>
      <trkpt lat="47.64398" lon="6.18346">
        <ele>228.19</ele>
        <time>2019-06-26T07:47:40Z</time>
      </trkpt>
      <trkpt lat="47.64404" lon="6.18341">
        <ele>228.21</ele>
        <time>2019-06-26T07:47:43Z</time>
      </trkpt>
      <trkpt lat="47.64408" lon="6.18336">
        <ele>228.23</ele>
        <time>2019-06-26T07:47:45Z</time>
      </trkpt>
      <trkpt lat="47.64412" lon="6.1833">
        <ele>228.26</ele>
        <time>2019-06-26T07:47:48Z</time>
      </trkpt>
      <trkpt lat="47.64415" lon="6.18326">
        <ele>228.28</ele>
        <time>2019-06-26T07:47:50Z</time>
      </trkpt>
      <trkpt lat="47.64419" lon="6.18322">
        <ele>228.3</ele>
        <time>2019-06-26T07:47:52Z</time>
      </trkpt>
      <trkpt lat="47.64423" lon="6.18318">
        <ele>228.32</ele>
        <time>2019-06-26T07:47:54Z</time>
      </trkpt>
      <trkpt lat="47.64428" lon="6.18314">
        <ele>228.35</ele>
        <time>2019-06-26T07:47:57Z</time>
      </trkpt>
      <trkpt lat="47.64432" lon="6.18308">
        <ele>228.4</ele>
        <time>2019-06-26T07:48:01Z</time>
      </trkpt>
      <trkpt lat="47.64437" lon="6.18306">
        <ele>228.52</ele>
        <time>2019-06-26T07:48:24Z</time>
      </trkpt>
      <trkpt lat="47.64439" lon="6.18313">
        <ele>228.58</ele>
        <time>2019-06-26T07:48:28Z</time>
      </trkpt>
      <trkpt lat="47.64439" lon="6.1832">
        <ele>228.64</ele>
        <time>2019-06-26T07:48:32Z</time>
      </trkpt>
      <trkpt lat="47.64437" lon="6.18326">
        <ele>228.7</ele>
        <time>2019-06-26T07:48:40Z</time>
      </trkpt>
      <trkpt lat="47.64436" lon="6.18333">
        <ele>228.87</ele>
        <time>2019-06-26T07:49:04Z</time>
      </trkpt>
    </trkseg>
  </trk>
</gpx>